# Wetter Temperatur Luftdruck Luftfeuchtigkeit Sichtweite Windgeschwindigkeit Windrichtung Zeit
1 Clouds 10 1020 93 10000 1.5 100 23:52 04.08.2020
2 Clouds 11 1020 93 10000 1.5 70 23:23 04.08.2020
3 Clouds 11 1020 93 10000 1 0 22:44 04.08.2020
4 Rain 11 1021 93 10000 1.5 290 22:26 04.08.2020
5 Clouds 11 1020 93 10000 1.5 250 20:56 04.08.2020
6 Rain 12 1019 87 10000 0.5 0 19:33 04.08.2020
7 Rain 13 1018 87 10000 3.1 60 18:33 04.08.2020
8 Rain 14 1018 87 10000 3.1 60 17:31 04.08.2020
9 Clouds 13 1017 82 10000 4.1 70 16:30 04.08.2020
10 Clouds 13 1017 77 10000 4.1 60 15:40 04.08.2020
11 Clouds 15 1017 82 10000 3.6 60 15:19 04.08.2020
12 Rain 14 1016 87 10000 1.5 280 13:47 04.08.2020
13 Rain 11 1015 87 10000 4.6 260 11:36 04.08.2020
14 Rain 11 1014 93 10000 3.6 250 10:57 04.08.2020
15 Rain 11 1014 93 10000 3.6 250 10:35 04.08.2020
16 Rain 10 1014 93 10000 3.6 270 09:56 04.08.2020
17 Rain 10 1012 93 10000 4.1 250 07:32 04.08.2020
18 Rain 10 1011 93 10000 4.1 250 06:54 04.08.2020
19 Rain 13 1009 93 10000 6.7 260 23:23 03.08.2020
20 Rain 13 1009 87 10000 7.2 250 22:26 03.08.2020
21 Rain 13 1008 87 10000 7.2 260 21:28 03.08.2020
22 Rain 13 1008 87 10000 7.2 260 20:59 03.08.2020
23 Rain 13 1008 93 10000 8.7 250 20:22 03.08.2020
24 Rain 14 1008 87 10000 5.7 250 19:41 03.08.2020
25 Rain 14 1008 93 10000 1.5 240 18:34 03.08.2020
26 Rain 14 1008 93 10000 2.1 310 17:57 03.08.2020
27 Rain 15 1009 93 10000 3.1 260 16:43 03.08.2020
28 Rain 16 1009 82 10000 2.1 30 15:47 03.08.2020
29 Clouds 17 1010 72 10000 2.1 70 14:31 03.08.2020
30 Clouds 17 1011 72 10000 1.5 0 13:38 03.08.2020
31 Clouds 17 1011 77 10000 1 0 12:39 03.08.2020
32 Rain 16 1012 82 10000 0.5 0 11:34 03.08.2020
33 Clouds 15 1012 93 10000 1.5 260 10:21 03.08.2020
34 Rain 15 1012 93 10000 2.1 290 09:26 03.08.2020
35 Rain 14 1013 93 10000 1 0 05:29 03.08.2020
36 Rain 15 1015 100 10000 3.6 280 02:23 03.08.2020
37 Rain 15 1015 93 10000 3.1 260 01:50 03.08.2020
38 Rain 15 1015 93 10000 3.6 240 00:45 03.08.2020
39 Rain 17 1015 100 8000 2.1 260 21:48 02.08.2020
40 Rain 17 1014 93 6000 1 0 21:22 02.08.2020
41 Rain 17 1014 93 10000 1.5 160 20:37 02.08.2020
42 Rain 17 1014 93 10000 0.5 0 19:59 02.08.2020
43 Rain 17 1014 93 10000 0.5 0 19:40 02.08.2020
44 Rain 19 1014 88 10000 2.6 60 18:51 02.08.2020
45 Clouds 20 1014 77 10000 3.6 100 18:28 02.08.2020
46 Rain 21 1014 64 10000 4.6 80 16:39 02.08.2020
47 Clouds 22 1014 61 10000 2.6 110 15:18 02.08.2020
48 Clouds 24 1014 64 10000 0.5 0 14:43 02.08.2020
49 Clouds 21 1015 73 10000 3.6 270 13:53 02.08.2020
50 Clouds 21 1015 73 10000 3.1 270 13:22 02.08.2020
51 Clouds 23 1016 64 10000 2.6 270 12:45 02.08.2020
52 Clouds 21 1016 77 10000 0.5 0 11:31 02.08.2020
53 Clouds 20 1016 82 10000 1 0 10:49 02.08.2020
54 Clouds 19 1017 82 10000 1.5 260 09:48 02.08.2020
55 Clouds 18 1017 88 10000 2.6 280 08:53 02.08.2020
56 Clouds 17 1017 88 10000 3.1 270 08:24 02.08.2020
57 Clouds 17 1017 93 10000 3.1 270 06:44 02.08.2020
58 Clouds 16 1018 93 10000 1 130 02:48 02.08.2020
59 Rain 16 1019 93 10000 2.6 280 00:59 02.08.2020
60 Clouds 16 1019 93 10000 2.1 280 00:18 02.08.2020
61 Rain 17 1020 93 10000 2.1 280 22:43 01.08.2020
62 Rain 19 1020 88 10000 1 0 20:30 01.08.2020
63 Rain 19 1018 77 10000 8.7 240 19:42 01.08.2020
64 Rain 21 1017 73 10000 13.9 270 19:22 01.08.2020
65 Thunderstorm 26 1014 44 10000 11.8 240 18:36 01.08.2020
66 Clouds 30 1013 31 10000 4.6 90 17:40 01.08.2020
67 Clouds 31 1014 31 10000 4.6 80 16:27 01.08.2020
68 Clouds 32 1014 30 10000 2.1 0 15:25 01.08.2020
69 Clouds 31 1014 29 10000 1 0 14:56 01.08.2020
70 Clouds 30 1015 38 10000 1 0 13:50 01.08.2020
71 Clouds 28 1017 48 10000 1 0 11:59 01.08.2020
72 Clouds 27 1017 51 10000 1.5 270 11:18 01.08.2020
73 Clouds 19 1018 73 10000 2.1 240 08:35 01.08.2020
74 Clear 16 1019 88 10000 0.5 0 05:51 01.08.2020
75 Clear 20 1019 82 10000 1 0 02:47 01.08.2020
76 Clouds 19 1019 77 10000 1.5 280 01:45 01.08.2020
77 Clouds 19 1019 77 10000 0.5 0 01:27 01.08.2020
78 Clouds 22 1018 64 10000 1.26 206 22:53 31.07.2020
79 Clouds 22 1018 64 10000 1.26 206 22:53 31.07.2020
80 Clouds 25 1017 54 10000 1.5 130 21:19 31.07.2020
81 Clouds 28 1017 51 10000 2.1 70 20:31 31.07.2020
82 Clouds 31 1016 40 10000 4.6 80 19:59 31.07.2020
83 Clouds 32 1016 38 10000 5.1 70 18:47 31.07.2020
84 Clouds 31 1016 36 10000 3.1 30 17:40 31.07.2020
85 Clouds 31 1016 33 10000 4.6 60 16:42 31.07.2020
86 Clouds 31 1017 36 10000 1.5 0 15:34 31.07.2020
87 Clouds 29 1018 37 10000 1.5 0 13:42 31.07.2020
88 Clouds 29 1018 40 10000 1.5 0 13:22 31.07.2020
89 Clouds 27 1019 45 10000 1 0 12:19 31.07.2020
90 Clouds 26 1019 51 10000 1 0 11:38 31.07.2020
91 Clouds 24 1020 57 10000 2.6 260 10:49 31.07.2020
92 Clouds 23 1020 53 10000 2.1 260 10:19 31.07.2020
93 Clouds 24 1020 57 10000 1 0 09:34 31.07.2020
94 Clouds 20 1021 73 10000 2.1 270 08:51 31.07.2020
95 Clouds 19 1021 82 10000 1 0 07:25 31.07.2020
96 Clouds 17 1020 82 10000 2.1 270 04:26 31.07.2020
97 Clouds 19 1020 77 10000 2.1 160 01:53 31.07.2020
98 Clouds 20 1020 78 10000 3.1 250 00:37 31.07.2020
99 Rain 21 1020 73 10000 0.5 0 23:48 30.07.2020
100 Clouds 24 1019 69 10000 1.5 310 22:47 30.07.2020
101 Clouds 24 1019 69 10000 0.5 0 22:21 30.07.2020
102 Clouds 24 1018 61 10000 0.5 0 21:19 30.07.2020
103 Clouds 27 1018 57 10000 1.5 30 20:55 30.07.2020
104 Clouds 28 1017 48 10000 4.6 90 19:41 30.07.2020
105 Clouds 29 1017 43 10000 5.1 70 18:54 30.07.2020
106 Clouds 29 1017 43 10000 5.1 80 17:40 30.07.2020
107 Clouds 30 1017 38 10000 3.6 90 16:56 30.07.2020
108 Clouds 32 1017 38 10000 3.6 90 16:35 30.07.2020
109 Clouds 30 1018 43 10000 3.1 70 15:55 30.07.2020
110 Clouds 30 1018 43 10000 3.1 70 15:36 30.07.2020
111 Clouds 29 1018 40 10000 3.6 100 14:56 30.07.2020
112 Clouds 29 1018 40 10000 3.6 100 14:37 30.07.2020
113 Clouds 28 1019 42 10000 3.1 100 14:19 30.07.2020
114 Clouds 26 1020 51 10000 2.1 100 13:20 30.07.2020
115 Clouds 26 1020 57 10000 1.5 0 12:59 30.07.2020
116 Clouds 25 1020 57 10000 0.5 0 12:30 30.07.2020
117 Clouds 25 1020 57 10000 0.5 0 12:30 30.07.2020
118 Clouds 23 1021 64 10000 1 0 10:49 30.07.2020
119 Clouds 22 1021 68 10000 1 0 10:24 30.07.2020
120 Clouds 19 1022 73 10000 1.5 270 09:22 30.07.2020
121 Clouds 19 1022 73 10000 1.5 270 09:22 30.07.2020
122 Clouds 18 1022 82 10000 1 0 08:56 30.07.2020
123 Clouds 16 1022 88 10000 1.5 280 08:24 30.07.2020
124 Clear 14 1021 93 10000 0.5 0 05:19 30.07.2020
125 Clouds 16 1021 88 10000 1.5 310 01:45 30.07.2020
126 Clouds 18 1020 77 10000 1 0 23:54 29.07.2020
127 Clouds 19 1020 73 10000 1.5 340 22:51 29.07.2020
128 Clouds 19 1020 73 10000 0.5 0 22:20 29.07.2020
129 Clouds 21 1019 69 10000 1.5 60 21:38 29.07.2020
130 Clouds 21 1019 60 10000 2.6 110 20:48 29.07.2020
131 Clouds 22 1019 57 10000 2.6 80 20:26 29.07.2020
132 Clouds 23 1019 57 10000 5.1 70 19:48 29.07.2020
133 Clouds 23 1018 54 10000 4.6 80 19:26 29.07.2020
134 Clouds 24 1018 54 10000 5.7 90 18:51 29.07.2020
135 Clouds 24 1018 54 10000 5.7 80 18:26 29.07.2020
136 Clouds 25 1018 51 10000 6.2 80 17:54 29.07.2020
137 Clouds 26 1018 51 10000 6.2 80 16:50 29.07.2020
138 Clouds 24 1018 54 10000 5.1 80 15:59 29.07.2020
139 Clouds 25 1018 54 10000 5.1 80 15:41 29.07.2020
140 Clouds 25 1018 58 10000 3.6 80 15:18 29.07.2020
141 Clouds 25 1019 57 10000 3.6 100 14:21 29.07.2020
142 Clouds 24 1019 61 10000 2.6 80 13:27 29.07.2020
143 Clouds 23 1019 64 10000 3.1 80 12:52 29.07.2020
144 Clouds 22 1020 64 10000 2.6 80 12:21 29.07.2020
145 Clouds 22 1020 69 10000 3.1 90 11:46 29.07.2020
146 Clouds 21 1020 73 10000 1.5 0 11:20 29.07.2020
147 Rain 19 1021 73 10000 1 0 10:35 29.07.2020
148 Clouds 18 1021 77 10000 2.1 60 09:35 29.07.2020
149 Clouds 17 1020 82 10000 3.1 70 08:24 29.07.2020
150 Clouds 17 1020 88 10000 3.6 60 07:30 29.07.2020
151 Clouds 18 1019 88 10000 1.5 100 05:46 29.07.2020
152 Clouds 19 1019 82 10000 1 0 02:38 29.07.2020
153 Clouds 19 1018 82 10000 0.5 0 00:37 29.07.2020
154 Clouds 20 1017 83 10000 3.1 130 22:48 28.07.2020
155 Clouds 19 1017 83 10000 3.1 50 22:20 28.07.2020
156 Rain 21 1017 69 10000 2.1 90 21:38 28.07.2020
157 Clouds 22 1015 64 10000 3.6 40 20:58 28.07.2020
158 Clouds 22 1015 64 10000 3.6 40 20:40 28.07.2020
159 Clouds 22 1015 61 10000 2.6 80 19:57 28.07.2020
160 Clouds 23 1015 61 10000 2.6 80 19:37 28.07.2020
161 Clouds 23 1015 54 10000 3.6 70 19:18 28.07.2020
162 Clouds 25 1014 42 10000 4.6 110 18:38 28.07.2020
163 Rain 28 1012 48 10000 4.1 40 17:56 28.07.2020
164 Rain 28 1012 27 10000 2.1 0 17:22 28.07.2020
165 Clouds 31 1011 23 10000 4.1 170 16:40 28.07.2020
166 Clouds 31 1012 28 10000 2.1 160 15:32 28.07.2020
167 Clouds 30 1013 40 10000 1.5 0 14:55 28.07.2020
168 Clouds 31 1013 40 10000 1.5 0 14:34 28.07.2020
169 Clouds 29 1014 42 10000 1 0 13:41 28.07.2020
170 Clouds 28 1015 45 10000 0.5 0 12:45 28.07.2020
171 Clouds 27 1015 51 10000 1 0 12:21 28.07.2020
172 Clouds 27 1016 47 10000 2.1 270 11:57 28.07.2020
173 Clouds 26 1016 54 10000 3.1 270 11:20 28.07.2020
174 Clouds 24 1017 60 10000 3.6 260 10:43 28.07.2020
175 Clouds 23 1017 69 10000 2.1 260 10:21 28.07.2020
176 Clouds 22 1017 68 10000 3.1 280 09:39 28.07.2020
177 Clouds 21 1018 68 10000 2.6 270 09:19 28.07.2020
178 Clouds 20 1018 77 10000 2.1 290 08:40 28.07.2020
179 Clouds 18 1018 82 10000 1.5 270 07:51 28.07.2020
180 Clouds 18 1018 82 10000 1.5 270 07:32 28.07.2020
181 Clear 17 1017 77 10000 2.6 280 02:21 28.07.2020
182 Clear 17 1017 77 10000 2.6 280 02:21 28.07.2020
183 Clear 17 1017 77 10000 1.5 230 01:51 28.07.2020
184 Clear 18 1017 72 10000 3.1 230 00:58 28.07.2020
185 Clear 18 1016 77 10000 1.5 210 23:55 27.07.2020
186 Clear 20 1016 68 10000 2.1 100 23:25 27.07.2020
187 Clear 21 1016 64 10000 1.5 70 22:44 27.07.2020
188 Clouds 21 1016 60 10000 2.6 110 22:21 27.07.2020
189 Clouds 24 1016 60 10000 2.6 110 21:46 27.07.2020
190 Clouds 24 1015 50 10000 3.1 70 20:56 27.07.2020
191 Clouds 24 1015 50 10000 3.1 70 20:56 27.07.2020
192 Clouds 25 1015 47 10000 4.1 70 20:36 27.07.2020
193 Clouds 25 1015 47 10000 4.1 70 20:18 27.07.2020
194 Clouds 28 1015 45 10000 3.6 90 19:35 27.07.2020
195 Clouds 28 1014 48 10000 4.1 60 18:48 27.07.2020
196 Clouds 28 1015 42 10000 3.6 70 17:52 27.07.2020
197 Clouds 28 1015 42 10000 3.1 80 17:33 27.07.2020
198 Clouds 27 1015 48 10000 3.6 60 16:59 27.07.2020
199 Clouds 28 1015 45 10000 3.1 90 16:23 27.07.2020
200 Clouds 27 1016 44 10000 3.6 70 15:50 27.07.2020
201 Clouds 27 1016 44 10000 3.6 70 15:31 27.07.2020
202 Clouds 26 1017 57 10000 3.6 60 14:54 27.07.2020
203 Clouds 26 1017 57 10000 3.6 60 14:35 27.07.2020
204 Clouds 25 1018 53 10000 2.1 140 13:49 27.07.2020
205 Clouds 25 1018 60 10000 1.5 0 13:28 27.07.2020
206 Clouds 24 1019 57 10000 0.5 0 12:50 27.07.2020
207 Clouds 22 1019 60 10000 1 0 12:31 27.07.2020
208 Clouds 21 1020 73 10000 0.5 0 11:25 27.07.2020
209 Clouds 20 1020 73 10000 0.5 0 10:59 27.07.2020
210 Clouds 17 1021 72 10000 0.5 0 09:58 27.07.2020
211 Clouds 16 1022 82 10000 0.5 0 09:38 27.07.2020
212 Clouds 16 1022 82 10000 0.5 0 09:18 27.07.2020
213 Clouds 15 1022 88 10000 1 0 08:45 27.07.2020
214 Clouds 13 1022 93 10000 0.5 0 07:57 27.07.2020
215 Clouds 14 1022 93 10000 0.5 0 07:37 27.07.2020
216 Clouds 13 1022 93 10000 0.5 0 06:36 27.07.2020
217 Clouds 14 1022 93 10000 0.5 0 02:56 27.07.2020
218 Clouds 15 1021 87 10000 1 0 02:18 27.07.2020
219 Rain 17 1020 82 10000 2.1 290 23:53 26.07.2020
220 Clouds 16 1020 82 10000 1.5 0 23:26 26.07.2020
221 Clouds 17 1019 72 10000 2.6 90 22:43 26.07.2020
222 Clouds 16 1019 72 10000 3.1 80 22:23 26.07.2020
223 Clouds 17 1018 77 10000 4.1 70 21:51 26.07.2020
224 Clouds 17 1018 72 10000 4.6 70 21:22 26.07.2020
225 Clouds 19 1017 60 10000 4.1 70 20:52 26.07.2020
226 Clouds 19 1017 60 10000 4.1 70 20:30 26.07.2020
227 Clouds 20 1016 56 10000 1.5 80 19:46 26.07.2020
228 Clouds 20 1016 60 10000 4.6 70 19:24 26.07.2020
229 Clouds 21 1016 57 10000 3.1 80 18:52 26.07.2020
230 Thunderstorm 22 1015 53 10000 3.6 100 18:32 26.07.2020
231 Clouds 21 1015 57 10000 2.1 70 17:58 26.07.2020
232 Clouds 24 1015 57 10000 2.1 70 17:39 26.07.2020
233 Clouds 24 1015 57 10000 2.6 80 17:18 26.07.2020
234 Clouds 22 1015 53 10000 1.5 0 16:41 26.07.2020
235 Clouds 22 1015 53 10000 2.6 60 16:19 26.07.2020
236 Clouds 22 1016 56 10000 3.6 120 15:42 26.07.2020
237 Clouds 22 1016 56 10000 4.6 80 15:23 26.07.2020
238 Clouds 21 1016 56 10000 4.1 80 14:38 26.07.2020
239 Clouds 21 1016 64 10000 3.1 100 13:55 26.07.2020
240 Clouds 20 1016 68 10000 3.1 100 13:26 26.07.2020
241 Clouds 19 1017 72 10000 3.6 80 12:45 26.07.2020
242 Clouds 19 1017 77 10000 3.1 60 12:23 26.07.2020
243 Clouds 16 1017 88 10000 2.6 70 11:52 26.07.2020
244 Clouds 16 1017 88 10000 2.6 70 11:32 26.07.2020
245 Rain 16 1017 87 10000 1 0 10:53 26.07.2020
246 Rain 15 1017 87 10000 1.5 170 10:27 26.07.2020
247 Rain 15 1017 87 10000 2.6 310 09:44 26.07.2020
248 Rain 15 1017 87 10000 2.1 260 09:22 26.07.2020
249 Clouds 15 1016 82 10000 1 0 08:26 26.07.2020
250 Clouds 14 1016 93 10000 1 0 06:58 26.07.2020
251 Clouds 12 1016 82 10000 0.5 0 03:54 26.07.2020
252 Clouds 13 1016 82 10000 1.5 250 01:57 26.07.2020
253 Clouds 14 1016 82 10000 2.6 260 00:35 26.07.2020
254 Clouds 16 1016 68 10000 1.5 70 23:43 25.07.2020
255 Clouds 15 1016 77 10000 1.5 130 22:58 25.07.2020
256 Clouds 16 1015 72 10000 0.5 0 22:22 25.07.2020
257 Clouds 17 1015 72 10000 0.5 0 21:31 25.07.2020
258 Clouds 18 1015 72 10000 2.6 30 20:59 25.07.2020
259 Clouds 18 1015 72 10000 2.6 30 20:39 25.07.2020
260 Clouds 21 1014 56 10000 3.6 50 19:53 25.07.2020
261 Clouds 22 1014 44 10000 2.6 70 19:24 25.07.2020
262 Clouds 22 1015 47 10000 2.1 50 18:47 25.07.2020
263 Clouds 22 1015 44 10000 2.6 120 18:28 25.07.2020
264 Clouds 23 1015 47 10000 2.1 120 17:57 25.07.2020
265 Clouds 23 1015 47 10000 2.1 120 17:36 25.07.2020
266 Clouds 23 1015 50 10000 2.6 70 17:18 25.07.2020
267 Clouds 22 1016 49 10000 2.1 70 16:47 25.07.2020
268 Clouds 22 1016 46 10000 2.1 80 16:24 25.07.2020
269 Clouds 22 1016 56 10000 2.6 60 15:42 25.07.2020
270 Clouds 21 1016 60 10000 2.6 60 15:21 25.07.2020
271 Clouds 21 1016 56 10000 1.5 50 14:37 25.07.2020
272 Clouds 21 1016 56 10000 1.5 50 14:18 25.07.2020
273 Clouds 22 1016 53 10000 1 0 13:38 25.07.2020
274 Clouds 20 1017 49 10000 1.5 90 13:19 25.07.2020
275 Clouds 19 1017 64 10000 2.1 60 12:51 25.07.2020
276 Clouds 19 1017 64 10000 2.6 80 12:18 25.07.2020
277 Clouds 19 1017 72 10000 3.1 60 11:42 25.07.2020
278 Clouds 19 1017 68 10000 1.5 50 11:20 25.07.2020
279 Clouds 17 1018 77 10000 0.5 0 10:39 25.07.2020
280 Clouds 17 1018 77 10000 0.5 0 10:20 25.07.2020
281 Clouds 16 1018 87 10000 2.1 270 09:46 25.07.2020
282 Clouds 15 1018 87 10000 2.1 270 09:23 25.07.2020
283 Clouds 14 1018 93 10000 1.5 260 08:53 25.07.2020
284 Clouds 14 1017 93 10000 1.5 250 08:23 25.07.2020
285 Clouds 13 1017 100 10000 1.5 270 07:46 25.07.2020
286 Clouds 13 1017 93 10000 1.5 270 07:23 25.07.2020
287 Clouds 14 1017 93 10000 0.5 0 05:28 25.07.2020
288 Drizzle 15 1017 93 10000 0.5 0 02:52 25.07.2020
289 Clouds 15 1017 87 10000 1 0 01:51 25.07.2020
290 Clouds 15 1017 87 10000 1 0 01:32 25.07.2020
291 Clouds 15 1017 93 10000 0.5 0 00:57 25.07.2020
292 Clouds 15 1017 93 10000 0.5 0 00:38 25.07.2020
293 Clouds 15 1017 87 10000 1 0 00:18 25.07.2020
294 Rain 15 1017 87 10000 2.6 300 23:43 24.07.2020
295 Clouds 15 1017 87 10000 2.1 290 23:24 24.07.2020
296 Clouds 15 1017 87 10000 1 0 22:44 24.07.2020
297 Clouds 14 1017 87 10000 3.1 260 22:23 24.07.2020
298 Clouds 14 1016 82 10000 1.5 280 21:51 24.07.2020
299 Clouds 14 1016 82 10000 1.5 280 21:51 24.07.2020
300 Clouds 15 1016 82 10000 1.5 280 21:33 24.07.2020
301 Rain 15 1016 82 10000 2.1 300 20:55 24.07.2020
302 Rain 15 1016 82 10000 2.1 300 20:36 24.07.2020
303 Rain 15 1016 87 10000 7.2 270 19:57 24.07.2020
304 Rain 15 1016 87 10000 7.2 270 19:38 24.07.2020
305 Rain 15 1015 82 10000 6.2 270 19:18 24.07.2020
306 Clouds 17 1014 55 10000 7.2 240 18:30 24.07.2020
307 Clouds 17 1014 55 10000 8.2 260 17:53 24.07.2020
308 Clouds 18 1014 52 10000 4.6 290 17:19 24.07.2020
309 Clouds 19 1014 56 10000 2.1 300 16:47 24.07.2020
310 Clouds 19 1014 53 10000 1 0 16:27 24.07.2020
311 Clouds 19 1014 53 10000 1 0 16:27 24.07.2020
312 Clouds 19 1014 53 10000 1 0 16:27 24.07.2020
313 Clouds 19 1014 64 10000 1.5 270 15:47 24.07.2020
314 Clouds 18 1014 60 10000 1 0 15:29 24.07.2020
315 Clouds 18 1015 64 10000 2.1 270 14:46 24.07.2020
316 Clouds 18 1015 72 10000 2.1 290 14:28 24.07.2020
317 Clouds 18 1015 72 10000 0.5 0 13:44 24.07.2020
318 Clouds 18 1015 72 10000 0.5 0 13:44 24.07.2020
319 Clouds 17 1016 77 10000 1 0 13:21 24.07.2020
320 Clouds 17 1016 77 10000 1.5 240 12:47 24.07.2020
321 Clouds 16 1016 82 10000 1 0 12:27 24.07.2020
322 Clouds 15 1016 87 10000 2.1 280 11:51 24.07.2020
323 Clouds 15 1016 87 10000 2.1 300 11:21 24.07.2020
324 Clouds 15 1017 87 10000 1 0 10:45 24.07.2020
325 Rain 15 1017 93 10000 2.1 270 10:19 24.07.2020
326 Rain 15 1016 93 10000 2.1 250 09:56 24.07.2020
327 Rain 15 1016 93 10000 2.1 250 09:37 24.07.2020
328 Rain 14 1016 93 10000 3.6 270 09:18 24.07.2020
329 Rain 14 1015 82 10000 3.1 0 08:44 24.07.2020
330 Rain 14 1016 93 10000 4.6 280 08:22 24.07.2020
331 Rain 13 1016 93 10000 2.6 250 07:38 24.07.2020
332 Thunderstorm 15 1015 93 10000 1 0 07:20 24.07.2020
333 Rain 13 1015 93 10000 1.5 280 06:23 24.07.2020
334 Clouds 13 1015 93 10000 0.5 0 05:33 24.07.2020
335 Clouds 14 1015 93 10000 1 280 04:49 24.07.2020
336 Clouds 14 1016 93 10000 2.1 270 03:27 24.07.2020
337 Clouds 14 1016 87 10000 1 0 01:27 24.07.2020
338 Clouds 16 1016 88 10000 2.6 300 00:29 24.07.2020
339 Clouds 16 1016 93 10000 2.1 290 23:48 23.07.2020
340 Clouds 16 1016 93 10000 2.1 230 23:28 23.07.2020
341 Clouds 16 1016 88 10000 1 0 22:58 23.07.2020
342 Clouds 17 1016 88 10000 1 0 22:37 23.07.2020
343 Rain 17 1017 88 10000 1 0 22:18 23.07.2020
344 Clouds 18 1016 93 10000 1.5 210 21:39 23.07.2020
345 Rain 17 1016 82 10000 1.5 360 21:21 23.07.2020
346 Rain 17 1016 82 10000 1.5 360 21:21 23.07.2020
347 Thunderstorm 18 1015 72 10000 1 0 20:56 23.07.2020
348 Thunderstorm 18 1015 72 10000 1 0 20:38 23.07.2020
349 Clouds 18 1015 77 10000 2.1 10 20:18 23.07.2020
350 Clouds 18 1015 77 10000 2.1 10 20:18 23.07.2020
351 Clouds 19 1015 77 10000 2.6 10 19:42 23.07.2020
352 Rain 20 1015 69 10000 2.6 350 19:23 23.07.2020
353 Rain 20 1015 69 10000 1.5 0 18:58 23.07.2020
354 Rain 20 1015 69 10000 1.5 0 18:40 23.07.2020
355 Clouds 20 1015 73 10000 2.1 20 18:20 23.07.2020
356 Rain 20 1015 78 10000 2.1 10 17:40 23.07.2020
357 Rain 19 1015 53 10000 8.7 10 17:22 23.07.2020
358 Clouds 23 1014 41 10000 2.6 0 16:44 23.07.2020
359 Clouds 25 1013 32 10000 1 0 16:24 23.07.2020
360 Clouds 25 1014 37 10000 1 0 15:48 23.07.2020
361 Clouds 25 1014 34 10000 1 0 15:25 23.07.2020
362 Clouds 25 1015 39 10000 1.5 0 14:55 23.07.2020
363 Clouds 25 1015 39 10000 1.5 0 14:36 23.07.2020
364 Clouds 25 1015 39 10000 1.5 120 14:18 23.07.2020
365 Clouds 25 1015 44 10000 2.1 100 13:45 23.07.2020
366 Clouds 24 1016 47 10000 2.1 0 13:26 23.07.2020
367 Clouds 23 1016 57 10000 1 0 12:47 23.07.2020
368 Clouds 22 1017 60 10000 1 0 12:24 23.07.2020
369 Clouds 21 1017 68 10000 1.5 0 11:59 23.07.2020
370 Clouds 21 1017 68 10000 1.5 0 11:36 23.07.2020
371 Clouds 20 1018 73 10000 1 0 11:18 23.07.2020
372 Clouds 20 1018 77 10000 1 0 10:44 23.07.2020
373 Clouds 20 1018 77 10000 1.5 0 10:24 23.07.2020
374 Clouds 19 1019 82 10000 1 0 09:51 23.07.2020
375 Clouds 17 1019 88 10000 1 0 09:30 23.07.2020
376 Clouds 16 1019 93 10000 1.5 270 08:59 23.07.2020
377 Clouds 15 1019 93 10000 1.5 270 08:40 23.07.2020
378 Clouds 15 1019 88 10000 0.5 0 08:20 23.07.2020
379 Clouds 14 1019 93 10000 0.5 0 07:37 23.07.2020
380 Clouds 15 1019 100 10000 1 0 06:52 23.07.2020
381 Clouds 14 1019 100 10000 1 0 06:33 23.07.2020
382 Clouds 15 1019 93 10000 0.5 0 05:46 23.07.2020
383 Clouds 15 1019 93 10000 1 0 04:58 23.07.2020
384 Clouds 15 1019 93 10000 2.1 250 04:33 23.07.2020
385 Rain 15 1019 100 10000 0.5 0 03:20 23.07.2020
386 Thunderstorm 15 1020 93 10000 2.6 270 00:37 23.07.2020
387 Clouds 15 1019 100 10000 2.6 290 23:59 22.07.2020
388 Clouds 15 1019 100 10000 2.6 290 23:40 22.07.2020
389 Clouds 16 1019 93 10000 1 0 23:21 22.07.2020
390 Rain 16 1020 93 10000 1 0 22:41 22.07.2020
391 Rain 16 1020 93 10000 1 0 22:23 22.07.2020
392 Rain 16 1019 82 10000 3.6 0 21:56 22.07.2020
393 Rain 16 1019 82 10000 3.6 0 21:56 22.07.2020
394 Rain 16 1019 82 10000 3.6 0 21:56 22.07.2020
395 Rain 17 1019 82 10000 3.6 0 21:38 22.07.2020
396 Rain 17 1019 88 10000 2.6 280 21:18 22.07.2020
397 Thunderstorm 19 1018 77 10000 1 0 20:56 22.07.2020
398 Thunderstorm 19 1018 77 10000 1 0 20:37 22.07.2020
399 Clouds 20 1018 73 10000 1.5 210 20:19 22.07.2020
400 Clouds 20 1018 83 10000 1 0 19:46 22.07.2020
401 Clouds 21 1018 64 10000 1.5 80 19:27 22.07.2020
402 Clouds 21 1018 69 10000 1.5 20 18:59 22.07.2020
403 Thunderstorm 22 1018 57 10000 3.1 70 18:34 22.07.2020
404 Clouds 23 1018 53 10000 4.6 70 17:57 22.07.2020
405 Clouds 23 1018 53 10000 4.6 70 17:39 22.07.2020
406 Clouds 24 1018 50 10000 4.1 80 17:20 22.07.2020
407 Clouds 22 1018 57 10000 4.6 80 16:55 22.07.2020
408 Clouds 22 1018 57 10000 4.6 80 16:37 22.07.2020
409 Clouds 22 1019 57 10000 3.6 100 16:19 22.07.2020
410 Clouds 22 1019 57 10000 4.6 90 15:42 22.07.2020
411 Clouds 23 1020 57 10000 3.1 90 15:24 22.07.2020
412 Clouds 22 1020 60 10000 2.1 60 14:55 22.07.2020
413 Clouds 24 1020 60 10000 2.1 60 14:37 22.07.2020
414 Clouds 22 1021 83 10000 2.6 350 14:18 22.07.2020
415 Thunderstorm 21 1021 73 10000 5.7 230 13:40 22.07.2020
416 Clouds 22 1020 60 10000 1.5 60 13:22 22.07.2020
417 Clouds 23 1021 60 10000 1.5 0 12:43 22.07.2020
418 Clouds 21 1021 64 10000 2.1 60 12:25 22.07.2020
419 Clouds 21 1022 68 10000 2.1 90 11:56 22.07.2020
420 Clouds 21 1022 68 10000 2.1 90 11:38 22.07.2020
421 Clouds 20 1022 68 10000 1.5 210 11:18 22.07.2020
422 Clouds 19 1022 77 10000 1 0 10:42 22.07.2020
423 Clouds 19 1023 82 10000 1 0 10:23 22.07.2020
424 Rain 18 1023 77 10000 2.1 100 09:52 22.07.2020
425 Rain 17 1023 88 10000 0.5 0 09:24 22.07.2020
426 Clouds 16 1023 88 10000 1 0 08:59 22.07.2020
427 Clouds 16 1023 93 10000 0.5 0 08:37 22.07.2020
428 Clouds 16 1023 93 10000 0.5 0 08:18 22.07.2020
429 Clouds 14 1022 93 10000 1 170 07:21 22.07.2020
430 Clouds 14 1022 93 10000 0.5 0 06:36 22.07.2020
431 Clouds 14 1022 93 10000 0.5 0 06:18 22.07.2020
432 Clouds 14 1022 93 10000 1 0 05:45 22.07.2020
433 Clouds 14 1022 93 10000 0.5 0 04:59 22.07.2020
434 Clouds 15 1022 93 10000 1 0 04:22 22.07.2020
435 Clouds 15 1023 100 10000 1.5 280 02:29 22.07.2020
436 Clouds 16 1023 93 10000 1.5 280 01:31 22.07.2020
437 Clouds 17 1023 93 10000 0.5 0 00:28 22.07.2020
438 Clouds 17 1023 93 10000 1 0 23:43 21.07.2020
439 Clouds 16 1022 93 10000 0.5 0 23:23 21.07.2020
440 Clouds 17 1022 93 10000 2.1 170 22:59 21.07.2020
441 Clouds 17 1022 93 10000 2.1 170 22:40 21.07.2020
442 Clouds 17 1022 88 10000 1.5 210 22:21 21.07.2020
443 Clouds 17 1022 88 10000 1.5 210 21:59 21.07.2020
444 Thunderstorm 18 1022 82 10000 2.1 220 21:40 21.07.2020
445 Thunderstorm 18 1021 73 10000 3.1 110 21:21 21.07.2020
446 Clouds 19 1020 64 10000 6.2 50 20:56 21.07.2020
447 Clouds 20 1020 64 10000 6.2 50 20:38 21.07.2020
448 Clouds 21 1020 60 10000 4.1 80 20:19 21.07.2020
449 Clouds 27 1018 44 10000 6.2 60 19:41 21.07.2020
450 Clouds 24 1018 44 10000 6.2 60 19:20 21.07.2020
451 Clouds 25 1018 35 10000 2.6 210 18:44 21.07.2020
452 Clouds 25 1019 33 10000 2.1 220 18:24 21.07.2020
453 Clouds 28 1019 34 10000 1.5 280 17:45 21.07.2020
454 Clouds 27 1019 39 10000 2.6 190 17:25 21.07.2020
455 Clouds 27 1019 39 10000 2.6 240 16:59 21.07.2020
456 Clouds 27 1019 39 10000 2.6 240 16:38 21.07.2020
457 Clouds 26 1019 35 10000 3.6 230 16:19 21.07.2020
458 Clouds 26 1020 34 10000 5.1 250 15:43 21.07.2020
459 Clouds 26 1020 34 10000 5.1 250 15:43 21.07.2020
460 Clouds 27 1020 36 10000 6.7 250 15:23 21.07.2020
461 Clouds 27 1020 36 10000 6.7 250 15:23 21.07.2020
462 Clouds 26 1020 44 10000 4.1 240 14:55 21.07.2020
463 Clouds 25 1020 44 10000 4.1 240 14:36 21.07.2020
464 Clouds 25 1020 41 10000 4.1 240 14:18 21.07.2020
465 Clouds 26 1021 42 10000 5.1 250 13:40 21.07.2020
466 Clouds 25 1021 50 10000 1.5 0 13:22 21.07.2020
467 Clouds 23 1021 60 10000 4.6 290 12:54 21.07.2020
468 Clouds 22 1021 56 10000 4.1 260 12:36 21.07.2020
469 Clouds 22 1021 56 10000 4.1 260 12:18 21.07.2020
470 Clouds 22 1021 53 10000 3.1 260 11:40 21.07.2020
471 Clouds 24 1021 56 10000 2.6 280 11:21 21.07.2020
472 Clouds 23 1021 60 10000 2.6 290 10:55 21.07.2020
473 Clouds 22 1021 68 10000 3.1 280 10:37 21.07.2020
474 Clouds 22 1021 68 10000 3.1 280 10:18 21.07.2020
475 Clouds 19 1021 68 10000 3.6 270 09:41 21.07.2020
476 Clouds 19 1021 68 10000 2.1 260 09:20 21.07.2020
477 Clouds 17 1021 68 10000 2.1 250 08:43 21.07.2020
478 Clouds 16 1022 82 10000 2.1 260 08:23 21.07.2020
479 Clouds 17 1022 87 10000 1 0 07:47 21.07.2020
480 Clouds 16 1022 87 10000 2.6 260 07:29 21.07.2020
481 Clouds 15 1022 87 10000 2.1 250 06:57 21.07.2020
482 Clouds 13 1021 87 10000 0.5 0 05:48 21.07.2020
483 Clouds 14 1021 82 10000 1 0 04:25 21.07.2020
484 Clouds 15 1021 82 10000 1 0 02:42 21.07.2020
485 Clouds 15 1021 82 10000 0.5 0 01:33 21.07.2020
486 Clear 16 1020 77 10000 1 0 00:43 21.07.2020
487 Clear 16 1020 77 10000 0.5 0 00:25 21.07.2020
488 Clear 17 1020 72 10000 0.5 0 23:57 20.07.2020
489 Clear 17 1020 72 10000 0.5 0 23:37 20.07.2020
490 Clear 17 1020 72 10000 0.5 0 23:19 20.07.2020
491 Clear 18 1019 68 10000 1 0 22:40 20.07.2020
492 Clear 22 1019 60 10000 1 0 22:21 20.07.2020
493 Clouds 23 1018 56 10000 1 0 21:58 20.07.2020
494 Clouds 23 1018 56 10000 1 0 21:40 20.07.2020
495 Clouds 21 1018 50 10000 2.6 50 21:20 20.07.2020
496 Clouds 23 1017 47 10000 4.6 70 20:44 20.07.2020
497 Clouds 24 1017 50 10000 5.1 50 20:21 20.07.2020
498 Clouds 26 1017 50 10000 3.6 40 19:55 20.07.2020
499 Clouds 26 1017 50 10000 3.6 40 19:37 20.07.2020
500 Clouds 27 1017 42 10000 5.1 60 19:18 20.07.2020
501 Clouds 27 1017 42 10000 5.1 60 19:18 20.07.2020
502 Clouds 27 1016 44 10000 5.1 40 18:41 20.07.2020
503 Clouds 26 1016 37 10000 4.1 50 18:21 20.07.2020
504 Clouds 28 1016 37 10000 4.1 50 17:45 20.07.2020
505 Clouds 28 1016 37 10000 4.1 50 17:45 20.07.2020
506 Clouds 28 1016 37 10000 4.1 50 17:45 20.07.2020
507 Clouds 28 1016 42 10000 4.6 40 17:24 20.07.2020
508 Clouds 29 1016 35 10000 3.1 50 16:51 20.07.2020
509 Clouds 27 1017 37 10000 3.6 110 16:25 20.07.2020
510 Clouds 27 1017 34 10000 3.1 60 15:58 20.07.2020
511 Clouds 27 1017 34 10000 3.1 60 15:40 20.07.2020
512 Clouds 27 1017 32 10000 3.1 60 15:18 20.07.2020
513 Clouds 26 1017 34 10000 1.5 80 14:42 20.07.2020
514 Clouds 25 1017 42 10000 2.1 40 14:19 20.07.2020
515 Clouds 25 1017 39 10000 2.1 90 13:58 20.07.2020
516 Clouds 25 1017 39 10000 2.1 90 13:39 20.07.2020
517 Clouds 25 1018 39 10000 1 0 13:20 20.07.2020
518 Clouds 24 1018 44 10000 1 0 12:56 20.07.2020
519 Clouds 24 1018 44 10000 1 0 12:38 20.07.2020
520 Clouds 23 1018 57 10000 1 0 12:19 20.07.2020
521 Clouds 23 1018 53 10000 0.5 0 11:46 20.07.2020
522 Clouds 22 1018 60 10000 1 0 11:24 20.07.2020
523 Clouds 21 1018 64 10000 1.5 270 10:59 20.07.2020
524 Clouds 21 1018 64 10000 1.5 270 10:41 20.07.2020
525 Clouds 20 1019 72 10000 2.6 280 10:21 20.07.2020
526 Clouds 18 1019 72 10000 3.6 270 09:43 20.07.2020
527 Clouds 18 1019 77 10000 2.1 260 09:23 20.07.2020
528 Clouds 16 1019 87 10000 2.6 280 08:50 20.07.2020
529 Clouds 15 1019 87 10000 1.5 250 08:27 20.07.2020
530 Clouds 13 1019 93 10000 1.5 260 07:57 20.07.2020
531 Clouds 14 1019 93 10000 1.5 260 07:37 20.07.2020
532 Clouds 14 1020 87 10000 1.07 228 07:18 20.07.2020
533 Clouds 13 1020 93 10000 1.5 240 06:38 20.07.2020
534 Clouds 12 1019 87 10000 1 0 03:58 20.07.2020
535 Clouds 13 1019 87 10000 1.5 260 02:20 20.07.2020
536 Clouds 15 1019 87 10000 0.5 0 00:47 20.07.2020
537 Clouds 15 1018 82 10000 0.5 0 23:55 19.07.2020
538 Clouds 16 1018 82 10000 0.5 0 23:36 19.07.2020
539 Clouds 16 1018 77 10000 1 0 23:18 19.07.2020
540 Clouds 19 1018 77 10000 0.5 0 22:42 19.07.2020
541 Clouds 20 1018 72 10000 0.5 0 22:20 19.07.2020
542 Clouds 20 1017 72 10000 0.5 0 21:55 19.07.2020
543 Clouds 19 1017 72 10000 1.5 330 21:37 19.07.2020
544 Clouds 19 1017 72 10000 1.5 330 21:19 19.07.2020
545 Clouds 21 1017 68 10000 1 0 20:44 19.07.2020
546 Clouds 20 1016 64 10000 1.5 20 20:25 19.07.2020
547 Clouds 21 1016 60 10000 1.5 50 19:59 19.07.2020
548 Clouds 23 1016 60 10000 1.5 50 19:39 19.07.2020
549 Clouds 24 1016 53 10000 3.1 80 19:20 19.07.2020
550 Clouds 23 1016 53 10000 3.6 70 18:57 19.07.2020
551 Clouds 23 1016 53 10000 3.6 70 18:39 19.07.2020
552 Clouds 23 1016 53 10000 3.6 70 18:39 19.07.2020
553 Clouds 23 1016 47 10000 3.1 80 18:20 19.07.2020
554 Clouds 23 1016 53 10000 3.1 60 17:42 19.07.2020
555 Clouds 23 1016 53 10000 3.1 40 17:22 19.07.2020
556 Clouds 23 1016 50 10000 3.1 70 16:42 19.07.2020
557 Clouds 22 1016 53 10000 4.1 70 16:22 19.07.2020
558 Clouds 23 1016 50 10000 2.1 60 15:59 19.07.2020
559 Clouds 22 1016 50 10000 2.1 60 15:41 19.07.2020
560 Clouds 22 1017 53 10000 2.1 50 15:23 19.07.2020
561 Clouds 22 1017 56 10000 2.1 60 14:45 19.07.2020
562 Clouds 22 1017 60 10000 2.6 50 14:26 19.07.2020
563 Clouds 21 1017 56 10000 3.6 90 13:45 19.07.2020
564 Clouds 21 1018 53 10000 3.6 70 13:23 19.07.2020
565 Clouds 21 1018 60 10000 3.6 80 12:58 19.07.2020
566 Clouds 21 1018 60 10000 3.6 80 12:40 19.07.2020
567 Clouds 19 1018 60 10000 2.1 0 12:21 19.07.2020
568 Clouds 19 1018 60 10000 2.6 80 11:41 19.07.2020
569 Clouds 18 1019 59 10000 1.5 0 11:22 19.07.2020
570 Clouds 17 1019 68 10000 1 0 10:44 19.07.2020
571 Clouds 16 1019 82 10000 1 0 10:24 19.07.2020
572 Clouds 15 1020 82 10000 0.5 0 09:59 19.07.2020
573 Clouds 15 1020 82 10000 0.5 0 09:41 19.07.2020
574 Clouds 14 1020 82 10000 1 0 09:20 19.07.2020
575 Clouds 13 1020 93 10000 0.5 0 08:41 19.07.2020
576 Clouds 14 1020 87 10000 1.5 270 08:23 19.07.2020
577 Clouds 12 1020 87 10000 1 270 07:39 19.07.2020
578 Clouds 12 1020 93 10000 0.83 234 07:21 19.07.2020
579 Clouds 12 1020 87 10000 0.5 0 06:42 19.07.2020
580 Clouds 13 1020 93 10000 0.5 0 06:18 19.07.2020
581 Clouds 13 1020 87 10000 0.5 0 05:50 19.07.2020
582 Clouds 13 1021 87 10000 1 0 03:36 19.07.2020
583 Clouds 12 1021 87 10000 1.5 80 02:40 19.07.2020
584 Clouds 12 1021 87 10000 1.5 90 02:21 19.07.2020
585 Clouds 13 1021 87 10000 2.6 60 01:43 19.07.2020
586 Clouds 13 1021 82 10000 0.5 0 00:48 19.07.2020
587 Clouds 13 1021 82 10000 0.5 0 00:21 19.07.2020
588 Clouds 14 1021 82 10000 0.5 0 23:45 18.07.2020
589 Clouds 14 1021 82 10000 1 0 23:25 18.07.2020
590 Clouds 14 1021 82 10000 1 0 22:46 18.07.2020
591 Clouds 14 1021 82 10000 1 0 22:46 18.07.2020
592 Clouds 15 1021 82 10000 1.5 80 22:22 18.07.2020
593 Clouds 15 1021 82 10000 1.5 80 21:59 18.07.2020
594 Clouds 14 1021 82 10000 1 0 21:41 18.07.2020
595 Clouds 13 1021 82 10000 2.6 70 21:22 18.07.2020
596 Clouds 14 1020 77 10000 1.5 90 20:42 18.07.2020
597 Clouds 14 1020 77 10000 1 0 20:22 18.07.2020
598 Clouds 14 1020 77 10000 1.5 110 19:59 18.07.2020
599 Clouds 14 1020 77 10000 1.5 110 19:40 18.07.2020
600 Clouds 14 1020 77 10000 2.1 140 19:19 18.07.2020
601 Clouds 14 1020 77 10000 3.6 80 18:42 18.07.2020
602 Clouds 15 1020 77 10000 3.6 80 18:20 18.07.2020
603 Clouds 15 1020 72 10000 3.1 100 17:46 18.07.2020
604 Clouds 15 1020 72 10000 3.6 100 17:21 18.07.2020
605 Clouds 16 1019 68 10000 2.1 110 16:58 18.07.2020
606 Clouds 16 1019 68 10000 2.1 110 16:36 18.07.2020
607 Clouds 16 1019 68 10000 2.1 110 16:36 18.07.2020
608 Clouds 17 1019 68 10000 3.1 70 16:18 18.07.2020
609 Clouds 17 1019 68 10000 4.6 60 15:44 18.07.2020
610 Clouds 17 1019 55 10000 2.1 50 15:25 18.07.2020
611 Clouds 17 1019 55 10000 1.5 50 14:55 18.07.2020
612 Clouds 17 1019 55 10000 1.5 50 14:37 18.07.2020
613 Clouds 17 1019 52 10000 2.1 30 14:18 18.07.2020
614 Clouds 18 1019 45 10000 2.6 80 13:42 18.07.2020
615 Clouds 17 1020 52 10000 3.1 70 13:22 18.07.2020
616 Clouds 17 1020 59 10000 3.1 100 12:55 18.07.2020
617 Clouds 17 1020 59 10000 3.1 100 12:37 18.07.2020
618 Clouds 17 1020 68 10000 3.6 60 12:18 18.07.2020
619 Clouds 17 1020 67 10000 1 0 11:44 18.07.2020
620 Clouds 15 1020 77 10000 1 0 11:20 18.07.2020
621 Clouds 15 1021 82 10000 1 0 10:56 18.07.2020
622 Clouds 15 1021 82 10000 1 0 10:37 18.07.2020
623 Clouds 13 1021 77 10000 1 0 10:19 18.07.2020
624 Clouds 13 1021 87 10000 2.6 60 09:42 18.07.2020
625 Clouds 12 1021 82 10000 1 0 09:24 18.07.2020
626 Clouds 12 1021 87 10000 2.6 50 08:52 18.07.2020
627 Clouds 11 1021 93 10000 1.5 250 08:32 18.07.2020
628 Clouds 10 1021 100 10000 1.5 300 07:57 18.07.2020
629 Clouds 10 1021 100 10000 1.5 300 07:39 18.07.2020
630 Clouds 11 1021 93 10000 0.5 0 07:20 18.07.2020
631 Clouds 11 1021 100 10000 1 320 06:44 18.07.2020
632 Clouds 12 1021 93 10000 1 360 04:29 18.07.2020
633 Clouds 12 1021 93 10000 1 360 04:29 18.07.2020
634 Clouds 12 1021 100 10000 1 0 03:38 18.07.2020
635 Rain 13 1022 93 8000 1 160 01:45 18.07.2020
636 Rain 13 1021 93 4000 1 0 01:18 18.07.2020
637 Drizzle 13 1021 93 6000 3.1 90 00:35 18.07.2020
638 Clouds 14 1021 87 10000 1.5 90 23:56 17.07.2020
639 Clouds 14 1021 87 10000 1.5 90 23:38 17.07.2020
640 Clouds 13 1021 93 10000 2.1 40 23:18 17.07.2020
641 Clouds 14 1021 87 10000 0.5 0 22:40 17.07.2020
642 Clouds 12 1021 87 10000 2.1 80 22:20 17.07.2020
643 Clouds 15 1020 82 10000 2.6 290 21:58 17.07.2020
644 Clouds 14 1020 82 10000 2.6 290 21:39 17.07.2020
645 Clouds 14 1020 87 10000 2.1 290 21:19 17.07.2020
646 Clouds 14 1020 87 10000 2.6 270 20:44 17.07.2020
647 Clouds 14 1020 82 10000 1 0 20:25 17.07.2020
648 Clouds 14 1020 82 10000 1.5 360 19:56 17.07.2020
649 Clouds 14 1020 82 10000 1.5 360 19:38 17.07.2020
650 Clouds 14 1020 82 10000 0.5 0 19:19 17.07.2020
651 Rain 14 1020 82 10000 1 0 18:45 17.07.2020
652 Clouds 15 1020 77 10000 2.1 60 18:24 17.07.2020
653 Clouds 15 1020 77 10000 1.5 360 17:45 17.07.2020
654 Clouds 16 1020 72 10000 2.1 350 17:25 17.07.2020
655 Rain 15 1019 72 10000 1.5 270 16:46 17.07.2020
656 Rain 15 1019 72 10000 2.09 5 16:23 17.07.2020
657 Rain 15 1019 77 10000 0.5 0 15:58 17.07.2020
658 Rain 15 1019 77 10000 0.5 0 15:37 17.07.2020
659 Clouds 15 1019 82 10000 2.6 80 15:18 17.07.2020
660 Clouds 16 1019 77 10000 4.1 50 14:40 17.07.2020
661 Rain 16 1019 77 10000 1 0 14:21 17.07.2020
662 Rain 16 1019 82 10000 1.5 100 13:55 17.07.2020
663 Rain 16 1019 82 10000 1.5 100 13:37 17.07.2020
664 Rain 16 1019 82 10000 2.6 60 13:18 17.07.2020
665 Rain 15 1019 82 10000 3.1 60 12:39 17.07.2020
666 Rain 16 1019 82 10000 3.1 60 12:21 17.07.2020
667 Clouds 16 1019 82 10000 2.1 90 11:54 17.07.2020
668 Clouds 16 1019 82 10000 2.1 90 11:36 17.07.2020
669 Clouds 15 1019 87 10000 1.5 90 11:18 17.07.2020
670 Rain 14 1019 93 10000 1.5 90 10:42 17.07.2020
671 Rain 14 1019 93 10000 2.6 70 10:23 17.07.2020
672 Rain 14 1019 93 10000 2.6 60 09:58 17.07.2020
673 Rain 13 1019 93 10000 2.1 60 09:40 17.07.2020
674 Rain 13 1019 93 10000 2.1 60 09:20 17.07.2020
675 Rain 12 1019 93 10000 2.1 80 08:48 17.07.2020
676 Rain 12 1019 93 10000 2.1 80 08:29 17.07.2020
677 Rain 12 1019 93 10000 2.6 70 07:57 17.07.2020
678 Rain 12 1018 93 10000 2.1 90 07:36 17.07.2020
679 Rain 12 1018 93 10000 2.1 90 07:18 17.07.2020
680 Rain 12 1018 93 10000 2.1 80 06:38 17.07.2020
681 Rain 12 1018 100 10000 1.5 60 05:40 17.07.2020
682 Rain 12 1018 93 10000 2.1 80 03:25 17.07.2020
683 Rain 12 1019 93 7000 1 0 02:21 17.07.2020
684 Rain 12 1019 93 10000 1.5 50 00:52 17.07.2020
685 Rain 12 1019 93 10000 0.5 0 00:24 17.07.2020
686 Rain 13 1019 93 10000 1 0 23:57 16.07.2020
687 Rain 13 1019 93 10000 1 0 23:37 16.07.2020
688 Rain 13 1019 93 10000 1.5 60 23:19 16.07.2020
689 Rain 14 1019 87 10000 2.6 100 22:45 16.07.2020
690 Rain 13 1018 93 10000 1.5 80 22:24 16.07.2020
691 Rain 14 1018 87 10000 1.5 180 21:57 16.07.2020
692 Rain 14 1018 87 10000 1.5 180 21:38 16.07.2020
693 Rain 14 1018 87 10000 1 0 21:20 16.07.2020
694 Rain 14 1018 87 10000 1 0 21:20 16.07.2020
695 Rain 14 1018 87 10000 1 0 21:20 16.07.2020
696 Rain 14 1018 87 10000 2.6 60 20:58 16.07.2020
697 Rain 14 1018 87 10000 2.6 60 20:39 16.07.2020
698 Rain 14 1018 93 10000 1.5 60 20:21 16.07.2020
699 Rain 15 1017 82 10000 1.5 70 19:48 16.07.2020
700 Rain 15 1017 88 10000 2.6 50 19:30 16.07.2020
701 Rain 15 1017 77 10000 2.6 70 18:57 16.07.2020
702 Rain 15 1017 77 10000 2.6 70 18:39 16.07.2020
703 Rain 16 1017 72 10000 4.1 60 18:20 16.07.2020
704 Clouds 17 1017 72 10000 4.1 60 17:40 16.07.2020
705 Clouds 18 1017 77 10000 4.1 60 17:19 16.07.2020
706 Clouds 20 1017 68 10000 1 0 16:58 16.07.2020
707 Clouds 20 1017 68 10000 1 0 16:39 16.07.2020
708 Clouds 16 1017 68 10000 0.5 0 16:21 16.07.2020
709 Clouds 16 1017 68 10000 1 0 15:47 16.07.2020
710 Clouds 17 1017 68 10000 2.1 50 15:27 16.07.2020
711 Clouds 16 1017 72 10000 1 0 14:58 16.07.2020
712 Clouds 17 1017 72 10000 1 0 14:38 16.07.2020
713 Clouds 19 1018 68 10000 2.6 60 14:19 16.07.2020
714 Clouds 17 1018 68 10000 1 0 13:58 16.07.2020
715 Clouds 17 1018 68 10000 1 0 13:37 16.07.2020
716 Clouds 16 1018 77 10000 1.5 0 13:18 16.07.2020
717 Clouds 16 1018 77 10000 1 0 12:42 16.07.2020
718 Clouds 15 1018 82 10000 1 0 12:21 16.07.2020
719 Clouds 15 1018 82 10000 1 0 11:56 16.07.2020
720 Clouds 15 1018 82 10000 1 0 11:56 16.07.2020
721 Clouds 15 1018 82 10000 1 0 11:36 16.07.2020
722 Clouds 15 1018 82 10000 0.5 0 11:18 16.07.2020
723 Clouds 14 1018 82 10000 1.5 90 10:42 16.07.2020
724 Rain 14 1018 87 10000 1.5 70 10:21 16.07.2020
725 Rain 14 1018 87 10000 1.5 60 09:57 16.07.2020
726 Rain 14 1019 87 10000 2.1 60 09:39 16.07.2020
727 Rain 14 1019 87 10000 2.1 60 09:39 16.07.2020
728 Rain 14 1019 87 10000 2.1 60 09:18 16.07.2020
729 Rain 13 1018 87 10000 1.5 70 08:41 16.07.2020
730 Clouds 14 1018 87 10000 2.1 70 08:23 16.07.2020
731 Rain 13 1018 100 10000 2.1 50 07:47 16.07.2020
732 Rain 13 1018 93 10000 1 0 07:25 16.07.2020
733 Rain 13 1018 93 10000 1.5 80 06:49 16.07.2020
734 Rain 13 1018 93 10000 2.1 60 06:20 16.07.2020
735 Clouds 13 1018 93 10000 2.1 70 05:55 16.07.2020
736 Clouds 13 1018 87 10000 1.5 110 05:26 16.07.2020
737 Clouds 13 1018 87 10000 1.5 90 04:18 16.07.2020
738 Clouds 13 1018 87 10000 1.5 90 04:18 16.07.2020
739 Rain 13 1018 87 9000 1 0 03:35 16.07.2020
740 Clouds 13 1018 93 10000 1 0 02:55 16.07.2020
741 Clouds 13 1018 93 10000 1 0 02:22 16.07.2020
742 Clouds 14 1018 93 10000 2.1 100 01:48 16.07.2020
743 Rain 13 1018 93 10000 0.5 0 00:59 16.07.2020
744 Clouds 13 1018 93 10000 0.5 0 00:37 16.07.2020
745 Rain 13 1018 93 10000 0.5 0 23:57 15.07.2020
746 Rain 13 1018 93 10000 0.5 0 23:39 15.07.2020
747 Rain 13 1018 93 10000 0.5 0 23:20 15.07.2020
748 Rain 13 1018 93 10000 0.5 0 23:20 15.07.2020
749 Clouds 13 1018 93 10000 1 0 22:57 15.07.2020
750 Clouds 13 1018 93 10000 1 0 22:38 15.07.2020
751 Clouds 13 1017 93 10000 1 0 22:18 15.07.2020
752 Clouds 13 1017 93 10000 2.6 60 21:55 15.07.2020
753 Rain 13 1017 93 10000 2.6 60 21:37 15.07.2020
754 Rain 13 1017 93 10000 2.6 80 21:18 15.07.2020
755 Rain 14 1017 87 10000 0.5 0 20:40 15.07.2020
756 Rain 15 1017 88 10000 3.6 270 20:22 15.07.2020
757 Clouds 15 1016 72 10000 1.5 70 19:59 15.07.2020
758 Clouds 15 1015 77 10000 2.1 80 19:40 15.07.2020
759 Clouds 16 1015 77 10000 2.1 80 19:21 15.07.2020
760 Rain 16 1015 72 10000 3.1 100 18:59 15.07.2020
761 Rain 16 1015 68 10000 2.1 80 18:39 15.07.2020
762 Rain 16 1015 68 10000 2.1 80 18:20 15.07.2020
763 Rain 16 1015 68 10000 5.1 70 17:56 15.07.2020
764 Rain 16 1015 68 10000 5.1 70 17:38 15.07.2020
765 Clouds 18 1014 64 10000 2.1 60 17:19 15.07.2020
766 Rain 17 1014 72 10000 7.2 250 16:43 15.07.2020
767 Clouds 18 1013 49 10000 2.1 170 16:24 15.07.2020
768 Clouds 19 1013 49 10000 2.1 170 15:59 15.07.2020
769 Clouds 19 1013 46 10000 1.5 70 15:40 15.07.2020
770 Clouds 19 1013 46 10000 2.6 70 15:22 15.07.2020
771 Clouds 22 1013 49 10000 2.6 70 14:55 15.07.2020
772 Clouds 22 1013 49 10000 2.6 70 14:37 15.07.2020
773 Clouds 20 1013 53 10000 3.1 140 14:18 15.07.2020
774 Rain 19 1014 53 10000 1 0 13:42 15.07.2020
775 Rain 19 1014 53 10000 1 0 13:42 15.07.2020
776 Rain 17 1014 63 10000 4.1 290 13:22 15.07.2020
777 Rain 18 1014 59 10000 7.2 260 12:56 15.07.2020
778 Clouds 18 1014 60 10000 6.2 260 12:37 15.07.2020
779 Clouds 18 1014 60 10000 6.2 260 12:19 15.07.2020
780 Clouds 17 1014 63 10000 6.2 270 11:44 15.07.2020
781 Clouds 18 1014 55 10000 5.1 270 11:21 15.07.2020
782 Clouds 17 1014 63 10000 4.6 270 10:56 15.07.2020
783 Clouds 17 1014 63 10000 4.6 270 10:38 15.07.2020
784 Clouds 17 1014 63 10000 3.1 270 10:20 15.07.2020
785 Clouds 16 1014 72 10000 4.1 280 09:43 15.07.2020
786 Clouds 15 1014 72 10000 3.6 250 09:25 15.07.2020
787 Clouds 15 1014 77 10000 2.6 280 08:50 15.07.2020
788 Clouds 14 1015 77 10000 2.1 270 08:28 15.07.2020
789 Clouds 13 1015 82 10000 2.6 270 07:55 15.07.2020
790 Clouds 13 1015 82 10000 1 260 07:33 15.07.2020
791 Clouds 13 1015 82 10000 1 0 06:55 15.07.2020
792 Clouds 12 1015 87 10000 1.5 270 06:34 15.07.2020
793 Clouds 12 1015 87 10000 1.5 270 05:51 15.07.2020
794 Clouds 13 1015 82 10000 1.5 260 04:42 15.07.2020
795 Clouds 13 1015 77 10000 1 0 04:22 15.07.2020
796 Clouds 13 1015 72 10000 1 0 02:29 15.07.2020
797 Clouds 14 1016 67 10000 3.1 70 01:50 15.07.2020
798 Clouds 14 1015 67 10000 1.5 80 00:59 15.07.2020
799 Clouds 14 1015 67 10000 1.5 80 00:41 15.07.2020
800 Clouds 14 1015 63 10000 3.1 80 00:22 15.07.2020
801 Clouds 15 1015 59 10000 2.6 0 23:41 14.07.2020
802 Clouds 15 1015 67 10000 2.1 80 23:21 14.07.2020
803 Clouds 18 1015 59 10000 1.5 0 22:39 14.07.2020
804 Clouds 18 1015 59 10000 1.5 0 22:39 14.07.2020
805 Clouds 17 1014 52 10000 2.1 100 22:19 14.07.2020
806 Clouds 21 1014 46 10000 2.6 10 21:55 14.07.2020
807 Clouds 21 1014 46 10000 2.6 10 21:37 14.07.2020
808 Clouds 21 1014 46 10000 2.6 10 21:37 14.07.2020
809 Clouds 19 1014 37 10000 2.1 80 21:19 14.07.2020
810 Clouds 20 1014 40 10000 3.1 20 20:42 14.07.2020
811 Clouds 23 1013 40 10000 3.1 0 20:22 14.07.2020
812 Clouds 23 1013 40 10000 5.1 60 19:59 14.07.2020
813 Clouds 23 1013 40 10000 5.1 60 19:39 14.07.2020
814 Clouds 23 1013 40 10000 3.6 70 19:20 14.07.2020
815 Clouds 22 1013 36 10000 3.6 70 18:45 14.07.2020
816 Clouds 24 1013 36 10000 4.6 50 18:21 14.07.2020
817 Clouds 25 1013 38 10000 4.1 20 17:58 14.07.2020
818 Clouds 25 1013 38 10000 4.1 20 17:40 14.07.2020
819 Clouds 23 1013 33 10000 2.1 360 17:21 14.07.2020
820 Clouds 23 1013 36 10000 3.1 30 16:56 14.07.2020
821 Clouds 23 1013 36 10000 3.1 30 16:37 14.07.2020
822 Clouds 23 1013 31 10000 2.6 60 16:18 14.07.2020
823 Clouds 23 1013 39 10000 1.5 0 15:44 14.07.2020
824 Clouds 23 1013 36 10000 2.1 0 15:23 14.07.2020
825 Clouds 23 1013 31 10000 3.1 60 14:57 14.07.2020
826 Clouds 23 1013 31 10000 3.1 60 14:39 14.07.2020
827 Clouds 23 1014 33 10000 2.6 60 14:18 14.07.2020
828 Clouds 23 1014 38 10000 2.1 150 13:41 14.07.2020
829 Clouds 22 1015 41 10000 1.5 0 13:23 14.07.2020
830 Clouds 21 1015 46 10000 1 0 12:56 14.07.2020
831 Clouds 21 1015 46 10000 1 0 12:36 14.07.2020
832 Clouds 21 1015 46 10000 1 0 12:18 14.07.2020
833 Clouds 20 1016 49 10000 0.5 0 11:42 14.07.2020
834 Clouds 19 1016 52 10000 0.5 0 11:20 14.07.2020
835 Clouds 18 1017 55 10000 1 0 10:54 14.07.2020
836 Clouds 18 1017 55 10000 1 0 10:36 14.07.2020
837 Clouds 18 1017 63 10000 1 0 10:18 14.07.2020
838 Clouds 17 1018 67 10000 1.5 250 09:39 14.07.2020
839 Clouds 14 1018 72 10000 1 0 09:20 14.07.2020
840 Clouds 13 1018 72 10000 1 0 08:44 14.07.2020
841 Clouds 12 1019 82 10000 1.5 270 08:23 14.07.2020
842 Clouds 13 1019 82 10000 1 250 07:58 14.07.2020
843 Clouds 12 1019 81 10000 1 260 07:38 14.07.2020
844 Clouds 12 1019 81 10000 1 260 07:18 14.07.2020
845 Clouds 11 1019 87 10000 1 270 06:41 14.07.2020
846 Clouds 9 1019 87 10000 1 270 06:21 14.07.2020
847 Clouds 9 1019 87 10000 1 270 05:33 14.07.2020
848 Clouds 10 1019 81 10000 1 270 04:37 14.07.2020
849 Clouds 10 1019 87 10000 0.9 228 03:36 14.07.2020
850 Clouds 11 1019 82 10000 0.5 0 02:49 14.07.2020
851 Clouds 11 1019 82 10000 0.5 0 02:24 14.07.2020
852 Clouds 12 1019 76 10000 0.5 0 01:36 14.07.2020
853 Clouds 13 1019 72 10000 1 0 00:52 14.07.2020
854 Clouds 13 1019 72 10000 0.5 0 00:33 14.07.2020
855 Clouds 14 1019 67 10000 0.5 0 23:59 13.07.2020
856 Clouds 14 1019 67 10000 0.5 0 23:37 13.07.2020
857 Clouds 15 1019 63 10000 1 0 23:18 13.07.2020
858 Clouds 18 1019 55 10000 0.5 0 22:41 13.07.2020
859 Clouds 19 1019 48 10000 0.5 0 22:21 13.07.2020
860 Clouds 20 1018 49 10000 2.1 80 21:57 13.07.2020
861 Clouds 20 1018 49 10000 2.1 80 21:39 13.07.2020
862 Clouds 18 1018 49 10000 3.1 60 21:20 13.07.2020
863 Clouds 21 1018 49 10000 3.6 50 20:58 13.07.2020
864 Clouds 21 1018 49 10000 3.6 50 20:39 13.07.2020
865 Clouds 20 1018 46 10000 6.2 60 20:21 13.07.2020
866 Clouds 20 1018 46 10000 6.2 80 19:45 13.07.2020
867 Clouds 20 1017 49 10000 6.7 70 19:26 13.07.2020
868 Clouds 21 1017 46 10000 7.2 70 18:59 13.07.2020
869 Clouds 21 1017 46 10000 7.2 70 18:40 13.07.2020
870 Clouds 22 1017 44 10000 6.2 70 18:22 13.07.2020
871 Clouds 22 1018 46 10000 7.2 60 17:57 13.07.2020
872 Clouds 22 1018 46 10000 7.2 60 17:39 13.07.2020
873 Clouds 22 1018 44 10000 6.7 60 17:20 13.07.2020
874 Clouds 23 1018 41 10000 6.2 70 16:55 13.07.2020
875 Clouds 23 1018 41 10000 6.2 70 16:37 13.07.2020
876 Clouds 23 1018 44 10000 4.1 80 16:18 13.07.2020
877 Clouds 23 1018 41 10000 4.6 100 15:56 13.07.2020
878 Clouds 23 1018 41 10000 4.6 100 15:37 13.07.2020
879 Clouds 23 1018 41 10000 3.1 100 15:18 13.07.2020
880 Clouds 22 1018 44 10000 3.1 60 14:56 13.07.2020
881 Clouds 22 1018 44 10000 3.1 60 14:36 13.07.2020
882 Clouds 22 1019 49 10000 2.6 60 14:18 13.07.2020
883 Clouds 21 1019 49 10000 3.1 100 13:42 13.07.2020
884 Clouds 21 1020 49 10000 3.1 100 13:21 13.07.2020
885 Clouds 20 1020 49 10000 3.1 110 12:54 13.07.2020
886 Clouds 19 1021 56 10000 3.1 90 12:36 13.07.2020
887 Clouds 19 1021 56 10000 3.1 90 12:18 13.07.2020
888 Clouds 18 1021 56 10000 3.1 120 11:40 13.07.2020
889 Clouds 18 1022 55 10000 1.5 0 11:22 13.07.2020
890 Clouds 18 1022 55 10000 1.5 0 11:22 13.07.2020
891 Clouds 16 1022 63 10000 1 0 10:43 13.07.2020
892 Clouds 17 1022 67 10000 0.5 0 10:21 13.07.2020
893 Clouds 17 1023 67 10000 0.5 0 09:56 13.07.2020
894 Clouds 16 1023 67 10000 0.5 0 09:38 13.07.2020
895 Clouds 14 1023 67 10000 0.5 0 09:18 13.07.2020
896 Clouds 13 1024 76 10000 0.5 0 08:46 13.07.2020
897 Clouds 11 1024 82 10000 1.5 250 08:26 13.07.2020
898 Clouds 12 1024 81 10000 0.53 222 07:22 13.07.2020
899 Clouds 10 1024 93 10000 1 260 06:53 13.07.2020
900 Clouds 10 1024 93 10000 1 260 06:35 13.07.2020
901 Clouds 8 1024 93 10000 1.5 260 05:33 13.07.2020
902 Clouds 10 1024 81 10000 0.5 0 02:46 13.07.2020
903 Clear 11 1024 76 10000 1 0 01:43 13.07.2020
904 Clear 11 1024 76 10000 1 0 01:21 13.07.2020
905 Clear 12 1024 71 10000 1 0 00:40 13.07.2020
906 Clouds 12 1024 76 10000 1 0 00:21 13.07.2020
907 Clouds 13 1024 72 10000 0.5 0 23:43 12.07.2020
908 Clouds 13 1024 72 10000 1 0 23:23 12.07.2020
909 Clouds 16 1024 72 10000 1 0 22:56 12.07.2020
910 Clouds 14 1024 72 10000 1 0 22:37 12.07.2020
911 Clouds 15 1024 63 10000 1 0 22:18 12.07.2020
912 Clouds 18 1024 59 10000 2.1 40 21:57 12.07.2020
913 Clouds 18 1024 59 10000 2.1 40 21:38 12.07.2020
914 Clouds 16 1024 52 10000 3.6 90 21:19 12.07.2020
915 Clouds 18 1023 49 10000 6.2 80 20:42 12.07.2020
916 Clouds 18 1023 49 10000 6.2 70 20:20 12.07.2020
917 Clouds 18 1023 46 10000 6.2 80 19:59 12.07.2020
918 Clouds 19 1023 46 10000 7.2 70 19:40 12.07.2020
919 Clouds 19 1023 46 10000 7.2 70 19:21 12.07.2020
920 Clouds 19 1023 49 10000 6.2 60 18:55 12.07.2020
921 Clouds 19 1023 49 10000 6.2 60 18:37 12.07.2020
922 Clouds 20 1022 46 10000 7.2 70 18:18 12.07.2020
923 Clouds 20 1023 46 10000 5.7 80 17:38 12.07.2020
924 Clouds 20 1022 43 10000 5.7 80 17:20 12.07.2020
925 Clouds 21 1023 40 10000 4.6 90 16:48 12.07.2020
926 Clouds 21 1023 40 10000 4.6 90 16:23 12.07.2020
927 Clouds 21 1023 38 10000 3.6 80 15:51 12.07.2020
928 Clouds 21 1023 37 10000 2.6 0 15:31 12.07.2020
929 Clouds 21 1023 37 10000 2.6 0 14:59 12.07.2020
930 Clouds 21 1023 40 10000 2.1 0 14:40 12.07.2020
931 Clouds 21 1023 43 10000 3.1 70 14:22 12.07.2020
932 Clouds 20 1024 49 10000 3.1 70 13:40 12.07.2020
933 Clouds 20 1024 60 10000 2.1 0 13:21 12.07.2020
934 Clouds 19 1024 56 10000 2.1 0 12:57 12.07.2020
935 Clouds 19 1024 56 10000 2.1 0 12:39 12.07.2020
936 Clouds 18 1024 60 10000 1.5 0 12:19 12.07.2020
937 Clouds 17 1025 59 10000 1.5 0 11:45 12.07.2020
938 Clouds 17 1025 63 10000 1.5 0 11:21 12.07.2020
939 Clouds 16 1025 67 10000 1 0 10:57 12.07.2020
940 Clouds 16 1025 67 10000 1 0 10:39 12.07.2020
941 Clouds 15 1025 72 10000 0.5 0 10:19 12.07.2020
942 Clouds 15 1025 72 10000 0.5 0 10:19 12.07.2020
943 Clouds 14 1026 77 10000 1.5 270 09:43 12.07.2020
944 Clouds 13 1026 82 10000 2.1 260 09:21 12.07.2020
945 Clouds 12 1026 87 10000 2.1 270 08:55 12.07.2020
946 Clouds 12 1026 87 10000 2.1 270 08:37 12.07.2020
947 Clouds 12 1026 93 10000 2.1 270 08:18 12.07.2020
948 Clouds 12 1026 93 10000 2.1 270 08:18 12.07.2020
949 Clouds 12 1026 87 10000 2.1 270 07:46 12.07.2020
950 Clouds 11 1026 93 10000 2.6 270 07:27 12.07.2020
951 Clouds 12 1025 87 10000 2.6 270 06:53 12.07.2020
952 Clouds 12 1025 93 10000 2.1 280 06:22 12.07.2020
953 Clouds 13 1025 87 10000 2.1 250 05:59 12.07.2020
954 Clouds 13 1025 93 10000 2.6 270 04:57 12.07.2020
955 Clouds 13 1025 93 10000 1.5 260 04:28 12.07.2020
956 Clouds 13 1025 93 10000 0.5 0 03:45 12.07.2020
957 Clouds 12 1025 93 10000 2.6 270 03:24 12.07.2020
958 Clouds 11 1025 93 10000 0.31 204 01:54 12.07.2020
959 Clouds 11 1025 93 10000 1.5 280 01:18 12.07.2020
960 Clouds 13 1025 93 10000 0.5 0 00:39 12.07.2020
961 Clouds 12 1025 93 10000 1 0 00:20 12.07.2020
962 Clouds 13 1025 93 10000 1 140 23:40 11.07.2020
963 Clouds 13 1025 87 10000 0.5 0 23:20 11.07.2020
964 Rain 14 1025 93 10000 0.5 0 22:57 11.07.2020
965 Rain 12 1025 93 10000 0.5 0 22:37 11.07.2020
966 Rain 12 1025 93 10000 1 0 22:19 11.07.2020
967 Clouds 14 1024 93 10000 1 0 21:43 11.07.2020
968 Rain 13 1024 87 10000 1 320 21:24 11.07.2020
969 Clouds 13 1024 87 10000 0.5 0 20:59 11.07.2020
970 Clouds 13 1024 87 10000 0.5 0 20:41 11.07.2020
971 Rain 13 1024 82 10000 1 0 20:21 11.07.2020
972 Rain 14 1023 77 10000 0.5 0 19:59 11.07.2020
973 Rain 14 1023 77 10000 0.5 0 19:40 11.07.2020
974 Rain 14 1023 82 10000 1 0 19:22 11.07.2020
975 Rain 14 1023 82 10000 2.1 310 18:57 11.07.2020
976 Rain 14 1023 82 10000 2.1 310 18:39 11.07.2020
977 Clouds 14 1023 87 10000 2.1 250 18:19 11.07.2020
978 Rain 14 1023 82 10000 1.5 230 17:55 11.07.2020
979 Rain 14 1023 82 10000 1.5 230 17:37 11.07.2020
980 Rain 14 1023 82 10000 1 0 17:19 11.07.2020
981 Rain 15 1022 82 10000 3.1 70 16:43 11.07.2020
982 Rain 16 1022 77 10000 1.5 360 16:24 11.07.2020
983 Clouds 17 1021 77 10000 1 0 15:58 11.07.2020
984 Clouds 17 1021 77 10000 1 0 15:40 11.07.2020
985 Rain 16 1022 77 10000 1.5 10 15:20 11.07.2020
986 Rain 17 1021 72 10000 2.6 70 14:57 11.07.2020
987 Rain 16 1021 72 10000 2.6 70 14:37 11.07.2020
988 Clouds 16 1021 72 10000 2.6 60 14:19 11.07.2020
989 Rain 16 1021 77 10000 2.1 120 13:42 11.07.2020
990 Rain 16 1021 77 10000 1.5 100 13:22 11.07.2020
991 Clouds 16 1021 82 10000 2.1 130 12:56 11.07.2020
992 Clouds 16 1021 82 10000 2.1 130 12:56 11.07.2020
993 Clouds 17 1021 82 10000 2.1 110 12:37 11.07.2020
994 Clouds 17 1021 82 10000 2.1 110 12:19 11.07.2020
995 Rain 14 1021 82 10000 0.5 0 11:41 11.07.2020
996 Rain 14 1021 82 10000 1 270 11:21 11.07.2020
997 Rain 14 1021 82 10000 0.5 0 10:57 11.07.2020
998 Rain 16 1021 82 10000 0.5 0 10:39 11.07.2020
999 Rain 14 1021 87 10000 1.5 190 10:21 11.07.2020
1000 Rain 14 1021 82 10000 0.5 0 09:43 11.07.2020
1001 Rain 14 1020 93 10000 1 0 09:20 11.07.2020
1002 Rain 14 1020 93 10000 2.1 90 08:47 11.07.2020
1003 Rain 14 1019 87 8000 2.6 90 08:29 11.07.2020
1004 Rain 14 1019 87 7000 1.5 130 07:56 11.07.2020
1005 Rain 15 1018 93 10000 1.5 100 07:37 11.07.2020
1006 Clouds 15 1018 93 10000 1.5 100 07:18 11.07.2020
1007 Rain 14 1017 100 10000 0.5 0 06:28 11.07.2020
1008 Rain 15 1017 93 10000 1 0 05:59 11.07.2020
1009 Rain 15 1017 93 7000 0.5 0 05:20 11.07.2020
1010 Clouds 15 1018 93 10000 0.5 0 04:50 11.07.2020
1011 Clouds 15 1018 93 10000 1.5 230 04:20 11.07.2020
1012 Clouds 15 1018 93 10000 1.5 230 04:20 11.07.2020
1013 Clouds 15 1018 93 10000 1 280 02:55 11.07.2020
1014 Clouds 16 1018 93 10000 2.1 270 02:27 11.07.2020
1015 Clouds 15 1018 93 10000 2.6 70 01:25 11.07.2020
1016 Clouds 15 1018 93 10000 1.5 110 00:57 11.07.2020
1017 Clouds 15 1018 93 10000 1.5 110 00:38 11.07.2020
1018 Clouds 16 1019 93 10000 1.5 340 00:18 11.07.2020
1019 Clouds 16 1019 93 10000 1 0 23:45 10.07.2020
1020 Clouds 16 1018 93 10000 1.5 280 23:26 10.07.2020
1021 Clouds 16 1017 93 10000 0.5 0 22:57 10.07.2020
1022 Clouds 16 1017 93 10000 0.5 0 22:38 10.07.2020
1023 Rain 16 1017 93 10000 1.5 0 22:19 10.07.2020
1024 Rain 16 1017 93 10000 2.6 200 21:40 10.07.2020
1025 Rain 17 1018 93 10000 2.1 150 21:20 10.07.2020
1026 Rain 17 1018 93 10000 2.1 290 20:57 10.07.2020
1027 Rain 16 1018 93 10000 2.1 290 20:38 10.07.2020
1028 Rain 16 1018 93 10000 2.1 290 20:38 10.07.2020
1029 Rain 18 1017 72 10000 8.2 240 20:19 10.07.2020
1030 Clouds 19 1017 60 10000 2.1 0 19:56 10.07.2020
1031 Clouds 19 1017 60 10000 2.1 0 19:56 10.07.2020
1032 Clouds 20 1017 60 10000 2.1 0 19:38 10.07.2020
1033 Clouds 19 1015 73 10000 2.1 0 19:18 10.07.2020
1034 Clouds 20 1015 73 10000 3.1 250 18:41 10.07.2020
1035 Rain 22 1014 73 10000 2.1 0 18:19 10.07.2020
1036 Rain 22 1014 77 10000 4.1 60 17:56 10.07.2020
1037 Rain 22 1014 77 10000 4.1 60 17:38 10.07.2020
1038 Clouds 22 1014 88 10000 2.6 0 17:19 10.07.2020
1039 Rain 23 1014 77 10000 2.1 0 16:42 10.07.2020
1040 Thunderstorm 25 1013 69 10000 4.1 280 16:20 10.07.2020
1041 Clouds 28 1011 40 10000 3.6 60 15:45 10.07.2020
1042 Clouds 29 1011 38 10000 2.6 100 15:23 10.07.2020
1043 Clouds 28 1012 38 10000 1 0 14:55 10.07.2020
1044 Clouds 29 1012 38 10000 1 0 14:37 10.07.2020
1045 Clouds 28 1012 42 10000 0.5 0 14:19 10.07.2020
1046 Clouds 28 1013 42 10000 1.5 0 13:56 10.07.2020
1047 Clouds 28 1013 42 10000 1.5 0 13:37 10.07.2020
1048 Clouds 28 1013 42 10000 1.5 0 13:37 10.07.2020
1049 Clouds 28 1013 48 10000 1 0 13:19 10.07.2020
1050 Clouds 28 1013 45 10000 1 0 12:43 10.07.2020
1051 Clouds 26 1014 44 10000 1.5 270 12:24 10.07.2020
1052 Clouds 26 1015 44 10000 1 0 11:59 10.07.2020
1053 Clouds 26 1015 44 10000 1 0 11:38 10.07.2020
1054 Clouds 24 1016 53 10000 2.6 270 11:19 10.07.2020
1055 Clouds 24 1016 53 10000 2.6 270 10:55 10.07.2020
1056 Clouds 23 1016 56 10000 2.6 270 10:36 10.07.2020
1057 Clouds 23 1016 56 10000 2.6 270 10:18 10.07.2020
1058 Clouds 20 1017 60 10000 2.6 270 09:38 10.07.2020
1059 Clouds 19 1017 60 10000 2.6 270 09:19 10.07.2020
1060 Clouds 19 1017 68 10000 2.1 280 08:57 10.07.2020
1061 Clouds 19 1017 68 10000 2.1 280 08:38 10.07.2020
1062 Clear 18 1017 68 10000 1.5 260 08:20 10.07.2020
1063 Clear 18 1018 77 10000 1.5 280 07:42 10.07.2020
1064 Clear 17 1018 82 10000 0.5 0 07:22 10.07.2020
1065 Clear 16 1018 87 10000 1.5 210 06:49 10.07.2020
1066 Clear 16 1017 82 10000 1 0 05:58 10.07.2020
1067 Clear 13 1017 87 10000 1.5 270 04:39 10.07.2020
1068 Clear 14 1017 82 10000 1 270 03:37 10.07.2020
1069 Clear 15 1018 77 10000 1 0 02:52 10.07.2020
1070 Clouds 15 1017 77 10000 0.5 0 01:49 10.07.2020
1071 Clouds 16 1017 77 10000 0.5 0 00:48 10.07.2020
1072 Clouds 17 1017 72 10000 0.5 0 00:20 10.07.2020
1073 Clouds 17 1017 72 9000 0.5 0 23:46 09.07.2020
1074 Clouds 18 1017 72 10000 1 0 23:22 09.07.2020
1075 Clouds 19 1017 72 10000 1 270 22:58 09.07.2020
1076 Clouds 20 1017 72 10000 1 270 22:40 09.07.2020
1077 Clouds 20 1016 64 10000 0.5 0 22:21 09.07.2020
1078 Clouds 21 1016 56 10000 0.5 0 21:56 09.07.2020
1079 Clouds 23 1016 56 10000 0.5 0 21:38 09.07.2020
1080 Clouds 23 1016 56 10000 0.5 0 21:38 09.07.2020
1081 Clouds 22 1015 57 10000 0.5 0 21:19 09.07.2020
1082 Clouds 23 1015 57 10000 2.1 10 20:45 09.07.2020
1083 Clouds 25 1015 50 10000 2.6 60 20:25 09.07.2020
1084 Clouds 27 1015 45 10000 3.6 70 19:58 09.07.2020
1085 Clouds 28 1015 45 10000 3.6 70 19:40 09.07.2020
1086 Clouds 27 1015 39 10000 4.1 80 19:21 09.07.2020
1087 Clouds 28 1014 39 10000 4.6 90 18:42 09.07.2020
1088 Clouds 27 1014 39 10000 4.6 90 18:22 09.07.2020
1089 Clouds 27 1014 39 10000 4.6 90 18:22 09.07.2020
1090 Clouds 27 1015 39 10000 5.7 80 17:56 09.07.2020
1091 Clouds 27 1015 39 10000 5.7 80 17:37 09.07.2020
1092 Clouds 27 1015 37 10000 5.1 90 17:18 09.07.2020
1093 Clouds 27 1015 35 10000 4.1 70 16:55 09.07.2020
1094 Clouds 27 1015 35 10000 4.1 70 16:37 09.07.2020
1095 Clouds 27 1015 34 10000 4.1 100 16:19 09.07.2020
1096 Clouds 27 1016 34 10000 3.6 60 15:54 09.07.2020
1097 Clouds 27 1016 34 10000 3.6 60 15:36 09.07.2020
1098 Clouds 28 1016 32 10000 3.1 60 15:18 09.07.2020
1099 Clouds 28 1016 34 10000 3.1 90 14:54 09.07.2020
1100 Clouds 28 1016 34 10000 3.1 90 14:36 09.07.2020
1101 Clouds 27 1017 36 10000 3.1 70 14:18 09.07.2020
1102 Clouds 27 1017 41 10000 3.6 60 13:41 09.07.2020
1103 Clouds 26 1018 36 10000 2.6 60 13:21 09.07.2020
1104 Clouds 25 1018 38 10000 1.5 0 12:58 09.07.2020
1105 Clouds 25 1018 38 10000 1.5 0 12:39 09.07.2020
1106 Clouds 23 1018 41 10000 1.5 0 12:20 09.07.2020
1107 Clouds 22 1019 46 10000 1 0 11:54 09.07.2020
1108 Clouds 23 1019 46 10000 1 0 11:36 09.07.2020
1109 Clear 23 1019 49 10000 0.5 0 11:18 09.07.2020
1110 Clear 22 1020 49 10000 1 0 10:42 09.07.2020
1111 Clear 20 1020 56 10000 1 0 10:23 09.07.2020
1112 Clear 19 1020 59 10000 1.5 280 09:58 09.07.2020
1113 Clear 19 1020 59 10000 1.5 280 09:40 09.07.2020
1114 Clear 19 1020 59 10000 1.5 280 09:40 09.07.2020
1115 Clear 17 1021 59 10000 1 0 09:21 09.07.2020
1116 Clear 16 1021 67 10000 1.5 260 08:44 09.07.2020
1117 Clouds 16 1021 77 10000 2.1 270 08:25 09.07.2020
1118 Clouds 15 1021 76 10000 2.6 260 07:47 09.07.2020
1119 Clouds 15 1021 76 10000 1.5 290 07:22 09.07.2020
1120 Clouds 14 1020 82 10000 1 260 06:53 09.07.2020
1121 Clouds 10 1020 81 10000 0.5 0 06:19 09.07.2020
1122 Clouds 11 1020 82 10000 1 300 04:29 09.07.2020
1123 Clouds 12 1020 71 10000 1 250 03:48 09.07.2020
1124 Clouds 13 1020 72 10000 0.5 0 02:20 09.07.2020
1125 Clouds 13 1020 72 10000 1 0 01:37 09.07.2020
1126 Clouds 15 1020 67 10000 0.5 0 00:49 09.07.2020
1127 Clouds 15 1020 63 10000 0.5 0 00:24 09.07.2020
1128 Clouds 15 1019 63 10000 0.5 0 23:46 08.07.2020
1129 Clouds 16 1019 63 10000 1.5 310 23:28 08.07.2020
1130 Clouds 18 1018 52 10000 1.5 360 22:58 08.07.2020
1131 Clouds 20 1018 52 10000 1.5 360 22:40 08.07.2020
1132 Clouds 19 1018 46 10000 2.1 60 22:22 08.07.2020
1133 Clouds 22 1018 46 10000 2.1 0 21:58 08.07.2020
1134 Clouds 22 1018 46 10000 2.1 0 21:58 08.07.2020
1135 Clouds 22 1018 46 10000 2.1 0 21:38 08.07.2020
1136 Clear 21 1017 38 10000 2.6 50 21:20 08.07.2020
1137 Clear 21 1017 43 10000 2.1 30 20:54 08.07.2020
1138 Clear 23 1017 43 10000 2.1 30 20:36 08.07.2020
1139 Clouds 23 1016 44 10000 2.6 40 20:18 08.07.2020
1140 Clouds 24 1016 36 10000 4.1 80 19:42 08.07.2020
1141 Clouds 24 1015 39 10000 5.1 90 19:22 08.07.2020
1142 Clouds 24 1015 41 10000 4.6 70 18:57 08.07.2020
1143 Clouds 24 1015 41 10000 4.6 70 18:39 08.07.2020
1144 Clouds 25 1015 36 10000 4.6 100 18:19 08.07.2020
1145 Clouds 25 1015 36 10000 3.6 100 17:55 08.07.2020
1146 Clouds 25 1015 36 10000 3.6 100 17:37 08.07.2020
1147 Clouds 25 1015 39 10000 4.1 60 17:18 08.07.2020
1148 Clouds 25 1015 34 10000 3.6 50 16:39 08.07.2020
1149 Clouds 25 1015 34 10000 3.1 70 16:20 08.07.2020
1150 Clouds 25 1015 34 10000 3.1 70 15:59 08.07.2020
1151 Clouds 25 1015 39 10000 2.6 70 15:41 08.07.2020
1152 Clouds 25 1015 39 10000 2.6 60 15:19 08.07.2020
1153 Clouds 24 1015 41 10000 3.1 60 14:49 08.07.2020
1154 Clouds 24 1016 41 10000 2.1 110 14:30 08.07.2020
1155 Clouds 23 1016 41 10000 2.1 0 13:59 08.07.2020
1156 Clouds 23 1016 41 10000 2.1 0 13:41 08.07.2020
1157 Clouds 23 1017 44 10000 1 0 13:22 08.07.2020
1158 Clouds 21 1017 46 10000 2.1 60 12:44 08.07.2020
1159 Clouds 21 1018 49 10000 1.5 0 12:21 08.07.2020
1160 Clouds 20 1018 49 10000 1 0 11:57 08.07.2020
1161 Clouds 20 1018 49 10000 1 0 11:38 08.07.2020
1162 Clouds 19 1018 52 10000 1 0 11:20 08.07.2020
1163 Clouds 18 1019 52 10000 0.5 0 10:45 08.07.2020
1164 Clouds 18 1019 52 10000 0.5 0 10:45 08.07.2020
1165 Clouds 19 1019 55 10000 0.5 0 10:26 08.07.2020
1166 Clouds 17 1019 63 10000 1 0 09:47 08.07.2020
1167 Clouds 14 1020 67 10000 1 0 09:26 08.07.2020
1168 Clouds 14 1020 67 10000 1 0 08:59 08.07.2020
1169 Clear 14 1020 71 10000 1.5 260 08:39 08.07.2020
1170 Clouds 14 1020 76 10000 1.5 260 08:20 08.07.2020
1171 Clouds 13 1020 76 10000 1 0 07:46 08.07.2020
1172 Clouds 12 1020 81 10000 1 270 07:23 08.07.2020
1173 Clouds 12 1020 81 10000 0.5 0 06:54 08.07.2020
1174 Clouds 11 1020 81 10000 0.5 0 06:35 08.07.2020
1175 Clouds 8 1020 87 10000 0.5 0 05:54 08.07.2020
1176 Clouds 9 1020 81 10000 0.5 0 05:18 08.07.2020
1177 Clouds 9 1020 81 10000 0.5 0 04:27 08.07.2020
1178 Clear 11 1020 76 10000 0.5 0 02:20 08.07.2020
1179 Clear 11 1020 76 10000 1 0 01:45 08.07.2020
1180 Clear 12 1019 71 10000 1 0 00:59 08.07.2020
1181 Clear 12 1020 71 10000 1 280 00:25 08.07.2020
1182 Clear 12 1019 71 10000 1 0 23:55 07.07.2020
1183 Clear 12 1019 71 10000 1 0 23:37 07.07.2020
1184 Clear 15 1019 67 10000 0.5 0 23:18 07.07.2020
1185 Clouds 17 1019 59 10000 1 0 22:41 07.07.2020
1186 Clouds 17 1018 59 10000 1 0 22:21 07.07.2020
1187 Clouds 18 1018 55 10000 1.5 30 21:59 07.07.2020
1188 Clouds 18 1018 55 10000 1.5 30 21:59 07.07.2020
1189 Clouds 18 1018 55 10000 1.5 30 21:39 07.07.2020
1190 Clouds 16 1017 59 10000 2.1 80 21:21 07.07.2020
1191 Clouds 18 1017 49 10000 1.5 40 20:57 07.07.2020
1192 Clouds 18 1017 49 10000 1.5 40 20:38 07.07.2020
1193 Clouds 19 1017 43 10000 5.7 80 20:20 07.07.2020
1194 Clouds 20 1017 40 10000 5.7 80 19:40 07.07.2020
1195 Clouds 20 1016 40 10000 5.1 80 19:21 07.07.2020
1196 Clouds 21 1017 38 10000 5.1 70 18:56 07.07.2020
1197 Clouds 21 1017 38 10000 5.1 70 18:38 07.07.2020
1198 Clouds 21 1017 35 10000 5.7 80 18:19 07.07.2020
1199 Clouds 21 1017 33 10000 4.1 70 17:57 07.07.2020
1200 Clouds 21 1017 33 10000 4.1 70 17:38 07.07.2020
1201 Clouds 21 1017 38 10000 3.6 50 17:20 07.07.2020
1202 Clouds 21 1017 35 10000 2.6 70 16:43 07.07.2020
1203 Clouds 21 1017 33 10000 2.6 80 16:24 07.07.2020
1204 Clouds 21 1018 37 10000 3.6 40 15:58 07.07.2020
1205 Clouds 21 1018 37 10000 3.6 40 15:38 07.07.2020
1206 Clouds 20 1018 35 10000 3.1 0 15:20 07.07.2020
1207 Clouds 20 1018 35 10000 3.1 0 15:20 07.07.2020
1208 Clouds 20 1018 35 10000 2.6 0 14:46 07.07.2020
1209 Clouds 20 1018 35 10000 2.6 0 14:46 07.07.2020
1210 Clouds 20 1019 35 10000 3.1 110 14:25 07.07.2020
1211 Clouds 20 1019 35 10000 3.1 110 14:25 07.07.2020
1212 Clouds 19 1019 34 10000 3.6 120 13:46 07.07.2020
1213 Clouds 18 1019 40 10000 3.6 120 13:22 07.07.2020
1214 Clouds 18 1020 42 10000 3.1 80 12:59 07.07.2020
1215 Clouds 18 1020 42 10000 3.1 80 12:40 07.07.2020
1216 Clouds 17 1020 39 10000 3.1 50 12:22 07.07.2020
1217 Clouds 16 1020 42 10000 1.5 0 11:49 07.07.2020
1218 Clouds 16 1021 48 10000 2.6 130 11:25 07.07.2020
1219 Clouds 15 1021 51 10000 1.5 0 10:59 07.07.2020
1220 Clouds 15 1021 51 10000 1.5 0 10:41 07.07.2020
1221 Clouds 16 1021 51 10000 2.1 90 10:21 07.07.2020
1222 Clouds 15 1022 59 10000 1.5 0 09:55 07.07.2020
1223 Clouds 14 1022 67 10000 1 0 09:37 07.07.2020
1224 Clouds 14 1022 67 10000 1 0 09:18 07.07.2020
1225 Clouds 12 1022 67 10000 1 0 08:41 07.07.2020
1226 Clouds 12 1022 76 10000 1 0 08:22 07.07.2020
1227 Clouds 10 1022 81 10000 0.36 70 07:42 07.07.2020
1228 Clouds 10 1022 87 10000 1 0 07:22 07.07.2020
1229 Clouds 10 1022 81 10000 1 180 06:49 07.07.2020
1230 Clouds 9 1022 87 10000 0.5 0 06:28 07.07.2020
1231 Clouds 10 1022 93 10000 1 280 05:53 07.07.2020
1232 Clouds 11 1022 93 10000 1.5 260 05:22 07.07.2020
1233 Clouds 11 1021 87 10000 1 0 04:38 07.07.2020
1234 Clouds 12 1021 93 10000 0.5 0 03:35 07.07.2020
1235 Clouds 11 1022 87 10000 1.5 0 02:21 07.07.2020
1236 Clouds 12 1021 87 10000 1.85 4 01:22 07.07.2020
1237 Rain 12 1022 87 10000 1 0 00:43 07.07.2020
1238 Rain 12 1021 82 10000 1.5 320 00:24 07.07.2020
1239 Clouds 15 1021 72 10000 5.1 70 23:55 06.07.2020
1240 Clouds 15 1021 72 10000 5.1 70 23:36 06.07.2020
1241 Rain 13 1020 77 10000 1 0 23:18 06.07.2020
1242 Clouds 13 1019 77 10000 1.5 260 22:40 06.07.2020
1243 Clouds 14 1019 72 10000 2.1 290 22:20 06.07.2020
1244 Clouds 15 1019 63 10000 1.5 170 21:57 06.07.2020
1245 Clouds 15 1019 63 10000 1.5 170 21:38 06.07.2020
1246 Clouds 15 1018 63 10000 1.5 0 21:19 06.07.2020
1247 Clouds 17 1018 63 10000 1.5 0 20:59 06.07.2020
1248 Clouds 17 1018 72 10000 1.5 320 20:37 06.07.2020
1249 Clouds 15 1018 63 10000 3.1 40 20:19 06.07.2020
1250 Clouds 15 1017 67 10000 4.1 50 19:56 06.07.2020
1251 Clouds 15 1016 72 10000 4.1 70 19:37 06.07.2020
1252 Clouds 15 1016 72 10000 4.1 70 19:19 06.07.2020
1253 Rain 17 1016 72 10000 5.1 80 18:41 06.07.2020
1254 Rain 19 1015 63 10000 8.2 100 18:23 06.07.2020
1255 Clouds 20 1014 60 10000 7.2 90 17:59 06.07.2020
1256 Clouds 20 1014 60 10000 7.2 90 17:40 06.07.2020
1257 Clouds 20 1014 60 10000 7.2 90 17:40 06.07.2020
1258 Clouds 20 1014 64 10000 8.2 90 17:20 06.07.2020
1259 Clouds 22 1013 56 10000 6.7 80 16:44 06.07.2020
1260 Clouds 23 1013 53 10000 5.7 80 16:25 06.07.2020
1261 Clouds 25 1012 50 10000 5.1 40 15:59 06.07.2020
1262 Clouds 25 1012 50 10000 5.1 40 15:41 06.07.2020
1263 Clouds 25 1012 53 10000 6.2 80 15:23 06.07.2020
1264 Clouds 25 1012 50 10000 6.7 60 14:55 06.07.2020
1265 Clouds 25 1012 50 10000 6.7 60 14:37 06.07.2020
1266 Clouds 28 1011 45 10000 2.6 90 14:18 06.07.2020
1267 Clouds 28 1012 48 10000 3.6 0 13:44 06.07.2020
1268 Clouds 24 1012 51 10000 2.6 70 13:26 06.07.2020
1269 Clouds 23 1012 47 10000 2.1 60 12:56 06.07.2020
1270 Clouds 23 1012 47 10000 2.1 60 12:38 06.07.2020
1271 Clouds 23 1013 50 10000 1 0 12:18 06.07.2020
1272 Clouds 24 1013 47 10000 1 0 11:57 06.07.2020
1273 Clouds 22 1013 57 10000 1 0 11:36 06.07.2020
1274 Clouds 22 1013 57 10000 1 0 11:18 06.07.2020
1275 Clouds 22 1014 56 10000 1 0 10:41 06.07.2020
1276 Clouds 21 1014 64 10000 1.5 270 10:21 06.07.2020
1277 Clouds 20 1015 68 10000 0.5 0 09:55 06.07.2020
1278 Clouds 20 1015 68 10000 0.5 0 09:37 06.07.2020
1279 Clouds 19 1015 72 10000 0.5 0 09:19 06.07.2020
1280 Clouds 18 1016 72 10000 0.5 0 08:41 06.07.2020
1281 Clouds 17 1016 82 10000 1 0 08:22 06.07.2020
1282 Clouds 16 1016 82 10000 1 250 07:53 06.07.2020
1283 Clouds 15 1016 82 10000 1 250 07:31 06.07.2020
1284 Clouds 14 1016 93 10000 1.5 270 06:56 06.07.2020
1285 Clouds 16 1016 93 10000 1.5 270 06:37 06.07.2020
1286 Clouds 14 1017 87 10000 1.5 260 05:56 06.07.2020
1287 Clouds 15 1017 87 10000 1.5 260 05:29 06.07.2020
1288 Clouds 15 1017 87 10000 1 250 04:33 06.07.2020
1289 Clear 15 1017 82 10000 1 0 02:44 06.07.2020
1290 Clouds 16 1017 88 10000 0.5 0 01:59 06.07.2020
1291 Clouds 17 1017 77 10000 0.5 0 00:51 06.07.2020
1292 Clouds 17 1017 77 10000 0.78 201 00:25 06.07.2020
1293 Clouds 18 1017 72 10000 0.5 0 23:58 05.07.2020
1294 Clouds 18 1017 72 10000 0.5 0 23:39 05.07.2020
1295 Clouds 19 1017 68 10000 0.5 0 23:21 05.07.2020
1296 Clouds 22 1017 64 10000 1 0 22:58 05.07.2020
1297 Clouds 22 1017 64 10000 1 0 22:37 05.07.2020
1298 Clouds 20 1017 64 10000 1.5 300 22:19 05.07.2020
1299 Clouds 23 1016 60 10000 1 310 21:55 05.07.2020
1300 Clouds 23 1016 60 10000 1 310 21:37 05.07.2020
1301 Clouds 22 1016 57 10000 1 300 21:18 05.07.2020
1302 Clouds 23 1016 60 10000 1.5 360 20:41 05.07.2020
1303 Clouds 25 1015 47 10000 3.1 30 20:23 05.07.2020
1304 Clouds 27 1015 47 10000 4.1 50 19:58 05.07.2020
1305 Clouds 26 1015 47 10000 4.1 50 19:40 05.07.2020
1306 Clouds 26 1015 42 10000 4.6 40 19:19 05.07.2020
1307 Clouds 29 1015 37 10000 3.1 70 18:42 05.07.2020
1308 Clouds 27 1015 39 10000 3.1 70 18:23 05.07.2020
1309 Clouds 27 1015 37 10000 3.1 90 17:59 05.07.2020
1310 Clouds 27 1015 37 10000 3.1 90 17:41 05.07.2020
1311 Clouds 27 1016 35 10000 2.6 30 17:19 05.07.2020
1312 Clouds 28 1016 35 10000 1.5 50 16:44 05.07.2020
1313 Clouds 27 1016 30 10000 2.6 160 16:25 05.07.2020
1314 Clouds 27 1017 35 10000 2.1 0 15:58 05.07.2020
1315 Clouds 27 1017 35 10000 2.1 0 15:38 05.07.2020
1316 Clouds 26 1017 37 10000 2.1 0 15:19 05.07.2020
1317 Clouds 26 1017 39 10000 2.6 30 14:42 05.07.2020
1318 Clouds 26 1018 34 10000 2.6 60 14:23 05.07.2020
1319 Clouds 25 1018 39 10000 2.1 130 13:58 05.07.2020
1320 Clouds 25 1018 39 10000 2.1 130 13:39 05.07.2020
1321 Clouds 25 1019 44 10000 1.5 0 13:19 05.07.2020
1322 Clouds 24 1019 44 10000 1 0 12:40 05.07.2020
1323 Clouds 23 1019 47 10000 1 0 12:20 05.07.2020
1324 Clouds 22 1020 53 10000 1 0 11:55 05.07.2020
1325 Clouds 22 1020 53 10000 1 0 11:36 05.07.2020
1326 Clouds 22 1020 53 10000 0.5 0 11:18 05.07.2020
1327 Clouds 20 1021 56 10000 1 0 10:42 05.07.2020
1328 Clouds 20 1021 56 10000 1.5 260 10:20 05.07.2020
1329 Clouds 20 1021 56 10000 1.5 260 09:59 05.07.2020
1330 Clouds 19 1021 68 10000 2.1 260 09:40 05.07.2020
1331 Clouds 16 1021 77 10000 2.1 280 09:20 05.07.2020
1332 Clouds 16 1022 72 10000 1.5 270 08:51 05.07.2020
1333 Clouds 16 1022 72 10000 1.5 270 08:33 05.07.2020
1334 Clouds 13 1022 82 10000 1.5 290 07:49 05.07.2020
1335 Clouds 14 1022 87 10000 1.5 260 07:30 05.07.2020
1336 Clouds 14 1022 93 10000 2.1 270 06:53 05.07.2020
1337 Clouds 11 1022 93 10000 1 0 05:58 05.07.2020
1338 Clouds 12 1022 87 10000 1 250 03:37 05.07.2020
1339 Clouds 13 1022 82 10000 0.5 0 02:46 05.07.2020
1340 Clouds 13 1022 87 10000 0.88 236 02:28 05.07.2020
1341 Clouds 13 1021 87 10000 0.5 0 01:41 05.07.2020
1342 Clouds 14 1021 82 10000 1 0 01:20 05.07.2020
1343 Clouds 14 1021 82 10000 0.5 0 00:41 05.07.2020
1344 Clouds 15 1021 77 10000 1 0 00:23 05.07.2020
1345 Clouds 15 1021 77 10000 1 0 00:23 05.07.2020
1346 Clouds 15 1021 77 10000 0.5 0 23:48 04.07.2020
1347 Clouds 18 1021 72 10000 0.5 0 23:30 04.07.2020
1348 Clouds 19 1020 68 10000 0.5 0 22:57 04.07.2020
1349 Clouds 18 1020 68 10000 0.5 0 22:38 04.07.2020
1350 Clouds 18 1020 68 10000 1 0 22:20 04.07.2020
1351 Clouds 20 1019 64 10000 1 0 21:43 04.07.2020
1352 Clouds 20 1019 56 10000 1.5 350 21:24 04.07.2020
1353 Clouds 21 1019 56 10000 1.5 350 20:59 04.07.2020
1354 Clouds 22 1018 56 10000 1.5 50 20:41 04.07.2020
1355 Clouds 22 1018 49 10000 5.1 60 20:20 04.07.2020
1356 Clouds 22 1018 50 10000 5.1 70 19:45 04.07.2020
1357 Clouds 23 1018 44 10000 3.6 80 19:22 04.07.2020
1358 Clouds 24 1018 39 10000 3.1 80 18:59 04.07.2020
1359 Clouds 24 1018 36 10000 3.1 70 18:41 04.07.2020
1360 Clouds 24 1018 36 10000 3.1 70 18:21 04.07.2020
1361 Clouds 24 1018 41 10000 2.1 0 17:44 04.07.2020
1362 Clouds 24 1018 36 10000 2.6 0 17:26 04.07.2020
1363 Clouds 26 1018 39 10000 3.1 80 16:58 04.07.2020
1364 Clouds 24 1018 34 10000 2.1 80 16:38 04.07.2020
1365 Clouds 24 1018 34 10000 2.1 80 16:20 04.07.2020
1366 Clouds 23 1018 41 10000 2.1 120 15:56 04.07.2020
1367 Clouds 23 1018 41 10000 2.1 120 15:37 04.07.2020
1368 Clouds 23 1019 41 10000 1.5 0 15:19 04.07.2020
1369 Clouds 22 1019 41 10000 1 0 14:38 04.07.2020
1370 Clouds 22 1020 43 10000 1 0 14:20 04.07.2020
1371 Clouds 22 1020 43 10000 1 0 13:59 04.07.2020
1372 Clouds 21 1020 46 10000 1 0 13:41 04.07.2020
1373 Clouds 20 1020 46 10000 1 0 13:18 04.07.2020
1374 Clouds 20 1021 52 10000 0.5 0 12:43 04.07.2020
1375 Clouds 19 1021 60 10000 1 0 12:22 04.07.2020
1376 Clouds 19 1021 60 10000 2.1 270 11:57 04.07.2020
1377 Clouds 19 1021 60 10000 2.1 270 11:38 04.07.2020
1378 Clouds 18 1021 63 10000 1.5 270 11:19 04.07.2020
1379 Clouds 18 1021 60 10000 1 0 10:42 04.07.2020
1380 Clouds 17 1022 68 10000 1 0 10:22 04.07.2020
1381 Clouds 16 1022 72 10000 0.5 0 09:59 04.07.2020
1382 Clouds 16 1022 72 10000 0.5 0 09:40 04.07.2020
1383 Clouds 15 1022 72 10000 0.5 0 09:20 04.07.2020
1384 Clouds 14 1022 77 10000 0.5 0 08:50 04.07.2020
1385 Clouds 14 1022 77 10000 0.5 0 08:32 04.07.2020
1386 Clouds 13 1022 82 10000 1 0 07:55 04.07.2020
1387 Clouds 13 1022 82 10000 1 0 07:36 04.07.2020
1388 Clouds 13 1022 87 10000 2.1 70 06:57 04.07.2020
1389 Clouds 12 1022 87 10000 1 0 06:23 04.07.2020
1390 Clouds 12 1022 87 10000 1.5 90 05:41 04.07.2020
1391 Clouds 13 1021 82 10000 2.1 50 04:57 04.07.2020
1392 Clouds 13 1021 87 10000 1 0 03:34 04.07.2020
1393 Clouds 15 1021 87 10000 0.5 0 02:39 04.07.2020
1394 Clouds 13 1021 87 10000 0.5 0 01:38 04.07.2020
1395 Clouds 14 1022 82 10000 1 160 00:47 04.07.2020
1396 Clouds 14 1021 82 10000 0.5 0 00:29 04.07.2020
1397 Clouds 14 1021 82 10000 0.5 0 23:54 03.07.2020
1398 Clouds 14 1021 82 10000 0.5 0 23:36 03.07.2020
1399 Clouds 14 1021 82 10000 0.5 0 23:36 03.07.2020
1400 Clouds 14 1021 82 10000 0.5 0 23:18 03.07.2020
1401 Clouds 14 1021 82 10000 0.5 0 22:41 03.07.2020
1402 Clouds 15 1021 77 10000 0.5 0 22:23 03.07.2020
1403 Clouds 15 1021 77 10000 1 0 21:56 03.07.2020
1404 Clouds 16 1021 77 10000 1 0 21:37 03.07.2020
1405 Clouds 15 1020 77 10000 1 0 21:18 03.07.2020
1406 Clouds 15 1020 77 10000 1 0 21:18 03.07.2020
1407 Clouds 15 1020 77 10000 1 260 20:42 03.07.2020
1408 Clouds 16 1020 68 10000 2.6 250 20:24 03.07.2020
1409 Clouds 16 1020 72 10000 1 0 19:42 03.07.2020
1410 Clouds 16 1019 72 10000 2.1 270 19:22 03.07.2020
1411 Rain 16 1019 72 10000 3.1 270 18:58 03.07.2020
1412 Clouds 17 1019 63 10000 1.5 290 18:40 03.07.2020
1413 Clouds 17 1019 63 10000 1.5 290 18:22 03.07.2020
1414 Clouds 17 1019 68 10000 1 0 17:45 03.07.2020
1415 Clouds 17 1019 63 10000 2.1 270 17:23 03.07.2020
1416 Clouds 17 1019 72 10000 2.1 220 16:58 03.07.2020
1417 Clouds 17 1019 72 10000 2.1 220 16:39 03.07.2020
1418 Clouds 17 1019 68 10000 1.5 330 16:20 03.07.2020
1419 Clouds 17 1019 68 10000 2.1 20 15:42 03.07.2020
1420 Clouds 17 1019 68 10000 3.1 30 15:22 03.07.2020
1421 Clouds 17 1019 63 10000 1.5 0 14:55 03.07.2020
1422 Clouds 18 1019 63 10000 1.5 0 14:36 03.07.2020
1423 Clouds 18 1019 63 10000 2.1 50 14:18 03.07.2020
1424 Clouds 17 1020 68 10000 2.1 0 13:41 03.07.2020
1425 Clouds 17 1020 72 10000 2.1 120 13:22 03.07.2020
1426 Clouds 15 1020 77 10000 1 0 12:44 03.07.2020
1427 Clouds 14 1020 82 10000 1.5 70 12:23 03.07.2020
1428 Clouds 14 1020 87 10000 1.5 150 11:57 03.07.2020
1429 Clouds 14 1020 87 10000 1.5 150 11:39 03.07.2020
1430 Rain 14 1019 87 10000 2.1 80 11:19 03.07.2020
1431 Rain 14 1019 82 10000 1.5 310 10:54 03.07.2020
1432 Rain 14 1019 82 10000 1.5 310 10:36 03.07.2020
1433 Rain 14 1019 82 10000 3.6 280 10:18 03.07.2020
1434 Rain 14 1019 82 10000 2.1 270 09:40 03.07.2020
1435 Rain 14 1019 82 10000 2.6 260 09:22 03.07.2020
1436 Rain 13 1019 87 10000 1.5 300 08:58 03.07.2020
1437 Rain 13 1018 93 10000 2.1 270 08:38 03.07.2020
1438 Rain 13 1018 93 10000 2.1 270 08:18 03.07.2020
1439 Rain 13 1018 93 10000 2.1 270 08:18 03.07.2020
1440 Clouds 13 1018 93 10000 2.6 260 07:47 03.07.2020
1441 Rain 13 1018 93 10000 1.5 260 07:22 03.07.2020
1442 Clouds 13 1018 93 10000 0.5 0 06:38 03.07.2020
1443 Clouds 13 1017 93 10000 1 160 05:55 03.07.2020
1444 Clouds 13 1017 93 10000 1 160 05:55 03.07.2020
1445 Rain 14 1017 87 10000 1.5 140 04:28 03.07.2020
1446 Clouds 15 1017 93 10000 2.1 260 02:57 03.07.2020
1447 Clouds 15 1017 93 10000 1 180 02:32 03.07.2020
1448 Rain 16 1017 93 10000 1 0 01:51 03.07.2020
1449 Rain 16 1017 93 10000 1 160 01:22 03.07.2020
1450 Rain 15 1017 93 10000 1.5 250 00:42 03.07.2020
1451 Rain 16 1017 93 10000 1.5 270 00:18 03.07.2020
1452 Rain 16 1016 93 10000 2.1 260 23:43 02.07.2020
1453 Rain 15 1016 93 10000 0.5 0 23:20 02.07.2020
1454 Rain 16 1016 93 10000 0.5 0 22:57 02.07.2020
1455 Rain 16 1016 93 10000 1.5 350 22:38 02.07.2020
1456 Rain 16 1016 93 10000 1.5 350 22:20 02.07.2020
1457 Rain 16 1016 93 10000 2.1 160 21:54 02.07.2020
1458 Rain 16 1016 93 10000 2.1 160 21:36 02.07.2020
1459 Rain 16 1016 93 10000 2.1 160 21:36 02.07.2020
1460 Rain 16 1016 93 10000 1 0 21:18 02.07.2020
1461 Rain 16 1015 88 10000 1 0 20:41 02.07.2020
1462 Rain 16 1014 88 10000 2.1 230 20:20 02.07.2020
1463 Rain 17 1013 82 10000 3.6 80 19:56 02.07.2020
1464 Rain 18 1012 77 10000 4.6 80 19:38 02.07.2020
1465 Rain 18 1012 77 10000 4.6 80 19:19 02.07.2020
1466 Clouds 21 1011 50 10000 4.6 290 18:55 02.07.2020
1467 Clouds 22 1011 50 10000 4.6 290 18:37 02.07.2020
1468 Clouds 22 1010 44 10000 3.1 50 18:18 02.07.2020
1469 Clouds 24 1010 42 10000 4.6 80 17:39 02.07.2020
1470 Clouds 24 1010 44 10000 4.1 100 17:20 02.07.2020
1471 Clouds 25 1011 47 10000 3.6 50 16:56 02.07.2020
1472 Clouds 25 1011 47 10000 3.6 50 16:37 02.07.2020
1473 Clouds 24 1011 47 10000 3.1 70 16:19 02.07.2020
1474 Clouds 24 1012 54 10000 2.6 0 15:39 02.07.2020
1475 Clouds 24 1013 53 10000 2.6 70 15:21 02.07.2020
1476 Clouds 23 1013 57 10000 2.6 110 14:46 02.07.2020
1477 Clouds 22 1013 60 10000 2.6 80 14:28 02.07.2020
1478 Clouds 21 1014 68 10000 1 0 13:58 02.07.2020
1479 Clouds 21 1014 68 10000 1 0 13:58 02.07.2020
1480 Clouds 21 1014 68 10000 1 0 13:40 02.07.2020
1481 Clouds 21 1014 68 10000 0.5 0 13:21 02.07.2020
1482 Clouds 21 1014 68 10000 0.5 0 12:59 02.07.2020
1483 Clouds 21 1014 68 10000 0.5 0 12:39 02.07.2020
1484 Clouds 20 1015 68 10000 1 0 12:21 02.07.2020
1485 Clouds 19 1015 77 10000 1 0 11:44 02.07.2020
1486 Clouds 19 1016 77 10000 1 0 11:26 02.07.2020
1487 Clouds 18 1016 82 10000 0.5 0 10:50 02.07.2020
1488 Clouds 18 1016 82 10000 0.5 0 10:29 02.07.2020
1489 Clouds 17 1016 88 10000 1 0 09:59 02.07.2020
1490 Clouds 17 1016 88 10000 2.1 280 09:41 02.07.2020
1491 Clouds 16 1016 88 10000 1.5 250 09:21 02.07.2020
1492 Clouds 16 1016 88 10000 1 0 08:56 02.07.2020
1493 Clouds 16 1016 88 10000 1 0 08:37 02.07.2020
1494 Clouds 15 1015 93 10000 1.5 270 08:18 02.07.2020
1495 Clouds 16 1015 93 10000 1 250 07:40 02.07.2020
1496 Clouds 16 1015 93 10000 0.5 0 07:20 02.07.2020
1497 Clouds 15 1015 93 10000 1 0 06:41 02.07.2020
1498 Clouds 15 1015 93 10000 1 0 06:20 02.07.2020
1499 Clouds 15 1015 93 10000 1.5 270 05:45 02.07.2020
1500 Clouds 15 1015 93 10000 1 0 04:21 02.07.2020
1501 Clouds 15 1015 93 10000 1 0 03:32 02.07.2020
1502 Clouds 14 1016 93 10000 1 0 01:23 02.07.2020
1503 Clouds 15 1016 100 10000 1 0 00:25 02.07.2020
1504 Clouds 15 1016 93 9000 0.5 0 23:51 01.07.2020
1505 Clouds 15 1016 93 9000 0.5 0 23:30 01.07.2020
1506 Clouds 16 1015 93 10000 1.5 340 22:57 01.07.2020
1507 Clouds 16 1015 93 10000 1.5 340 22:38 01.07.2020
1508 Rain 17 1015 88 10000 1.5 150 22:19 01.07.2020
1509 Rain 17 1014 88 10000 1.5 0 21:59 01.07.2020
1510 Rain 17 1014 88 10000 1.5 0 21:40 01.07.2020
1511 Rain 17 1014 88 10000 0.5 0 21:22 01.07.2020
1512 Clouds 17 1014 88 10000 0.5 0 20:58 01.07.2020
1513 Clouds 17 1014 82 10000 1.5 20 20:40 01.07.2020
1514 Clouds 18 1014 82 10000 2.1 60 20:21 01.07.2020
1515 Clouds 19 1014 73 10000 2.1 60 19:55 01.07.2020
1516 Clouds 19 1014 73 10000 2.1 60 19:37 01.07.2020
1517 Clouds 19 1014 82 10000 3.6 50 19:18 01.07.2020
1518 Clouds 18 1014 88 10000 3.6 60 18:42 01.07.2020
1519 Clouds 19 1015 88 10000 1.5 140 18:21 01.07.2020
1520 Clouds 19 1015 88 10000 1.5 140 18:21 01.07.2020
1521 Clouds 19 1015 88 10000 1.5 140 18:21 01.07.2020
1522 Rain 18 1015 88 10000 1.5 120 17:58 01.07.2020
1523 Rain 18 1015 88 10000 1.5 120 17:38 01.07.2020
1524 Rain 17 1016 88 10000 2.6 360 17:19 01.07.2020
1525 Rain 17 1016 88 10000 2.6 360 17:19 01.07.2020
1526 Rain 18 1016 82 4000 4.1 290 16:46 01.07.2020
1527 Rain 19 1013 64 10000 7.2 80 16:27 01.07.2020
1528 Rain 19 1011 73 10000 3.1 60 15:55 01.07.2020
1529 Thunderstorm 20 1011 73 10000 3.1 60 15:37 01.07.2020
1530 Thunderstorm 24 1010 47 10000 9.8 340 15:19 01.07.2020
1531 Clouds 29 1010 45 10000 3.6 80 14:44 01.07.2020
1532 Clouds 27 1011 51 10000 4.6 110 14:21 01.07.2020
1533 Clouds 25 1011 51 10000 3.6 100 13:57 01.07.2020
1534 Clouds 25 1011 51 10000 3.6 100 13:38 01.07.2020
1535 Clouds 25 1011 54 10000 3.6 80 13:20 01.07.2020
1536 Clouds 24 1012 57 10000 2.6 150 12:57 01.07.2020
1537 Clouds 24 1012 57 10000 2.6 150 12:38 01.07.2020
1538 Clouds 24 1012 54 10000 2.1 140 12:20 01.07.2020
1539 Clouds 24 1012 54 10000 2.1 140 12:20 01.07.2020
1540 Clouds 24 1013 57 10000 1 0 11:40 01.07.2020
1541 Clouds 24 1013 57 10000 1 0 11:22 01.07.2020
1542 Clouds 22 1013 64 10000 1 0 10:58 01.07.2020
1543 Clouds 22 1013 64 10000 1 0 10:39 01.07.2020
1544 Clouds 22 1014 68 10000 1.5 0 10:21 01.07.2020
1545 Clouds 21 1014 68 10000 1.5 240 09:40 01.07.2020
1546 Clouds 19 1014 77 10000 2.1 250 09:21 01.07.2020
1547 Clouds 18 1014 77 10000 2.6 270 08:59 01.07.2020
1548 Clouds 18 1014 77 10000 2.6 270 08:40 01.07.2020
1549 Clouds 17 1014 82 10000 1 260 08:20 01.07.2020
1550 Clouds 16 1015 77 10000 1 0 07:44 01.07.2020
1551 Clouds 17 1015 82 10000 1.5 260 07:25 01.07.2020
1552 Clouds 16 1015 87 10000 1 270 06:59 01.07.2020
1553 Clouds 15 1015 87 10000 1 270 06:40 01.07.2020
1554 Clouds 13 1015 93 10000 1 250 06:20 01.07.2020
1555 Clouds 14 1014 87 10000 0.88 201 04:30 01.07.2020
1556 Clouds 14 1014 87 10000 0.5 0 03:44 01.07.2020
1557 Clouds 15 1014 82 10000 0.5 0 03:22 01.07.2020
1558 Clouds 15 1015 88 10000 0.5 0 02:19 01.07.2020
1559 Clouds 15 1015 88 10000 0.5 0 01:23 01.07.2020
1560 Clouds 16 1014 77 10000 0.54 229 00:38 01.07.2020
1561 Clouds 16 1014 82 10000 0.5 0 00:19 01.07.2020
1562 Clouds 17 1014 77 10000 0.5 0 23:40 30.06.2020
1563 Clouds 18 1014 72 10000 0.5 0 23:20 30.06.2020
1564 Clouds 20 1014 72 10000 1 310 22:42 30.06.2020
1565 Clouds 19 1013 68 10000 1 0 22:19 30.06.2020
1566 Clouds 22 1013 64 10000 1 0 21:54 30.06.2020
1567 Clouds 20 1013 64 10000 1 0 21:36 30.06.2020
1568 Clouds 21 1013 64 10000 1 0 21:18 30.06.2020
1569 Clouds 22 1012 57 10000 3.1 70 20:42 30.06.2020
1570 Clouds 23 1012 53 10000 5.1 80 20:21 30.06.2020
1571 Clouds 24 1012 50 10000 5.7 70 19:44 30.06.2020
1572 Clouds 24 1011 47 10000 5.1 80 19:21 30.06.2020
1573 Clouds 25 1011 47 10000 5.1 90 18:58 30.06.2020
1574 Clouds 25 1011 47 10000 5.1 90 18:40 30.06.2020
1575 Clouds 25 1011 47 10000 4.6 90 18:20 30.06.2020
1576 Clouds 27 1011 47 10000 4.1 40 17:39 30.06.2020
1577 Clouds 27 1011 44 10000 2.1 80 17:20 30.06.2020
1578 Clouds 27 1011 44 10000 2.6 60 16:57 30.06.2020
1579 Clouds 27 1011 44 10000 2.6 60 16:39 30.06.2020
1580 Clouds 26 1011 44 10000 1.5 0 16:19 30.06.2020
1581 Clouds 25 1012 47 10000 1.5 130 15:56 30.06.2020
1582 Clouds 25 1012 47 10000 1.5 130 15:37 30.06.2020
1583 Clouds 26 1012 47 10000 1.5 0 15:19 30.06.2020
1584 Clouds 25 1012 47 10000 1.5 110 14:43 30.06.2020
1585 Clouds 24 1013 50 10000 1.5 0 14:21 30.06.2020
1586 Clouds 23 1013 53 10000 1.5 0 13:54 30.06.2020
1587 Clouds 23 1013 53 10000 1.5 0 13:36 30.06.2020
1588 Clouds 22 1014 53 10000 2.1 0 13:18 30.06.2020
1589 Clouds 21 1014 53 10000 2.1 0 12:54 30.06.2020
1590 Clouds 22 1014 53 10000 2.1 0 12:36 30.06.2020
1591 Clouds 21 1015 60 10000 1 0 12:18 30.06.2020
1592 Clouds 20 1015 60 10000 0.5 0 11:39 30.06.2020
1593 Clouds 19 1015 60 10000 0.5 0 11:20 30.06.2020
1594 Clouds 19 1015 60 10000 0.5 0 10:59 30.06.2020
1595 Clouds 27 1014 51 10000 2.1 310 16:45 28.06.2020
1596 Clouds 26 1014 51 10000 2.1 260 16:27 28.06.2020
1597 Clouds 25 1014 51 10000 2.1 260 15:59 28.06.2020
1598 Clouds 26 1015 47 10000 1.5 260 15:39 28.06.2020
1599 Clouds 25 1015 42 10000 0.5 0 15:20 28.06.2020
1600 Clouds 26 1015 50 10000 2.6 270 14:55 28.06.2020
1601 Clouds 26 1015 50 10000 2.6 270 14:37 28.06.2020
1602 Clouds 25 1015 50 10000 1.5 290 14:19 28.06.2020
1603 Clouds 25 1016 54 10000 2.1 250 13:38 28.06.2020
1604 Clouds 24 1016 57 10000 1.5 0 13:20 28.06.2020
1605 Clouds 23 1017 60 10000 1 0 12:57 28.06.2020
1606 Clouds 23 1017 60 10000 1 0 12:38 28.06.2020
1607 Clouds 23 1017 60 10000 0.5 0 12:19 28.06.2020
1608 Clouds 22 1018 64 10000 0.5 0 11:57 28.06.2020
1609 Clouds 22 1018 64 10000 0.5 0 11:57 28.06.2020
1610 Clouds 22 1018 64 10000 0.5 0 11:39 28.06.2020
1611 Clouds 21 1018 68 10000 1 0 11:20 28.06.2020
1612 Clouds 20 1018 72 10000 2.6 260 10:56 28.06.2020
1613 Clouds 20 1018 72 10000 2.6 260 10:38 28.06.2020
1614 Clouds 20 1019 77 10000 2.6 270 10:19 28.06.2020
1615 Clouds 18 1019 82 10000 2.6 260 09:40 28.06.2020
1616 Clouds 17 1020 82 10000 1 0 09:21 28.06.2020
1617 Clouds 17 1020 88 10000 1.5 270 08:48 28.06.2020
1618 Clouds 16 1020 87 10000 1 0 08:28 28.06.2020
1619 Clouds 15 1020 87 10000 0.5 0 07:53 28.06.2020
1620 Clouds 15 1020 93 10000 1.5 290 07:30 28.06.2020
1621 Clouds 14 1020 93 10000 1.5 270 06:45 28.06.2020
1622 Clouds 13 1020 93 10000 1 0 06:26 28.06.2020
1623 Rain 13 1020 93 10000 2.1 270 05:27 28.06.2020
1624 Clouds 13 1020 100 10000 1 280 03:45 28.06.2020
1625 Clouds 14 1020 93 10000 2.6 270 02:49 28.06.2020
1626 Clouds 14 1020 93 10000 1 0 02:18 28.06.2020
1627 Clouds 14 1020 93 10000 2.1 270 01:27 28.06.2020
1628 Clouds 14 1020 93 10000 0.5 0 00:51 28.06.2020
1629 Clouds 15 1020 88 10000 1 0 00:27 28.06.2020
1630 Rain 15 1020 88 10000 1.5 0 23:43 27.06.2020
1631 Rain 15 1020 93 10000 2.1 90 23:24 27.06.2020
1632 Rain 15 1020 88 10000 2.6 40 22:59 27.06.2020
1633 Rain 15 1020 88 10000 2.6 40 22:40 27.06.2020
1634 Rain 15 1020 88 10000 2.6 40 22:40 27.06.2020
1635 Rain 16 1020 93 10000 1.5 50 22:22 27.06.2020
1636 Rain 16 1019 82 10000 4.1 260 21:56 27.06.2020
1637 Rain 16 1019 82 10000 4.1 260 21:38 27.06.2020
1638 Rain 16 1018 82 10000 4.1 0 21:19 27.06.2020
1639 Thunderstorm 18 1016 72 10000 7.7 240 20:44 27.06.2020
1640 Thunderstorm 18 1016 72 10000 10.8 230 20:19 27.06.2020
1641 Thunderstorm 20 1014 57 10000 16.5 240 19:56 27.06.2020
1642 Thunderstorm 21 1014 57 10000 16.5 240 19:37 27.06.2020
1643 Thunderstorm 24 1012 42 10000 6.2 50 19:18 27.06.2020
1644 Clouds 28 1012 39 10000 6.2 70 18:46 27.06.2020
1645 Clouds 30 1012 33 10000 6.7 80 18:28 27.06.2020
1646 Clouds 30 1012 37 10000 6.7 60 17:58 27.06.2020
1647 Clouds 30 1012 37 10000 6.7 60 17:38 27.06.2020
1648 Clouds 30 1012 35 10000 5.1 60 17:19 27.06.2020
1649 Clouds 30 1013 35 10000 4.6 60 16:46 27.06.2020
1650 Clouds 30 1013 35 10000 4.6 70 16:28 27.06.2020
1651 Clouds 29 1013 35 10000 4.6 70 15:59 27.06.2020
1652 Clouds 29 1013 33 10000 5.1 50 15:39 27.06.2020
1653 Clouds 28 1014 37 10000 5.1 60 15:21 27.06.2020
1654 Clouds 28 1014 40 10000 1.5 0 14:43 27.06.2020
1655 Clouds 27 1014 37 10000 1.5 270 14:24 27.06.2020
1656 Clouds 27 1014 37 10000 1.5 270 13:58 27.06.2020
1657 Clouds 27 1015 39 10000 1 0 13:38 27.06.2020
1658 Clouds 26 1015 39 10000 0.5 0 13:19 27.06.2020
1659 Clouds 25 1015 54 10000 1 0 12:57 27.06.2020
1660 Clouds 25 1015 54 10000 1 0 12:38 27.06.2020
1661 Clouds 25 1016 50 10000 2.1 270 12:20 27.06.2020
1662 Clouds 23 1016 53 10000 3.6 260 11:43 27.06.2020
1663 Clouds 23 1017 60 10000 4.1 260 11:24 27.06.2020
1664 Clouds 22 1017 60 10000 4.1 260 10:59 27.06.2020
1665 Clouds 21 1017 64 10000 3.1 270 10:38 27.06.2020
1666 Clouds 20 1017 68 10000 4.6 270 10:18 27.06.2020
1667 Clouds 18 1018 72 10000 4.1 290 09:41 27.06.2020
1668 Clouds 18 1018 77 10000 4.1 290 09:21 27.06.2020
1669 Clouds 17 1018 82 10000 4.6 280 08:56 27.06.2020
1670 Clouds 17 1018 82 10000 4.6 280 08:38 27.06.2020
1671 Clouds 17 1018 82 10000 3.6 280 08:19 27.06.2020
1672 Clouds 16 1018 87 10000 2.1 270 07:38 27.06.2020
1673 Clear 15 1018 93 10000 1 0 07:19 27.06.2020
1674 Fog 14 1018 100 650 0.5 0 06:38 27.06.2020
1675 Fog 12 1018 100 650 0.5 0 06:18 27.06.2020
1676 Mist 13 1018 93 5000 0.5 0 04:22 27.06.2020
1677 Mist 14 1018 93 3400 1 0 03:51 27.06.2020
1678 Clouds 15 1017 93 10000 0.5 0 02:48 27.06.2020
1679 Clouds 15 1017 93 10000 0.5 0 02:28 27.06.2020
1680 Clouds 16 1018 88 10000 1 0 01:41 27.06.2020
1681 Clouds 16 1018 88 10000 2.1 240 00:54 27.06.2020
1682 Rain 16 1017 88 10000 4.6 300 00:18 27.06.2020
1683 Rain 18 1017 68 10000 8.7 250 23:41 26.06.2020
1684 Clouds 18 1017 68 10000 6.7 240 23:21 26.06.2020
1685 Clouds 17 1017 77 10000 6.2 260 22:55 26.06.2020
1686 Clouds 17 1017 77 10000 6.2 260 22:36 26.06.2020
1687 Clouds 17 1016 82 10000 4.6 280 22:18 26.06.2020
1688 Rain 18 1016 77 10000 4.1 300 21:56 26.06.2020
1689 Clouds 18 1016 77 10000 4.1 300 21:36 26.06.2020
1690 Rain 19 1015 72 10000 3.1 270 21:18 26.06.2020
1691 Rain 19 1015 72 10000 3.1 270 21:18 26.06.2020
1692 Clouds 19 1015 72 10000 5.1 270 20:41 26.06.2020
1693 Clouds 20 1015 68 10000 2.6 260 20:19 26.06.2020
1694 Clouds 21 1015 68 10000 2.6 270 19:41 26.06.2020
1695 Clouds 22 1015 64 10000 4.1 270 19:23 26.06.2020
1696 Clouds 22 1015 60 10000 5.1 260 18:45 26.06.2020
1697 Clouds 22 1015 60 10000 4.6 270 18:26 26.06.2020
1698 Clouds 22 1016 64 10000 4.6 270 17:59 26.06.2020
1699 Clouds 22 1016 64 10000 4.6 270 17:59 26.06.2020
1700 Clouds 21 1016 64 10000 4.6 270 17:40 26.06.2020
1701 Clouds 23 1017 60 10000 3.6 260 17:22 26.06.2020
1702 Clouds 21 1017 68 10000 3.1 290 16:46 26.06.2020
1703 Rain 19 1018 82 10000 3.1 280 16:25 26.06.2020
1704 Rain 19 1019 77 10000 6.7 260 15:54 26.06.2020
1705 Rain 19 1019 77 10000 6.7 260 15:36 26.06.2020
1706 Clouds 19 1019 68 10000 6.7 260 15:18 26.06.2020
1707 Clouds 19 1019 68 10000 6.2 240 14:40 26.06.2020
1708 Clouds 20 1018 68 10000 7.7 250 14:22 26.06.2020
1709 Clouds 20 1018 77 10000 4.6 280 13:57 26.06.2020
1710 Clouds 20 1018 77 10000 4.6 280 13:38 26.06.2020
1711 Clouds 19 1018 77 10000 4.1 290 13:18 26.06.2020
1712 Clouds 18 1019 77 10000 3.1 290 12:41 26.06.2020
1713 Clouds 18 1019 77 10000 3.1 290 12:41 26.06.2020
1714 Rain 18 1019 77 10000 4.6 250 12:23 26.06.2020
1715 Rain 17 1019 87 10000 4.1 290 11:59 26.06.2020
1716 Rain 17 1019 87 10000 4.1 290 11:39 26.06.2020
1717 Rain 17 1018 68 10000 7.2 250 11:21 26.06.2020
1718 Clouds 18 1018 68 10000 5.1 290 10:58 26.06.2020
1719 Clouds 18 1018 68 10000 5.1 290 10:38 26.06.2020
1720 Rain 17 1018 77 10000 7.7 280 10:19 26.06.2020
1721 Clouds 16 1017 77 10000 3.6 270 09:44 26.06.2020
1722 Clouds 16 1017 77 10000 4.6 300 09:25 26.06.2020
1723 Clouds 15 1018 82 10000 3.1 270 08:56 26.06.2020
1724 Clouds 14 1018 82 10000 2.6 270 08:29 26.06.2020
1725 Clouds 13 1018 87 10000 2.1 260 07:53 26.06.2020
1726 Clouds 13 1018 82 10000 2.1 250 07:25 26.06.2020
1727 Clear 13 1018 87 10000 1 0 06:59 26.06.2020
1728 Clear 13 1018 87 10000 1 0 06:41 26.06.2020
1729 Clouds 11 1018 93 10000 1.5 220 06:23 26.06.2020
1730 Clouds 11 1018 93 10000 1 0 05:48 26.06.2020
1731 Clouds 12 1018 87 10000 0.5 0 03:55 26.06.2020
1732 Clear 12 1018 82 10000 1.5 260 02:22 26.06.2020
1733 Clouds 13 1019 82 10000 2.6 270 01:21 26.06.2020
1734 Clouds 14 1019 82 10000 2.6 280 00:41 26.06.2020
1735 Clouds 15 1019 72 10000 3.1 110 00:20 26.06.2020
1736 Clear 14 1019 76 10000 2.1 160 23:43 25.06.2020
1737 Clear 15 1019 72 10000 0.5 0 23:19 25.06.2020
1738 Clear 16 1019 72 10000 0.5 0 22:56 25.06.2020
1739 Clear 16 1019 72 10000 0.5 0 22:37 25.06.2020
1740 Clear 17 1019 67 10000 1.5 330 22:19 25.06.2020
1741 Clear 17 1018 67 10000 1.5 50 21:56 25.06.2020
1742 Clear 16 1018 67 10000 1.5 50 21:38 25.06.2020
1743 Rain 17 1018 67 10000 2.1 40 21:19 25.06.2020
1744 Clouds 18 1018 55 10000 2.1 90 20:45 25.06.2020
1745 Rain 18 1018 52 10000 4.1 70 20:24 25.06.2020
1746 Clouds 21 1018 52 10000 3.6 80 19:58 25.06.2020
1747 Clouds 21 1018 49 10000 4.1 110 19:40 25.06.2020
1748 Clouds 21 1018 52 10000 3.6 80 19:39 25.06.2020
1749 Clouds 20 1018 49 10000 4.1 110 19:19 25.06.2020
1750 Clouds 19 1018 52 10000 3.6 90 18:56 25.06.2020
1751 Clouds 20 1018 52 10000 3.6 90 18:37 25.06.2020
1752 Rain 20 1017 49 10000 4.6 100 18:19 25.06.2020
1753 Clouds 20 1017 46 10000 4.6 90 17:41 25.06.2020
1754 Clouds 21 1017 46 10000 5.7 90 17:19 25.06.2020
1755 Clouds 21 1018 49 10000 5.1 80 16:55 25.06.2020
1756 Clouds 21 1018 49 10000 5.1 80 16:36 25.06.2020
1757 Clouds 20 1017 49 10000 5.7 70 16:18 25.06.2020
1758 Clouds 21 1018 53 10000 6.2 80 15:41 25.06.2020
1759 Clouds 21 1018 49 10000 5.7 80 15:19 25.06.2020
1760 Clouds 20 1018 52 10000 5.1 90 14:43 25.06.2020
1761 Clouds 20 1018 52 10000 5.7 90 14:23 25.06.2020
1762 Clouds 20 1018 56 10000 3.6 80 13:56 25.06.2020
1763 Clouds 20 1018 56 10000 3.6 80 13:38 25.06.2020
1764 Clouds 20 1018 56 10000 5.7 80 13:19 25.06.2020
1765 Clouds 19 1018 56 10000 5.7 70 12:45 25.06.2020
1766 Clouds 20 1018 56 10000 4.6 80 12:21 25.06.2020
1767 Clouds 19 1018 59 10000 3.1 70 11:58 25.06.2020
1768 Clouds 18 1018 59 10000 3.1 70 11:38 25.06.2020
1769 Clouds 18 1018 59 10000 3.6 80 11:20 25.06.2020
1770 Clouds 17 1019 63 10000 3.1 60 10:42 25.06.2020
1771 Clouds 17 1019 67 10000 2.6 60 10:23 25.06.2020
1772 Clouds 15 1020 67 10000 0.5 0 09:41 25.06.2020
1773 Clouds 15 1020 72 10000 0.5 0 09:23 25.06.2020
1774 Clouds 14 1020 77 10000 1.5 230 08:56 25.06.2020
1775 Clouds 14 1020 77 10000 1.5 230 08:38 25.06.2020
1776 Clouds 14 1020 77 10000 1 0 08:18 25.06.2020
1777 Clouds 13 1020 82 10000 0.5 0 07:41 25.06.2020
1778 Clouds 13 1020 87 10000 0.5 0 07:21 25.06.2020
1779 Clouds 13 1020 82 10000 1 0 06:31 25.06.2020
1780 Clouds 12 1020 82 10000 1.5 270 05:55 25.06.2020
1781 Clouds 13 1020 76 10000 0.5 0 05:29 25.06.2020
1782 Clouds 13 1020 76 10000 1.5 300 03:36 25.06.2020
1783 Clouds 14 1021 72 10000 0.5 0 02:45 25.06.2020
1784 Clear 14 1021 72 10000 0.5 0 02:19 25.06.2020
1785 Clear 14 1021 67 10000 1 0 01:35 25.06.2020
1786 Clear 15 1021 63 10000 1 0 00:50 25.06.2020
1787 Clear 16 1021 67 10000 1 0 00:22 25.06.2020
1788 Clear 17 1021 63 10000 1 0 23:58 24.06.2020
1789 Clear 17 1021 63 10000 1 0 23:37 24.06.2020
1790 Clear 17 1021 63 10000 1.5 280 23:19 24.06.2020
1791 Clear 18 1021 63 10000 1.5 300 22:42 24.06.2020
1792 Clear 19 1020 55 10000 1.5 10 22:21 24.06.2020
1793 Clear 20 1020 52 10000 1 0 21:57 24.06.2020
1794 Clear 20 1020 52 10000 1 0 21:37 24.06.2020
1795 Clear 19 1019 49 10000 3.1 70 21:19 24.06.2020
1796 Clear 20 1019 49 10000 3.1 70 20:58 24.06.2020
1797 Clear 22 1019 43 10000 5.1 80 20:39 24.06.2020
1798 Clear 22 1019 43 10000 4.6 80 20:21 24.06.2020
1799 Clouds 24 1019 41 10000 6.7 50 19:57 24.06.2020
1800 Clouds 24 1019 41 10000 6.7 50 19:38 24.06.2020
1801 Clouds 23 1019 41 10000 7.2 60 19:20 24.06.2020
1802 Clouds 24 1018 38 10000 8.2 60 18:58 24.06.2020
1803 Clouds 25 1018 38 10000 8.2 60 18:39 24.06.2020
1804 Clouds 24 1018 38 10000 8.2 70 18:20 24.06.2020
1805 Clouds 26 1018 39 10000 8.2 70 17:55 24.06.2020
1806 Clouds 25 1018 39 10000 8.2 70 17:37 24.06.2020
1807 Clouds 25 1018 39 10000 6.7 80 17:18 24.06.2020
1808 Clouds 25 1018 36 10000 6.2 70 16:55 24.06.2020
1809 Clouds 25 1018 36 10000 6.2 70 16:37 24.06.2020
1810 Clouds 25 1018 34 10000 5.7 90 16:19 24.06.2020
1811 Clouds 25 1018 34 10000 4.6 80 15:54 24.06.2020
1812 Clouds 25 1018 34 10000 4.6 80 15:36 24.06.2020
1813 Clouds 25 1018 36 10000 4.1 90 15:18 24.06.2020
1814 Clouds 25 1019 39 10000 3.6 70 14:40 24.06.2020
1815 Clouds 24 1019 38 10000 2.1 0 14:22 24.06.2020
1816 Clouds 23 1019 44 10000 2.1 0 13:42 24.06.2020
1817 Clouds 23 1020 50 10000 3.1 130 13:21 24.06.2020
1818 Clouds 22 1020 49 10000 3.1 120 12:45 24.06.2020
1819 Clouds 22 1021 53 10000 2.6 150 12:22 24.06.2020
1820 Clouds 21 1021 56 10000 2.6 70 11:58 24.06.2020
1821 Clouds 21 1021 56 10000 2.6 70 11:40 24.06.2020
1822 Clouds 20 1021 53 10000 2.1 70 11:22 24.06.2020
1823 Clouds 20 1022 56 10000 1.5 0 10:48 24.06.2020
1824 Clouds 19 1022 60 10000 1 0 10:20 24.06.2020
1825 Clouds 18 1022 63 10000 0.5 0 09:57 24.06.2020
1826 Clouds 16 1022 72 10000 1 0 09:39 24.06.2020
1827 Clouds 16 1022 72 10000 1 0 09:20 24.06.2020
1828 Clouds 14 1023 77 10000 1 0 08:40 24.06.2020
1829 Clouds 14 1023 77 10000 1 0 08:19 24.06.2020
1830 Clouds 13 1023 87 10000 1.5 260 07:50 24.06.2020
1831 Clouds 12 1023 93 10000 1.5 270 07:26 24.06.2020
1832 Clouds 13 1023 87 10000 1.5 250 06:46 24.06.2020
1833 Clouds 11 1023 87 10000 0.5 0 06:24 24.06.2020
1834 Clouds 11 1023 87 10000 1 0 05:46 24.06.2020
1835 Clouds 12 1023 87 10000 0.5 0 04:40 24.06.2020
1836 Clouds 12 1024 87 10000 1 0 03:40 24.06.2020
1837 Clouds 13 1023 82 10000 0.28 111 03:18 24.06.2020
1838 Clouds 13 1024 82 10000 0.28 111 02:36 24.06.2020
1839 Clouds 15 1024 72 10000 0.5 0 00:53 24.06.2020
1840 Clouds 15 1024 72 10000 0.5 0 00:53 24.06.2020
1841 Clouds 16 1024 68 10000 0.5 0 00:34 24.06.2020
1842 Clouds 18 1024 72 10000 0.5 0 23:49 23.06.2020
1843 Clouds 18 1024 68 10000 1.5 220 23:24 23.06.2020
1844 Clouds 20 1023 60 10000 1 0 22:59 23.06.2020
1845 Clouds 20 1023 60 10000 1 0 22:41 23.06.2020
1846 Clouds 20 1023 64 10000 1.5 260 22:19 23.06.2020
1847 Clouds 21 1023 56 10000 1 0 21:57 23.06.2020
1848 Clouds 21 1023 56 10000 1 0 21:38 23.06.2020
1849 Clouds 20 1022 53 10000 4.1 80 21:18 23.06.2020
1850 Clouds 21 1022 49 10000 4.1 60 20:55 23.06.2020
1851 Clouds 21 1021 53 10000 4.1 70 20:36 23.06.2020
1852 Clouds 21 1022 49 10000 4.1 60 20:36 23.06.2020
1853 Clouds 22 1021 53 10000 4.1 70 20:18 23.06.2020
1854 Clouds 23 1021 47 10000 7.2 70 19:42 23.06.2020
1855 Clouds 23 1021 44 10000 5.7 70 19:23 23.06.2020
1856 Clouds 24 1021 44 10000 5.7 60 18:39 23.06.2020
1857 Clouds 24 1021 44 10000 5.7 60 18:19 23.06.2020
1858 Clouds 26 1021 44 10000 5.1 80 17:44 23.06.2020
1859 Clouds 24 1021 44 10000 4.1 50 17:25 23.06.2020
1860 Clouds 25 1021 44 10000 2.6 40 16:57 23.06.2020
1861 Clouds 25 1021 44 10000 2.6 40 16:39 23.06.2020
1862 Clouds 25 1021 34 10000 1 0 16:20 23.06.2020
1863 Clouds 24 1021 39 10000 3.1 40 15:59 23.06.2020
1864 Clouds 25 1021 39 10000 3.1 40 15:41 23.06.2020
1865 Clouds 25 1021 36 10000 3.1 70 15:22 23.06.2020
1866 Clouds 24 1022 41 10000 2.6 0 14:43 23.06.2020
1867 Clouds 24 1022 41 10000 2.1 350 14:20 23.06.2020
1868 Clouds 24 1022 41 10000 2.1 350 14:20 23.06.2020
1869 Clouds 23 1022 41 10000 3.1 70 13:58 23.06.2020
1870 Clouds 23 1022 41 10000 3.1 70 13:40 23.06.2020
1871 Clouds 23 1023 44 10000 2.6 60 13:22 23.06.2020
1872 Clouds 22 1023 41 10000 2.1 70 12:45 23.06.2020
1873 Clouds 22 1023 53 10000 1 0 12:23 23.06.2020
1874 Clouds 21 1024 56 10000 1 0 11:59 23.06.2020
1875 Clouds 21 1024 56 10000 1 0 11:40 23.06.2020
1876 Clouds 21 1024 60 10000 1 0 11:19 23.06.2020
1877 Clouds 19 1024 64 10000 1 0 10:58 23.06.2020
1878 Clouds 19 1024 64 10000 1 0 10:39 23.06.2020
1879 Clouds 19 1025 68 10000 1 0 10:21 23.06.2020
1880 Clouds 19 1025 68 10000 1 0 10:21 23.06.2020
1881 Clouds 18 1025 68 10000 2.1 270 09:43 23.06.2020
1882 Clouds 16 1025 72 10000 1.5 0 09:21 23.06.2020
1883 Clouds 15 1025 82 10000 1.5 280 08:59 23.06.2020
1884 Clouds 15 1025 82 10000 1.5 280 08:41 23.06.2020
1885 Clouds 14 1025 82 10000 1.5 260 08:22 23.06.2020
1886 Clouds 13 1025 93 10000 1 270 07:43 23.06.2020
1887 Clouds 13 1025 93 10000 1 270 07:22 23.06.2020
1888 Clear 13 1025 93 10000 1 270 06:50 23.06.2020
1889 Clear 12 1025 100 10000 0.5 0 06:31 23.06.2020
1890 Clear 12 1025 93 10000 0.5 0 05:46 23.06.2020
1891 Clouds 13 1025 93 10000 0.5 0 04:39 23.06.2020
1892 Clouds 13 1025 93 10000 1.5 260 03:18 23.06.2020
1893 Clouds 13 1025 93 10000 1.5 320 02:42 23.06.2020
1894 Clouds 14 1025 87 10000 0.5 0 02:24 23.06.2020
1895 Clouds 14 1025 87 10000 1 0 01:43 23.06.2020
1896 Clouds 14 1025 87 10000 1 0 01:20 23.06.2020
1897 Clouds 14 1025 87 10000 0.5 0 00:24 23.06.2020
1898 Clouds 14 1025 87 10000 1 0 23:58 22.06.2020
1899 Clouds 14 1025 87 10000 1 0 23:39 22.06.2020
1900 Clouds 15 1025 82 10000 1 0 23:19 22.06.2020
1901 Clouds 15 1025 82 10000 1 0 22:57 22.06.2020
1902 Clouds 15 1025 82 10000 1 0 22:39 22.06.2020
1903 Clouds 15 1025 82 10000 1.5 50 22:20 22.06.2020
1904 Clouds 16 1024 82 10000 0.5 0 21:58 22.06.2020
1905 Clouds 17 1024 82 10000 0.5 0 21:39 22.06.2020
1906 Clouds 16 1024 77 10000 0.5 0 21:21 22.06.2020
1907 Clouds 17 1024 72 10000 1 0 20:44 22.06.2020
1908 Clouds 18 1024 68 10000 1.5 20 20:26 22.06.2020
1909 Clouds 18 1024 64 10000 1 0 19:59 22.06.2020
1910 Clouds 18 1024 64 10000 1 0 19:41 22.06.2020
1911 Clouds 18 1025 68 10000 1 0 19:19 22.06.2020
1912 Clouds 18 1025 68 10000 1 0 18:42 22.06.2020
1913 Clouds 18 1025 68 10000 1 0 18:24 22.06.2020
1914 Clouds 18 1025 68 10000 1 0 17:57 22.06.2020
1915 Rain 18 1025 68 10000 2.1 290 17:39 22.06.2020
1916 Rain 18 1025 68 10000 2.1 290 17:21 22.06.2020
1917 Rain 18 1025 72 10000 2.6 310 16:59 22.06.2020
1918 Clouds 18 1025 60 10000 1 0 16:41 22.06.2020
1919 Clouds 18 1025 60 10000 1 0 16:18 22.06.2020
1920 Clouds 18 1025 64 10000 1.5 130 15:54 22.06.2020
1921 Clouds 18 1025 68 10000 1 0 15:36 22.06.2020
1922 Clouds 18 1025 68 10000 1 0 15:18 22.06.2020
1923 Clouds 16 1026 77 10000 1 0 14:39 22.06.2020
1924 Clouds 16 1026 77 10000 1 0 14:20 22.06.2020
1925 Rain 15 1026 82 10000 1.5 80 13:54 22.06.2020
1926 Rain 16 1026 82 10000 1 0 13:36 22.06.2020
1927 Rain 16 1026 82 10000 1 0 13:18 22.06.2020
1928 Rain 16 1025 82 10000 2.6 290 12:41 22.06.2020
1929 Rain 16 1025 82 10000 2.6 290 12:22 22.06.2020
1930 Rain 16 1025 82 10000 2.6 290 12:22 22.06.2020
1931 Rain 16 1025 77 10000 1.5 310 11:39 22.06.2020
1932 Rain 16 1025 77 10000 1.5 310 11:20 22.06.2020
1933 Clouds 15 1025 77 10000 2.6 270 10:57 22.06.2020
1934 Clouds 15 1025 77 10000 1.5 260 10:39 22.06.2020
1935 Clouds 15 1025 77 10000 1.5 260 10:19 22.06.2020
1936 Clouds 16 1025 77 10000 1 0 09:59 22.06.2020
1937 Clouds 16 1025 77 10000 1 0 09:41 22.06.2020
1938 Clouds 15 1025 77 10000 1 0 09:20 22.06.2020
1939 Clouds 14 1025 87 10000 0.5 0 08:58 22.06.2020
1940 Clouds 13 1025 87 10000 1 0 08:38 22.06.2020
1941 Clouds 14 1025 93 10000 1.5 40 08:20 22.06.2020
1942 Clouds 14 1025 93 10000 1.5 40 07:50 22.06.2020
1943 Clouds 13 1025 87 10000 1.5 70 07:31 22.06.2020
1944 Clouds 13 1024 87 10000 1.5 220 06:44 22.06.2020
1945 Clouds 14 1024 87 10000 1.5 220 06:25 22.06.2020
1946 Clouds 13 1024 93 10000 2.1 270 05:53 22.06.2020
1947 Clouds 13 1024 87 10000 0.5 0 04:22 22.06.2020
1948 Clouds 14 1024 87 10000 0.5 0 02:35 22.06.2020
1949 Clouds 15 1024 82 10000 0.5 0 01:21 22.06.2020
1950 Clouds 15 1024 82 10000 0.5 0 00:39 22.06.2020
1951 Clouds 15 1024 82 10000 0.5 0 23:58 21.06.2020
1952 Clouds 15 1024 82 10000 1 0 23:39 21.06.2020
1953 Clouds 14 1024 82 10000 1 0 23:20 21.06.2020
1954 Clouds 14 1023 77 10000 0.5 0 22:57 21.06.2020
1955 Clouds 14 1023 77 10000 0.5 0 22:37 21.06.2020
1956 Clouds 14 1023 77 10000 0.5 0 22:19 21.06.2020
1957 Clouds 14 1023 77 10000 0.5 0 21:57 21.06.2020
1958 Clouds 15 1022 77 10000 1.5 360 21:39 21.06.2020
1959 Clouds 15 1022 77 10000 1.5 360 21:20 21.06.2020
1960 Clouds 16 1022 72 10000 1 0 20:57 21.06.2020
1961 Clouds 16 1022 68 10000 1.5 30 20:37 21.06.2020
1962 Clouds 16 1022 68 10000 1.5 30 20:18 21.06.2020
1963 Clouds 16 1022 63 10000 2.1 50 19:55 21.06.2020
1964 Clouds 17 1022 68 10000 1 0 19:37 21.06.2020
1965 Clouds 17 1022 68 10000 1 0 19:18 21.06.2020
1966 Clouds 17 1022 68 10000 1.5 40 18:40 21.06.2020
1967 Clouds 17 1022 68 10000 1.5 40 18:22 21.06.2020
1968 Clouds 17 1022 59 10000 1 0 17:59 21.06.2020
1969 Clouds 17 1022 63 10000 0.5 0 17:38 21.06.2020
1970 Clouds 17 1022 63 10000 0.5 0 17:19 21.06.2020
1971 Clouds 17 1022 68 10000 1.5 100 16:41 21.06.2020
1972 Clouds 17 1022 68 10000 1.5 100 16:23 21.06.2020
1973 Clouds 16 1022 72 10000 1 0 15:57 21.06.2020
1974 Clouds 16 1022 77 10000 1 0 15:37 21.06.2020
1975 Clouds 15 1022 77 10000 1 0 15:19 21.06.2020
1976 Clouds 15 1022 77 10000 1.5 170 14:39 21.06.2020
1977 Clouds 15 1022 77 10000 1.5 170 14:20 21.06.2020
1978 Rain 14 1022 77 10000 0.5 0 13:57 21.06.2020
1979 Rain 14 1022 77 10000 1 0 13:39 21.06.2020
1980 Rain 14 1022 77 10000 1 0 13:19 21.06.2020
1981 Clouds 15 1022 72 10000 2.6 70 12:44 21.06.2020
1982 Clouds 16 1022 72 10000 2.6 70 12:26 21.06.2020
1983 Clouds 15 1022 77 10000 1.5 80 11:59 21.06.2020
1984 Clouds 15 1022 82 10000 0.5 0 11:41 21.06.2020
1985 Clouds 15 1022 82 10000 0.5 0 11:23 21.06.2020
1986 Clouds 14 1022 87 10000 1 0 10:57 21.06.2020
1987 Clouds 14 1022 87 10000 1 0 10:38 21.06.2020
1988 Clouds 14 1022 87 10000 1 0 10:20 21.06.2020
1989 Rain 12 1022 93 10000 1.5 300 09:41 21.06.2020
1990 Rain 12 1022 93 10000 1.5 300 09:22 21.06.2020
1991 Rain 12 1022 87 10000 1 0 08:57 21.06.2020
1992 Rain 12 1022 87 10000 1 0 08:57 21.06.2020
1993 Clouds 12 1022 87 10000 1 0 08:39 21.06.2020
1994 Clouds 13 1022 87 10000 1 0 08:19 21.06.2020
1995 Clouds 12 1022 93 10000 0.5 0 07:41 21.06.2020
1996 Clouds 12 1022 93 10000 1 0 07:23 21.06.2020
1997 Clouds 12 1022 93 10000 1 0 06:50 21.06.2020
1998 Rain 13 1021 87 10000 0.5 0 06:19 21.06.2020
1999 Clouds 13 1021 87 10000 1 0 05:57 21.06.2020
2000 Clouds 13 1022 93 10000 0.5 0 04:28 21.06.2020
2001 Clouds 13 1022 93 10000 0.5 0 03:19 21.06.2020
2002 Clouds 12 1022 93 10000 1 0 02:22 21.06.2020
2003 Clouds 12 1022 82 10000 0.5 0 01:36 21.06.2020
2004 Clouds 12 1022 82 10000 0.5 0 01:18 21.06.2020
2005 Clouds 13 1022 82 10000 0.5 0 00:41 21.06.2020
2006 Clouds 12 1022 82 10000 0.5 0 00:23 21.06.2020
2007 Clouds 12 1022 87 10000 0.5 0 23:45 20.06.2020
2008 Clouds 12 1022 87 10000 0.5 0 23:22 20.06.2020
2009 Clouds 12 1022 87 10000 1 0 22:57 20.06.2020
2010 Clouds 12 1022 82 10000 1 0 22:39 20.06.2020
2011 Clouds 13 1022 82 10000 1 0 22:19 20.06.2020
2012 Clouds 13 1022 82 10000 1 0 21:57 20.06.2020
2013 Clouds 13 1021 82 10000 1 0 21:39 20.06.2020
2014 Clouds 13 1021 82 10000 1 0 21:20 20.06.2020
2015 Clouds 13 1021 82 10000 1 0 21:20 20.06.2020
2016 Clouds 13 1021 82 10000 1 350 20:58 20.06.2020
2017 Clouds 13 1021 87 10000 1 100 20:39 20.06.2020
2018 Clouds 13 1021 87 10000 1 100 20:20 20.06.2020
2019 Rain 14 1021 77 10000 1 0 19:44 20.06.2020
2020 Rain 14 1021 77 10000 1 0 19:26 20.06.2020
2021 Rain 14 1021 77 10000 1 0 18:59 20.06.2020
2022 Clouds 14 1021 63 10000 4.1 80 18:40 20.06.2020
2023 Clouds 16 1021 63 10000 4.1 80 18:20 20.06.2020
2024 Rain 16 1021 63 10000 3.6 70 17:57 20.06.2020
2025 Rain 16 1021 67 10000 3.6 80 17:39 20.06.2020
2026 Rain 16 1021 67 10000 3.6 80 17:20 20.06.2020
2027 Clouds 17 1020 49 10000 1 0 16:42 20.06.2020
2028 Clouds 18 1020 49 10000 1 0 16:19 20.06.2020
2029 Clouds 17 1020 49 10000 1 0 15:57 20.06.2020
2030 Clouds 16 1021 59 10000 2.1 280 15:39 20.06.2020
2031 Clouds 16 1021 59 10000 2.1 280 15:18 20.06.2020
2032 Clouds 17 1021 68 10000 1.5 310 14:42 20.06.2020
2033 Clouds 17 1021 68 10000 1.5 310 14:21 20.06.2020
2034 Clouds 16 1022 67 10000 0.5 0 13:42 20.06.2020
2035 Clouds 16 1022 67 10000 0.5 0 13:21 20.06.2020
2036 Clouds 15 1022 67 10000 1.5 170 12:57 20.06.2020
2037 Clouds 15 1022 72 10000 2.1 90 12:38 20.06.2020
2038 Clouds 13 1022 72 10000 1.5 90 12:19 20.06.2020
2039 Clouds 13 1022 72 10000 1.5 90 11:55 20.06.2020
2040 Clouds 13 1022 77 10000 2.1 60 11:36 20.06.2020
2041 Clouds 14 1022 77 10000 1 0 11:18 20.06.2020
2042 Clouds 12 1022 82 10000 1 0 10:42 20.06.2020
2043 Clouds 13 1022 82 10000 1 0 10:20 20.06.2020
2044 Clouds 12 1022 87 10000 1 0 09:43 20.06.2020
2045 Clouds 13 1022 87 10000 1 0 09:25 20.06.2020
2046 -273 0 0 0 0 0 08:59 20.06.2020
2047 Clouds 12 1022 87 10000 0.5 0 08:40 20.06.2020
2048 Clouds 12 1022 93 10000 0.5 0 08:22 20.06.2020
2049 Clouds 12 1022 93 10000 0.5 0 07:51 20.06.2020
2050 Clouds 12 1022 93 10000 0.5 0 07:51 20.06.2020
2051 Rain 11 1022 93 10000 2.1 270 07:26 20.06.2020
2052 Rain 11 1022 93 10000 2.1 270 06:49 20.06.2020
2053 Clouds 11 1022 93 10000 1 0 06:22 20.06.2020
2054 Clouds 11 1022 93 10000 0.5 0 05:48 20.06.2020
2055 Clouds 11 1021 93 10000 0.5 0 04:49 20.06.2020
2056 Clouds 11 1021 93 10000 0.5 0 02:20 20.06.2020
2057 Clouds 11 1021 93 10000 1 0 01:45 20.06.2020
2058 Clouds 12 1021 87 10000 1 0 00:50 20.06.2020
2059 Clouds 12 1021 87 10000 0.5 0 00:20 20.06.2020
2060 Rain 12 1021 87 10000 0.5 0 23:48 19.06.2020
2061 Rain 13 1021 87 10000 0.5 0 23:21 19.06.2020
2062 Clouds 13 1021 87 10000 1 0 22:58 19.06.2020
2063 Clouds 14 1020 82 10000 0.5 0 22:40 19.06.2020
2064 Clouds 12 1020 82 10000 0.5 0 22:21 19.06.2020
2065 Clouds 12 1020 82 10000 1 0 21:56 19.06.2020
2066 Clouds 12 1020 82 10000 1 0 21:56 19.06.2020
2067 Clouds 12 1020 82 10000 1.5 10 21:37 19.06.2020
2068 Clouds 12 1020 82 10000 1.5 10 21:18 19.06.2020
2069 Clouds 13 1019 82 10000 1.5 20 20:57 19.06.2020
2070 Clouds 13 1019 82 10000 1 0 20:39 19.06.2020
2071 Clouds 13 1019 82 10000 1 0 20:20 19.06.2020
2072 Clouds 13 1019 77 10000 1 0 19:55 19.06.2020
2073 Clouds 13 1019 77 10000 2.1 60 19:37 19.06.2020
2074 Clouds 14 1019 77 10000 3.1 70 19:18 19.06.2020
2075 Clouds 13 1019 77 10000 2.6 60 18:40 19.06.2020
2076 Clouds 13 1019 77 10000 2.6 60 18:21 19.06.2020
2077 Clouds 14 1018 72 10000 1.5 40 17:54 19.06.2020
2078 Clouds 14 1018 72 10000 1 0 17:36 19.06.2020
2079 Clouds 16 1018 67 10000 2.1 100 17:18 19.06.2020
2080 Clouds 16 1018 67 10000 2.1 70 16:41 19.06.2020
2081 Clouds 16 1018 67 10000 2.1 70 16:22 19.06.2020
2082 Clouds 16 1018 67 10000 2.1 80 15:54 19.06.2020
2083 Clouds 16 1018 67 10000 3.1 70 15:36 19.06.2020
2084 Clouds 16 1018 72 10000 3.1 60 15:18 19.06.2020
2085 Clouds 16 1017 72 10000 3.6 60 14:42 19.06.2020
2086 Clouds 16 1017 72 10000 3.6 60 14:22 19.06.2020
2087 Clouds 16 1017 72 10000 3.6 60 14:22 19.06.2020
2088 Clouds 16 1018 72 10000 3.1 80 13:59 19.06.2020
2089 Clouds 16 1018 72 10000 3.1 80 13:41 19.06.2020
2090 Clouds 16 1018 72 10000 3.1 80 13:23 19.06.2020
2091 Clouds 14 1018 87 10000 3.1 60 12:46 19.06.2020
2092 Clouds 14 1018 87 10000 3.1 60 12:22 19.06.2020
2093 Clouds 14 1018 82 10000 1.5 80 11:57 19.06.2020
2094 Rain 14 1018 82 10000 1 0 11:37 19.06.2020
2095 Rain 13 1018 87 10000 0.5 0 11:18 19.06.2020
2096 Rain 13 1018 87 10000 0.5 0 10:45 19.06.2020
2097 Rain 11 1018 87 10000 0.5 0 10:26 19.06.2020
2098 Rain 11 1018 93 10000 0.5 0 09:57 19.06.2020
2099 Rain 11 1018 93 10000 0.5 0 09:39 19.06.2020
2100 Rain 11 1018 93 10000 0.5 0 09:19 19.06.2020
2101 Rain 11 1018 87 10000 1 0 08:42 19.06.2020
2102 Rain 11 1018 87 10000 1 0 08:42 19.06.2020
2103 Rain 11 1018 87 10000 1 0 08:23 19.06.2020
2104 Clouds 11 1018 87 10000 1 0 07:55 19.06.2020
2105 Rain 10 1018 93 10000 0.5 0 07:36 19.06.2020
2106 Rain 10 1018 93 10000 1.02 259 07:18 19.06.2020
2107 Rain 10 1018 93 10000 0.5 0 06:23 19.06.2020
2108 Rain 10 1018 81 10000 1.5 0 05:43 19.06.2020
2109 Rain 11 1017 93 10000 2.6 110 04:23 19.06.2020
2110 Rain 11 1017 87 10000 3.6 240 02:50 19.06.2020
2111 Rain 12 1016 93 10000 1.5 200 00:48 19.06.2020
2112 Rain 13 1016 93 10000 3.1 260 00:22 19.06.2020
2113 Rain 13 1016 93 10000 3.1 250 23:59 18.06.2020
2114 Rain 14 1015 93 10000 2.6 260 23:41 18.06.2020
2115 Rain 14 1015 93 10000 2.6 260 23:23 18.06.2020
2116 Rain 14 1015 93 10000 3.1 270 22:58 18.06.2020
2117 Rain 15 1014 93 10000 4.6 270 22:36 18.06.2020
2118 Rain 14 1014 87 10000 6.2 270 22:18 18.06.2020
2119 Rain 15 1013 87 10000 6.7 290 21:38 18.06.2020
2120 Rain 15 1013 87 10000 6.7 290 21:19 18.06.2020
2121 Rain 17 1013 72 10000 6.2 260 20:55 18.06.2020
2122 Clouds 19 1012 59 10000 6.2 250 20:36 18.06.2020
2123 Clouds 18 1012 49 10000 3.6 40 20:18 18.06.2020
2124 Clouds 21 1012 46 10000 4.1 60 19:42 18.06.2020
2125 Clouds 18 1012 46 10000 4.1 60 19:20 18.06.2020
2126 Clouds 19 1011 46 10000 4.6 80 18:57 18.06.2020
2127 Clouds 20 1011 49 10000 1.5 330 18:36 18.06.2020
2128 Clouds 20 1011 49 10000 1.5 330 18:18 18.06.2020
2129 Clouds 20 1011 52 10000 4.6 270 17:43 18.06.2020
2130 Clouds 20 1011 52 10000 4.6 270 17:25 18.06.2020
2131 Clouds 20 1012 46 10000 3.6 280 16:55 18.06.2020
2132 Clouds 20 1012 49 10000 3.1 280 16:37 18.06.2020
2133 Clouds 20 1012 49 10000 3.1 280 16:18 18.06.2020
2134 Clouds 22 1012 43 10000 3.1 260 15:40 18.06.2020
2135 Clouds 21 1012 43 10000 3.1 260 15:21 18.06.2020
2136 Clouds 20 1012 46 10000 3.1 250 14:58 18.06.2020
2137 Clouds 21 1012 43 10000 1.5 0 14:39 18.06.2020
2138 Clouds 20 1012 43 10000 1.5 0 14:21 18.06.2020
2139 Clouds 20 1013 43 10000 1.5 0 13:55 18.06.2020
2140 Clouds 20 1013 49 10000 1.5 0 13:37 18.06.2020
2141 Clouds 20 1013 49 10000 1.5 0 13:18 18.06.2020
2142 Clouds 19 1013 46 10000 1.5 0 12:54 18.06.2020
2143 Clouds 19 1013 52 10000 1.5 0 12:36 18.06.2020
2144 Clouds 18 1013 56 10000 1 0 12:18 18.06.2020
2145 Clouds 18 1014 56 10000 1.5 0 11:44 18.06.2020
2146 Clouds 18 1014 56 10000 1.5 0 11:20 18.06.2020
2147 Clouds 18 1014 56 10000 1.5 0 11:20 18.06.2020
2148 Clouds 16 1014 63 10000 1 0 10:41 18.06.2020
2149 Clouds 17 1014 63 10000 1 0 10:19 18.06.2020
2150 Clouds 15 1014 72 10000 1 0 09:56 18.06.2020
2151 Clouds 14 1015 77 10000 1 0 09:38 18.06.2020
2152 Clouds 14 1015 77 10000 1 0 09:19 18.06.2020
2153 Clouds 12 1015 82 10000 2.6 260 08:40 18.06.2020
2154 Clouds 12 1015 82 10000 2.6 260 08:21 18.06.2020
2155 Clouds 12 1015 82 10000 2.6 260 08:21 18.06.2020
2156 Clouds 12 1015 82 10000 2.1 260 07:46 18.06.2020
2157 Clouds 11 1015 87 10000 3.6 270 07:27 18.06.2020
2158 Clouds 11 1015 87 10000 2.1 250 06:59 18.06.2020
2159 Clouds 11 1014 93 10000 2.6 270 06:20 18.06.2020
2160 Clouds 12 1014 87 10000 1.5 250 04:25 18.06.2020
2161 Clouds 12 1014 87 10000 1 0 02:51 18.06.2020
2162 Clouds 12 1014 87 10000 1 0 01:30 18.06.2020
2163 Clouds 12 1014 87 10000 2.6 290 00:57 18.06.2020
2164 Clouds 13 1014 87 10000 3.1 280 00:38 18.06.2020
2165 Clouds 13 1014 87 10000 3.1 280 00:20 18.06.2020
2166 Rain 13 1013 87 10000 5.7 270 23:43 17.06.2020
2167 Rain 13 1013 87 10000 5.7 270 23:21 17.06.2020
2168 Clouds 13 1013 82 10000 7.2 280 22:57 17.06.2020
2169 Clouds 15 1012 82 10000 7.2 280 22:38 17.06.2020
2170 Clouds 13 1012 82 10000 7.2 280 22:20 17.06.2020
2171 Clouds 15 1011 77 10000 8.7 270 21:55 17.06.2020
2172 Clouds 17 1011 63 10000 8.2 260 21:37 17.06.2020
2173 Clouds 17 1010 63 10000 7.7 250 21:18 17.06.2020
2174 Clouds 17 1010 63 10000 7.7 250 21:18 17.06.2020
2175 Clouds 17 1010 63 10000 7.2 250 20:38 17.06.2020
2176 Clouds 15 1010 63 10000 7.2 250 20:20 17.06.2020
2177 Clouds 16 1010 59 10000 7.2 240 19:56 17.06.2020
2178 Clouds 19 1009 55 10000 6.2 240 19:37 17.06.2020
2179 Clouds 16 1009 55 10000 6.2 240 19:18 17.06.2020
2180 Clouds 18 1008 43 10000 4.1 160 18:44 17.06.2020
2181 Clouds 18 1008 43 10000 4.1 160 18:26 17.06.2020
2182 Thunderstorm 19 1008 49 10000 4.1 80 17:45 17.06.2020
2183 Thunderstorm 19 1008 49 10000 4.1 80 17:23 17.06.2020
2184 Clouds 23 1007 46 10000 5.1 70 16:58 17.06.2020
2185 Clouds 23 1008 53 10000 5.1 60 16:39 17.06.2020
2186 Clouds 23 1008 53 10000 5.1 60 16:21 17.06.2020
2187 Clouds 23 1008 49 10000 4.6 90 15:57 17.06.2020
2188 Clouds 22 1008 53 10000 5.1 90 15:38 17.06.2020
2189 Clouds 20 1008 52 10000 4.6 80 15:19 17.06.2020
2190 Clouds 19 1008 52 10000 4.6 80 14:57 17.06.2020
2191 Clouds 20 1009 49 10000 4.6 80 14:39 17.06.2020
2192 Clouds 20 1009 49 10000 4.6 80 14:19 17.06.2020
2193 Clouds 22 1009 56 10000 5.1 70 13:55 17.06.2020
2194 Clouds 22 1009 56 10000 5.1 70 13:36 17.06.2020
2195 Clouds 21 1009 56 10000 4.1 60 13:18 17.06.2020
2196 Clouds 20 1010 60 10000 2.6 80 12:41 17.06.2020
2197 Clouds 20 1010 60 10000 2.6 80 12:21 17.06.2020
2198 Clouds 18 1010 63 10000 3.1 80 11:45 17.06.2020
2199 Clouds 18 1010 63 10000 3.1 80 11:26 17.06.2020
2200 Clouds 18 1011 63 10000 3.6 110 10:59 17.06.2020
2201 Clouds 18 1011 63 10000 1.5 0 10:38 17.06.2020
2202 Clouds 17 1011 72 10000 2.6 110 10:19 17.06.2020
2203 Clouds 17 1011 72 10000 2.6 110 09:56 17.06.2020
2204 Clouds 16 1011 72 10000 3.1 110 09:37 17.06.2020
2205 Clouds 15 1012 77 10000 2.6 90 09:19 17.06.2020
2206 Clouds 15 1012 77 10000 2.1 90 08:44 17.06.2020
2207 Clouds 14 1012 77 10000 2.1 90 08:20 17.06.2020
2208 Clouds 13 1012 82 10000 2.1 90 07:55 17.06.2020
2209 Clouds 13 1012 82 10000 1.5 80 07:37 17.06.2020
2210 Clouds 13 1012 82 10000 1.5 80 07:18 17.06.2020
2211 Clouds 13 1012 87 10000 2.1 70 06:41 17.06.2020
2212 Clouds 14 1012 87 10000 2.1 70 06:22 17.06.2020
2213 Clouds 14 1012 87 10000 2.6 90 05:56 17.06.2020
2214 Clouds 12 1013 87 10000 1.5 120 04:39 17.06.2020
2215 Clouds 12 1014 87 10000 1 0 02:41 17.06.2020
2216 Clouds 13 1014 87 10000 0.5 0 00:53 17.06.2020
2217 Clouds 13 1014 82 10000 0.5 0 00:30 17.06.2020
2218 Clouds 15 1014 87 10000 1.5 10 00:00 17.06.2020
2219 Clouds 16 1014 82 10000 1 0 23:41 16.06.2020
2220 Clouds 16 1014 82 10000 1 0 23:22 16.06.2020
2221 Clouds 16 1014 82 10000 0.5 0 22:57 16.06.2020
2222 Clouds 16 1014 82 10000 1.5 30 22:38 16.06.2020
2223 Clouds 16 1014 82 10000 1.5 30 22:19 16.06.2020
2224 Clouds 16 1014 82 10000 2.1 10 21:58 16.06.2020
2225 Clouds 17 1014 82 10000 1 0 21:40 16.06.2020
2226 Clouds 15 1014 82 10000 1 0 21:21 16.06.2020
2227 Clouds 15 1014 82 10000 1.5 50 20:43 16.06.2020
2228 Clouds 15 1014 82 10000 1.5 50 20:23 16.06.2020
2229 Rain 16 1014 77 10000 3.1 40 19:58 16.06.2020
2230 Clouds 16 1014 68 10000 1 330 19:40 16.06.2020
2231 Clouds 16 1014 68 10000 1 330 19:22 16.06.2020
2232 Rain 16 1014 72 10000 1.5 330 18:59 16.06.2020
2233 Clouds 16 1014 63 10000 1 0 18:41 16.06.2020
2234 Clouds 16 1014 63 10000 1 0 18:21 16.06.2020
2235 Rain 17 1014 63 10000 1.5 50 17:57 16.06.2020
2236 Rain 17 1014 63 10000 2.6 60 17:38 16.06.2020
2237 Rain 17 1014 63 10000 2.6 60 17:38 16.06.2020
2238 Rain 17 1014 63 10000 2.6 60 17:19 16.06.2020
2239 Rain 17 1015 63 10000 2.6 70 16:56 16.06.2020
2240 Clouds 17 1015 63 10000 2.6 60 16:38 16.06.2020
2241 Clouds 17 1015 63 10000 2.6 60 16:19 16.06.2020
2242 Clouds 17 1015 68 10000 4.1 60 15:56 16.06.2020
2243 Clouds 17 1015 59 10000 3.1 70 15:38 16.06.2020
2244 Clouds 19 1015 59 10000 3.1 70 15:20 16.06.2020
2245 Rain 18 1016 72 10000 3.6 70 14:43 16.06.2020
2246 Rain 16 1016 72 10000 3.6 70 14:25 16.06.2020
2247 Clouds 17 1016 68 10000 4.1 60 13:58 16.06.2020
2248 Clouds 17 1016 68 10000 3.1 60 13:40 16.06.2020
2249 Clouds 17 1016 68 10000 3.1 60 13:22 16.06.2020
2250 Clouds 15 1016 72 10000 2.1 60 12:42 16.06.2020
2251 Clouds 15 1016 72 10000 2.1 60 12:42 16.06.2020
2252 Clouds 16 1016 72 10000 2.1 60 12:21 16.06.2020
2253 Clouds 16 1017 77 10000 1.5 20 11:56 16.06.2020
2254 Clouds 15 1017 77 10000 1 0 11:38 16.06.2020
2255 Clouds 16 1017 77 10000 1 0 11:19 16.06.2020
2256 Clouds 15 1017 82 10000 0.5 0 10:55 16.06.2020
2257 Clouds 14 1017 82 10000 0.5 0 10:37 16.06.2020
2258 Clouds 14 1017 82 10000 0.5 0 10:18 16.06.2020
2259 Clouds 14 1018 87 10000 2.1 280 09:42 16.06.2020
2260 Clouds 14 1018 87 10000 2.1 280 09:21 16.06.2020
2261 Rain 13 1018 87 10000 1 0 08:48 16.06.2020
2262 Rain 13 1018 87 10000 1 0 08:30 16.06.2020
2263 Clouds 11 1018 93 10000 0.5 0 07:51 16.06.2020
2264 Clouds 13 1018 93 10000 1.5 260 07:28 16.06.2020
2265 Clouds 12 1018 93 10000 0.5 0 06:55 16.06.2020
2266 Clouds 12 1018 93 10000 0.5 0 06:27 16.06.2020
2267 Clouds 12 1018 93 10000 1 0 05:46 16.06.2020
2268 Clouds 12 1018 93 10000 0.5 0 04:42 16.06.2020
2269 Clouds 12 1018 93 10000 1 0 03:31 16.06.2020
2270 Clouds 12 1019 93 10000 0.5 0 02:18 16.06.2020
2271 Rain 12 1019 93 10000 0.5 0 01:31 16.06.2020
2272 Drizzle 12 1019 93 10000 1 0 00:52 16.06.2020
2273 Rain 12 1019 93 10000 1.5 270 00:22 16.06.2020
2274 Rain 13 1019 87 10000 1.5 260 23:43 15.06.2020
2275 Rain 13 1019 87 10000 1.5 260 23:23 15.06.2020
2276 Clouds 13 1019 87 10000 1.5 300 22:56 15.06.2020
2277 Clouds 13 1019 87 10000 2.6 270 22:38 15.06.2020
2278 Clouds 13 1019 87 10000 2.6 270 22:19 15.06.2020
2279 Clouds 13 1018 87 10000 4.6 260 21:56 15.06.2020
2280 Clouds 13 1018 93 10000 4.1 260 21:37 15.06.2020
2281 Clouds 13 1018 93 10000 4.1 260 21:19 15.06.2020
2282 Clouds 13 1018 93 10000 4.1 260 21:19 15.06.2020
2283 Rain 13 1018 87 10000 2.6 300 20:56 15.06.2020
2284 Rain 13 1018 87 10000 2.1 310 20:37 15.06.2020
2285 Rain 13 1018 87 10000 2.1 310 20:19 15.06.2020
2286 Rain 13 1018 87 10000 2.1 280 19:55 15.06.2020
2287 Rain 13 1018 87 10000 2.1 290 19:37 15.06.2020
2288 Rain 14 1018 82 10000 1 0 19:18 15.06.2020
2289 -273 0 0 0 0 0 18:44 15.06.2020
2290 Rain 16 1018 82 10000 1 0 18:22 15.06.2020
2291 Rain 16 1018 82 10000 1 0 17:59 15.06.2020
2292 Rain 16 1018 87 10000 1 0 17:41 15.06.2020
2293 Rain 16 1018 87 10000 1 0 17:20 15.06.2020
2294 Rain 16 1018 87 10000 1 0 17:20 15.06.2020
2295 Rain 16 1018 87 10000 1.5 340 16:58 15.06.2020
2296 Rain 16 1018 87 10000 2.6 80 16:39 15.06.2020
2297 Rain 16 1018 87 10000 2.6 80 16:18 15.06.2020
2298 Rain 16 1017 82 10000 2.6 40 15:55 15.06.2020
2299 Rain 16 1017 87 10000 1.5 40 15:36 15.06.2020
2300 Rain 15 1017 77 10000 2.6 70 15:18 15.06.2020
2301 Clouds 15 1017 77 10000 2.6 100 14:41 15.06.2020
2302 Clouds 17 1017 77 10000 2.6 100 14:20 15.06.2020
2303 Clouds 17 1017 77 10000 2.6 100 14:20 15.06.2020
2304 Rain 17 1017 77 10000 2.6 60 13:58 15.06.2020
2305 Rain 17 1017 77 10000 2.1 90 13:39 15.06.2020
2306 Rain 17 1017 77 10000 2.1 90 13:20 15.06.2020
2307 Rain 17 1018 77 10000 1.5 80 12:55 15.06.2020
2308 Clouds 16 1018 77 10000 0.5 0 12:36 15.06.2020
2309 Clouds 16 1018 82 10000 1.5 60 12:18 15.06.2020
2310 Clouds 16 1018 82 10000 1 0 11:42 15.06.2020
2311 Clouds 16 1018 82 10000 1 0 11:23 15.06.2020
2312 Rain 14 1018 87 10000 1.5 90 10:44 15.06.2020
2313 Rain 14 1018 87 10000 1.5 90 10:22 15.06.2020
2314 Clouds 13 1018 87 10000 1.5 80 09:47 15.06.2020
2315 Clouds 13 1017 82 10000 1 0 09:25 15.06.2020
2316 Clouds 13 1017 82 10000 1 0 08:57 15.06.2020
2317 Clouds 13 1017 87 10000 1 0 08:39 15.06.2020
2318 Clouds 13 1017 87 10000 1 0 08:39 15.06.2020
2319 Clouds 13 1017 87 10000 1 0 08:20 15.06.2020
2320 Rain 13 1017 87 10000 0.5 0 07:45 15.06.2020
2321 Rain 13 1017 87 10000 0.5 0 07:22 15.06.2020
2322 Clouds 13 1017 87 10000 0.5 0 06:42 15.06.2020
2323 Clouds 13 1017 87 10000 0.5 0 06:20 15.06.2020
2324 Clouds 13 1017 87 10000 0.5 0 05:43 15.06.2020
2325 Clouds 13 1017 87 10000 0.5 0 05:24 15.06.2020
2326 Clouds 13 1017 93 10000 1 0 04:19 15.06.2020
2327 Clouds 13 1017 93 10000 0.5 0 03:40 15.06.2020
2328 Rain 13 1017 93 10000 0.5 0 02:34 15.06.2020
2329 Rain 13 1017 93 10000 1.5 110 01:53 15.06.2020
2330 Rain 13 1017 93 10000 1 0 01:31 15.06.2020
2331 Rain 13 1017 87 10000 1 0 00:58 15.06.2020
2332 Rain 13 1017 87 10000 1.5 70 00:39 15.06.2020
2333 Rain 13 1017 87 10000 1.5 70 00:19 15.06.2020
2334 Clouds 13 1017 87 10000 2.6 80 23:46 14.06.2020
2335 Clouds 15 1017 87 10000 2.6 80 23:24 14.06.2020
2336 Clouds 13 1017 87 10000 3.1 60 22:58 14.06.2020
2337 Clouds 16 1017 82 10000 1.5 70 22:39 14.06.2020
2338 Rain 16 1016 82 10000 1.5 100 22:19 14.06.2020
2339 Rain 16 1016 82 10000 1.5 100 21:57 14.06.2020
2340 Drizzle 16 1016 82 10000 2.1 80 21:38 14.06.2020
2341 Drizzle 16 1016 82 10000 2.1 80 21:19 14.06.2020
2342 Clouds 17 1016 77 10000 2.1 80 20:58 14.06.2020
2343 Clouds 17 1016 82 10000 2.1 60 20:38 14.06.2020
2344 Clouds 15 1016 82 10000 2.1 60 20:19 14.06.2020
2345 Clouds 17 1016 77 10000 2.1 50 19:58 14.06.2020
2346 Clouds 17 1015 77 10000 2.6 50 19:38 14.06.2020
2347 Clouds 17 1015 77 10000 2.6 50 19:19 14.06.2020
2348 Rain 17 1015 77 10000 2.1 70 18:56 14.06.2020
2349 Rain 17 1015 77 10000 2.1 40 18:38 14.06.2020
2350 Rain 15 1015 77 10000 2.1 40 18:19 14.06.2020
2351 Clouds 17 1015 77 10000 2.1 70 17:57 14.06.2020
2352 Clouds 17 1015 77 10000 2.1 50 17:38 14.06.2020
2353 Clouds 17 1015 77 10000 2.1 50 17:38 14.06.2020
2354 Clouds 17 1015 77 10000 2.1 50 17:19 14.06.2020
2355 Clouds 17 1015 77 10000 2.1 60 16:41 14.06.2020
2356 Clouds 15 1015 77 10000 2.1 60 16:21 14.06.2020
2357 Clouds 15 1015 77 10000 1.5 60 15:59 14.06.2020
2358 Clouds 15 1015 77 10000 1.5 60 15:40 14.06.2020
2359 Clouds 15 1015 77 10000 1 0 15:18 14.06.2020
2360 Clouds 15 1015 77 10000 1 0 14:58 14.06.2020
2361 Clouds 15 1015 82 10000 1 0 14:40 14.06.2020
2362 Clouds 15 1015 82 10000 1 0 14:19 14.06.2020
2363 Rain 14 1015 82 10000 1.5 100 13:55 14.06.2020
2364 Rain 14 1015 82 10000 1.5 80 13:36 14.06.2020
2365 Rain 14 1015 82 10000 1.5 80 13:18 14.06.2020
2366 Rain 14 1015 82 10000 2.1 90 12:54 14.06.2020
2367 Rain 15 1015 82 10000 2.1 100 12:36 14.06.2020
2368 Rain 16 1015 82 10000 2.1 100 12:18 14.06.2020
2369 Rain 16 1015 82 10000 1 0 11:55 14.06.2020
2370 Rain 16 1015 82 10000 1.5 50 11:36 14.06.2020
2371 Clouds 16 1014 82 10000 1.5 80 11:18 14.06.2020
2372 Rain 15 1014 87 10000 2.1 80 10:40 14.06.2020
2373 Rain 15 1014 87 10000 2.1 80 10:19 14.06.2020
2374 Rain 14 1014 87 10000 2.6 100 09:44 14.06.2020
2375 Rain 14 1014 87 10000 2.6 100 09:24 14.06.2020
2376 Clouds 14 1013 82 10000 1.5 0 08:44 14.06.2020
2377 Clouds 14 1013 82 10000 1.5 0 08:22 14.06.2020
2378 Clouds 14 1013 82 10000 3.6 80 07:58 14.06.2020
2379 Clouds 14 1013 82 10000 4.1 90 07:37 14.06.2020
2380 Clouds 14 1013 82 10000 1 0 07:19 14.06.2020
2381 Clouds 14 1012 82 10000 1 0 06:25 14.06.2020
2382 Clouds 15 1012 67 10000 2.1 270 05:39 14.06.2020
2383 Clouds 15 1011 67 10000 2.6 320 04:51 14.06.2020
2384 Clouds 15 1011 72 10000 1.5 0 04:25 14.06.2020
2385 Clouds 16 1012 77 10000 0.5 0 02:53 14.06.2020
2386 Clouds 15 1012 82 10000 1.5 10 02:23 14.06.2020
2387 Clouds 16 1011 77 10000 1.5 110 01:36 14.06.2020
2388 Clouds 16 1011 77 10000 1.5 40 00:50 14.06.2020
2389 Rain 16 1010 77 10000 0.5 0 00:31 14.06.2020
2390 Rain 16 1010 77 10000 2.6 90 23:56 13.06.2020
2391 Clouds 17 1010 72 10000 4.6 90 23:38 13.06.2020
2392 Clouds 18 1010 72 10000 4.6 90 23:20 13.06.2020
2393 Clouds 19 1010 68 10000 5.1 80 22:54 13.06.2020
2394 Clouds 19 1010 68 10000 5.1 80 22:54 13.06.2020
2395 Clouds 22 1009 49 10000 4.6 100 22:36 13.06.2020
2396 Thunderstorm 22 1009 46 10000 4.6 0 22:18 13.06.2020
2397 Thunderstorm 23 1008 43 10000 7.2 120 21:42 13.06.2020
2398 Thunderstorm 20 1008 43 10000 7.2 120 21:24 13.06.2020
2399 Clouds 23 1007 56 10000 2.6 40 20:57 13.06.2020
2400 Clouds 25 1007 47 10000 2.1 100 20:39 13.06.2020
2401 Thunderstorm 25 1006 47 10000 6.2 60 20:18 13.06.2020
2402 Clouds 27 1006 39 10000 6.2 80 19:41 13.06.2020
2403 Clouds 27 1006 39 10000 6.2 80 19:41 13.06.2020
2404 Clouds 27 1006 39 10000 6.2 80 19:20 13.06.2020
2405 Clouds 27 1006 39 10000 7.2 70 18:59 13.06.2020
2406 Clouds 27 1006 39 10000 6.7 80 18:40 13.06.2020
2407 Clouds 27 1006 39 10000 6.7 80 18:20 13.06.2020
2408 Clouds 27 1006 39 10000 6.7 90 17:57 13.06.2020
2409 Clouds 27 1007 34 10000 6.2 90 17:39 13.06.2020
2410 Clouds 27 1007 34 10000 5.1 90 17:20 13.06.2020
2411 Clouds 27 1007 34 10000 5.1 90 16:55 13.06.2020
2412 Clouds 27 1007 36 10000 5.1 70 16:37 13.06.2020
2413 Clouds 27 1008 34 10000 5.1 80 16:18 13.06.2020
2414 Clouds 27 1008 36 10000 4.6 100 15:44 13.06.2020
2415 Clouds 25 1008 36 10000 4.6 100 15:25 13.06.2020
2416 Clouds 26 1009 39 10000 4.1 70 14:45 13.06.2020
2417 Clouds 26 1009 39 10000 4.1 70 14:26 13.06.2020
2418 Clouds 25 1009 41 10000 4.1 60 13:58 13.06.2020
2419 Clouds 26 1009 39 10000 2.1 0 13:40 13.06.2020
2420 Clouds 25 1009 39 10000 2.1 0 13:21 13.06.2020
2421 Clouds 23 1010 38 10000 0.5 0 12:44 13.06.2020
2422 Clouds 23 1010 38 10000 0.5 0 12:26 13.06.2020
2423 Clouds 22 1010 49 10000 1.5 0 11:57 13.06.2020
2424 Clouds 21 1011 46 10000 2.6 270 11:38 13.06.2020
2425 Clouds 21 1011 46 10000 2.6 270 11:19 13.06.2020
2426 Clouds 21 1011 46 10000 2.6 270 11:19 13.06.2020
2427 Clouds 20 1011 49 10000 3.1 280 10:56 13.06.2020
2428 Clouds 20 1012 52 10000 4.1 270 10:37 13.06.2020
2429 Clouds 19 1012 52 10000 4.1 270 10:18 13.06.2020
2430 Clouds 19 1012 59 10000 5.1 260 09:42 13.06.2020
2431 Clouds 18 1012 59 10000 5.1 260 09:21 13.06.2020
2432 Clouds 16 1012 67 10000 4.1 280 08:48 13.06.2020
2433 Clear 15 1012 72 10000 4.1 280 08:30 13.06.2020
2434 Clear 15 1012 76 10000 3.1 280 07:50 13.06.2020
2435 Clear 13 1012 76 10000 3.1 270 07:27 13.06.2020
2436 Clear 11 1012 87 10000 1.5 260 06:49 13.06.2020
2437 Clear 10 1012 87 10000 1.5 260 06:28 13.06.2020
2438 Clear 11 1011 81 10000 1.5 300 05:45 13.06.2020
2439 Clear 11 1011 81 10000 2.6 260 05:24 13.06.2020
2440 Clear 13 1011 76 10000 1 0 03:47 13.06.2020
2441 Clear 14 1011 76 10000 2.6 220 02:54 13.06.2020
2442 Clear 14 1010 76 10000 2.1 290 02:29 13.06.2020
2443 Clear 15 1010 72 10000 3.1 270 01:41 13.06.2020
2444 Clear 15 1010 72 10000 3.1 270 01:18 13.06.2020
2445 Clear 18 1009 55 10000 2.1 0 00:42 13.06.2020
2446 Clear 22 1009 40 10000 3.1 70 00:23 13.06.2020
2447 Clear 21 1009 46 10000 2.6 0 23:41 12.06.2020
2448 Clear 21 1009 46 10000 2.6 0 23:19 12.06.2020
2449 Clear 21 1009 46 10000 2.6 0 23:19 12.06.2020
2450 Clear 22 1009 43 10000 3.6 0 22:56 12.06.2020
2451 Clear 23 1008 40 10000 4.1 0 22:38 12.06.2020
2452 Clear 23 1008 40 10000 4.1 0 22:19 12.06.2020
2453 Clear 23 1008 40 10000 5.7 140 21:47 12.06.2020
2454 Clear 24 1007 38 10000 6.2 150 21:24 12.06.2020
2455 Clear 24 1007 38 10000 6.2 150 20:58 12.06.2020
2456 Clear 24 1007 36 10000 5.7 140 20:39 12.06.2020
2457 Clear 22 1007 36 10000 5.7 140 20:21 12.06.2020
2458 Clouds 25 1006 33 10000 6.7 140 19:47 12.06.2020
2459 Clouds 24 1006 33 10000 6.2 150 19:22 12.06.2020
2460 Clouds 24 1006 36 10000 6.7 130 19:00 12.06.2020
2461 Clouds 26 1006 34 10000 6.2 140 18:37 12.06.2020
2462 Clouds 26 1006 34 10000 6.2 140 18:37 12.06.2020
2463 Clouds 25 1006 34 10000 6.2 140 18:18 12.06.2020
2464 Clouds 25 1006 31 10000 10.3 130 17:45 12.06.2020
2465 Clouds 25 1006 31 10000 10.3 130 17:26 12.06.2020
2466 Clouds 25 1006 29 10000 6.7 140 16:58 12.06.2020
2467 Clouds 25 1006 31 10000 6.7 140 16:40 12.06.2020
2468 Clouds 25 1006 31 10000 6.7 140 16:19 12.06.2020
2469 Clouds 24 1007 33 10000 5.7 140 15:43 12.06.2020
2470 Clouds 24 1007 33 10000 5.7 140 15:19 12.06.2020
2471 Clouds 24 1007 31 10000 6.2 0 14:43 12.06.2020
2472 Clouds 24 1007 31 10000 6.2 0 14:23 12.06.2020
2473 Clouds 23 1007 33 10000 7.2 130 13:58 12.06.2020
2474 Clouds 23 1007 36 10000 5.1 150 13:40 12.06.2020
2475 Clouds 23 1007 36 10000 5.1 150 13:19 12.06.2020
2476 Clouds 23 1008 43 10000 2.6 0 12:40 12.06.2020
2477 Clouds 23 1008 43 10000 2.6 0 12:19 12.06.2020
2478 Clouds 21 1009 49 10000 4.6 280 11:56 12.06.2020
2479 Clouds 20 1009 49 10000 5.7 280 11:36 12.06.2020
2480 Clouds 20 1009 49 10000 5.7 280 11:36 12.06.2020
2481 Clouds 20 1009 49 10000 5.7 280 11:18 12.06.2020
2482 Clouds 18 1010 59 10000 5.7 270 10:42 12.06.2020
2483 Clouds 18 1010 59 10000 5.7 270 10:23 12.06.2020
2484 Clouds 17 1011 71 10000 5.7 270 09:44 12.06.2020
2485 Clouds 14 1011 71 10000 5.7 270 09:21 12.06.2020
2486 Clouds 12 1011 81 10000 4.6 270 08:43 12.06.2020
2487 Clouds 12 1011 81 10000 4.6 270 08:24 12.06.2020
2488 Clear 9 1011 87 10000 4.6 290 07:44 12.06.2020
2489 Clear 10 1011 87 10000 4.6 290 07:25 12.06.2020
2490 Clear 10 1011 87 10000 2.1 270 06:55 12.06.2020
2491 Clear 8 1011 93 10000 2.1 240 06:25 12.06.2020
2492 Clear 8 1011 87 10000 2.1 270 05:50 12.06.2020
2493 Clear 8 1012 93 10000 2.1 280 05:28 12.06.2020
2494 Clear 9 1011 87 10000 3.1 280 04:41 12.06.2020
2495 Clear 9 1011 93 10000 4.1 270 02:46 12.06.2020
2496 Clear 10 1011 81 10000 2.1 260 01:52 12.06.2020
2497 Clear 10 1011 81 10000 3.6 260 01:25 12.06.2020
2498 Clear 12 1011 62 10000 2.1 180 00:42 12.06.2020
2499 Clear 12 1011 62 10000 2.1 180 00:24 12.06.2020
2500 Clear 13 1010 55 10000 3.6 150 23:59 11.06.2020
2501 Clouds 13 1010 55 10000 3.1 100 23:40 11.06.2020
2502 Clouds 13 1010 55 10000 3.1 100 23:21 11.06.2020
2503 Clouds 13 1010 67 10000 1.5 0 22:57 11.06.2020
2504 Clouds 14 1010 63 10000 1 0 22:38 11.06.2020
2505 Clouds 14 1010 63 10000 1 0 22:19 11.06.2020
2506 Clouds 14 1010 63 10000 1 0 22:19 11.06.2020
2507 Clouds 13 1009 67 10000 2.6 30 21:55 11.06.2020
2508 Clouds 15 1009 59 10000 1.5 70 21:37 11.06.2020
2509 Clouds 16 1009 45 10000 4.1 150 21:19 11.06.2020
2510 Clouds 16 1008 63 10000 2.1 290 20:43 11.06.2020
2511 Clouds 16 1008 63 10000 2.1 290 20:21 11.06.2020
2512 Clouds 17 1008 55 10000 3.1 270 19:45 11.06.2020
2513 Clouds 17 1008 55 10000 3.1 270 19:23 11.06.2020
2514 Clouds 18 1007 49 10000 4.6 260 18:59 11.06.2020
2515 Clouds 18 1007 49 10000 4.6 260 18:41 11.06.2020
2516 Clouds 19 1007 43 10000 5.1 260 18:20 11.06.2020
2517 Clouds 19 1007 49 10000 3.1 260 17:56 11.06.2020
2518 Clouds 19 1007 49 10000 3.1 260 17:37 11.06.2020
2519 Clouds 20 1008 49 10000 2.1 270 17:19 11.06.2020
2520 Clouds 19 1008 52 10000 3.1 250 16:46 11.06.2020
2521 Clouds 18 1008 52 10000 3.6 240 16:28 11.06.2020
2522 Clouds 18 1009 55 10000 5.1 260 15:59 11.06.2020
2523 Clouds 18 1009 55 10000 5.1 260 15:41 11.06.2020
2524 Clouds 17 1009 52 10000 6.7 260 15:23 11.06.2020
2525 Clouds 17 1009 55 10000 5.7 260 14:55 11.06.2020
2526 Clouds 16 1009 55 10000 5.7 260 14:36 11.06.2020
2527 Clouds 16 1009 55 10000 6.7 250 14:18 11.06.2020
2528 Clouds 16 1009 55 10000 6.7 250 13:54 11.06.2020
2529 Clouds 15 1009 55 10000 7.2 250 13:36 11.06.2020
2530 Clouds 15 1009 55 10000 7.2 250 13:18 11.06.2020
2531 Clouds 14 1010 58 10000 6.7 250 12:39 11.06.2020
2532 Clouds 14 1010 62 10000 5.7 250 12:20 11.06.2020
2533 Clouds 13 1010 67 10000 6.2 250 11:59 11.06.2020
2534 Clouds 13 1010 67 10000 6.2 250 11:40 11.06.2020
2535 Clouds 13 1010 66 10000 4.6 260 11:21 11.06.2020
2536 Clouds 12 1010 66 10000 5.7 250 10:57 11.06.2020
2537 Clouds 12 1010 66 10000 5.7 250 10:38 11.06.2020
2538 Clouds 12 1011 71 10000 5.7 250 10:18 11.06.2020
2539 Clouds 11 1011 71 10000 6.7 260 09:42 11.06.2020
2540 Clouds 10 1010 76 10000 7.7 260 09:23 11.06.2020
2541 Clouds 9 1011 81 10000 5.1 260 08:44 11.06.2020
2542 Clouds 9 1011 81 10000 6.2 270 08:20 11.06.2020
2543 Clouds 9 1011 81 10000 7.2 260 07:58 11.06.2020
2544 Clouds 9 1011 81 10000 7.2 260 07:40 11.06.2020
2545 Clouds 10 1011 81 10000 4.1 270 07:20 11.06.2020
2546 Clouds 9 1011 93 10000 5.1 280 06:29 11.06.2020
2547 Clouds 9 1010 93 10000 4.6 280 05:46 11.06.2020
2548 Rain 9 1011 93 10000 4.1 280 03:56 11.06.2020
2549 Rain 10 1011 93 10000 5.1 270 03:24 11.06.2020
2550 Rain 9 1011 93 10000 4.1 250 02:32 11.06.2020
2551 Rain 10 1011 87 10000 2.1 240 01:53 11.06.2020
2552 Rain 10 1011 87 10000 0.5 0 01:31 11.06.2020
2553 Rain 10 1011 87 10000 1 0 00:51 11.06.2020
2554 Rain 9 1011 93 10000 0.5 0 00:30 11.06.2020
2555 Rain 9 1011 93 10000 1 0 23:49 10.06.2020
2556 Rain 10 1011 100 10000 1 0 23:27 10.06.2020
2557 Rain 10 1012 93 9000 1 100 22:59 10.06.2020
2558 Rain 10 1011 93 10000 1.5 100 22:38 10.06.2020
2559 Rain 10 1011 93 10000 1.5 100 22:20 10.06.2020
2560 Rain 10 1011 93 9000 1.5 100 21:58 10.06.2020
2561 Rain 10 1011 93 9000 1.5 100 21:40 10.06.2020
2562 Rain 10 1011 93 6000 2.1 60 21:18 10.06.2020
2563 Rain 10 1010 87 5000 2.1 100 20:57 10.06.2020
2564 Rain 10 1010 87 5000 2.1 100 20:39 10.06.2020
2565 Rain 11 1010 87 10000 1 0 20:21 10.06.2020
2566 Rain 11 1010 87 10000 0.5 0 19:42 10.06.2020
2567 Rain 11 1010 87 10000 1 0 19:20 10.06.2020
2568 Rain 11 1010 87 8000 2.1 80 19:00 10.06.2020
2569 Rain 11 1010 87 8000 2.1 80 18:41 10.06.2020
2570 Rain 12 1010 93 9000 1.5 120 18:20 10.06.2020
2571 Rain 12 1010 93 9000 1.5 50 17:58 10.06.2020
2572 Rain 12 1010 93 9000 1.5 50 17:58 10.06.2020
2573 Rain 12 1010 93 9000 1.5 50 17:40 10.06.2020
2574 Rain 12 1010 93 9000 1 0 17:19 10.06.2020
2575 Rain 12 1010 93 9000 2.6 150 16:58 10.06.2020
2576 Rain 13 1010 93 9000 2.6 150 16:39 10.06.2020
2577 Rain 13 1010 93 9000 2.6 150 16:39 10.06.2020
2578 Rain 14 1010 87 10000 3.1 70 16:20 10.06.2020
2579 Rain 13 1010 82 10000 1.5 20 15:55 10.06.2020
2580 Rain 13 1010 82 10000 1.5 20 15:36 10.06.2020
2581 Rain 14 1010 82 10000 1.5 310 15:18 10.06.2020
2582 Rain 14 1010 82 10000 1.5 310 15:18 10.06.2020
2583 Rain 14 1009 87 10000 2.6 270 14:40 10.06.2020
2584 Rain 14 1010 82 10000 3.1 270 14:21 10.06.2020
2585 Rain 14 1010 82 10000 4.1 290 13:43 10.06.2020
2586 Rain 14 1010 82 10000 4.1 280 13:22 10.06.2020
2587 Rain 13 1010 87 10000 3.1 260 12:55 10.06.2020
2588 Rain 13 1010 87 10000 3.1 260 12:55 10.06.2020
2589 Rain 13 1011 87 10000 2.6 260 12:37 10.06.2020
2590 Rain 13 1011 87 10000 2.6 260 12:18 10.06.2020
2591 Rain 12 1011 87 10000 2.1 310 11:42 10.06.2020
2592 Rain 13 1011 82 10000 2.6 260 11:20 10.06.2020
2593 Clouds 13 1011 87 10000 3.1 270 10:58 10.06.2020
2594 Clouds 12 1011 87 10000 3.1 270 10:40 10.06.2020
2595 Clouds 12 1011 87 10000 3.6 260 10:21 10.06.2020
2596 Clouds 11 1011 93 10000 3.1 270 09:44 10.06.2020
2597 Clouds 12 1011 93 10000 3.1 270 09:25 10.06.2020
2598 Drizzle 11 1011 93 6000 2.1 270 08:58 10.06.2020
2599 Rain 11 1011 93 4000 1.5 280 08:39 10.06.2020
2600 Rain 11 1011 93 4000 1.5 280 08:21 10.06.2020
2601 Rain 11 1011 100 2800 1.5 280 07:41 10.06.2020
2602 Rain 11 1011 93 4000 1.5 270 07:23 10.06.2020
2603 Rain 11 1011 93 5000 1.5 250 06:50 10.06.2020
2604 Rain 11 1011 100 2500 1 250 06:31 10.06.2020
2605 Rain 11 1011 100 4800 1 270 05:58 10.06.2020
2606 Rain 11 1011 100 6000 1.5 260 05:29 10.06.2020
2607 Rain 11 1011 100 10000 0.5 0 04:46 10.06.2020
2608 Rain 11 1012 100 7000 1 250 04:28 10.06.2020
2609 Rain 12 1012 93 7000 1.5 190 02:24 10.06.2020
2610 Rain 12 1012 93 10000 1 0 01:39 10.06.2020
2611 Rain 12 1012 93 10000 1 0 00:41 10.06.2020
2612 Rain 12 1012 93 10000 1 0 00:23 10.06.2020
2613 Rain 12 1012 93 10000 0.5 0 23:59 09.06.2020
2614 Rain 12 1012 93 10000 0.5 0 23:41 09.06.2020
2615 Rain 12 1013 93 10000 0.5 0 23:22 09.06.2020
2616 Rain 12 1013 93 10000 0.85 334 22:56 09.06.2020
2617 Rain 12 1013 93 10000 0.85 334 22:38 09.06.2020
2618 Rain 12 1012 93 10000 0.5 0 22:20 09.06.2020
2619 Rain 12 1012 93 10000 0.5 0 21:57 09.06.2020
2620 Rain 12 1012 93 10000 0.5 0 21:57 09.06.2020
2621 Rain 12 1012 93 10000 0.5 0 21:38 09.06.2020
2622 Clouds 11 1012 93 10000 1.5 170 21:20 09.06.2020
2623 Rain 12 1012 87 10000 1 0 20:57 09.06.2020
2624 Rain 12 1012 87 10000 1 0 20:38 09.06.2020
2625 Rain 12 1012 87 10000 1.5 310 20:19 09.06.2020
2626 Rain 12 1012 87 10000 1.5 230 19:57 09.06.2020
2627 Rain 13 1012 87 10000 1.5 230 19:38 09.06.2020
2628 Rain 13 1012 93 10000 1.5 270 19:20 09.06.2020
2629 Rain 13 1011 82 10000 1.5 190 18:56 09.06.2020
2630 Rain 13 1011 82 10000 2.1 150 18:37 09.06.2020
2631 Rain 13 1011 82 10000 2.1 150 18:18 09.06.2020
2632 Rain 13 1011 82 10000 3.6 100 17:54 09.06.2020
2633 Rain 14 1011 82 10000 3.6 100 17:36 09.06.2020
2634 Rain 14 1011 77 10000 3.6 110 17:18 09.06.2020
2635 Rain 15 1011 72 10000 3.1 70 16:42 09.06.2020
2636 Rain 15 1011 63 10000 3.6 70 16:22 09.06.2020
2637 Rain 15 1011 63 10000 3.1 60 15:55 09.06.2020
2638 Rain 15 1011 63 10000 3.1 60 15:37 09.06.2020
2639 Rain 15 1011 63 10000 3.1 60 15:37 09.06.2020
2640 Rain 17 1011 63 10000 2.6 30 15:18 09.06.2020
2641 Clouds 16 1011 55 10000 1.5 0 14:40 09.06.2020
2642 Clouds 18 1011 55 10000 2.1 0 14:20 09.06.2020
2643 Clouds 17 1011 59 10000 1 0 13:57 09.06.2020
2644 Clouds 17 1011 59 10000 1 0 13:38 09.06.2020
2645 Clouds 17 1011 63 10000 1 0 13:20 09.06.2020
2646 Clouds 17 1012 67 10000 1 0 12:42 09.06.2020
2647 Clouds 16 1012 67 10000 1.5 0 12:21 09.06.2020
2648 Clouds 16 1012 67 10000 1.5 0 12:21 09.06.2020
2649 Clouds 13 1012 67 10000 0.5 0 11:58 09.06.2020
2650 Clouds 13 1012 67 10000 0.5 0 11:40 09.06.2020
2651 Clouds 14 1012 76 10000 0.5 0 11:20 09.06.2020
2652 Clouds 12 1012 82 10000 0.5 0 10:58 09.06.2020
2653 Clouds 13 1012 76 10000 1 0 10:39 09.06.2020
2654 Clouds 13 1012 76 10000 1 0 10:19 09.06.2020
2655 Clouds 11 1012 81 10000 1 0 09:43 09.06.2020
2656 Clouds 10 1012 81 10000 0.5 0 09:24 09.06.2020
2657 Clouds 10 1012 87 10000 0.5 0 08:56 09.06.2020
2658 Clouds 10 1012 87 10000 0.5 0 08:37 09.06.2020
2659 Clouds 9 1012 87 10000 0.5 0 08:19 09.06.2020
2660 Clouds 9 1012 87 10000 0.37 335 07:37 09.06.2020
2661 Clouds 9 1012 93 10000 0.55 295 07:19 09.06.2020
2662 Clouds 9 1012 93 10000 1 160 06:52 09.06.2020
2663 Clouds 9 1012 93 10000 0.5 0 06:33 09.06.2020
2664 Clouds 9 1012 93 10000 1 0 04:57 09.06.2020
2665 Drizzle 9 1012 93 10000 0.5 0 02:52 09.06.2020
2666 Rain 9 1013 93 10000 1 0 01:41 09.06.2020
2667 Rain 9 1013 93 10000 1 0 01:19 09.06.2020
2668 Rain 9 1013 93 10000 1.5 80 00:45 09.06.2020
2669 Rain 9 1013 93 10000 0.5 0 00:20 09.06.2020
2670 Rain 9 1013 93 10000 1.5 100 23:54 08.06.2020
2671 Rain 9 1013 93 10000 1.5 100 23:36 08.06.2020
2672 Rain 9 1013 93 10000 1.5 100 23:18 08.06.2020
2673 Rain 10 1013 93 10000 1.5 70 22:41 08.06.2020
2674 Rain 9 1013 93 10000 1 0 22:21 08.06.2020
2675 Rain 10 1013 93 10000 1.5 120 21:58 08.06.2020
2676 Rain 10 1013 93 10000 1.5 120 21:39 08.06.2020
2677 Rain 9 1012 87 10000 2.1 140 21:21 08.06.2020
2678 Rain 10 1012 87 10000 1 0 20:56 08.06.2020
2679 Rain 10 1012 87 10000 1 0 20:38 08.06.2020
2680 Rain 10 1012 81 10000 1 0 20:19 08.06.2020
2681 Rain 10 1012 87 10000 1.5 150 19:44 08.06.2020
2682 Rain 11 1012 81 10000 3.6 110 19:22 08.06.2020
2683 Rain 11 1012 71 10000 1.5 70 18:59 08.06.2020
2684 Rain 12 1012 67 10000 3.6 70 18:40 08.06.2020
2685 Clouds 12 1012 67 10000 3.6 70 18:18 08.06.2020
2686 Clouds 12 1012 62 10000 1.5 0 17:55 08.06.2020
2687 Clouds 12 1012 62 10000 1.5 0 17:37 08.06.2020
2688 Clouds 13 1012 62 10000 3.1 90 17:18 08.06.2020
2689 Clouds 13 1012 62 10000 3.6 90 16:44 08.06.2020
2690 Clouds 13 1012 58 10000 4.6 100 16:23 08.06.2020
2691 Clouds 13 1012 58 10000 4.1 80 15:46 08.06.2020
2692 Clouds 14 1012 54 10000 3.6 90 15:23 08.06.2020
2693 Clouds 14 1012 58 10000 3.1 70 14:59 08.06.2020
2694 Clouds 15 1012 58 10000 3.1 70 14:41 08.06.2020
2695 Clouds 16 1012 59 10000 5.1 70 14:21 08.06.2020
2696 Clouds 15 1012 62 10000 3.6 80 13:44 08.06.2020
2697 Clouds 15 1012 62 10000 4.1 90 13:26 08.06.2020
2698 Clouds 15 1012 62 10000 2.6 90 12:58 08.06.2020
2699 Clouds 14 1012 71 10000 3.6 130 12:40 08.06.2020
2700 Clouds 14 1012 71 10000 3.6 130 12:19 08.06.2020
2701 Clouds 14 1013 71 10000 3.6 100 11:42 08.06.2020
2702 Clouds 13 1013 71 10000 3.6 110 11:23 08.06.2020
2703 Clouds 10 1013 81 10000 3.1 120 10:59 08.06.2020
2704 Clouds 10 1013 81 10000 3.1 120 10:40 08.06.2020
2705 Clouds 12 1013 81 10000 2.6 100 10:21 08.06.2020
2706 Rain 9 1013 81 10000 2.6 100 09:59 08.06.2020
2707 Rain 9 1013 81 10000 2.6 100 09:59 08.06.2020
2708 Rain 9 1013 81 10000 2.6 100 09:41 08.06.2020
2709 Clouds 9 1013 87 10000 2.1 100 09:22 08.06.2020
2710 Clouds 9 1013 87 10000 2.6 110 08:48 08.06.2020
2711 Clouds 9 1013 93 10000 2.6 70 08:23 08.06.2020
2712 Rain 9 1013 93 10000 1.5 100 07:46 08.06.2020
2713 Rain 9 1013 93 10000 1.5 110 07:24 08.06.2020
2714 Rain 9 1013 93 8000 0.5 0 06:54 08.06.2020
2715 Rain 9 1013 93 10000 1 130 06:35 08.06.2020
2716 Rain 8 1013 100 10000 0.5 0 05:53 08.06.2020
2717 Rain 8 1013 100 10000 1 280 04:32 08.06.2020
2718 Rain 9 1013 93 10000 1 0 02:46 08.06.2020
2719 Drizzle 9 1013 93 5000 0.5 0 02:21 08.06.2020
2720 Rain 9 1013 93 10000 1.5 100 01:34 08.06.2020
2721 Clouds 8 1013 100 10000 1 170 00:33 08.06.2020
2722 Rain 9 1013 93 10000 1 140 23:59 07.06.2020
2723 Rain 9 1013 93 10000 1 140 23:37 07.06.2020
2724 Rain 9 1013 93 10000 0.23 155 23:18 07.06.2020
2725 Rain 9 1013 93 10000 1 0 22:40 07.06.2020
2726 Rain 9 1013 93 10000 1 0 22:20 07.06.2020
2727 Rain 9 1013 93 10000 1.5 240 22:00 07.06.2020
2728 Rain 9 1013 93 10000 1.5 240 21:39 07.06.2020
2729 Rain 9 1013 93 10000 1.5 250 21:20 07.06.2020
2730 Rain 9 1013 93 10000 0.5 0 20:57 07.06.2020
2731 Rain 10 1013 87 10000 2.1 240 20:38 07.06.2020
2732 Rain 10 1013 87 10000 2.1 240 20:19 07.06.2020
2733 Rain 10 1012 87 10000 2.6 260 19:56 07.06.2020
2734 Rain 10 1012 87 10000 3.1 250 19:38 07.06.2020
2735 Rain 10 1012 87 10000 3.1 250 19:19 07.06.2020
2736 Rain 10 1011 87 10000 3.1 240 18:55 07.06.2020
2737 Rain 10 1011 87 10000 3.1 240 18:36 07.06.2020
2738 Rain 10 1011 87 10000 2.6 220 18:18 07.06.2020
2739 Rain 10 1011 87 10000 2.1 0 17:41 07.06.2020
2740 Rain 10 1010 87 10000 5.7 250 17:23 07.06.2020
2741 Rain 10 1009 81 10000 6.7 250 16:59 07.06.2020
2742 Rain 10 1009 81 10000 6.7 250 16:41 07.06.2020
2743 Rain 11 1009 81 10000 5.1 250 16:20 07.06.2020
2744 Rain 11 1009 81 10000 5.1 250 16:20 07.06.2020
2745 Rain 11 1008 87 10000 5.1 250 15:37 07.06.2020
2746 Rain 11 1008 82 10000 5.1 220 15:18 07.06.2020
2747 Rain 12 1007 82 10000 3.1 100 14:39 07.06.2020
2748 Rain 12 1007 82 10000 3.1 100 14:39 07.06.2020
2749 Rain 13 1007 77 10000 4.6 60 14:21 07.06.2020
2750 Rain 14 1006 72 10000 2.6 0 13:47 07.06.2020
2751 Rain 15 1006 72 10000 2.6 0 13:47 07.06.2020
2752 Rain 14 1006 72 10000 2.6 0 13:47 07.06.2020
2753 Rain 14 1005 72 10000 2.6 270 13:21 07.06.2020
2754 Clouds 15 1005 68 10000 2.1 300 12:55 07.06.2020
2755 Clouds 14 1005 72 10000 3.1 40 12:36 07.06.2020
2756 Clouds 14 1005 72 10000 3.1 40 12:18 07.06.2020
2757 Clouds 14 1005 67 10000 4.6 90 11:54 07.06.2020
2758 Clouds 14 1005 67 10000 4.6 90 11:36 07.06.2020
2759 Clouds 15 1005 68 10000 3.6 80 11:18 07.06.2020
2760 Clouds 15 1005 68 10000 2.6 90 10:42 07.06.2020
2761 Clouds 14 1006 72 10000 2.1 70 10:19 07.06.2020
2762 Clouds 13 1006 77 10000 1.5 100 09:57 07.06.2020
2763 Clouds 13 1006 77 10000 1.5 100 09:38 07.06.2020
2764 Clouds 13 1006 77 10000 1 0 09:19 07.06.2020
2765 Clouds 13 1006 82 10000 1 0 08:48 07.06.2020
2766 Clouds 13 1006 76 10000 0.5 0 08:23 07.06.2020
2767 Clouds 13 1006 82 10000 1 0 07:49 07.06.2020
2768 Mist 12 1006 82 4000 0.5 0 07:28 07.06.2020
2769 Mist 12 1006 87 2500 0.5 0 06:43 07.06.2020
2770 Clouds 11 1006 87 10000 1 0 05:40 07.06.2020
2771 Clouds 12 1007 82 10000 1.5 100 04:20 07.06.2020
2772 Clouds 12 1007 82 10000 1.5 100 04:20 07.06.2020
2773 Clouds 12 1007 82 10000 0.5 0 02:34 07.06.2020
2774 Clouds 12 1007 76 10000 1.5 110 01:50 07.06.2020
2775 Clouds 12 1007 76 10000 1.5 90 01:25 07.06.2020
2776 Clouds 13 1007 76 10000 3.1 50 00:45 07.06.2020
2777 Clouds 14 1007 67 10000 3.1 90 00:19 07.06.2020
2778 Clouds 13 1007 87 10000 1 0 23:57 06.06.2020
2779 Clouds 13 1007 87 10000 1 0 23:36 06.06.2020
2780 Clouds 14 1007 82 10000 1.5 270 23:18 06.06.2020
2781 Clouds 14 1007 82 10000 1 0 22:56 06.06.2020
2782 Clouds 14 1006 82 10000 1 0 22:37 06.06.2020
2783 Clouds 14 1006 82 10000 1 0 22:18 06.06.2020
2784 Clouds 14 1006 87 10000 0.5 0 21:44 06.06.2020
2785 Clouds 14 1005 77 10000 1.5 180 21:22 06.06.2020
2786 Clouds 15 1005 82 10000 1 0 20:56 06.06.2020
2787 Clouds 15 1005 82 10000 1 0 20:37 06.06.2020
2788 Rain 15 1005 77 10000 1.5 0 20:18 06.06.2020
2789 Clouds 19 1005 72 10000 1.5 0 19:56 06.06.2020
2790 Clouds 20 1004 64 10000 2.1 60 19:37 06.06.2020
2791 Clouds 20 1004 64 10000 2.1 60 19:18 06.06.2020
2792 Clouds 20 1004 72 10000 1.5 0 18:42 06.06.2020
2793 Rain 19 1004 77 10000 2.1 0 18:24 06.06.2020
2794 Rain 19 1004 77 10000 2.1 0 18:24 06.06.2020
2795 Thunderstorm 22 1004 49 10000 1 0 17:57 06.06.2020
2796 Thunderstorm 22 1004 49 10000 1 0 17:39 06.06.2020
2797 Rain 21 1004 56 10000 2.6 280 17:18 06.06.2020
2798 Clouds 21 1004 56 10000 3.6 260 16:41 06.06.2020
2799 Clouds 22 1004 49 10000 3.1 0 16:22 06.06.2020
2800 Clouds 22 1004 49 10000 2.1 0 15:56 06.06.2020
2801 Clouds 22 1004 49 10000 2.1 0 15:37 06.06.2020
2802 Clouds 22 1003 46 10000 5.7 40 15:18 06.06.2020
2803 Clouds 22 1003 46 10000 6.2 40 14:40 06.06.2020
2804 Clouds 22 1003 46 10000 6.2 50 14:22 06.06.2020
2805 Clouds 23 1003 40 10000 7.7 50 13:55 06.06.2020
2806 Clouds 24 1003 44 10000 7.2 50 13:37 06.06.2020
2807 Clouds 24 1003 44 10000 7.2 50 13:18 06.06.2020
2808 Clouds 22 1003 43 10000 8.2 50 12:42 06.06.2020
2809 Clouds 20 1004 56 10000 5.1 50 12:23 06.06.2020
2810 Clouds 19 1004 56 10000 1.5 0 11:58 06.06.2020
2811 Clouds 19 1004 56 10000 1.5 0 11:38 06.06.2020
2812 Clouds 17 1005 59 10000 2.1 280 11:19 06.06.2020
2813 Clouds 17 1005 59 10000 1 0 10:57 06.06.2020
2814 Clouds 17 1005 59 10000 1 0 10:39 06.06.2020
2815 Clouds 17 1005 59 10000 0.5 0 10:20 06.06.2020
2816 Clouds 16 1006 67 10000 1 0 09:45 06.06.2020
2817 Clouds 14 1006 67 10000 0.5 0 09:27 06.06.2020
2818 Clouds 14 1006 72 10000 2.1 30 08:56 06.06.2020
2819 Clouds 13 1006 72 10000 2.1 30 08:38 06.06.2020
2820 Clouds 12 1006 82 10000 2.1 50 08:19 06.06.2020
2821 Clouds 12 1006 82 10000 2.1 50 08:19 06.06.2020
2822 Clouds 12 1006 82 10000 1 0 07:45 06.06.2020
2823 Clouds 12 1006 81 10000 1.5 260 07:21 06.06.2020
2824 Clouds 11 1006 81 10000 1.5 260 06:46 06.06.2020
2825 Clouds 11 1006 81 10000 1 0 06:27 06.06.2020
2826 Clouds 11 1005 81 10000 0.5 0 05:52 06.06.2020
2827 Clouds 10 1005 87 10000 3.6 270 05:26 06.06.2020
2828 Clouds 11 1004 76 10000 2.1 100 04:38 06.06.2020
2829 Clouds 11 1005 76 10000 1 0 02:45 06.06.2020
2830 Clouds 12 1005 71 10000 1 0 01:45 06.06.2020
2831 Clouds 12 1005 71 10000 2.6 90 01:18 06.06.2020
2832 Clouds 12 1005 71 10000 2.1 80 00:43 06.06.2020
2833 Clouds 12 1005 71 10000 1.5 50 00:25 06.06.2020
2834 Clouds 12 1005 71 10000 1 0 23:40 05.06.2020
2835 Clouds 13 1005 67 10000 2.1 60 23:21 05.06.2020
2836 Clouds 15 1004 67 10000 2.1 70 22:59 05.06.2020
2837 Clouds 15 1004 67 10000 2.1 70 22:41 05.06.2020
2838 Clouds 15 1004 67 10000 2.6 110 22:23 05.06.2020
2839 Clouds 16 1003 63 10000 2.1 90 21:58 05.06.2020
2840 Clouds 16 1003 63 10000 2.1 90 21:40 05.06.2020
2841 Clouds 14 1002 63 10000 3.6 70 21:19 05.06.2020
2842 Clouds 15 1002 59 10000 3.1 80 20:56 05.06.2020
2843 Clouds 15 1002 59 10000 3.1 80 20:37 05.06.2020
2844 Clouds 15 1001 59 10000 3.6 80 20:19 05.06.2020
2845 Clouds 16 1001 55 10000 3.6 80 19:40 05.06.2020
2846 Clouds 16 1001 55 10000 5.1 70 19:22 05.06.2020
2847 Clouds 16 1000 52 10000 4.6 80 18:54 05.06.2020
2848 Clouds 16 1000 48 10000 4.1 90 18:36 05.06.2020
2849 Clouds 17 1000 48 10000 4.1 90 18:18 05.06.2020
2850 Clouds 17 999 48 10000 3.6 70 17:55 05.06.2020
2851 Clouds 16 999 48 10000 3.6 70 17:37 05.06.2020
2852 Clouds 17 999 48 10000 3.6 50 17:18 05.06.2020
2853 Clouds 20 999 49 10000 3.1 80 16:37 05.06.2020
2854 Clouds 19 1000 52 10000 4.6 50 16:19 05.06.2020
2855 Clouds 19 1000 52 10000 2.1 80 15:41 05.06.2020
2856 Clouds 18 1000 45 10000 1 0 15:21 05.06.2020
2857 Clouds 17 1000 48 10000 2.1 300 14:58 05.06.2020
2858 Clouds 17 1000 48 10000 2.1 300 14:40 05.06.2020
2859 Clouds 17 1000 48 10000 3.6 310 14:21 05.06.2020
2860 Clouds 17 1000 52 10000 2.1 250 13:47 05.06.2020
2861 Clouds 17 1000 55 10000 2.1 0 13:28 05.06.2020
2862 Clouds 15 1000 59 10000 2.1 0 12:57 05.06.2020
2863 Clouds 15 1000 59 10000 2.1 0 12:39 05.06.2020
2864 Clouds 15 1000 62 10000 3.1 70 12:19 05.06.2020
2865 Clouds 16 1001 63 10000 3.1 60 11:43 05.06.2020
2866 Clouds 16 1001 63 10000 3.1 60 11:43 05.06.2020
2867 Clouds 16 1001 63 10000 3.1 60 11:43 05.06.2020
2868 Clouds 15 1001 67 10000 2.1 0 11:24 05.06.2020
2869 Clouds 15 1001 67 10000 2.1 0 10:59 05.06.2020
2870 Clouds 14 1001 76 10000 0.5 0 10:41 05.06.2020
2871 Clouds 14 1001 76 10000 1 0 10:20 05.06.2020
2872 Clouds 12 1001 87 10000 0.5 0 09:57 05.06.2020
2873 Clouds 12 1001 87 10000 1 0 09:39 05.06.2020
2874 Clouds 12 1001 87 10000 1 0 09:39 05.06.2020
2875 Clouds 12 1001 87 10000 1 0 09:20 05.06.2020
2876 Clouds 11 1001 87 10000 0.5 0 08:58 05.06.2020
2877 Clouds 11 1001 87 10000 0.5 0 08:40 05.06.2020
2878 Rain 10 1001 87 10000 0.5 0 08:18 05.06.2020
2879 Clouds 10 1001 93 10000 0.5 0 07:50 05.06.2020
2880 Clouds 10 1000 93 10000 1.5 190 07:32 05.06.2020
2881 Rain 10 1000 93 10000 1 230 06:49 05.06.2020
2882 Rain 10 1000 93 10000 1 0 05:23 05.06.2020
2883 Rain 9 1000 93 10000 1.5 320 04:28 05.06.2020
2884 Rain 9 1000 100 10000 0.5 0 03:32 05.06.2020
2885 Rain 10 1000 93 10000 1 0 02:30 05.06.2020
2886 Rain 10 1000 87 10000 1 0 01:59 05.06.2020
2887 Rain 10 1001 93 10000 2.6 250 01:33 05.06.2020
2888 Rain 10 1000 87 10000 5.7 250 00:46 05.06.2020
2889 Rain 10 1000 87 8000 8.7 250 00:22 05.06.2020
2890 Rain 11 999 81 10000 8.7 250 23:58 04.06.2020
2891 Rain 11 999 81 10000 8.7 250 23:40 04.06.2020
2892 Rain 11 999 87 10000 6.7 240 23:21 04.06.2020
2893 Rain 12 998 76 10000 6.2 230 22:42 04.06.2020
2894 Clouds 13 997 67 10000 4.6 270 22:21 04.06.2020
2895 Clouds 13 997 67 10000 4.1 260 21:58 04.06.2020
2896 -273 0 0 0 0 0 21:58 04.06.2020
2897 Clouds 14 997 67 10000 4.1 260 21:38 04.06.2020
2898 Clouds 14 997 67 10000 5.1 260 21:20 04.06.2020
2899 Clouds 14 996 63 10000 4.1 260 20:57 04.06.2020
2900 Clouds 14 996 63 10000 4.1 260 20:39 04.06.2020
2901 Clouds 15 996 59 10000 3.1 280 20:19 04.06.2020
2902 Clouds 16 995 45 10000 5.1 150 19:55 04.06.2020
2903 Clouds 20 995 42 10000 6.7 140 19:37 04.06.2020
2904 Clouds 17 995 42 10000 6.7 140 19:18 04.06.2020
2905 Clouds 20 995 42 10000 8.2 130 18:38 04.06.2020
2906 Clouds 20 995 42 10000 6.7 140 18:20 04.06.2020
2907 Clouds 20 995 42 10000 7.2 130 17:56 04.06.2020
2908 Clouds 20 995 42 10000 7.2 130 17:38 04.06.2020
2909 Clouds 20 996 42 10000 5.7 130 17:19 04.06.2020
2910 Clouds 20 996 45 10000 6.7 120 16:40 04.06.2020
2911 Clouds 17 996 45 10000 7.2 130 16:20 04.06.2020
2912 Clouds 20 996 42 10000 5.7 20 15:46 04.06.2020
2913 Clouds 21 997 52 10000 3.6 60 15:27 04.06.2020
2914 Clouds 20 997 49 10000 3.6 0 14:55 04.06.2020
2915 Clouds 19 998 45 10000 5.1 60 14:37 04.06.2020
2916 Clouds 19 998 45 10000 5.1 60 14:18 04.06.2020
2917 Clouds 18 998 48 10000 4.6 20 13:41 04.06.2020
2918 Clouds 18 998 48 10000 4.6 20 13:21 04.06.2020
2919 Clouds 17 998 59 10000 3.6 50 12:59 04.06.2020
2920 Clouds 17 999 72 10000 1 0 12:41 04.06.2020
2921 Clouds 17 999 72 10000 1 0 12:22 04.06.2020
2922 Clouds 16 999 77 10000 1 0 11:55 04.06.2020
2923 Clouds 16 999 77 10000 1 0 11:37 04.06.2020
2924 Clouds 15 999 77 10000 2.1 280 11:19 04.06.2020
2925 Clouds 15 999 82 10000 2.6 280 10:42 04.06.2020
2926 Clouds 14 999 82 10000 3.6 270 10:23 04.06.2020
2927 Clouds 14 1000 82 10000 3.6 270 09:58 04.06.2020
2928 Clouds 14 1000 82 10000 3.6 270 09:40 04.06.2020
2929 Clouds 12 1000 87 10000 2.1 280 09:21 04.06.2020
2930 Clouds 13 1000 87 10000 3.1 280 08:44 04.06.2020
2931 Clouds 13 1000 87 10000 4.6 270 08:25 04.06.2020
2932 Clouds 12 1000 93 10000 3.6 280 07:47 04.06.2020
2933 Clouds 12 1001 93 10000 2.1 280 07:23 04.06.2020
2934 Clouds 11 1001 93 10000 2.6 280 06:42 04.06.2020
2935 Clouds 10 1001 93 10000 2.6 280 06:24 04.06.2020
2936 Clouds 10 1002 93 10000 1 290 05:34 04.06.2020
2937 Clouds 10 1002 93 10000 1 280 04:31 04.06.2020
2938 Clouds 11 1004 93 10000 2.1 240 03:23 04.06.2020
2939 Clouds 12 1005 87 10000 0.5 0 01:56 04.06.2020
2940 Clouds 12 1005 87 10000 0.5 0 01:19 04.06.2020
2941 Rain 12 1005 93 10000 5.1 270 00:40 04.06.2020
2942 Rain 13 1005 77 10000 7.7 240 23:41 03.06.2020
2943 Rain 15 1004 63 10000 8.7 230 23:20 03.06.2020
2944 -273 0 0 0 0 0 22:58 03.06.2020
2945 Clouds 19 1004 42 10000 2.6 90 22:58 03.06.2020
2946 Clouds 19 1004 42 10000 2.6 90 22:39 03.06.2020
2947 Clouds 19 1003 42 10000 3.1 100 22:18 03.06.2020
2948 Clouds 19 1003 39 10000 3.6 60 21:56 03.06.2020
2949 Clouds 19 1003 39 10000 3.6 60 21:38 03.06.2020
2950 Clouds 17 1003 42 10000 3.6 40 21:20 03.06.2020
2951 Clouds 19 1003 35 10000 5.1 50 20:43 03.06.2020
2952 Clouds 20 1003 35 10000 5.1 110 20:22 03.06.2020
2953 Clouds 21 1003 31 10000 4.1 80 19:58 03.06.2020
2954 Clouds 22 1002 29 10000 7.2 70 19:40 03.06.2020
2955 Clouds 22 1002 29 10000 7.2 70 19:22 03.06.2020
2956 Clouds 22 1003 31 10000 6.2 70 18:59 03.06.2020
2957 Clouds 23 1003 31 10000 6.2 70 18:41 03.06.2020
2958 Clouds 23 1003 31 10000 6.2 60 18:20 03.06.2020
2959 Clouds 23 1003 27 10000 2.6 60 17:54 03.06.2020
2960 Clouds 23 1003 27 10000 2.6 60 17:36 03.06.2020
2961 Clouds 23 1003 24 10000 2.6 260 17:18 03.06.2020
2962 Clouds 22 1003 26 10000 3.1 300 16:41 03.06.2020
2963 Clouds 22 1003 19 10000 2.1 240 16:20 03.06.2020
2964 Clouds 24 1003 22 10000 2.1 210 15:55 03.06.2020
2965 Clouds 24 1003 22 10000 2.1 210 15:55 03.06.2020
2966 Clouds 24 1003 22 10000 2.1 210 15:37 03.06.2020
2967 Clouds 24 1004 22 10000 1.5 0 15:19 03.06.2020
2968 Clouds 24 1004 24 10000 1.5 120 14:45 03.06.2020
2969 Clouds 24 1005 29 10000 1 0 14:24 03.06.2020
2970 Clouds 24 1006 29 10000 1 0 13:54 03.06.2020
2971 Clouds 24 1006 29 10000 1.5 90 13:36 03.06.2020
2972 Clouds 23 1006 29 10000 1.5 90 13:18 03.06.2020
2973 Clouds 23 1007 38 10000 1.5 60 12:42 03.06.2020
2974 Clouds 22 1008 37 10000 1 0 12:20 03.06.2020
2975 Clouds 21 1008 40 10000 1 0 11:45 03.06.2020
2976 Clouds 20 1009 45 10000 1.5 0 11:26 03.06.2020
2977 Clouds 20 1010 48 10000 1.5 280 10:55 03.06.2020
2978 Clouds 19 1010 48 10000 1.5 280 10:37 03.06.2020
2979 Clouds 19 1010 48 10000 1.5 260 10:19 03.06.2020
2980 Clouds 17 1011 55 10000 2.1 290 09:41 03.06.2020
2981 Clouds 15 1011 58 10000 2.6 270 09:19 03.06.2020
2982 Clouds 14 1011 62 10000 2.6 260 08:47 03.06.2020
2983 Clouds 12 1012 66 10000 2.6 270 08:22 03.06.2020
2984 Clouds 10 1012 76 10000 2.6 260 07:58 03.06.2020
2985 Clouds 10 1012 76 10000 1 280 07:37 03.06.2020
2986 Clouds 10 1012 81 10000 1.5 260 07:18 03.06.2020
2987 Clouds 10 1012 81 10000 1.5 260 06:45 03.06.2020
2988 Clouds 7 1013 81 10000 1.5 270 06:22 03.06.2020
2989 Clouds 7 1012 81 10000 1 250 05:45 03.06.2020
2990 Clouds 8 1013 76 10000 1 270 04:26 03.06.2020
2991 Clouds 7 1013 76 10000 1.5 270 03:42 03.06.2020
2992 Clouds 9 1013 71 10000 1 270 02:39 03.06.2020
2993 Clouds 10 1014 66 10000 0.5 0 01:44 03.06.2020
2994 Clouds 12 1014 58 10000 1 0 00:39 03.06.2020
2995 Clouds 12 1014 58 10000 1.5 200 00:20 03.06.2020
2996 Clouds 12 1014 58 10000 1 0 23:45 02.06.2020
2997 Clouds 14 1014 51 10000 1.5 280 23:27 02.06.2020
2998 Clouds 14 1014 51 10000 1.5 310 22:55 02.06.2020
2999 Clouds 16 1014 51 10000 1.5 310 22:36 02.06.2020
3000 Clouds 15 1013 42 10000 0.5 0 22:18 02.06.2020
3001 Clear 20 1013 37 10000 3.6 90 21:54 02.06.2020
3002 Clouds 20 1013 37 10000 3.6 90 21:36 02.06.2020
3003 Clear 20 1013 37 10000 3.6 90 21:36 02.06.2020
3004 Clouds 20 1013 37 10000 3.6 90 21:36 02.06.2020
3005 Clear 18 1013 37 10000 6.2 50 21:18 02.06.2020
3006 Clouds 20 1012 40 10000 4.6 40 20:42 02.06.2020
3007 Clouds 19 1012 37 10000 5.7 60 20:23 02.06.2020
3008 Clouds 22 1012 35 10000 5.1 60 19:46 02.06.2020
3009 Clouds 23 1012 33 10000 6.2 80 19:27 02.06.2020
3010 Clouds 24 1012 31 10000 5.7 90 18:59 02.06.2020
3011 Clouds 24 1012 31 10000 5.7 90 18:41 02.06.2020
3012 Clouds 24 1013 33 10000 5.1 90 18:22 02.06.2020
3013 Clouds 24 1013 33 10000 6.2 60 17:59 02.06.2020
3014 Clouds 24 1013 33 10000 6.2 60 17:41 02.06.2020
3015 Clouds 24 1013 33 10000 5.1 60 17:22 02.06.2020
3016 Clouds 23 1014 35 10000 4.6 60 16:56 02.06.2020
3017 Clouds 23 1014 35 10000 4.6 60 16:38 02.06.2020
3018 Clouds 23 1014 35 10000 4.6 50 16:20 02.06.2020
3019 Clouds 23 1014 33 10000 2.6 50 15:44 02.06.2020
3020 Clouds 22 1015 35 10000 3.6 90 15:24 02.06.2020
3021 Clouds 23 1015 31 10000 2.1 0 14:49 02.06.2020
3022 Clouds 23 1015 33 10000 1.5 0 14:30 02.06.2020
3023 Clouds 21 1016 33 10000 2.6 100 13:58 02.06.2020
3024 Clouds 21 1016 33 10000 2.6 100 13:39 02.06.2020
3025 Clouds 22 1016 35 10000 2.1 0 13:19 02.06.2020
3026 Clouds 21 1016 35 10000 2.6 0 12:58 02.06.2020
3027 Clouds 21 1016 35 10000 2.6 0 12:40 02.06.2020
3028 Clouds 21 1016 35 10000 3.1 60 12:20 02.06.2020
3029 Clouds 21 1016 35 10000 3.1 60 12:20 02.06.2020
3030 Clouds 20 1017 43 10000 2.6 70 11:55 02.06.2020
3031 Clouds 20 1017 43 10000 2.6 70 11:37 02.06.2020
3032 Clouds 20 1017 45 10000 1 0 11:18 02.06.2020
3033 Clouds 19 1018 48 10000 1.5 100 10:47 02.06.2020
3034 Clouds 18 1018 48 10000 1 0 10:28 02.06.2020
3035 Clouds 16 1018 59 10000 1 0 09:56 02.06.2020
3036 Clouds 15 1018 59 10000 1 0 09:37 02.06.2020
3037 Clouds 14 1019 58 10000 1 0 09:19 02.06.2020
3038 Clouds 13 1019 62 10000 1 0 08:46 02.06.2020
3039 Clouds 11 1019 66 10000 1 0 08:20 02.06.2020
3040 Clouds 11 1019 71 10000 0.5 0 07:46 02.06.2020
3041 Clear 10 1019 76 10000 0.27 235 07:25 02.06.2020
3042 Clear 8 1019 81 10000 0.5 0 06:43 02.06.2020
3043 Clear 7 1019 81 10000 0.5 0 05:57 02.06.2020
3044 Clear 7 1019 81 10000 1 0 04:58 02.06.2020
3045 Clear 8 1019 81 10000 0.5 0 03:22 02.06.2020
3046 Clear 9 1019 76 10000 0.5 0 02:25 02.06.2020
3047 Clear 10 1019 71 10000 0.5 0 01:21 02.06.2020
3048 Clear 12 1019 67 10000 0.5 0 00:25 02.06.2020
3049 Clear 13 1019 62 10000 0.5 0 23:55 01.06.2020
3050 Clear 13 1019 62 10000 0.5 0 23:36 01.06.2020
3051 Clear 16 1019 59 10000 1 0 23:18 01.06.2020
3052 Clear 15 1019 62 10000 2.6 270 22:41 01.06.2020
3053 Clear 18 1018 52 10000 1 0 22:21 01.06.2020
3054 Clear 18 1018 52 10000 1 0 22:21 01.06.2020
3055 Clear 19 1018 45 10000 1 0 21:58 01.06.2020
3056 Clear 19 1018 45 10000 1 0 21:39 01.06.2020
3057 Clear 18 1017 45 10000 3.6 60 21:19 01.06.2020
3058 Clouds 18 1017 45 10000 4.1 60 20:55 01.06.2020
3059 Clouds 18 1017 45 10000 4.1 60 20:55 01.06.2020
3060 Clouds 20 1017 45 10000 4.1 60 20:37 01.06.2020
3061 Clouds 20 1017 40 10000 6.2 60 20:19 01.06.2020
3062 Clouds 22 1017 40 10000 6.2 60 19:43 01.06.2020
3063 Clouds 21 1016 35 10000 6.7 80 19:21 01.06.2020
3064 Clouds 24 1016 33 10000 6.7 70 18:59 01.06.2020
3065 Clouds 24 1016 31 10000 6.7 70 18:39 01.06.2020
3066 Clouds 24 1016 31 10000 6.7 70 18:20 01.06.2020
3067 Clouds 24 1016 29 10000 6.2 90 17:58 01.06.2020
3068 Clouds 24 1016 29 10000 6.2 90 17:40 01.06.2020
3069 Clouds 24 1016 27 10000 6.2 70 17:19 01.06.2020
3070 Clouds 24 1016 29 10000 5.1 80 16:42 01.06.2020
3071 Clouds 24 1016 29 10000 4.6 90 16:22 01.06.2020
3072 Clouds 24 1017 31 10000 4.1 110 15:56 01.06.2020
3073 Clouds 24 1017 31 10000 4.1 110 15:38 01.06.2020
3074 Clouds 24 1017 33 10000 3.1 90 15:19 01.06.2020
3075 Clouds 23 1017 33 10000 2.6 70 14:57 01.06.2020
3076 Clouds 23 1017 33 10000 2.6 70 14:38 01.06.2020
3077 Clouds 23 1018 35 10000 3.1 60 14:20 01.06.2020
3078 Clouds 21 1018 43 10000 3.1 90 13:44 01.06.2020
3079 Clouds 21 1018 43 10000 3.1 90 13:22 01.06.2020
3080 Clouds 19 1019 45 10000 3.6 120 12:59 01.06.2020
3081 Clouds 19 1019 45 10000 1.5 0 12:40 01.06.2020
3082 Clouds 19 1019 45 10000 1.5 0 12:40 01.06.2020
3083 Clouds 19 1019 45 10000 1.5 0 12:40 01.06.2020
3084 Clouds 19 1019 45 10000 1.5 0 12:40 01.06.2020
3085 Clouds 19 1019 45 10000 1.5 0 12:22 01.06.2020
3086 Clouds 19 1020 45 10000 2.1 0 11:58 01.06.2020
3087 Clouds 17 1020 48 10000 1.5 0 11:37 01.06.2020
3088 Clouds 17 1020 48 10000 1.5 0 11:19 01.06.2020
3089 Clouds 17 1020 48 10000 1.5 0 11:19 01.06.2020
3090 Clouds 17 1021 48 10000 2.6 90 10:56 01.06.2020
3091 Clouds 17 1021 54 10000 1 0 10:36 01.06.2020
3092 Clouds 16 1021 54 10000 1 0 10:18 01.06.2020
3093 Clear 16 1021 54 10000 0.5 0 09:44 01.06.2020
3094 Clear 13 1021 58 10000 1 0 09:25 01.06.2020
3095 Clear 12 1022 62 10000 0.5 0 08:57 01.06.2020
3096 Clear 12 1022 62 10000 0.5 0 08:57 01.06.2020
3097 Clear 11 1022 66 10000 1.5 260 08:36 01.06.2020
3098 Clear 10 1022 66 10000 1.5 260 08:18 01.06.2020
3099 Clear 10 1022 76 10000 0.5 0 07:41 01.06.2020
3100 Clear 10 1022 76 10000 0.5 0 07:22 01.06.2020
3101 Clear 8 1022 81 10000 2.1 260 06:49 01.06.2020
3102 Clear 6 1022 81 10000 0.5 0 05:57 01.06.2020
3103 Clear 6 1021 81 10000 1 0 04:58 01.06.2020
3104 Clouds 9 1021 70 10000 1.5 130 03:57 01.06.2020
3105 Clouds 9 1021 70 10000 1 0 03:37 01.06.2020
3106 Clouds 10 1021 66 10000 0.5 0 02:49 01.06.2020
3107 Clouds 11 1021 66 10000 0.5 0 01:40 01.06.2020
3108 Clouds 11 1021 66 10000 0.5 0 01:18 01.06.2020
3109 Clouds 11 1021 66 10000 0.5 0 00:46 01.06.2020
3110 Clouds 11 1021 66 10000 1 0 00:22 01.06.2020
3111 Clouds 12 1021 62 10000 0.5 0 23:59 31.05.2020
3112 Clouds 12 1021 62 10000 0.5 0 23:59 31.05.2020
3113 Clouds 13 1021 54 10000 0.5 0 23:40 31.05.2020
3114 Clouds 13 1021 54 10000 0.5 0 23:22 31.05.2020
3115 Clouds 12 1021 62 10000 0.5 0 22:58 31.05.2020
3116 Clouds 14 1021 50 10000 2.6 110 22:40 31.05.2020
3117 Clouds 14 1021 50 10000 2.6 110 22:21 31.05.2020
3118 Clouds 14 1020 54 10000 2.6 90 21:57 31.05.2020
3119 Clouds 14 1020 54 10000 3.1 90 21:38 31.05.2020
3120 Clouds 14 1020 54 10000 3.1 90 21:20 31.05.2020
3121 Clouds 15 1019 51 10000 5.1 80 20:42 31.05.2020
3122 Clouds 14 1019 51 10000 5.1 80 20:24 31.05.2020
3123 Clouds 15 1019 51 10000 6.2 70 19:56 31.05.2020
3124 Clouds 16 1019 44 10000 7.2 80 19:37 31.05.2020
3125 Clouds 16 1019 44 10000 7.2 80 19:19 31.05.2020
3126 Clouds 18 1018 36 10000 6.2 80 18:44 31.05.2020
3127 Clouds 16 1018 36 10000 6.2 80 18:25 31.05.2020
3128 Clouds 17 1018 36 10000 5.1 90 17:58 31.05.2020
3129 Clouds 16 1018 39 10000 6.2 60 17:39 31.05.2020
3130 Clouds 16 1018 39 10000 6.2 60 17:20 31.05.2020
3131 Clouds 17 1017 36 10000 5.7 90 16:41 31.05.2020
3132 Clouds 17 1017 36 10000 5.7 90 16:21 31.05.2020
3133 Clouds 17 1017 36 10000 4.1 80 15:42 31.05.2020
3134 Clouds 16 1017 36 10000 4.1 80 15:23 31.05.2020
3135 Clouds 16 1017 39 10000 3.6 70 14:59 31.05.2020
3136 Clouds 16 1017 42 10000 3.6 100 14:40 31.05.2020
3137 Clouds 17 1017 42 10000 3.6 100 14:19 31.05.2020
3138 Clouds 17 1018 42 10000 2.6 130 13:55 31.05.2020
3139 Clouds 17 1018 48 10000 2.1 0 13:36 31.05.2020
3140 Clouds 15 1018 48 10000 2.1 0 13:18 31.05.2020
3141 Clouds 14 1018 50 10000 3.1 90 12:42 31.05.2020
3142 Clouds 13 1018 50 10000 3.1 90 12:23 31.05.2020
3143 Clouds 13 1019 54 10000 2.6 60 11:54 31.05.2020
3144 Clouds 13 1019 54 10000 2.6 60 11:36 31.05.2020
3145 Clouds 13 1019 54 10000 2.6 60 11:18 31.05.2020
3146 Clouds 11 1019 66 10000 1 0 10:42 31.05.2020
3147 Clouds 11 1019 66 10000 1 0 10:23 31.05.2020
3148 Clouds 10 1019 66 10000 1 0 09:57 31.05.2020
3149 Clouds 9 1019 76 10000 0.5 0 09:39 31.05.2020
3150 Clouds 9 1019 76 10000 0.5 0 09:19 31.05.2020
3151 Clouds 7 1019 81 10000 1.5 270 08:42 31.05.2020
3152 Clouds 7 1019 81 10000 1.5 270 08:23 31.05.2020
3153 Clouds 7 1019 87 10000 2.6 260 07:48 31.05.2020
3154 Clouds 7 1019 81 10000 1.5 250 07:22 31.05.2020
3155 Clouds 6 1019 81 10000 0.5 0 06:57 31.05.2020
3156 Clouds 6 1019 81 10000 0.5 0 06:34 31.05.2020
3157 Clouds 5 1019 81 10000 2.1 260 05:49 31.05.2020
3158 Clouds 5 1019 81 10000 0.5 0 05:31 31.05.2020
3159 Clear 5 1019 87 10000 0.5 0 03:57 31.05.2020
3160 Clouds 5 1019 81 10000 2.1 250 03:29 31.05.2020
3161 Clear 6 1019 75 10000 0.5 0 02:46 31.05.2020
3162 Clouds 7 1019 76 10000 1.5 50 01:46 31.05.2020
3163 Clouds 11 1020 66 10000 1 30 00:40 31.05.2020
3164 Clouds 11 1020 66 10000 1 30 00:20 31.05.2020
3165 Clouds 11 1020 71 10000 1 40 23:42 30.05.2020
3166 Clouds 11 1020 71 10000 1 40 23:42 30.05.2020
3167 Clouds 11 1020 71 10000 1 40 23:23 30.05.2020
3168 Clouds 12 1020 62 10000 0.5 0 22:54 30.05.2020
3169 Clouds 12 1020 62 10000 0.5 0 22:36 30.05.2020
3170 Clouds 12 1020 62 10000 0.5 0 22:18 30.05.2020
3171 Clouds 13 1019 54 10000 2.6 120 21:42 30.05.2020
3172 Clouds 11 1019 54 10000 2.6 120 21:22 30.05.2020
3173 Clouds 11 1019 58 10000 2.1 0 20:57 30.05.2020
3174 Clouds 11 1019 58 10000 2.1 0 20:39 30.05.2020
3175 Clouds 11 1019 58 10000 2.1 0 20:21 30.05.2020
3176 Clouds 11 1019 58 10000 0.5 0 19:55 30.05.2020
3177 Clouds 11 1019 54 10000 3.1 70 19:37 30.05.2020
3178 Clouds 11 1019 54 10000 3.1 70 19:18 30.05.2020
3179 Clouds 12 1018 50 10000 3.1 100 18:42 30.05.2020
3180 Clouds 13 1018 50 10000 3.1 100 18:18 30.05.2020
3181 Clouds 14 1018 51 10000 3.6 80 17:41 30.05.2020
3182 Clouds 14 1018 51 10000 3.6 80 17:23 30.05.2020
3183 Clouds 14 1018 51 10000 4.6 70 16:55 30.05.2020
3184 Clouds 14 1018 51 10000 5.1 70 16:37 30.05.2020
3185 Clouds 14 1018 51 10000 5.1 70 16:18 30.05.2020
3186 Clouds 15 1018 44 10000 5.7 80 15:42 30.05.2020
3187 Clouds 15 1018 44 10000 5.7 80 15:42 30.05.2020
3188 Clouds 14 1018 44 10000 5.7 80 15:23 30.05.2020
3189 Clouds 14 1018 48 10000 2.1 40 14:43 30.05.2020
3190 Clouds 14 1018 48 10000 2.1 40 14:24 30.05.2020
3191 Clouds 13 1019 51 10000 2.1 80 13:43 30.05.2020
3192 Clouds 13 1019 51 10000 2.1 80 13:23 30.05.2020
3193 Clouds 13 1019 58 10000 3.1 70 12:42 30.05.2020
3194 Clouds 13 1019 58 10000 3.1 70 12:20 30.05.2020
3195 Clouds 13 1019 58 10000 3.1 90 11:57 30.05.2020
3196 Clouds 13 1019 54 10000 1 0 11:39 30.05.2020
3197 Clouds 13 1019 54 10000 1 0 11:21 30.05.2020
3198 Clouds 12 1020 58 10000 1 0 10:40 30.05.2020
3199 Clouds 12 1020 58 10000 1 0 10:21 30.05.2020
3200 Clouds 11 1020 66 10000 1 0 09:49 30.05.2020
3201 Clouds 10 1021 66 10000 1 0 09:31 30.05.2020
3202 Clouds 9 1021 66 10000 1 0 08:51 30.05.2020
3203 Clouds 8 1021 76 10000 1.5 270 08:32 30.05.2020
3204 Clouds 8 1021 76 10000 2.1 50 07:45 30.05.2020
3205 Clouds 8 1021 76 10000 2.1 50 07:24 30.05.2020
3206 Clouds 7 1021 81 10000 2.6 50 06:51 30.05.2020
3207 Clouds 5 1021 81 10000 1 0 06:23 30.05.2020
3208 Clouds 4 1021 87 10000 0.5 0 05:49 30.05.2020
3209 Clear 5 1021 81 10000 1 270 03:46 30.05.2020
3210 Clouds 6 1022 81 10000 1 0 02:30 30.05.2020
3211 Clouds 6 1022 81 10000 1 170 01:49 30.05.2020
3212 Clouds 8 1022 71 10000 1 320 00:38 30.05.2020
3213 Clouds 8 1022 71 10000 1 320 00:19 30.05.2020
3214 Clouds 9 1022 71 10000 0.5 0 23:57 29.05.2020
3215 Clouds 11 1022 71 10000 1 0 23:37 29.05.2020
3216 Clouds 12 1022 66 10000 1.5 50 23:18 29.05.2020
3217 Clouds 13 1022 62 10000 2.1 80 22:41 29.05.2020
3218 Clouds 13 1022 62 10000 2.1 80 22:19 29.05.2020
3219 Clouds 14 1022 58 10000 3.1 90 21:58 29.05.2020
3220 Clouds 14 1022 54 10000 2.6 90 21:38 29.05.2020
3221 Clouds 12 1022 54 10000 2.6 90 21:20 29.05.2020
3222 Clouds 13 1022 51 10000 4.1 70 20:45 29.05.2020
3223 Clouds 13 1022 51 10000 4.1 70 20:21 29.05.2020
3224 Clouds 13 1022 51 10000 5.1 70 19:59 29.05.2020
3225 Clouds 13 1022 51 10000 4.6 80 19:40 29.05.2020
3226 Clouds 13 1022 51 10000 4.6 80 19:22 29.05.2020
3227 Clouds 13 1022 51 10000 5.7 70 18:47 29.05.2020
3228 Clouds 13 1022 51 10000 5.7 80 18:20 29.05.2020
3229 Clouds 14 1022 48 10000 6.7 90 17:56 29.05.2020
3230 Clouds 14 1022 44 10000 5.7 80 17:38 29.05.2020
3231 Clouds 14 1022 44 10000 5.7 80 17:19 29.05.2020
3232 Clouds 15 1022 42 10000 7.2 80 16:43 29.05.2020
3233 Clouds 15 1022 42 10000 7.2 80 16:25 29.05.2020
3234 Clouds 15 1022 42 10000 6.2 70 15:56 29.05.2020
3235 Clouds 15 1022 36 10000 3.1 120 15:38 29.05.2020
3236 Clouds 15 1022 36 10000 3.1 120 15:19 29.05.2020
3237 Clouds 14 1023 41 10000 2.1 0 14:43 29.05.2020
3238 Clouds 14 1023 41 10000 2.1 0 14:22 29.05.2020
3239 Clouds 13 1024 47 10000 3.1 110 13:44 29.05.2020
3240 Clouds 13 1025 47 10000 2.6 0 13:25 29.05.2020
3241 Clouds 12 1025 47 10000 3.6 90 12:59 29.05.2020
3242 Clouds 12 1025 54 10000 3.1 120 12:41 29.05.2020
3243 Clouds 12 1025 54 10000 3.1 120 12:22 29.05.2020
3244 Clouds 11 1025 58 10000 2.1 0 11:45 29.05.2020
3245 Clouds 10 1026 62 10000 2.6 0 11:26 29.05.2020
3246 Clouds 9 1026 71 10000 1 0 10:57 29.05.2020
3247 Clouds 9 1026 71 10000 2.1 0 10:37 29.05.2020
3248 Clouds 9 1026 71 10000 2.1 0 10:18 29.05.2020
3249 Clouds 9 1027 76 10000 3.1 110 09:43 29.05.2020
3250 Clouds 7 1027 76 10000 3.1 110 09:20 29.05.2020
3251 Clouds 6 1027 81 10000 2.6 90 08:49 29.05.2020
3252 Clouds 6 1026 87 10000 2.6 100 08:26 29.05.2020
3253 Clouds 6 1026 87 10000 2.1 90 07:59 29.05.2020
3254 Clouds 6 1026 87 10000 2.1 90 07:59 29.05.2020
3255 Clouds 6 1026 93 10000 0.5 0 07:39 29.05.2020
3256 Clouds 6 1026 93 10000 0.5 0 07:21 29.05.2020
3257 Clouds 5 1027 93 10000 0.5 0 06:47 29.05.2020
3258 Clouds 5 1027 93 10000 0.5 0 06:27 29.05.2020
3259 Clouds 5 1027 93 10000 1.5 270 05:46 29.05.2020
3260 Clouds 6 1027 87 10000 0.5 0 02:37 29.05.2020
3261 Rain 7 1027 87 3700 4.6 60 01:30 29.05.2020
3262 Clouds 9 1027 93 10000 4.1 60 00:55 29.05.2020
3263 Clouds 7 1027 100 10000 1.5 120 00:34 29.05.2020
3264 Clouds 9 1027 93 10000 1.5 220 23:59 28.05.2020
3265 Clouds 9 1027 93 10000 0.5 0 23:39 28.05.2020
3266 Clouds 9 1027 93 10000 0.5 0 23:39 28.05.2020
3267 Clouds 9 1027 93 10000 0.5 0 23:19 28.05.2020
3268 Clouds 9 1027 93 10000 0.5 0 23:19 28.05.2020
3269 Clouds 9 1027 93 10000 0.5 0 23:19 28.05.2020
3270 Clouds 8 1028 87 10000 1.5 60 22:44 28.05.2020
3271 Rain 8 1028 87 10000 1.5 60 22:26 28.05.2020
3272 Rain 9 1027 87 10000 3.1 80 21:57 28.05.2020
3273 Clouds 10 1027 81 10000 2.1 110 21:39 28.05.2020
3274 Clouds 9 1027 81 10000 2.1 110 21:20 28.05.2020
3275 Clouds 10 1027 81 10000 3.6 50 20:57 28.05.2020
3276 Clouds 10 1027 87 10000 1 0 20:38 28.05.2020
3277 Clouds 10 1027 87 10000 1 0 20:18 28.05.2020
3278 Clouds 11 1026 82 10000 1 0 19:55 28.05.2020
3279 Clouds 11 1027 87 10000 0.5 0 19:37 28.05.2020
3280 Rain 10 1027 81 10000 2.1 140 19:18 28.05.2020
3281 Rain 11 1027 81 10000 4.1 60 18:42 28.05.2020
3282 Rain 12 1027 82 10000 2.6 90 18:22 28.05.2020
3283 Rain 12 1027 76 8000 2.6 60 17:43 28.05.2020
3284 Rain 12 1027 76 8000 2.6 60 17:23 28.05.2020
3285 Clouds 12 1026 67 10000 2.6 100 16:58 28.05.2020
3286 Clouds 12 1027 67 10000 2.6 60 16:39 28.05.2020
3287 Clouds 13 1027 67 10000 2.6 60 16:20 28.05.2020
3288 Rain 13 1027 67 10000 3.6 120 15:45 28.05.2020
3289 Rain 12 1027 67 10000 3.6 120 15:24 28.05.2020
3290 Rain 13 1027 59 10000 3.1 320 14:57 28.05.2020
3291 Rain 16 1026 48 10000 2.6 80 14:38 28.05.2020
3292 Rain 14 1026 48 10000 2.6 80 14:20 28.05.2020
3293 Clouds 16 1027 48 10000 2.1 70 13:43 28.05.2020
3294 Clouds 15 1027 48 10000 2.1 70 13:24 28.05.2020
3295 Clouds 14 1027 54 10000 3.1 60 12:42 28.05.2020
3296 Clouds 14 1027 54 10000 3.1 60 12:19 28.05.2020
3297 Clouds 13 1028 54 10000 1 0 11:44 28.05.2020
3298 Clouds 14 1028 54 10000 1 0 11:26 28.05.2020
3299 Clouds 13 1028 54 10000 1 0 10:57 28.05.2020
3300 Clouds 13 1028 54 10000 1 0 10:57 28.05.2020
3301 Clouds 12 1028 58 10000 2.1 270 10:39 28.05.2020
3302 Clouds 12 1028 58 10000 2.1 270 10:21 28.05.2020
3303 Clouds 11 1029 62 10000 1.5 270 09:39 28.05.2020
3304 Clouds 11 1029 62 10000 1.5 270 09:39 28.05.2020
3305 Clouds 11 1029 62 10000 1.5 270 09:21 28.05.2020
3306 Clouds 11 1029 62 10000 1.5 240 08:51 28.05.2020
3307 Clouds 10 1029 66 10000 1.5 250 08:31 28.05.2020
3308 Clouds 9 1029 66 10000 1 0 07:54 28.05.2020
3309 Clouds 8 1029 76 10000 0.5 0 07:36 28.05.2020
3310 Clouds 7 1030 81 10000 0.5 0 07:18 28.05.2020
3311 Clouds 7 1030 81 10000 1.5 270 06:39 28.05.2020
3312 Clouds 6 1030 81 10000 1.5 270 06:20 28.05.2020
3313 Clouds 5 1030 81 10000 0.5 0 05:36 28.05.2020
3314 Clouds 6 1030 75 10000 0.5 0 04:33 28.05.2020
3315 Clouds 6 1030 75 10000 0.5 0 03:48 28.05.2020
3316 Clouds 6 1030 70 10000 0.5 0 02:47 28.05.2020
3317 Clouds 8 1030 66 10000 0.5 0 01:54 28.05.2020
3318 Clouds 9 1031 62 10000 1 0 00:56 28.05.2020
3319 Clouds 9 1030 62 10000 1 0 00:38 28.05.2020
3320 Clouds 10 1030 54 10000 1 0 00:18 28.05.2020
3321 Clouds 12 1030 47 10000 1 0 23:40 27.05.2020
3322 Clear 15 1030 47 10000 1 0 23:21 27.05.2020
3323 Clear 15 1030 47 10000 2.1 280 22:59 27.05.2020
3324 Clear 17 1029 39 10000 4.6 80 22:40 27.05.2020
3325 Clear 17 1029 39 10000 4.6 80 22:22 27.05.2020
3326 Clear 15 1029 39 10000 3.6 90 21:43 27.05.2020
3327 Clear 15 1029 39 10000 3.6 90 21:24 27.05.2020
3328 Clear 16 1028 36 10000 4.1 70 20:59 27.05.2020
3329 Clear 19 1028 34 10000 5.1 70 20:41 27.05.2020
3330 Clear 17 1028 34 10000 5.1 70 20:22 27.05.2020
3331 Clouds 20 1028 32 10000 6.2 70 19:59 27.05.2020
3332 Clouds 21 1028 30 10000 5.7 90 19:41 27.05.2020
3333 Clouds 19 1028 30 10000 5.7 90 19:19 27.05.2020
3334 Clouds 19 1028 30 10000 5.7 90 19:19 27.05.2020
3335 Clouds 21 1028 32 10000 5.7 70 18:41 27.05.2020
3336 Clouds 22 1028 32 10000 4.1 60 18:20 27.05.2020
3337 Clouds 22 1028 32 10000 4.1 60 17:57 27.05.2020
3338 Clouds 21 1028 21 10000 4.6 60 17:38 27.05.2020
3339 Clouds 22 1028 27 10000 4.6 50 17:19 27.05.2020
3340 Clouds 22 1028 27 10000 4.6 50 16:55 27.05.2020
3341 Clouds 22 1029 26 10000 3.6 90 16:37 27.05.2020
3342 Clouds 22 1029 26 10000 3.6 90 16:18 27.05.2020
3343 Clouds 19 1029 22 10000 3.1 80 15:41 27.05.2020
3344 Clouds 20 1029 22 10000 3.1 80 15:21 27.05.2020
3345 Clouds 19 1030 23 10000 3.1 70 14:45 27.05.2020
3346 Clouds 19 1030 23 10000 3.1 70 14:22 27.05.2020
3347 Clouds 18 1030 23 10000 3.6 90 14:22 27.05.2020
3348 Clouds 18 1030 23 10000 3.6 90 13:57 27.05.2020
3349 Clouds 18 1030 37 10000 3.1 100 13:38 27.05.2020
3350 Clouds 17 1030 37 10000 3.1 100 13:20 27.05.2020
3351 Clouds 16 1031 48 10000 3.1 60 12:41 27.05.2020
3352 Clouds 16 1031 48 10000 3.1 60 12:22 27.05.2020
3353 Clouds 15 1032 47 10000 2.6 100 11:42 27.05.2020
3354 Clouds 14 1032 47 10000 2.6 100 11:24 27.05.2020
3355 Clouds 14 1033 51 10000 1.5 0 10:59 27.05.2020
3356 Clouds 12 1033 62 10000 1.5 350 10:41 27.05.2020
3357 Clouds 12 1033 62 10000 1.5 350 10:23 27.05.2020
3358 Clouds 11 1033 62 10000 0.5 0 09:56 27.05.2020
3359 Clouds 10 1034 66 10000 1 0 09:37 27.05.2020
3360 Clouds 10 1034 66 10000 1 0 09:19 27.05.2020
3361 Clouds 8 1034 76 10000 2.1 270 08:42 27.05.2020
3362 Clouds 8 1034 76 10000 2.1 270 08:23 27.05.2020
3363 Clouds 6 1034 76 10000 0.5 0 07:52 27.05.2020
3364 Clear 5 1034 81 10000 0.5 0 07:34 27.05.2020
3365 Clear 7 1034 87 10000 1 0 06:55 27.05.2020
3366 Clear 3 1034 86 10000 1 0 06:24 27.05.2020
3367 Clear 3 1034 86 10000 0.5 0 05:50 27.05.2020
3368 Clear 4 1034 81 10000 0.5 0 05:24 27.05.2020
3369 Clear 6 1034 75 10000 1.5 160 02:51 27.05.2020
3370 Clear 6 1034 75 10000 0.5 0 02:25 27.05.2020
3371 Clear 8 1034 66 10000 1 0 01:31 27.05.2020
3372 Clouds 8 1034 62 10000 0.5 0 00:47 27.05.2020
3373 Clouds 8 1034 62 10000 0.5 0 00:21 27.05.2020
3374 Clouds 9 1033 62 10000 1 0 23:58 26.05.2020
3375 Clouds 10 1033 58 10000 2.1 60 23:39 26.05.2020
3376 Clouds 10 1033 58 10000 2.1 60 23:21 26.05.2020
3377 Clouds 10 1033 54 10000 2.6 50 22:58 26.05.2020
3378 Clouds 14 1033 50 10000 2.6 60 22:37 26.05.2020
3379 Clouds 14 1032 50 10000 2.6 30 22:19 26.05.2020
3380 Clouds 14 1032 50 10000 2.6 30 21:55 26.05.2020
3381 Clouds 14 1032 54 10000 3.6 60 21:36 26.05.2020
3382 Clouds 14 1032 54 10000 3.6 60 21:36 26.05.2020
3383 Clouds 12 1032 54 10000 3.6 60 21:18 26.05.2020
3384 Clouds 15 1031 51 10000 5.7 60 20:41 26.05.2020
3385 Clouds 13 1031 51 10000 5.7 60 20:20 26.05.2020
3386 Clouds 16 1031 48 10000 7.2 60 19:41 26.05.2020
3387 Clouds 14 1031 48 10000 7.2 60 19:22 26.05.2020
3388 Clouds 15 1030 42 10000 8.2 60 18:59 26.05.2020
3389 Clouds 15 1030 42 10000 8.2 60 18:39 26.05.2020
3390 Clouds 16 1030 42 10000 8.2 60 18:21 26.05.2020
3391 Clouds 16 1030 39 10000 6.2 80 17:42 26.05.2020
3392 Clouds 17 1030 39 10000 6.2 80 17:24 26.05.2020
3393 Clouds 16 1030 45 10000 6.7 80 16:55 26.05.2020
3394 Clouds 16 1030 39 10000 5.7 80 16:36 26.05.2020
3395 Clouds 16 1030 39 10000 5.7 80 16:18 26.05.2020
3396 Clouds 16 1030 42 10000 4.6 90 15:41 26.05.2020
3397 Clouds 17 1030 42 10000 4.6 90 15:20 26.05.2020
3398 Clouds 16 1030 39 10000 4.1 70 14:56 26.05.2020
3399 Clouds 16 1030 48 10000 4.6 80 14:37 26.05.2020
3400 Clouds 17 1030 48 10000 4.6 80 14:18 26.05.2020
3401 Clouds 16 1031 44 10000 2.6 60 13:41 26.05.2020
3402 Clouds 15 1031 44 10000 2.6 60 13:23 26.05.2020
3403 Clouds 14 1031 54 10000 2.6 50 12:44 26.05.2020
3404 Clouds 15 1031 54 10000 2.6 50 12:23 26.05.2020
3405 Clouds 16 1032 51 10000 2.1 60 11:59 26.05.2020
3406 Clouds 14 1032 54 10000 2.1 50 11:41 26.05.2020
3407 Clouds 13 1032 54 10000 2.1 50 11:20 26.05.2020
3408 Clouds 12 1032 66 10000 1.5 80 10:47 26.05.2020
3409 Clouds 12 1032 66 10000 1.5 80 10:20 26.05.2020
3410 Clouds 12 1032 66 10000 2.1 60 09:59 26.05.2020
3411 Clouds 11 1032 71 10000 1 0 09:37 26.05.2020
3412 Clouds 11 1032 71 10000 1 0 09:18 26.05.2020
3413 Clouds 9 1032 81 10000 0.5 0 08:41 26.05.2020
3414 Clouds 10 1032 81 10000 0.5 0 08:22 26.05.2020
3415 Clouds 9 1032 87 10000 0.5 0 07:43 26.05.2020
3416 Clouds 9 1032 87 10000 0.5 0 07:23 26.05.2020
3417 Clouds 9 1032 87 10000 1 0 06:53 26.05.2020
3418 Clouds 9 1032 87 10000 0.5 0 06:31 26.05.2020
3419 Clouds 10 1032 87 10000 1 0 05:43 26.05.2020
3420 Clouds 10 1032 87 10000 1 0 05:20 26.05.2020
3421 Drizzle 10 1032 87 10000 1 0 04:48 26.05.2020
3422 Clouds 11 1031 81 10000 1 0 04:29 26.05.2020
3423 Clouds 11 1031 81 10000 1 0 04:29 26.05.2020
3424 Clouds 9 1031 81 10000 3.6 80 03:49 26.05.2020
3425 Clouds 11 1031 76 10000 2.6 80 02:36 26.05.2020
3426 Rain 12 1031 71 10000 0.5 0 01:47 26.05.2020
3427 Clouds 12 1031 71 10000 1 0 00:44 26.05.2020
3428 Clouds 12 1031 71 10000 1 0 00:26 26.05.2020
3429 Rain 13 1031 71 10000 1.5 0 23:59 25.05.2020
3430 Rain 13 1031 62 10000 2.1 130 23:39 25.05.2020
3431 Rain 13 1031 62 10000 2.1 130 23:20 25.05.2020
3432 Clouds 13 1031 62 10000 2.6 90 22:56 25.05.2020
3433 Clouds 14 1031 58 10000 4.1 90 22:37 25.05.2020
3434 Clouds 14 1031 58 10000 4.1 90 22:19 25.05.2020
3435 Clouds 14 1030 58 10000 4.1 100 21:58 25.05.2020
3436 Clouds 12 1030 62 10000 6.2 30 21:38 25.05.2020
3437 Clouds 12 1030 62 10000 6.2 30 21:20 25.05.2020
3438 Clouds 14 1029 48 10000 5.1 330 20:59 25.05.2020
3439 Clouds 14 1029 48 10000 5.1 330 20:59 25.05.2020
3440 Clouds 14 1029 48 10000 5.1 330 20:59 25.05.2020
3441 -273 0 0 0 0 0 20:59 25.05.2020
3442 Clouds 14 1029 48 10000 5.1 330 20:59 25.05.2020
3443 Clouds 17 1029 42 10000 4.1 320 20:40 25.05.2020
3444 Clouds 14 1029 42 10000 4.1 320 20:20 25.05.2020
3445 Clouds 15 1029 39 10000 3.1 320 19:57 25.05.2020
3446 Clouds 14 1028 42 10000 2.6 300 19:38 25.05.2020
3447 Clouds 15 1028 42 10000 2.6 300 19:18 25.05.2020
3448 Clouds 17 1029 45 10000 3.1 130 18:43 25.05.2020
3449 Clouds 15 1029 45 10000 3.1 130 18:22 25.05.2020
3450 Clouds 15 1029 55 10000 6.7 110 17:56 25.05.2020
3451 Clouds 15 1029 55 10000 4.6 60 17:38 25.05.2020
3452 Clouds 14 1029 55 10000 4.6 60 17:19 25.05.2020
3453 Clouds 16 1029 37 10000 3.6 250 16:41 25.05.2020
3454 Clouds 16 1029 37 10000 3.6 250 16:22 25.05.2020
3455 Clouds 15 1029 39 10000 5.1 270 15:58 25.05.2020
3456 Clouds 15 1029 39 10000 4.1 250 15:40 25.05.2020
3457 Clouds 15 1029 39 10000 4.1 250 15:18 25.05.2020
3458 Clouds 14 1030 55 10000 3.1 110 14:43 25.05.2020
3459 Clouds 14 1030 55 10000 3.1 110 14:25 25.05.2020
3460 Clouds 14 1030 55 10000 3.1 100 13:57 25.05.2020
3461 Clouds 13 1030 58 10000 3.1 70 13:38 25.05.2020
3462 Clouds 13 1030 58 10000 3.1 70 13:20 25.05.2020
3463 Clouds 13 1030 54 10000 3.6 90 12:55 25.05.2020
3464 Clouds 13 1030 54 10000 1.5 100 12:36 25.05.2020
3465 Clouds 13 1030 54 10000 1.5 100 12:18 25.05.2020
3466 Clouds 12 1031 62 10000 1 0 11:39 25.05.2020
3467 Clouds 12 1031 62 10000 1 0 11:19 25.05.2020
3468 Clouds 12 1031 62 10000 1 0 10:54 25.05.2020
3469 Clouds 11 1031 66 10000 3.1 60 10:36 25.05.2020
3470 Clouds 11 1031 66 10000 3.1 60 10:18 25.05.2020
3471 Clouds 11 1031 62 10000 2.1 60 09:41 25.05.2020
3472 Clouds 11 1031 62 10000 2.1 60 09:41 25.05.2020
3473 Clouds 11 1031 62 10000 2.1 60 09:20 25.05.2020
3474 Clouds 10 1031 71 10000 2.6 60 08:59 25.05.2020
3475 Clouds 10 1031 71 10000 1 0 08:38 25.05.2020
3476 Clouds 12 1031 71 10000 1 0 08:19 25.05.2020
3477 Clouds 11 1030 71 10000 2.1 260 07:46 25.05.2020
3478 Clouds 11 1030 71 10000 2.1 260 07:21 25.05.2020
3479 Clouds 10 1031 71 10000 1.5 270 06:55 25.05.2020
3480 Rain 11 1031 66 10000 2.1 250 06:34 25.05.2020
3481 Clouds 12 1030 66 10000 1 0 04:19 25.05.2020
3482 Clouds 12 1030 62 10000 0.5 0 03:23 25.05.2020
3483 Clouds 12 1030 58 10000 1 0 02:45 25.05.2020
3484 Clouds 12 1030 62 10000 0.5 0 01:58 25.05.2020
3485 Clouds 13 1030 54 10000 1 0 01:30 25.05.2020
3486 Clouds 13 1030 50 10000 0.5 0 00:43 25.05.2020
3487 Clouds 13 1030 50 10000 0.5 0 00:23 25.05.2020
3488 Clouds 11 1030 50 10000 0.5 0 23:57 24.05.2020
3489 Clouds 11 1030 54 10000 0.5 0 23:38 24.05.2020
3490 Clouds 11 1030 54 10000 0.5 0 23:18 24.05.2020
3491 Clouds 14 1030 44 10000 1 0 22:41 24.05.2020
3492 Clouds 14 1030 44 10000 1 0 22:19 24.05.2020
3493 Clouds 15 1030 41 10000 1 0 21:57 24.05.2020
3494 Clouds 15 1029 41 10000 0.5 0 21:39 24.05.2020
3495 Clouds 13 1029 41 10000 0.5 0 21:20 24.05.2020
3496 Clouds 17 1029 66 10000 3.1 320 20:56 24.05.2020
3497 Clouds 17 1029 66 10000 4.6 340 20:38 24.05.2020
3498 Clouds 15 1029 53 10000 4.6 340 20:18 24.05.2020
3499 Clouds 18 1029 53 10000 4.6 310 19:42 24.05.2020
3500 Clouds 15 1029 39 10000 4.6 310 19:20 24.05.2020
3501 Clouds 17 1028 39 10000 2.6 320 18:59 24.05.2020
3502 Clouds 17 1028 25 10000 3.6 280 18:40 24.05.2020
3503 Clouds 17 1028 25 10000 3.6 280 18:22 24.05.2020
3504 Clouds 17 1028 25 10000 7.2 270 17:56 24.05.2020
3505 Clouds 18 1028 35 10000 5.1 270 17:37 24.05.2020
3506 Clouds 18 1028 33 10000 5.1 270 17:18 24.05.2020
3507 Clouds 16 1028 25 10000 3.1 0 16:39 24.05.2020
3508 Clouds 17 1028 25 10000 3.1 0 16:21 24.05.2020
3509 Clouds 16 1028 27 10000 6.2 260 15:58 24.05.2020
3510 Clouds 15 1029 27 10000 6.2 270 15:39 24.05.2020
3511 Clouds 15 1029 27 10000 6.2 270 15:19 24.05.2020
3512 Clouds 15 1029 27 10000 5.1 250 14:55 24.05.2020
3513 Clouds 15 1029 31 10000 4.1 270 14:37 24.05.2020
3514 Clouds 15 1029 31 10000 4.1 270 14:18 24.05.2020
3515 Clouds 13 1030 51 10000 2.6 0 13:44 24.05.2020
3516 Clouds 14 1030 51 10000 2.6 0 13:23 24.05.2020
3517 Clouds 14 1030 51 10000 2.6 0 13:23 24.05.2020
3518 Clouds 13 1030 54 10000 3.6 60 12:59 24.05.2020
3519 Clouds 12 1031 58 10000 2.6 60 12:41 24.05.2020
3520 Clouds 12 1031 58 10000 2.6 60 12:23 24.05.2020
3521 Clouds 12 1031 62 10000 3.1 70 11:59 24.05.2020
3522 Clouds 12 1031 62 10000 3.1 60 11:41 24.05.2020
3523 Clouds 12 1031 62 10000 3.1 60 11:23 24.05.2020
3524 Clouds 12 1031 62 10000 3.1 60 11:23 24.05.2020
3525 Clouds 10 1031 66 10000 2.6 70 10:59 24.05.2020
3526 Clouds 10 1031 71 10000 3.1 70 10:39 24.05.2020
3527 Clouds 10 1031 71 10000 3.1 70 10:21 24.05.2020
3528 Clouds 10 1031 71 10000 3.1 70 10:21 24.05.2020
3529 Clouds 8 1032 81 10000 1.5 110 09:42 24.05.2020
3530 Clouds 8 1032 81 10000 1.5 110 09:19 24.05.2020
3531 Clouds 7 1031 81 10000 1.01 295 08:59 24.05.2020
3532 Clouds 7 1031 87 10000 0.5 0 08:40 24.05.2020
3533 Clouds 7 1031 87 10000 0.5 0 08:40 24.05.2020
3534 Clouds 7 1031 87 10000 0.5 0 08:22 24.05.2020
3535 Clouds 6 1031 93 10000 0.5 0 07:52 24.05.2020
3536 Clouds 6 1031 93 10000 1 290 07:27 24.05.2020
3537 Clouds 7 1031 87 10000 0.5 0 06:58 24.05.2020
3538 Clouds 5 1031 93 10000 1 0 06:37 24.05.2020
3539 Clouds 5 1030 93 10000 1 0 05:24 24.05.2020
3540 Clouds 8 1029 76 10000 2.1 0 03:42 24.05.2020
3541 Rain 8 1028 87 10000 1 0 02:48 24.05.2020
3542 Rain 8 1028 87 10000 1 0 02:18 24.05.2020
3543 Rain 10 1028 81 10000 1 0 00:43 24.05.2020
3544 Rain 10 1028 81 10000 1 0 00:25 24.05.2020
3545 Rain 10 1028 81 10000 1 0 00:25 24.05.2020
3546 Rain 10 1028 87 10000 1.5 0 23:59 23.05.2020
3547 Rain 10 1027 87 10000 2.6 60 23:36 23.05.2020
3548 Clouds 10 1027 87 10000 2.6 70 23:18 23.05.2020
3549 Clouds 10 1027 87 10000 2.6 70 22:55 23.05.2020
3550 Clouds 10 1027 87 10000 3.1 70 22:37 23.05.2020
3551 Clouds 11 1026 93 10000 2.6 90 22:18 23.05.2020
3552 Clouds 11 1026 93 10000 2.6 90 21:54 23.05.2020
3553 Rain 11 1027 87 10000 3.1 100 21:36 23.05.2020
3554 Rain 12 1027 87 10000 3.1 100 21:18 23.05.2020
3555 Rain 14 1027 82 10000 2.1 0 20:39 23.05.2020
3556 Rain 15 1026 77 10000 2.6 90 20:20 23.05.2020
3557 Rain 15 1026 77 10000 2.6 90 19:58 23.05.2020
3558 Rain 15 1025 77 10000 3.1 110 19:40 23.05.2020
3559 Rain 15 1024 72 10000 4.6 240 19:19 23.05.2020
3560 Rain 18 1022 63 10000 6.7 230 18:41 23.05.2020
3561 Rain 15 1022 63 10000 6.7 230 18:22 23.05.2020
3562 Rain 18 1019 43 10000 10.3 270 17:58 23.05.2020
3563 Rain 18 1019 43 10000 10.3 270 17:58 23.05.2020
3564 Clouds 21 1016 38 10000 5.7 280 17:40 23.05.2020
3565 Clouds 19 1016 38 10000 5.7 280 17:20 23.05.2020
3566 Clouds 21 1014 28 10000 8.7 350 16:59 23.05.2020
3567 Clouds 22 1014 25 10000 3.1 70 16:41 23.05.2020
3568 Clouds 29 1014 25 10000 3.1 70 16:20 23.05.2020
3569 Clouds 24 1015 22 10000 2.1 0 15:56 23.05.2020
3570 Clouds 27 1015 25 10000 2.6 0 15:38 23.05.2020
3571 Clouds 26 1016 34 10000 3.6 100 15:20 23.05.2020
3572 Clouds 27 1017 32 10000 4.6 70 14:41 23.05.2020
3573 Clouds 26 1017 32 10000 4.6 70 14:23 23.05.2020
3574 Clouds 25 1018 36 10000 4.1 60 13:42 23.05.2020
3575 Clouds 25 1018 36 10000 4.1 60 13:19 23.05.2020
3576 Clouds 24 1019 36 10000 2.1 0 12:59 23.05.2020
3577 Clouds 24 1019 36 10000 2.1 0 12:59 23.05.2020
3578 Clouds 23 1020 36 10000 2.1 0 12:40 23.05.2020
3579 Clouds 23 1020 36 10000 2.1 0 12:40 23.05.2020
3580 Clouds 22 1021 40 10000 1 0 12:19 23.05.2020
3581 Clouds 22 1021 40 10000 1 0 11:54 23.05.2020
3582 Clouds 21 1021 37 10000 1 0 11:36 23.05.2020
3583 Clouds 21 1021 37 10000 1 0 11:18 23.05.2020
3584 Clouds 20 1022 45 10000 2.1 260 10:54 23.05.2020
3585 Clouds 20 1023 42 10000 0.5 0 10:36 23.05.2020
3586 Clouds 19 1023 52 10000 1 0 10:18 23.05.2020
3587 Clouds 17 1023 55 10000 2.1 260 09:41 23.05.2020
3588 Clouds 18 1023 55 10000 2.1 260 09:23 23.05.2020
3589 Clouds 17 1023 63 10000 1.5 250 08:54 23.05.2020
3590 Clouds 17 1024 59 10000 0.5 0 08:36 23.05.2020
3591 Clouds 15 1024 67 10000 1 200 08:18 23.05.2020
3592 Clouds 14 1024 62 10000 1 0 07:41 23.05.2020
3593 Clouds 14 1024 62 10000 1 0 07:21 23.05.2020
3594 Clouds 14 1024 71 10000 1 290 06:42 23.05.2020
3595 Clouds 14 1024 62 10000 0.5 0 05:51 23.05.2020
3596 Clouds 16 1024 59 10000 1 0 03:52 23.05.2020
3597 Clouds 18 1024 45 10000 1 0 03:23 23.05.2020
3598 Clouds 19 1023 42 10000 1.5 0 02:28 23.05.2020
3599 Clouds 18 1023 45 10000 0.5 0 01:28 23.05.2020
3600 Clouds 18 1023 48 10000 1 0 00:53 23.05.2020
3601 Clouds 19 1023 42 10000 0.5 0 00:34 23.05.2020
3602 Clouds 21 1023 35 10000 1.5 110 23:59 22.05.2020
3603 Clouds 22 1023 30 10000 1.5 0 23:40 22.05.2020
3604 Clouds 22 1023 30 10000 1.5 0 23:40 22.05.2020
3605 Clouds 22 1023 30 10000 1.5 0 23:20 22.05.2020
3606 Clouds 22 1024 30 10000 2.1 160 22:57 22.05.2020
3607 Clouds 24 1023 23 10000 3.6 310 22:39 22.05.2020
3608 Clouds 24 1023 23 10000 3.6 310 22:19 22.05.2020
3609 Clouds 21 1022 37 10000 1.5 180 21:46 22.05.2020
3610 Clouds 21 1022 37 10000 1.5 180 21:22 22.05.2020
3611 Clouds 22 1022 35 10000 1 0 20:55 22.05.2020
3612 Clouds 24 1022 29 10000 1.5 320 20:37 22.05.2020
3613 Clouds 22 1022 29 10000 1.5 320 20:18 22.05.2020
3614 Clouds 26 1021 22 10000 3.6 10 19:44 22.05.2020
3615 Clouds 24 1021 22 10000 3.6 10 19:25 22.05.2020
3616 Clouds 26 1021 26 10000 3.6 350 18:41 22.05.2020
3617 Clouds 24 1021 26 10000 3.6 350 18:21 22.05.2020
3618 Clouds 27 1021 22 10000 3.6 280 17:59 22.05.2020
3619 Clouds 27 1021 26 10000 2.1 0 17:39 22.05.2020
3620 Clouds 24 1021 26 10000 2.1 0 17:19 22.05.2020
3621 Clouds 25 1022 29 10000 2.6 0 16:55 22.05.2020
3622 Clouds 24 1021 27 10000 2.1 0 16:37 22.05.2020
3623 Clouds 24 1022 31 10000 3.1 70 16:18 22.05.2020
3624 Clouds 24 1022 27 10000 2.1 60 15:41 22.05.2020
3625 Clouds 24 1022 27 10000 2.1 60 15:21 22.05.2020
3626 Clouds 24 1022 31 10000 2.6 60 14:45 22.05.2020
3627 Clouds 23 1022 33 10000 2.6 80 14:26 22.05.2020
3628 Clouds 22 1023 38 10000 2.1 0 13:50 22.05.2020
3629 Clouds 22 1023 38 10000 2.1 0 13:22 22.05.2020
3630 Clouds 22 1023 38 10000 2.1 0 13:22 22.05.2020
3631 Clouds 22 1023 40 10000 1 0 12:59 22.05.2020
3632 Clouds 21 1023 43 10000 1 0 12:39 22.05.2020
3633 Clouds 21 1023 43 10000 1 0 12:21 22.05.2020
3634 Clouds 19 1023 52 10000 2.1 140 11:44 22.05.2020
3635 Clouds 18 1023 52 10000 2.1 140 11:22 22.05.2020
3636 Clouds 19 1024 48 10000 1 0 10:58 22.05.2020
3637 Clouds 18 1024 55 10000 2.6 280 10:38 22.05.2020
3638 Clouds 19 1024 55 10000 2.6 280 10:20 22.05.2020
3639 Clouds 17 1024 59 10000 1.5 260 09:48 22.05.2020
3640 Clouds 15 1024 67 10000 1 0 09:21 22.05.2020
3641 Clouds 14 1025 71 10000 2.6 270 08:58 22.05.2020
3642 Clouds 13 1025 81 10000 2.6 260 08:39 22.05.2020
3643 Clouds 13 1025 81 10000 2.6 260 08:39 22.05.2020
3644 Clouds 12 1025 81 10000 2.6 260 08:18 22.05.2020
3645 Clouds 11 1025 76 10000 2.1 240 07:52 22.05.2020
3646 Clouds 11 1025 87 10000 2.1 270 07:23 22.05.2020
3647 Clouds 11 1025 81 10000 1 200 06:48 22.05.2020
3648 Clouds 8 1025 87 10000 1 280 06:29 22.05.2020
3649 Clouds 8 1024 81 10000 1 0 05:37 22.05.2020
3650 Clouds 8 1024 81 10000 1.5 290 04:49 22.05.2020
3651 Clouds 9 1024 81 10000 1 0 03:51 22.05.2020
3652 Clouds 9 1024 81 10000 0.5 0 03:32 22.05.2020
3653 Clouds 10 1024 76 10000 1.5 290 02:35 22.05.2020
3654 Clear 10 1024 81 10000 0.5 0 01:43 22.05.2020
3655 Clear 10 1024 81 10000 0.5 0 01:21 22.05.2020
3656 Clouds 12 1024 76 10000 0.5 0 00:34 22.05.2020
3657 Clouds 12 1024 76 10000 1 270 23:57 21.05.2020
3658 Clouds 13 1023 67 10000 0.5 0 23:39 21.05.2020
3659 Clouds 13 1023 67 10000 0.5 0 23:21 21.05.2020
3660 Clear 16 1023 63 10000 0.5 0 22:57 21.05.2020
3661 Clouds 17 1023 59 10000 1 0 22:37 21.05.2020
3662 Clouds 17 1023 59 10000 1 0 22:19 21.05.2020
3663 Clouds 20 1021 49 10000 3.1 80 21:48 21.05.2020
3664 Clouds 17 1021 49 10000 3.1 80 21:27 21.05.2020
3665 Clouds 18 1021 49 10000 3.1 90 20:57 21.05.2020
3666 Clouds 18 1021 49 10000 3.6 80 20:39 21.05.2020
3667 Clouds 19 1021 49 10000 3.6 80 20:21 21.05.2020
3668 Clouds 22 1020 43 10000 5.7 120 19:40 21.05.2020
3669 Clouds 22 1020 40 10000 5.1 100 19:20 21.05.2020
3670 Clouds 22 1020 40 10000 5.1 100 18:57 21.05.2020
3671 Clouds 23 1019 38 10000 3.6 90 18:36 21.05.2020
3672 Clouds 22 1019 38 10000 5.1 70 18:18 21.05.2020
3673 Clouds 21 1019 38 10000 5.1 70 17:54 21.05.2020
3674 Clouds 22 1020 35 10000 4.6 70 17:36 21.05.2020
3675 Clouds 21 1020 35 10000 4.1 70 17:18 21.05.2020
3676 Clouds 22 1020 35 10000 4.1 70 16:40 21.05.2020
3677 Clouds 21 1020 35 10000 4.1 70 16:21 21.05.2020
3678 Clouds 21 1020 33 10000 2.6 70 15:41 21.05.2020
3679 Clouds 21 1020 33 10000 2.6 70 15:22 21.05.2020
3680 Clouds 21 1021 37 10000 1.5 0 14:41 21.05.2020
3681 Clouds 20 1021 37 10000 1.5 0 14:23 21.05.2020
3682 Clouds 21 1021 37 10000 1 0 13:56 21.05.2020
3683 Clouds 21 1021 35 10000 3.1 60 13:37 21.05.2020
3684 Clouds 19 1021 40 10000 2.1 0 13:18 21.05.2020
3685 Clouds 19 1022 49 10000 1.5 0 12:39 21.05.2020
3686 Clouds 18 1022 52 10000 1 0 12:20 21.05.2020
3687 Clouds 18 1022 52 10000 1 0 11:57 21.05.2020
3688 Clouds 17 1022 55 10000 1 0 11:39 21.05.2020
3689 Clouds 17 1022 55 10000 1 0 11:39 21.05.2020
3690 Clouds 17 1022 55 10000 1 0 11:20 21.05.2020
3691 Clouds 16 1022 63 10000 1.5 0 10:43 21.05.2020
3692 Clouds 15 1022 63 10000 1.5 0 10:23 21.05.2020
3693 Clouds 15 1023 67 10000 1 0 09:58 21.05.2020
3694 Clouds 15 1023 71 10000 1 0 09:39 21.05.2020
3695 Clouds 14 1023 71 10000 1 0 09:21 21.05.2020
3696 Clouds 12 1023 76 10000 1.5 50 08:50 21.05.2020
3697 Clouds 11 1022 87 10000 1.5 270 08:31 21.05.2020
3698 Clouds 11 1022 87 10000 1.5 270 07:54 21.05.2020
3699 Clouds 10 1022 87 10000 0.5 0 07:36 21.05.2020
3700 Clouds 10 1022 87 10000 0.5 0 07:18 21.05.2020
3701 Clouds 8 1022 93 10000 1 260 06:26 21.05.2020
3702 Clouds 8 1022 93 10000 2.1 250 05:49 21.05.2020
3703 Clouds 8 1022 93 10000 1 270 03:23 21.05.2020
3704 Clouds 8 1022 93 10000 1 0 02:57 21.05.2020
3705 Clouds 9 1022 87 10000 0.5 0 02:31 21.05.2020
3706 Clouds 9 1022 87 10000 0.5 0 01:49 21.05.2020
3707 Clouds 9 1022 87 10000 0.5 0 01:24 21.05.2020
3708 Clouds 10 1022 81 10000 0.5 0 00:54 21.05.2020
3709 Clouds 11 1021 82 10000 0.5 0 00:26 21.05.2020
3710 Clouds 11 1021 82 10000 1 0 23:56 20.05.2020
3711 Clouds 12 1021 82 10000 1 0 23:37 20.05.2020
3712 Clouds 12 1021 82 10000 1 0 23:18 20.05.2020
3713 Clouds 15 1021 77 10000 0.5 0 22:42 20.05.2020
3714 Clouds 15 1021 77 10000 0.5 0 22:23 20.05.2020
3715 Clouds 16 1021 72 10000 0.5 0 21:42 20.05.2020
3716 Clouds 14 1021 72 10000 0.5 0 21:23 20.05.2020
3717 Clouds 14 1020 72 10000 0.5 0 20:59 20.05.2020
3718 Clouds 14 1020 72 10000 1 0 20:41 20.05.2020
3719 Clouds 14 1020 72 10000 1 0 20:22 20.05.2020
3720 Clouds 15 1020 63 10000 1 0 19:42 20.05.2020
3721 Clouds 16 1020 63 10000 1 0 19:23 20.05.2020
3722 Clouds 16 1020 59 10000 1.5 90 18:58 20.05.2020
3723 Clouds 16 1020 55 10000 2.6 60 18:38 20.05.2020
3724 Clouds 16 1020 55 10000 2.6 60 18:20 20.05.2020
3725 Clouds 17 1020 63 10000 2.1 70 17:39 20.05.2020
3726 Clouds 16 1020 63 10000 2.1 70 17:21 20.05.2020
3727 Clouds 16 1020 67 10000 3.6 60 16:43 20.05.2020
3728 Clouds 16 1020 67 10000 3.6 60 16:24 20.05.2020
3729 Clouds 16 1020 67 10000 3.6 70 15:58 20.05.2020
3730 Clouds 16 1020 72 10000 3.6 60 15:40 20.05.2020
3731 Clouds 16 1020 72 10000 3.6 60 15:22 20.05.2020
3732 Clouds 16 1020 67 10000 1.5 100 14:43 20.05.2020
3733 Clouds 16 1020 67 10000 1.5 100 14:21 20.05.2020
3734 Clouds 16 1020 67 10000 3.1 70 13:41 20.05.2020
3735 Clouds 16 1020 63 10000 1.5 90 13:20 20.05.2020
3736 Clouds 16 1020 63 10000 1.5 90 12:58 20.05.2020
3737 Clouds 15 1020 67 10000 2.1 80 12:37 20.05.2020
3738 Clouds 15 1020 67 10000 2.1 80 12:19 20.05.2020
3739 Clouds 15 1020 72 10000 1.5 110 11:36 20.05.2020
3740 Clouds 15 1020 72 10000 1.5 110 11:18 20.05.2020
3741 Clouds 15 1020 77 10000 0.5 0 10:43 20.05.2020
3742 Rain 13 1020 77 10000 0.5 0 10:20 20.05.2020
3743 Rain 12 1020 82 10000 0.5 0 09:45 20.05.2020
3744 Rain 13 1019 82 10000 1 0 09:22 20.05.2020
3745 Clouds 12 1019 82 10000 1.5 0 08:57 20.05.2020
3746 Clouds 12 1019 82 10000 1.5 0 08:39 20.05.2020
3747 Clouds 12 1019 82 10000 1.5 0 08:18 20.05.2020
3748 Rain 12 1019 82 10000 0.5 0 07:46 20.05.2020
3749 Rain 12 1019 82 10000 0.5 0 07:21 20.05.2020
3750 Rain 12 1019 82 10000 0.5 0 07:21 20.05.2020
3751 Clouds 11 1019 87 10000 1.5 120 06:42 20.05.2020
3752 Clouds 12 1018 87 10000 1 0 05:24 20.05.2020
3753 Clouds 11 1018 87 10000 0.5 0 04:33 20.05.2020
3754 Clouds 12 1019 82 10000 1 0 03:52 20.05.2020
3755 Clouds 13 1019 82 10000 1 0 02:31 20.05.2020
3756 Clouds 14 1019 76 10000 1 0 01:30 20.05.2020
3757 Clouds 14 1019 82 10000 1 0 00:45 20.05.2020
3758 Clouds 13 1019 82 10000 1 0 00:24 20.05.2020
3759 Clouds 16 1019 72 10000 4.1 290 23:43 19.05.2020
3760 Clouds 16 1019 72 10000 3.6 250 23:19 19.05.2020
3761 Clouds 16 1019 72 10000 3.6 250 22:56 19.05.2020
3762 Clouds 16 1019 72 10000 1.5 0 22:38 19.05.2020
3763 Clouds 16 1018 77 10000 2.1 110 22:19 19.05.2020
3764 Clouds 16 1018 77 10000 2.1 110 21:58 19.05.2020
3765 Rain 17 1018 72 10000 0.5 0 21:38 19.05.2020
3766 Clouds 18 1018 68 10000 2.1 300 21:20 19.05.2020
3767 Clouds 18 1018 68 10000 2.1 300 20:57 19.05.2020
3768 Clouds 20 1017 52 10000 3.1 300 20:39 19.05.2020
3769 Clouds 20 1017 56 10000 3.1 260 20:21 19.05.2020
3770 Clouds 20 1017 56 10000 3.1 260 19:55 19.05.2020
3771 Clouds 21 1017 46 10000 1.5 360 19:37 19.05.2020
3772 Clouds 19 1017 46 10000 1.5 360 19:18 19.05.2020
3773 Clouds 22 1017 43 10000 2.1 50 18:40 19.05.2020
3774 Clouds 21 1017 43 10000 2.1 50 18:20 19.05.2020
3775 Clouds 19 1018 46 10000 2.6 110 17:43 19.05.2020
3776 Clouds 19 1018 46 10000 2.6 110 17:21 19.05.2020
3777 Clouds 19 1018 49 10000 2.1 120 16:59 19.05.2020
3778 Clouds 19 1018 49 10000 1.5 140 16:38 19.05.2020
3779 Clouds 18 1018 49 10000 1.5 140 16:20 19.05.2020
3780 Clouds 18 1018 52 10000 1.5 140 15:47 19.05.2020
3781 Clouds 19 1018 49 10000 2.6 110 15:23 19.05.2020
3782 Clouds 19 1019 49 10000 2.1 110 14:58 19.05.2020
3783 Clouds 18 1019 48 10000 2.1 120 14:39 19.05.2020
3784 Clouds 18 1019 48 10000 2.1 120 14:20 19.05.2020
3785 Clouds 19 1019 49 10000 1 0 13:58 19.05.2020
3786 Clouds 18 1020 52 10000 2.1 80 13:39 19.05.2020
3787 Clouds 18 1020 52 10000 2.1 80 13:20 19.05.2020
3788 Clouds 18 1020 52 10000 3.1 60 12:57 19.05.2020
3789 Clouds 18 1020 52 10000 3.1 70 12:38 19.05.2020
3790 Clouds 17 1021 55 10000 2.6 110 12:20 19.05.2020
3791 Clouds 17 1021 55 10000 2.6 110 11:54 19.05.2020
3792 Clouds 17 1021 52 10000 2.6 60 11:36 19.05.2020
3793 Clouds 17 1021 52 10000 2.6 60 11:36 19.05.2020
3794 Clouds 17 1021 55 10000 2.1 70 11:18 19.05.2020
3795 Clouds 16 1021 59 10000 1 0 10:42 19.05.2020
3796 Clouds 16 1021 59 10000 1 0 10:23 19.05.2020
3797 Clouds 15 1021 63 10000 0.5 0 09:47 19.05.2020
3798 Clouds 13 1021 71 10000 0.5 0 09:25 19.05.2020
3799 Clouds 13 1021 71 10000 0.5 0 09:25 19.05.2020
3800 Clouds 12 1022 76 10000 1 0 08:59 19.05.2020
3801 Clouds 12 1022 76 10000 0.5 0 08:41 19.05.2020
3802 Clouds 12 1022 76 10000 0.5 0 08:23 19.05.2020
3803 Clouds 10 1022 87 10000 0.5 0 07:42 19.05.2020
3804 Clouds 10 1022 87 10000 0.5 0 07:42 19.05.2020
3805 Clouds 10 1022 87 10000 0.5 0 07:24 19.05.2020
3806 Clouds 9 1022 87 10000 1.5 290 06:41 19.05.2020
3807 Clouds 8 1022 87 10000 1.5 290 06:22 19.05.2020
3808 Clouds 7 1022 87 10000 0.5 0 05:39 19.05.2020
3809 Clouds 8 1022 87 10000 0.5 0 04:54 19.05.2020
3810 Clouds 10 1022 81 10000 1 0 02:59 19.05.2020
3811 Clouds 11 1022 71 10000 1 0 01:22 19.05.2020
3812 Clouds 12 1022 67 10000 0.5 0 00:41 19.05.2020
3813 Clouds 13 1022 67 10000 0.5 0 00:21 19.05.2020
3814 Clouds 17 1022 59 10000 1 0 23:40 18.05.2020
3815 Clouds 17 1022 59 10000 1 0 23:21 18.05.2020
3816 Clouds 18 1021 55 10000 1.5 230 22:59 18.05.2020
3817 Clouds 19 1021 52 10000 1.5 140 22:39 18.05.2020
3818 Clouds 19 1021 52 10000 1.5 140 22:21 18.05.2020
3819 Clouds 20 1020 49 10000 4.1 60 21:43 18.05.2020
3820 Clouds 21 1020 46 10000 4.1 30 21:22 18.05.2020
3821 Clouds 21 1020 46 10000 4.1 30 20:58 18.05.2020
3822 Clouds 21 1020 46 10000 4.1 30 20:58 18.05.2020
3823 Clouds 22 1020 43 10000 4.6 50 20:40 18.05.2020
3824 Clouds 20 1019 43 10000 4.6 50 20:21 18.05.2020
3825 Clouds 22 1019 43 10000 4.6 50 19:56 18.05.2020
3826 Clouds 23 1019 40 10000 4.1 60 19:38 18.05.2020
3827 Clouds 24 1019 38 10000 4.6 60 19:18 18.05.2020
3828 Clouds 24 1019 38 10000 4.6 60 18:45 18.05.2020
3829 Clouds 25 1019 38 10000 4.6 80 18:22 18.05.2020
3830 Clouds 23 1019 36 10000 3.1 70 17:40 18.05.2020
3831 Clouds 25 1019 36 10000 3.1 70 17:18 18.05.2020
3832 Clouds 25 1019 38 10000 3.6 50 16:56 18.05.2020
3833 Clouds 25 1019 36 10000 3.1 100 16:38 18.05.2020
3834 Clouds 23 1019 38 10000 3.1 60 16:18 18.05.2020
3835 Clouds 23 1019 38 10000 3.1 60 15:56 18.05.2020
3836 Clouds 22 1020 41 10000 2.6 80 15:37 18.05.2020
3837 Clouds 23 1020 41 10000 2.1 0 15:19 18.05.2020
3838 Clouds 22 1021 40 10000 2.1 0 14:43 18.05.2020
3839 Clouds 22 1021 40 10000 2.1 0 14:24 18.05.2020
3840 Clouds 21 1021 40 10000 2.6 0 13:57 18.05.2020
3841 Clouds 20 1022 43 10000 3.1 100 13:39 18.05.2020
3842 Clouds 19 1022 45 10000 2.6 90 13:19 18.05.2020
3843 Clouds 19 1022 45 10000 2.6 90 12:56 18.05.2020
3844 Clouds 19 1022 45 10000 1.5 0 12:37 18.05.2020
3845 Clouds 18 1023 48 10000 1 0 12:18 18.05.2020
3846 Clouds 17 1023 52 10000 1 0 11:46 18.05.2020
3847 Clouds 17 1023 52 10000 1 0 11:27 18.05.2020
3848 Clouds 17 1023 55 10000 1 0 10:57 18.05.2020
3849 Clouds 16 1024 62 10000 1.5 0 10:38 18.05.2020
3850 Clouds 15 1024 62 10000 1.5 0 10:20 18.05.2020
3851 Clear 14 1024 71 10000 1 0 09:42 18.05.2020
3852 Clear 11 1024 76 10000 2.1 270 09:24 18.05.2020
3853 Clear 10 1024 87 10000 2.6 280 08:44 18.05.2020
3854 Clear 10 1024 87 10000 2.6 280 08:25 18.05.2020
3855 Clear 10 1024 81 10000 1.5 260 07:52 18.05.2020
3856 Clear 9 1024 87 10000 1.5 280 07:26 18.05.2020
3857 Clear 9 1024 87 10000 1.5 250 06:50 18.05.2020
3858 Clear 8 1024 93 10000 1.5 250 06:32 18.05.2020
3859 Clear 6 1024 87 10000 0.5 0 05:49 18.05.2020
3860 Clear 5 1024 93 10000 1 0 04:52 18.05.2020
3861 Clouds 7 1024 81 10000 0.5 0 03:30 18.05.2020
3862 Clouds 8 1024 81 10000 1.5 260 02:21 18.05.2020
3863 Clouds 8 1023 81 10000 1 0 00:55 18.05.2020
3864 Clouds 9 1023 81 10000 1 0 00:24 18.05.2020
3865 Clouds 10 1023 76 10000 1 0 23:57 17.05.2020
3866 Clouds 10 1023 71 10000 1 0 23:38 17.05.2020
3867 Clouds 11 1023 71 10000 1 0 23:19 17.05.2020
3868 Clouds 13 1022 71 10000 0.5 0 22:56 17.05.2020
3869 Clouds 14 1022 67 10000 1 330 22:37 17.05.2020
3870 Clouds 14 1022 67 10000 1 330 22:18 17.05.2020
3871 Clouds 14 1022 67 10000 1 330 22:18 17.05.2020
3872 Clouds 17 1021 51 10000 1.5 0 21:42 17.05.2020
3873 Clouds 14 1021 51 10000 1.5 0 21:21 17.05.2020
3874 Clouds 16 1021 48 10000 3.6 60 20:59 17.05.2020
3875 Clouds 19 1021 42 10000 4.6 80 20:41 17.05.2020
3876 Clouds 17 1021 42 10000 4.6 80 20:20 17.05.2020
3877 Clouds 19 1020 42 10000 4.1 70 19:55 17.05.2020
3878 Clouds 20 1020 42 10000 5.1 90 19:37 17.05.2020
3879 Clouds 20 1020 42 10000 5.1 90 19:37 17.05.2020
3880 Clouds 20 1020 42 10000 5.1 90 19:18 17.05.2020
3881 Clouds 21 1019 43 10000 3.1 50 18:39 17.05.2020
3882 Clouds 19 1019 43 10000 3.1 50 18:21 17.05.2020
3883 Clouds 19 1019 40 10000 2.6 70 17:56 17.05.2020
3884 Clouds 21 1019 43 10000 3.1 80 17:37 17.05.2020
3885 Clouds 19 1019 43 10000 3.1 80 17:18 17.05.2020
3886 Clouds 19 1020 46 10000 2.1 0 16:40 17.05.2020
3887 Clouds 19 1020 46 10000 2.1 0 16:20 17.05.2020
3888 Clouds 19 1020 45 10000 2.6 110 15:56 17.05.2020
3889 Clouds 21 1020 43 10000 2.6 0 15:37 17.05.2020
3890 Clouds 21 1020 43 10000 2.6 0 15:18 17.05.2020
3891 Clouds 20 1020 49 10000 1.5 0 14:42 17.05.2020
3892 Clouds 20 1020 49 10000 1.5 0 14:24 17.05.2020
3893 Clouds 20 1020 49 10000 1.5 0 14:24 17.05.2020
3894 Clouds 17 1020 55 10000 3.1 160 13:57 17.05.2020
3895 Clouds 17 1021 59 10000 1.5 0 13:37 17.05.2020
3896 Clouds 17 1021 59 10000 1.5 0 13:18 17.05.2020
3897 Clouds 9 1020 100 10000 0.5 0 04:21 17.05.2020
3898 Clouds 9 1020 93 9000 1 160 02:29 17.05.2020
3899 Clouds 9 1020 93 9000 1 160 02:29 17.05.2020
3900 Clouds 9 1020 93 8000 1 140 01:56 17.05.2020
3901 Clouds 9 1020 93 10000 1 320 01:38 17.05.2020
3902 Clouds 9 1020 93 9000 1 0 00:40 17.05.2020
3903 Clouds 9 1020 93 8000 1 0 23:57 16.05.2020
3904 Clouds 9 1020 93 9000 1 0 23:39 16.05.2020
3905 Clouds 9 1020 93 9000 1 0 23:20 16.05.2020
3906 Clouds 9 1020 93 10000 0.5 0 22:58 16.05.2020
3907 Clouds 10 1020 93 10000 0.49 160 22:40 16.05.2020
3908 Rain 10 1020 93 10000 0.5 0 22:19 16.05.2020
3909 Rain 11 1020 87 10000 0.5 0 21:45 16.05.2020
3910 Rain 10 1020 87 10000 0.5 0 21:27 16.05.2020
3911 Clouds 11 1020 93 10000 1 140 20:58 16.05.2020
3912 Clouds 11 1020 82 10000 1 0 20:39 16.05.2020
3913 Clouds 11 1020 82 10000 1 0 20:21 16.05.2020
3914 Rain 11 1019 87 10000 0.5 0 19:57 16.05.2020
3915 Rain 12 1019 71 10000 0.5 0 19:39 16.05.2020
3916 Rain 12 1019 71 10000 0.5 0 19:21 16.05.2020
3917 Clouds 12 1020 71 10000 1 0 18:42 16.05.2020
3918 Clouds 12 1020 71 10000 1 0 18:23 16.05.2020
3919 Clouds 12 1020 71 10000 0.5 0 17:56 16.05.2020
3920 Clouds 12 1020 76 10000 1 0 17:38 16.05.2020
3921 Clouds 12 1020 76 10000 1 0 17:19 16.05.2020
3922 Clouds 12 1020 76 10000 1.5 260 16:40 16.05.2020
3923 Clouds 12 1020 76 10000 1.5 260 16:22 16.05.2020
3924 Clouds 13 1020 71 10000 1.5 0 15:57 16.05.2020
3925 Clouds 12 1021 76 10000 1.5 280 15:38 16.05.2020
3926 Clouds 12 1021 76 10000 1.5 280 15:19 16.05.2020
3927 Rain 12 1022 81 10000 1.5 280 14:43 16.05.2020
3928 Rain 12 1022 81 10000 1.5 280 14:20 16.05.2020
3929 Rain 10 1022 76 10000 1.5 0 13:57 16.05.2020
3930 Rain 10 1022 76 10000 0.5 0 13:38 16.05.2020
3931 Rain 10 1022 76 10000 0.5 0 13:38 16.05.2020
3932 Rain 10 1022 76 10000 0.5 0 13:20 16.05.2020
3933 Rain 9 1022 81 10000 1 0 12:44 16.05.2020
3934 Rain 10 1022 81 10000 1 0 12:20 16.05.2020
3935 Rain 9 1022 87 10000 0.5 0 11:56 16.05.2020
3936 Rain 9 1022 87 10000 0.5 0 11:38 16.05.2020
3937 Rain 9 1022 87 10000 0.5 0 11:19 16.05.2020
3938 Rain 8 1022 81 10000 0.5 0 10:55 16.05.2020
3939 Rain 8 1022 81 10000 0.5 0 10:36 16.05.2020
3940 Rain 9 1022 81 10000 0.5 0 10:18 16.05.2020
3941 Clouds 9 1022 81 10000 0.5 0 09:40 16.05.2020
3942 Clouds 7 1022 87 10000 1.5 80 09:19 16.05.2020
3943 Clouds 6 1022 87 10000 2.1 60 08:43 16.05.2020
3944 Clouds 6 1022 87 10000 2.1 60 08:21 16.05.2020
3945 Clouds 7 1022 87 10000 2.6 60 07:46 16.05.2020
3946 Clouds 7 1022 87 10000 1.5 110 07:26 16.05.2020
3947 Clouds 6 1022 93 10000 1.5 120 06:57 16.05.2020
3948 Clouds 6 1021 93 10000 1.5 130 06:37 16.05.2020
3949 Clouds 7 1021 93 10000 1.5 110 06:18 16.05.2020
3950 Clouds 7 1021 93 10000 1.5 100 05:32 16.05.2020
3951 Clouds 6 1021 93 10000 1 200 03:36 16.05.2020
3952 Clouds 5 1021 93 10000 0.5 0 02:59 16.05.2020
3953 Clouds 5 1021 93 10000 1 170 02:21 16.05.2020
3954 Clouds 6 1021 87 10000 1 170 01:47 16.05.2020
3955 Clouds 6 1022 87 10000 1 100 01:22 16.05.2020
3956 Clouds 6 1021 87 10000 1 0 00:46 16.05.2020
3957 Clouds 6 1021 87 10000 0.5 0 00:22 16.05.2020
3958 Clouds 7 1021 93 10000 1 0 23:41 15.05.2020
3959 Clouds 7 1021 87 10000 0.5 0 23:20 15.05.2020
3960 Clouds 7 1021 87 10000 0.5 0 22:58 15.05.2020
3961 Clouds 7 1021 87 10000 1 130 22:38 15.05.2020
3962 Clouds 7 1021 87 10000 1 130 22:18 15.05.2020
3963 Clouds 7 1021 87 10000 1 130 22:18 15.05.2020
3964 Clouds 9 1020 87 10000 1 0 21:40 15.05.2020
3965 Clouds 7 1020 87 10000 1 0 21:21 15.05.2020
3966 Clouds 7 1020 87 10000 1 0 20:59 15.05.2020
3967 Clouds 7 1020 87 10000 1.5 150 20:40 15.05.2020
3968 Clouds 7 1020 87 10000 1.5 150 20:22 15.05.2020
3969 Clouds 7 1019 87 10000 1.5 150 19:56 15.05.2020
3970 Clouds 8 1019 81 10000 0.5 0 19:37 15.05.2020
3971 Clouds 8 1019 81 10000 0.5 0 19:37 15.05.2020
3972 Clouds 8 1019 81 10000 0.5 0 19:19 15.05.2020
3973 Drizzle 8 1019 87 10000 2.6 90 18:43 15.05.2020
3974 Drizzle 8 1019 87 10000 2.6 90 18:24 15.05.2020
3975 Rain 8 1018 81 10000 1.5 120 17:40 15.05.2020
3976 Rain 8 1018 81 10000 1.5 120 17:20 15.05.2020
3977 Rain 8 1018 81 10000 1.5 120 17:20 15.05.2020
3978 Rain 8 1018 87 10000 1.5 110 16:58 15.05.2020
3979 Rain 8 1017 87 10000 2.1 120 16:39 15.05.2020
3980 Rain 8 1017 87 10000 2.1 120 16:19 15.05.2020
3981 Rain 8 1017 87 10000 1.5 90 15:55 15.05.2020
3982 Rain 8 1016 87 10000 2.6 70 15:37 15.05.2020
3983 Clouds 9 1016 87 10000 4.1 50 15:18 15.05.2020
3984 Drizzle 10 1015 81 10000 2.6 80 14:42 15.05.2020
3985 Drizzle 9 1015 81 10000 2.6 80 14:24 15.05.2020
3986 Rain 9 1015 87 10000 2.6 90 13:58 15.05.2020
3987 Rain 9 1014 87 10000 3.6 90 13:39 15.05.2020
3988 Rain 9 1014 87 10000 3.6 90 13:20 15.05.2020
3989 Rain 10 1013 87 10000 0.5 0 12:40 15.05.2020
3990 Rain 10 1013 87 10000 0.5 0 12:40 15.05.2020
3991 Rain 10 1012 87 10000 1 0 12:19 15.05.2020
3992 Rain 9 1013 87 10000 0.5 0 12:19 15.05.2020
3993 Rain 10 1012 87 10000 1 0 11:57 15.05.2020
3994 Rain 9 1012 87 10000 1 0 11:38 15.05.2020
3995 Rain 9 1012 87 10000 1 0 11:20 15.05.2020
3996 Clouds 9 1011 87 10000 1.5 70 10:58 15.05.2020
3997 Drizzle 8 1011 93 8000 1 60 10:39 15.05.2020
3998 Drizzle 8 1010 93 10000 1 0 10:21 15.05.2020
3999 Rain 8 1010 93 10000 1 0 09:58 15.05.2020
4000 Rain 8 1010 93 10000 1.5 50 09:37 15.05.2020
4001 Rain 8 1010 93 10000 1.5 50 09:18 15.05.2020
4002 Rain 8 1010 93 10000 2.6 90 08:54 15.05.2020
4003 Rain 8 1009 93 10000 3.1 70 08:36 15.05.2020
4004 Rain 8 1009 93 10000 3.1 70 08:18 15.05.2020
4005 Clouds 7 1009 93 10000 1.5 80 07:42 15.05.2020
4006 Clouds 7 1009 93 10000 1.5 80 07:23 15.05.2020
4007 Rain 7 1008 93 10000 1.5 90 06:35 15.05.2020
4008 Rain 8 1008 93 6000 3.1 70 05:38 15.05.2020
4009 Rain 8 1009 87 6000 2.1 90 03:52 15.05.2020
4010 Rain 8 1010 87 10000 2.6 80 03:31 15.05.2020
4011 Clouds 9 1010 81 10000 3.1 90 01:37 15.05.2020
4012 Rain 9 1010 81 10000 2.6 100 01:19 15.05.2020
4013 Rain 9 1011 81 10000 2.6 70 00:43 15.05.2020
4014 Rain 9 1011 81 10000 2.6 70 00:22 15.05.2020
4015 Clouds 9 1011 81 10000 1 0 23:42 14.05.2020
4016 Clouds 9 1011 81 10000 1 0 23:20 14.05.2020
4017 Clouds 9 1011 81 10000 2.1 100 22:55 14.05.2020
4018 Clouds 9 1011 81 10000 4.1 90 22:37 14.05.2020
4019 Clouds 9 1011 81 10000 4.1 90 22:19 14.05.2020
4020 Rain 9 1011 76 10000 2.6 70 21:42 14.05.2020
4021 Rain 9 1011 76 10000 2.6 70 21:42 14.05.2020
4022 Rain 10 1010 71 10000 3.6 80 21:20 14.05.2020
4023 Clouds 10 1010 71 10000 3.6 80 20:59 14.05.2020
4024 Clouds 10 1010 71 10000 4.1 70 20:40 14.05.2020
4025 Clouds 10 1010 71 10000 4.1 70 20:20 14.05.2020
4026 Clouds 10 1010 71 10000 3.6 80 19:57 14.05.2020
4027 Clouds 11 1009 67 10000 5.1 90 19:39 14.05.2020
4028 Clouds 11 1009 67 10000 5.1 90 19:20 14.05.2020
4029 Clouds 11 1009 67 10000 5.1 90 19:20 14.05.2020
4030 Clouds 12 1009 62 10000 4.6 70 18:57 14.05.2020
4031 Clouds 12 1009 67 10000 5.1 70 18:38 14.05.2020
4032 Clouds 12 1009 67 10000 5.1 70 18:19 14.05.2020
4033 Clouds 13 1009 63 10000 5.1 70 17:57 14.05.2020
4034 Clouds 13 1009 59 10000 4.1 80 17:37 14.05.2020
4035 Clouds 13 1009 59 10000 4.1 80 17:18 14.05.2020
4036 Clouds 13 1009 59 10000 3.6 90 16:41 14.05.2020
4037 Clouds 13 1009 59 10000 3.6 90 16:23 14.05.2020
4038 Clouds 13 1009 55 10000 3.1 80 15:59 14.05.2020
4039 Clouds 13 1010 59 10000 2.6 110 15:41 14.05.2020
4040 Clouds 13 1010 59 10000 2.6 110 15:21 14.05.2020
4041 Clouds 13 1010 59 10000 2.6 130 14:57 14.05.2020
4042 Clouds 13 1011 62 10000 2.6 0 14:39 14.05.2020
4043 Clouds 13 1011 62 10000 2.6 0 14:20 14.05.2020
4044 Clouds 13 1011 62 10000 3.6 100 13:57 14.05.2020
4045 Clouds 12 1012 62 10000 2.6 110 13:38 14.05.2020
4046 Clouds 12 1012 62 10000 2.6 110 13:38 14.05.2020
4047 Clouds 12 1012 71 10000 1.5 0 13:19 14.05.2020
4048 Clouds 12 1012 71 10000 1.5 0 13:19 14.05.2020
4049 Clouds 11 1012 71 10000 1.5 0 12:57 14.05.2020
4050 Clouds 10 1013 76 10000 2.1 130 12:38 14.05.2020
4051 Clouds 10 1013 76 10000 2.1 130 12:38 14.05.2020
4052 Clouds 10 1013 76 10000 2.1 130 12:18 14.05.2020
4053 Clouds 9 1013 76 10000 2.1 100 11:57 14.05.2020
4054 Clouds 9 1013 76 10000 2.1 110 11:38 14.05.2020
4055 Clouds 8 1012 76 10000 2.1 90 11:19 14.05.2020
4056 Clouds 8 1012 81 10000 1.5 60 10:45 14.05.2020
4057 Clouds 8 1012 81 10000 1.5 60 10:26 14.05.2020
4058 Clouds 7 1012 76 10000 2.1 80 09:57 14.05.2020
4059 Clouds 7 1012 87 10000 1.5 60 09:38 14.05.2020
4060 Clouds 7 1012 81 10000 1.5 80 09:19 14.05.2020
4061 Clouds 7 1012 81 10000 1 0 08:40 14.05.2020
4062 Clouds 7 1012 81 10000 1 0 08:20 14.05.2020
4063 Clouds 7 1011 81 10000 2.1 60 07:45 14.05.2020
4064 Clouds 7 1011 81 10000 2.1 60 07:24 14.05.2020
4065 Clouds 7 1011 81 10000 1.5 90 06:54 14.05.2020
4066 Clouds 7 1010 81 10000 2.1 90 06:28 14.05.2020
4067 Clouds 7 1010 87 10000 0.5 0 05:44 14.05.2020
4068 Clouds 7 1010 87 10000 0.5 0 05:23 14.05.2020
4069 Clouds 7 1009 87 10000 1 0 04:24 14.05.2020
4070 Clouds 7 1008 87 10000 2.1 60 03:21 14.05.2020
4071 Clouds 8 1007 87 10000 2.1 90 02:40 14.05.2020
4072 Clouds 8 1007 87 10000 1.5 80 01:55 14.05.2020
4073 Clouds 8 1007 87 10000 2.6 80 00:58 14.05.2020
4074 Clouds 8 1007 87 10000 3.1 90 00:37 14.05.2020
4075 Clouds 9 1007 87 10000 3.1 90 00:19 14.05.2020
4076 Clouds 9 1006 87 10000 6.2 80 23:39 13.05.2020
4077 Clouds 9 1006 87 10000 6.2 80 23:18 13.05.2020
4078 Clouds 11 1006 71 10000 1 0 22:42 13.05.2020
4079 Clouds 11 1006 71 10000 1 0 22:23 13.05.2020
4080 Clouds 13 1005 55 10000 5.1 120 21:59 13.05.2020
4081 Clouds 13 1005 55 10000 5.1 120 21:59 13.05.2020
4082 Clouds 13 1005 55 10000 5.1 120 21:59 13.05.2020
4083 Clouds 12 1005 76 10000 1.5 0 21:40 13.05.2020
4084 Clouds 12 1005 76 10000 1.5 0 21:20 13.05.2020
4085 Rain 12 1005 59 10000 4.1 40 20:58 13.05.2020
4086 Clouds 12 1005 72 10000 1.5 0 20:39 13.05.2020
4087 Clouds 14 1005 48 10000 3.6 60 20:21 13.05.2020
4088 Clouds 14 1004 48 10000 6.2 60 19:43 13.05.2020
4089 Clouds 15 1004 48 10000 6.2 60 19:24 13.05.2020
4090 Clouds 16 1004 45 10000 5.7 80 18:55 13.05.2020
4091 Clouds 16 1005 52 10000 7.7 50 18:36 13.05.2020
4092 Clouds 16 1005 52 10000 7.7 50 18:18 13.05.2020
4093 Clouds 15 1006 72 10000 3.6 260 17:38 13.05.2020
4094 Clouds 13 1007 71 10000 3.1 290 17:19 13.05.2020
4095 Clouds 13 1007 71 10000 3.1 290 16:54 13.05.2020
4096 Clouds 12 1008 76 10000 1.5 160 16:36 13.05.2020
4097 Clouds 12 1008 76 10000 1.5 160 16:36 13.05.2020
4098 Clouds 13 1008 76 10000 1.5 160 16:18 13.05.2020
4099 Clouds 13 1008 76 10000 2.1 80 15:42 13.05.2020
4100 Clouds 13 1008 76 10000 2.1 80 15:19 13.05.2020
4101 Clouds 13 1009 71 10000 2.6 120 14:56 13.05.2020
4102 Clouds 13 1008 66 10000 5.7 90 14:38 13.05.2020
4103 Clouds 13 1008 66 10000 5.7 90 14:19 13.05.2020
4104 Clouds 13 1009 66 10000 3.6 80 13:55 13.05.2020
4105 Clouds 13 1009 71 10000 3.1 70 13:36 13.05.2020
4106 Clouds 13 1009 71 10000 3.1 70 13:18 13.05.2020
4107 Clouds 13 1010 66 10000 3.1 80 12:42 13.05.2020
4108 Clouds 13 1010 66 10000 3.1 80 12:21 13.05.2020
4109 Clouds 14 1010 66 10000 2.6 80 11:56 13.05.2020
4110 Clouds 13 1010 71 10000 1.5 0 11:38 13.05.2020
4111 Clouds 12 1010 71 10000 1.5 0 11:20 13.05.2020
4112 Clouds 11 1010 76 10000 1 0 10:58 13.05.2020
4113 Clouds 11 1011 71 10000 1 0 10:38 13.05.2020
4114 Clouds 10 1011 76 10000 0.5 0 10:19 13.05.2020
4115 Clouds 10 1011 76 10000 0.5 0 09:56 13.05.2020
4116 Clouds 9 1012 81 10000 0.5 0 09:38 13.05.2020
4117 Clouds 9 1012 81 10000 0.5 0 09:19 13.05.2020
4118 Clouds 7 1012 81 10000 0.5 0 08:40 13.05.2020
4119 Rain 7 1012 87 10000 0.5 0 08:21 13.05.2020
4120 Rain 7 1012 87 10000 0.5 0 07:56 13.05.2020
4121 Rain 7 1012 87 10000 0.5 0 07:34 13.05.2020
4122 Rain 6 1012 87 10000 1 0 06:55 13.05.2020
4123 Clouds 7 1012 81 10000 1 0 06:35 13.05.2020
4124 Clouds 6 1011 87 10000 0.5 0 05:48 13.05.2020
4125 Clouds 6 1011 87 10000 2.1 260 04:20 13.05.2020
4126 Clouds 7 1012 81 10000 1 0 02:38 13.05.2020
4127 Clouds 6 1013 75 10000 0.5 0 01:46 13.05.2020
4128 Clouds 6 1013 75 10000 2.1 70 00:59 13.05.2020
4129 Clouds 7 1013 75 10000 1 0 00:28 13.05.2020
4130 Clouds 7 1013 70 10000 1 0 23:59 12.05.2020
4131 Clouds 7 1013 70 10000 1 0 23:59 12.05.2020
4132 Clouds 7 1013 70 10000 2.6 70 23:39 12.05.2020
4133 Clouds 8 1013 70 10000 2.6 70 23:20 12.05.2020
4134 Clouds 8 1013 66 10000 2.1 80 22:42 12.05.2020
4135 Clouds 8 1013 66 10000 2.1 80 22:23 12.05.2020
4136 Clouds 8 1013 66 10000 2.1 80 22:23 12.05.2020
4137 Clouds 8 1013 66 10000 2.6 80 21:57 12.05.2020
4138 Clouds 8 1012 62 10000 2.6 80 21:38 12.05.2020
4139 Clouds 9 1012 62 10000 2.6 80 21:20 12.05.2020
4140 Clouds 9 1012 62 10000 4.1 80 20:59 12.05.2020
4141 Clouds 9 1012 62 10000 4.1 80 20:59 12.05.2020
4142 Clouds 10 1012 58 10000 4.6 80 20:40 12.05.2020
4143 Clouds 10 1012 58 10000 4.6 80 20:40 12.05.2020
4144 Clouds 10 1012 58 10000 4.6 80 20:21 12.05.2020
4145 Clouds 10 1012 54 10000 5.1 90 19:58 12.05.2020
4146 Clouds 11 1012 54 10000 5.1 80 19:40 12.05.2020
4147 Clouds 11 1012 54 10000 5.1 80 19:21 12.05.2020
4148 Clouds 11 1012 54 10000 5.7 60 18:56 12.05.2020
4149 Clouds 11 1012 50 10000 5.1 70 18:38 12.05.2020
4150 Clouds 11 1012 50 10000 5.1 70 18:20 12.05.2020
4151 Clouds 12 1012 47 10000 4.1 70 17:43 12.05.2020
4152 Clouds 12 1012 47 10000 4.1 70 17:24 12.05.2020
4153 Clouds 12 1012 51 10000 3.1 80 16:47 12.05.2020
4154 Clouds 12 1013 51 10000 2.1 0 16:26 12.05.2020
4155 Clouds 11 1013 50 10000 2.1 0 15:57 12.05.2020
4156 Clouds 11 1013 50 10000 2.6 80 15:39 12.05.2020
4157 Clouds 11 1013 50 10000 2.6 80 15:39 12.05.2020
4158 Clouds 11 1013 50 10000 2.6 80 15:19 12.05.2020
4159 Clouds 11 1014 58 10000 3.1 0 14:57 12.05.2020
4160 Clouds 11 1014 54 10000 2.1 0 14:38 12.05.2020
4161 Clouds 10 1015 57 10000 2.6 0 14:20 12.05.2020
4162 Clouds 10 1015 57 10000 2.6 0 13:58 12.05.2020
4163 Clouds 9 1015 57 10000 1.5 0 13:40 12.05.2020
4164 Clouds 9 1015 57 10000 1.5 0 13:20 12.05.2020
4165 Clouds 9 1015 57 10000 1.5 0 12:58 12.05.2020
4166 Clouds 8 1015 61 10000 1 0 12:39 12.05.2020
4167 Clouds 10 1015 61 10000 1 0 12:21 12.05.2020
4168 Clouds 9 1016 66 10000 2.1 0 11:58 12.05.2020
4169 Clouds 7 1016 65 10000 1.5 0 11:39 12.05.2020
4170 Clouds 5 1016 70 10000 1.5 0 11:21 12.05.2020
4171 Clouds 5 1016 70 10000 1.5 0 10:58 12.05.2020
4172 Clouds 5 1016 70 10000 2.1 50 10:40 12.05.2020
4173 Clouds 5 1016 70 10000 2.1 50 10:21 12.05.2020
4174 Clouds 4 1016 70 10000 1 0 09:59 12.05.2020
4175 Clouds 4 1016 75 10000 1 0 09:39 12.05.2020
4176 Clouds 4 1016 75 10000 1 0 09:20 12.05.2020
4177 Clouds 3 1016 80 10000 2.1 140 08:54 12.05.2020
4178 Clouds 3 1015 75 10000 1 0 08:36 12.05.2020
4179 Clouds 3 1015 75 10000 1 0 08:18 12.05.2020
4180 Clouds 2 1015 80 10000 2.1 120 07:41 12.05.2020
4181 Clouds 2 1015 80 10000 2.1 120 07:21 12.05.2020
4182 Rain 2 1014 80 10000 2.6 100 06:41 12.05.2020
4183 Rain 2 1014 80 10000 2.6 100 06:22 12.05.2020
4184 Rain 2 1014 75 10000 3.6 100 05:50 12.05.2020
4185 Rain 2 1013 80 10000 3.1 0 04:54 12.05.2020
4186 Rain 4 1011 81 10000 2.6 0 03:26 12.05.2020
4187 Rain 6 1009 81 10000 1 0 02:28 12.05.2020
4188 Rain 5 1008 81 10000 2.6 120 01:56 12.05.2020
4189 Rain 6 1007 81 8000 3.6 110 01:24 12.05.2020
4190 Rain 7 1006 81 10000 1 0 00:26 12.05.2020
4191 Rain 8 1005 87 10000 1.5 290 23:58 11.05.2020
4192 Rain 8 1005 87 6000 4.1 260 23:40 11.05.2020
4193 Rain 8 1005 87 6000 4.1 260 23:20 11.05.2020
4194 Rain 9 1004 81 6000 6.7 250 22:58 11.05.2020
4195 Clouds 11 1002 58 10000 3.6 90 22:40 11.05.2020
4196 Clouds 11 1002 58 10000 3.6 90 22:19 11.05.2020
4197 Clouds 11 1002 62 10000 1 0 21:57 11.05.2020
4198 Clouds 12 1001 59 10000 1 0 21:38 11.05.2020
4199 Clouds 12 1001 59 10000 1 0 21:19 11.05.2020
4200 Clouds 13 1001 51 10000 2.1 190 20:57 11.05.2020
4201 Clouds 14 1000 45 10000 5.7 170 20:38 11.05.2020
4202 Clouds 16 1000 45 10000 6.2 150 20:19 11.05.2020
4203 Clouds 16 1000 45 10000 6.2 150 19:54 11.05.2020
4204 Clouds 16 999 45 10000 6.2 150 19:36 11.05.2020
4205 Clouds 16 999 45 10000 6.2 150 19:18 11.05.2020
4206 Clouds 16 999 45 10000 8.2 130 18:54 11.05.2020
4207 Clouds 16 998 42 10000 8.2 140 18:36 11.05.2020
4208 Clouds 15 998 42 10000 8.2 140 18:18 11.05.2020
4209 Clouds 15 998 39 10000 7.2 0 17:40 11.05.2020
4210 Clouds 15 998 39 10000 7.2 0 17:22 11.05.2020
4211 Clouds 16 998 42 10000 10.8 140 16:58 11.05.2020
4212 Clouds 16 997 42 10000 10.8 130 16:38 11.05.2020
4213 Clouds 17 997 42 10000 10.8 130 16:20 11.05.2020
4214 Clouds 20 997 37 10000 7.7 120 15:54 11.05.2020
4215 Clouds 20 997 40 10000 10.3 130 15:36 11.05.2020
4216 Clouds 20 998 37 10000 9.8 130 15:18 11.05.2020
4217 Clouds 20 998 40 10000 9.8 120 14:41 11.05.2020
4218 Clouds 19 998 42 10000 10.3 130 14:22 11.05.2020
4219 Clouds 19 998 42 10000 10.3 130 13:58 11.05.2020
4220 Clouds 19 998 42 10000 7.7 120 13:39 11.05.2020
4221 Clouds 19 998 42 10000 7.7 120 13:18 11.05.2020
4222 Clouds 19 998 42 10000 7.7 120 13:18 11.05.2020
4223 Clouds 19 998 42 10000 7.7 120 13:18 11.05.2020
4224 Clouds 18 999 42 10000 10.8 120 12:56 11.05.2020
4225 Clouds 16 999 45 10000 11.3 130 12:38 11.05.2020
4226 Clouds 17 999 45 10000 11.3 130 12:19 11.05.2020
4227 Clouds 16 999 48 10000 8.7 150 11:42 11.05.2020
4228 Clouds 17 999 48 10000 8.7 150 11:22 11.05.2020
4229 Clouds 18 999 48 10000 6.7 60 10:59 11.05.2020
4230 Clouds 17 998 48 10000 6.2 50 10:40 11.05.2020
4231 Clouds 18 998 42 10000 6.2 100 10:22 11.05.2020
4232 Clouds 19 998 42 10000 6.2 100 09:59 11.05.2020
4233 Clouds 18 998 42 10000 6.7 30 09:41 11.05.2020
4234 Clouds 19 998 42 10000 6.7 30 09:20 11.05.2020
4235 Clouds 17 999 45 10000 6.2 70 08:56 11.05.2020
4236 Clouds 16 999 45 10000 6.2 50 08:37 11.05.2020
4237 Clouds 16 999 45 10000 6.2 50 08:18 11.05.2020
4238 Clouds 14 1000 48 10000 5.1 90 07:46 11.05.2020
4239 Clouds 14 1000 48 10000 5.1 90 07:27 11.05.2020
4240 Clouds 15 1001 45 10000 6.7 70 06:51 11.05.2020
4241 Clouds 15 1001 48 10000 6.2 100 05:58 11.05.2020
4242 Clouds 15 1002 48 10000 4.6 90 05:25 11.05.2020
4243 Clouds 15 1003 48 10000 7.2 120 04:32 11.05.2020
4244 Clouds 15 1003 48 10000 7.7 10 03:29 11.05.2020
4245 Clouds 20 1004 45 10000 6.2 360 02:29 11.05.2020
4246 Clouds 20 1005 42 10000 7.2 80 01:40 11.05.2020
4247 Clouds 20 1005 45 10000 5.7 90 00:53 11.05.2020
4248 Clouds 19 1006 48 10000 2.6 0 00:20 11.05.2020
4249 Clouds 20 1006 42 10000 4.1 0 23:43 10.05.2020
4250 Clouds 20 1006 42 10000 4.1 0 23:24 10.05.2020
4251 Clouds 20 1006 42 10000 5.1 110 22:57 10.05.2020
4252 Clouds 20 1006 42 10000 6.2 140 22:38 10.05.2020
4253 Clouds 17 1006 42 10000 7.2 150 22:20 10.05.2020
4254 Clouds 20 1006 42 10000 6.2 150 21:44 10.05.2020
4255 Clouds 17 1006 42 10000 6.2 150 21:20 10.05.2020
4256 Clouds 21 1006 40 10000 6.2 140 20:55 10.05.2020
4257 Clouds 21 1006 40 10000 7.2 140 20:36 10.05.2020
4258 Clouds 21 1006 40 10000 7.2 140 20:36 10.05.2020
4259 Clouds 19 1006 40 10000 7.2 140 20:18 10.05.2020
4260 Clouds 22 1005 40 10000 4.6 120 19:40 10.05.2020
4261 Clouds 21 1005 40 10000 4.6 120 19:22 10.05.2020
4262 Clouds 23 1006 35 10000 5.7 120 18:57 10.05.2020
4263 Clouds 23 1006 35 10000 5.7 120 18:57 10.05.2020
4264 Clouds 23 1006 35 10000 3.6 120 18:37 10.05.2020
4265 Clouds 23 1006 35 10000 3.6 120 18:19 10.05.2020
4266 Clouds 23 1006 35 10000 4.1 140 17:59 10.05.2020
4267 Clouds 23 1007 38 10000 3.1 140 17:40 10.05.2020
4268 Clouds 23 1007 38 10000 3.1 140 17:21 10.05.2020
4269 Clouds 22 1007 37 10000 3.6 140 16:58 10.05.2020
4270 Clouds 21 1008 40 10000 5.7 150 16:40 10.05.2020
4271 Clouds 19 1008 40 10000 5.7 150 16:19 10.05.2020
4272 Clouds 19 1008 40 10000 4.6 140 15:44 10.05.2020
4273 Clouds 19 1008 40 10000 4.6 140 15:25 10.05.2020
4274 Clouds 21 1008 37 10000 6.7 140 14:59 10.05.2020
4275 Clouds 19 1008 40 10000 7.7 130 14:38 10.05.2020
4276 Clouds 21 1008 40 10000 7.7 130 14:20 10.05.2020
4277 Clouds 21 1008 40 10000 7.7 130 13:59 10.05.2020
4278 Clouds 21 1009 40 10000 4.1 0 13:38 10.05.2020
4279 Clouds 21 1009 40 10000 4.1 0 13:20 10.05.2020
4280 Clouds 19 1009 43 10000 3.6 0 12:57 10.05.2020
4281 Clouds 18 1010 59 10000 2.6 80 12:39 10.05.2020
4282 Clouds 19 1010 59 10000 2.6 80 12:21 10.05.2020
4283 Clouds 18 1010 55 10000 2.1 0 11:57 10.05.2020
4284 Clouds 17 1010 72 10000 2.1 80 11:39 10.05.2020
4285 Clouds 15 1010 87 10000 2.1 240 11:19 10.05.2020
4286 Clouds 15 1010 87 10000 2.1 240 10:46 10.05.2020
4287 Rain 14 1010 87 10000 1.5 250 10:28 10.05.2020
4288 Rain 13 1010 87 10000 2.1 0 09:58 10.05.2020
4289 Rain 13 1010 82 10000 3.6 280 09:40 10.05.2020
4290 Rain 13 1010 82 10000 3.1 280 09:20 10.05.2020
4291 Rain 13 1010 82 10000 3.1 280 08:50 10.05.2020
4292 Clouds 13 1009 76 10000 4.6 260 08:24 10.05.2020
4293 Clouds 13 1009 76 10000 4.6 260 07:45 10.05.2020
4294 Clouds 13 1009 76 10000 4.1 260 07:21 10.05.2020
4295 Clouds 12 1009 87 10000 3.1 270 06:57 10.05.2020
4296 Clouds 12 1009 87 10000 3.1 260 06:32 10.05.2020
4297 Clouds 11 1009 87 10000 3.1 250 05:52 10.05.2020
4298 Clouds 12 1010 76 10000 2.1 260 04:55 10.05.2020
4299 Clouds 11 1010 87 10000 3.6 260 04:36 10.05.2020
4300 Clouds 12 1010 82 10000 1.5 0 03:57 10.05.2020
4301 Clouds 11 1010 87 10000 2.6 260 03:38 10.05.2020
4302 Clouds 12 1010 82 10000 3.6 260 02:50 10.05.2020
4303 Clouds 12 1010 76 10000 1.5 0 02:22 10.05.2020
4304 Clouds 14 1011 72 10000 2.6 240 01:42 10.05.2020
4305 Clouds 14 1011 72 10000 2.6 240 01:20 10.05.2020
4306 Clouds 14 1011 72 10000 2.1 100 00:55 10.05.2020
4307 Clouds 14 1011 67 10000 3.6 90 00:26 10.05.2020
4308 Clouds 14 1011 72 10000 3.1 110 23:59 09.05.2020
4309 Clouds 14 1011 72 10000 2.6 90 23:39 09.05.2020
4310 Clouds 15 1011 68 10000 3.1 80 23:20 09.05.2020
4311 Clouds 15 1011 63 10000 2.1 100 22:43 09.05.2020
4312 Clouds 15 1011 63 10000 2.1 100 22:24 09.05.2020
4313 Clouds 16 1011 63 10000 4.6 70 21:59 09.05.2020
4314 Thunderstorm 17 1011 59 10000 2.6 50 21:41 09.05.2020
4315 Rain 16 1010 63 10000 1.5 30 21:22 09.05.2020
4316 Thunderstorm 17 1010 63 10000 1.5 30 20:58 09.05.2020
4317 Rain 18 1010 60 10000 1 0 20:39 09.05.2020
4318 Rain 19 1009 49 10000 2.1 100 20:20 09.05.2020
4319 Rain 19 1009 49 10000 2.1 100 19:58 09.05.2020
4320 Clouds 19 1010 52 10000 5.7 40 19:38 09.05.2020
4321 Rain 20 1009 46 10000 6.2 80 19:19 09.05.2020
4322 Clouds 22 1009 41 10000 5.7 90 18:44 09.05.2020
4323 Clouds 22 1009 41 10000 5.7 90 18:26 09.05.2020
4324 Clouds 21 1009 38 10000 7.7 70 17:46 09.05.2020
4325 Clouds 21 1009 38 10000 7.7 70 17:23 09.05.2020
4326 Clouds 23 1009 39 10000 3.1 70 16:58 09.05.2020
4327 Clouds 23 1009 47 10000 1.5 280 16:40 09.05.2020
4328 Clouds 23 1009 47 10000 1.5 280 16:19 09.05.2020
4329 Clouds 23 1010 41 10000 2.1 260 15:45 09.05.2020
4330 Clouds 24 1010 41 10000 2.1 260 15:26 09.05.2020
4331 Clouds 23 1011 44 10000 1 0 14:59 09.05.2020
4332 Clouds 23 1011 38 10000 2.1 80 14:40 09.05.2020
4333 Clouds 24 1011 38 10000 2.1 80 14:18 09.05.2020
4334 Clouds 23 1011 41 10000 2.6 80 13:56 09.05.2020
4335 Clouds 23 1012 41 10000 2.1 0 13:38 09.05.2020
4336 Clouds 23 1012 41 10000 2.1 0 13:19 09.05.2020
4337 Clouds 22 1013 49 10000 1 0 12:41 09.05.2020
4338 Clouds 21 1014 46 10000 1.5 230 12:22 09.05.2020
4339 Clouds 21 1014 46 10000 1.5 230 11:55 09.05.2020
4340 Clouds 20 1014 52 10000 1.5 250 11:37 09.05.2020
4341 Clouds 20 1014 52 10000 1.5 250 11:18 09.05.2020
4342 Clouds 18 1015 63 10000 1.5 340 10:42 09.05.2020
4343 Clouds 17 1015 63 10000 3.1 260 10:23 09.05.2020
4344 Clouds 16 1015 72 10000 1.5 270 09:55 09.05.2020
4345 Clouds 16 1015 72 10000 1.5 270 09:37 09.05.2020
4346 Clouds 15 1016 72 10000 2.6 270 09:18 09.05.2020
4347 Clouds 13 1016 82 10000 2.1 270 08:48 09.05.2020
4348 Clouds 13 1016 82 10000 2.1 270 08:30 09.05.2020
4349 Clouds 12 1016 87 10000 1.5 0 07:48 09.05.2020
4350 Clouds 12 1016 87 10000 1.5 0 07:30 09.05.2020
4351 Clouds 11 1016 87 10000 1.5 250 06:47 09.05.2020
4352 Clouds 10 1016 87 10000 1.5 250 06:22 09.05.2020
4353 Clouds 10 1016 81 10000 1.5 260 05:45 09.05.2020
4354 Clouds 11 1016 76 10000 1.5 220 03:44 09.05.2020
4355 Clouds 11 1016 76 10000 1.5 220 03:21 09.05.2020
4356 Clouds 12 1016 76 10000 1 0 02:30 09.05.2020
4357 Clouds 12 1016 76 10000 0.5 0 01:51 09.05.2020
4358 Clouds 12 1016 76 10000 1 0 01:23 09.05.2020
4359 Clouds 14 1016 67 10000 1 0 00:46 09.05.2020
4360 Clouds 14 1016 67 10000 1 0 00:28 09.05.2020
4361 Clouds 14 1016 67 10000 1 0 23:48 08.05.2020
4362 Clouds 14 1016 67 10000 1 0 23:28 08.05.2020
4363 Clouds 16 1016 55 10000 1.5 0 22:57 08.05.2020
4364 Clouds 16 1016 55 10000 1.5 290 22:39 08.05.2020
4365 Clouds 18 1016 55 10000 1.5 290 22:19 08.05.2020
4366 Clouds 20 1015 52 10000 2.1 250 21:58 08.05.2020
4367 Clouds 21 1015 46 10000 2.1 10 21:39 08.05.2020
4368 Clouds 19 1015 46 10000 2.1 10 21:18 08.05.2020
4369 Clouds 23 1015 40 10000 4.6 80 20:56 08.05.2020
4370 Clouds 22 1014 43 10000 5.1 60 20:38 08.05.2020
4371 Clouds 21 1014 43 10000 5.1 60 20:20 08.05.2020
4372 Clouds 24 1013 36 10000 5.1 80 19:44 08.05.2020
4373 Clouds 22 1013 36 10000 5.1 80 19:23 08.05.2020
4374 Clouds 25 1013 33 10000 4.6 70 18:50 08.05.2020
4375 Clouds 24 1014 26 10000 4.6 80 18:32 08.05.2020
4376 Clouds 26 1014 29 10000 3.1 80 17:59 08.05.2020
4377 Clouds 26 1014 29 10000 3.1 60 17:40 08.05.2020
4378 Clouds 24 1014 29 10000 3.1 60 17:18 08.05.2020
4379 Clouds 26 1015 26 10000 3.6 60 16:42 08.05.2020
4380 Clouds 25 1015 26 10000 3.6 60 16:24 08.05.2020
4381 Clouds 25 1015 27 10000 2.6 60 15:55 08.05.2020
4382 Clouds 24 1015 33 10000 2.6 80 15:37 08.05.2020
4383 Clouds 25 1015 33 10000 2.6 80 15:18 08.05.2020
4384 Clouds 23 1016 31 10000 2.1 90 14:41 08.05.2020
4385 Clouds 23 1016 31 10000 2.1 90 14:20 08.05.2020
4386 Clouds 22 1017 33 10000 1 0 13:58 08.05.2020
4387 Clouds 22 1017 38 10000 1 0 13:39 08.05.2020
4388 Clouds 22 1017 38 10000 1 0 13:39 08.05.2020
4389 Clouds 22 1017 38 10000 1 0 13:19 08.05.2020
4390 Clouds 21 1018 43 10000 1 0 12:45 08.05.2020
4391 Clouds 20 1018 43 10000 1 0 12:25 08.05.2020
4392 Clouds 19 1019 48 10000 0.5 0 11:55 08.05.2020
4393 Clouds 19 1019 52 10000 1.5 260 11:37 08.05.2020
4394 Clouds 19 1019 52 10000 1.5 260 11:37 08.05.2020
4395 Clouds 18 1019 52 10000 1.5 260 11:18 08.05.2020
4396 Clouds 17 1020 51 10000 2.1 270 10:54 08.05.2020
4397 Clouds 17 1020 51 10000 2.1 270 10:54 08.05.2020
4398 Clouds 16 1020 58 10000 0.5 0 10:36 08.05.2020
4399 Clouds 15 1021 62 10000 1 0 10:18 08.05.2020
4400 Clouds 14 1022 62 10000 1.5 270 09:41 08.05.2020
4401 Clouds 13 1022 62 10000 1.5 270 09:19 08.05.2020
4402 Clouds 10 1022 76 10000 1 0 08:51 08.05.2020
4403 Clouds 10 1022 76 10000 1 0 08:25 08.05.2020
4404 Clouds 10 1022 76 10000 1 0 08:25 08.05.2020
4405 Clouds 10 1022 81 10000 3.1 250 07:54 08.05.2020
4406 Clouds 10 1022 81 10000 3.1 250 07:54 08.05.2020
4407 Clouds 9 1022 87 10000 2.6 270 07:36 08.05.2020
4408 Clouds 8 1022 87 10000 1 0 07:18 08.05.2020
4409 Clouds 7 1022 81 10000 0.5 0 06:39 08.05.2020
4410 Clouds 7 1022 81 10000 1 0 06:18 08.05.2020
4411 Clouds 7 1022 81 10000 1 0 05:29 08.05.2020
4412 Clouds 7 1022 81 10000 1 0 03:21 08.05.2020
4413 Clouds 7 1022 76 10000 1 0 02:29 08.05.2020
4414 Clouds 7 1023 76 10000 1.5 250 01:39 08.05.2020
4415 Clouds 8 1023 71 10000 1 280 01:20 08.05.2020
4416 Clouds 8 1022 71 10000 0.5 0 00:47 08.05.2020
4417 Clear 8 1022 71 10000 0.5 0 00:25 08.05.2020
4418 Clear 8 1022 76 10000 1 0 23:46 07.05.2020
4419 Clear 10 1022 66 10000 0.5 0 23:24 07.05.2020
4420 Clear 10 1022 66 10000 0.5 0 22:59 07.05.2020
4421 Clear 11 1021 62 10000 0.5 0 22:41 07.05.2020
4422 Clear 11 1021 62 10000 0.5 0 22:20 07.05.2020
4423 Clear 14 1021 58 10000 0.5 0 21:57 07.05.2020
4424 Clear 16 1020 44 10000 1 350 21:38 07.05.2020
4425 Clear 14 1020 44 10000 1 350 21:19 07.05.2020
4426 Clear 15 1020 45 10000 1.5 350 20:56 07.05.2020
4427 Clear 18 1019 42 10000 1 0 20:37 07.05.2020
4428 Clear 16 1019 42 10000 1 0 20:18 07.05.2020
4429 Clear 21 1019 32 10000 4.6 50 19:45 07.05.2020
4430 Clear 20 1019 32 10000 4.6 50 19:21 07.05.2020
4431 Clear 22 1019 24 10000 4.1 60 18:55 07.05.2020
4432 Clear 22 1019 24 10000 4.1 40 18:36 07.05.2020
4433 Clear 22 1019 24 10000 4.1 40 18:36 07.05.2020
4434 Clear 22 1020 25 10000 3.6 60 18:18 07.05.2020
4435 Clear 22 1020 27 10000 2.6 80 17:41 07.05.2020
4436 Clear 22 1020 27 10000 2.6 80 17:20 07.05.2020
4437 Clear 21 1020 29 10000 2.1 0 16:42 07.05.2020
4438 Clear 21 1020 27 10000 2.1 0 16:19 07.05.2020
4439 Clear 20 1021 30 10000 2.6 90 15:57 07.05.2020
4440 Clear 20 1021 26 10000 2.1 70 15:37 07.05.2020
4441 Clear 19 1021 26 10000 2.1 70 15:18 07.05.2020
4442 Clear 19 1022 28 10000 1 0 14:55 07.05.2020
4443 Clear 18 1022 34 10000 1.5 0 14:37 07.05.2020
4444 Clear 18 1022 34 10000 1.5 0 14:18 07.05.2020
4445 Clear 17 1023 45 10000 1 0 13:40 07.05.2020
4446 Clear 16 1023 45 10000 1 0 13:21 07.05.2020
4447 Clear 16 1024 47 10000 1 0 12:42 07.05.2020
4448 Clear 15 1024 47 10000 1 0 12:20 07.05.2020
4449 Clear 14 1025 54 10000 1 0 11:40 07.05.2020
4450 Clear 13 1025 54 10000 1 0 11:21 07.05.2020
4451 Clear 12 1025 58 10000 1.5 260 10:57 07.05.2020
4452 Clear 11 1025 57 10000 2.1 260 10:38 07.05.2020
4453 Clear 11 1025 57 10000 2.1 260 10:19 07.05.2020
4454 Clear 9 1026 70 10000 1.5 250 09:39 07.05.2020
4455 Clear 7 1026 70 10000 1.5 250 09:20 07.05.2020
4456 Clear 7 1026 81 10000 1.5 250 08:54 07.05.2020
4457 Clear 7 1026 81 10000 1.5 250 08:36 07.05.2020
4458 Clear 6 1026 81 10000 1.5 250 08:18 07.05.2020
4459 Clear 5 1026 86 10000 1 0 07:41 07.05.2020
4460 Clear 4 1026 86 10000 1 0 07:21 07.05.2020
4461 Clear 3 1026 86 10000 0.5 0 06:38 07.05.2020
4462 Clear 1 1025 86 10000 1 0 06:19 07.05.2020
4463 Clear 1 1025 86 10000 1 0 05:25 07.05.2020
4464 Clear 2 1025 80 10000 0.5 0 03:50 07.05.2020
4465 Clear 2 1025 86 10000 0.5 0 03:21 07.05.2020
4466 Clear 3 1025 80 10000 0.5 0 02:41 07.05.2020
4467 Clear 4 1024 75 10000 1 0 01:40 07.05.2020
4468 Clouds 4 1024 81 10000 1 280 01:22 07.05.2020
4469 Clouds 5 1024 70 10000 0.5 0 00:44 07.05.2020
4470 Clouds 5 1024 70 10000 0.5 0 00:25 07.05.2020
4471 Clouds 7 1023 66 10000 0.5 0 23:46 06.05.2020
4472 Clouds 7 1023 66 10000 0.5 0 23:24 06.05.2020
4473 Clouds 7 1023 66 10000 0.5 0 22:57 06.05.2020
4474 Clouds 10 1022 61 10000 1.5 0 22:38 06.05.2020
4475 Clouds 12 1022 50 10000 2.1 140 22:19 06.05.2020
4476 Clouds 12 1022 50 10000 2.1 140 21:56 06.05.2020
4477 Clouds 13 1021 50 10000 4.1 90 21:37 06.05.2020
4478 Clouds 10 1021 50 10000 4.1 90 21:18 06.05.2020
4479 Clouds 14 1020 47 10000 5.1 90 20:42 06.05.2020
4480 Clouds 12 1020 47 10000 5.1 90 20:22 06.05.2020
4481 Clouds 12 1020 47 10000 5.1 90 20:22 06.05.2020
4482 Clouds 13 1020 41 10000 5.7 90 19:57 06.05.2020
4483 Clouds 13 1019 44 10000 7.2 70 19:38 06.05.2020
4484 Clouds 13 1019 44 10000 7.2 70 19:19 06.05.2020
4485 Clouds 14 1019 41 10000 5.7 80 18:58 06.05.2020
4486 Clouds 14 1019 41 10000 6.7 60 18:38 06.05.2020
4487 Clouds 14 1019 41 10000 6.7 60 18:20 06.05.2020
4488 Clouds 14 1019 41 10000 6.7 60 18:20 06.05.2020
4489 Clouds 14 1019 41 10000 6.2 80 17:56 06.05.2020
4490 Clouds 14 1019 41 10000 6.2 80 17:56 06.05.2020
4491 Clouds 14 1019 41 10000 6.2 80 17:56 06.05.2020
4492 Clouds 15 1019 39 10000 5.1 80 17:38 06.05.2020
4493 Clouds 15 1019 39 10000 5.1 80 17:20 06.05.2020
4494 Clouds 15 1019 39 10000 5.7 90 16:58 06.05.2020
4495 Clouds 14 1019 41 10000 5.1 50 16:40 06.05.2020
4496 Clouds 14 1019 41 10000 4.1 70 16:20 06.05.2020
4497 Clouds 14 1019 41 10000 4.1 70 15:57 06.05.2020
4498 Clouds 14 1019 41 10000 2.1 130 15:39 06.05.2020
4499 Clouds 15 1019 41 10000 2.1 130 15:20 06.05.2020
4500 Clouds 13 1019 47 10000 2.1 0 14:42 06.05.2020
4501 Clouds 13 1020 44 10000 2.6 60 14:19 06.05.2020
4502 Clouds 13 1020 44 10000 2.6 60 13:59 06.05.2020
4503 Clouds 12 1020 47 10000 2.1 100 13:39 06.05.2020
4504 Clouds 12 1020 47 10000 2.1 100 13:21 06.05.2020
4505 Clouds 10 1021 62 10000 3.1 90 12:44 06.05.2020
4506 Clouds 11 1021 62 10000 3.1 90 12:26 06.05.2020
4507 Clouds 10 1021 66 10000 3.6 100 11:59 06.05.2020
4508 Clouds 9 1021 71 10000 2.1 0 11:39 06.05.2020
4509 Clouds 10 1021 71 10000 2.1 0 11:21 06.05.2020
4510 Clouds 9 1021 76 10000 1.5 360 10:56 06.05.2020
4511 Clouds 9 1021 81 10000 2.6 50 10:37 06.05.2020
4512 Clouds 9 1021 81 10000 2.6 50 10:18 06.05.2020
4513 Clouds 7 1021 87 10000 2.1 70 09:40 06.05.2020
4514 Clouds 6 1021 87 10000 2.1 70 09:21 06.05.2020
4515 Clouds 5 1021 87 10000 3.1 50 08:45 06.05.2020
4516 Clouds 5 1021 87 10000 3.1 50 08:22 06.05.2020
4517 Clouds 5 1020 87 10000 2.1 70 07:58 06.05.2020
4518 Clouds 5 1020 87 10000 2.6 100 07:39 06.05.2020
4519 Clouds 5 1020 87 10000 1.5 50 07:20 06.05.2020
4520 Clouds 5 1020 87 10000 1.5 50 06:49 06.05.2020
4521 Clouds 5 1020 93 10000 3.1 70 06:21 06.05.2020
4522 Clouds 5 1019 87 10000 2.6 70 05:52 06.05.2020
4523 Clouds 5 1019 87 10000 2.6 70 05:34 06.05.2020
4524 Clouds 5 1019 93 10000 1 0 04:31 06.05.2020
4525 Clouds 6 1019 93 10000 0.5 0 03:36 06.05.2020
4526 Clouds 6 1019 93 10000 0.5 0 02:58 06.05.2020
4527 Clouds 6 1019 93 10000 0.5 0 02:29 06.05.2020
4528 Clouds 6 1019 93 10000 0.5 0 01:53 06.05.2020
4529 Drizzle 6 1019 93 10000 0.5 0 01:28 06.05.2020
4530 Rain 6 1019 93 10000 0.5 0 00:46 06.05.2020
4531 Rain 6 1019 93 10000 0.5 0 00:23 06.05.2020
4532 Rain 6 1019 93 7000 1 0 23:43 05.05.2020
4533 Rain 6 1018 93 10000 0.5 0 23:21 05.05.2020
4534 Rain 7 1018 93 10000 0.5 0 22:59 05.05.2020
4535 Rain 6 1018 93 8000 1 0 22:40 05.05.2020
4536 Rain 6 1018 93 8000 1 0 22:19 05.05.2020
4537 Drizzle 8 1017 93 9000 2.1 70 21:56 05.05.2020
4538 Rain 8 1017 87 10000 2.6 60 21:38 05.05.2020
4539 Rain 8 1017 93 9000 2.1 80 21:19 05.05.2020
4540 Rain 8 1017 87 10000 2.6 60 21:19 05.05.2020
4541 Rain 8 1017 93 9000 2.1 80 20:56 05.05.2020
4542 Rain 8 1017 87 9000 3.6 70 20:38 05.05.2020
4543 Rain 8 1017 87 9000 3.6 70 20:18 05.05.2020
4544 Rain 9 1016 93 10000 2.6 80 19:42 05.05.2020
4545 Rain 9 1016 93 10000 2.6 80 19:23 05.05.2020
4546 Rain 9 1016 93 10000 3.6 80 18:58 05.05.2020
4547 Rain 9 1016 87 10000 4.1 80 18:40 05.05.2020
4548 Rain 9 1016 87 10000 4.1 80 18:20 05.05.2020
4549 Rain 10 1016 93 10000 4.1 70 17:57 05.05.2020
4550 Rain 11 1015 87 10000 3.1 80 17:39 05.05.2020
4551 Rain 11 1015 87 10000 3.1 80 17:21 05.05.2020
4552 Rain 10 1016 93 9000 4.1 70 16:55 05.05.2020
4553 Rain 11 1016 87 9000 4.1 70 16:36 05.05.2020
4554 Rain 10 1016 87 9000 4.1 70 16:18 05.05.2020
4555 Rain 10 1015 87 9000 5.1 70 15:41 05.05.2020
4556 Rain 10 1015 87 9000 5.1 70 15:21 05.05.2020
4557 Rain 10 1015 87 9000 5.1 70 15:21 05.05.2020
4558 Rain 11 1015 87 10000 0.5 0 14:56 05.05.2020
4559 Rain 11 1015 87 10000 1 0 14:38 05.05.2020
4560 Rain 11 1015 87 10000 1 0 14:19 05.05.2020
4561 Rain 11 1015 87 10000 1.5 290 13:57 05.05.2020
4562 Rain 11 1015 87 10000 0.5 0 13:38 05.05.2020
4563 Rain 11 1015 87 10000 0.5 0 13:19 05.05.2020
4564 Rain 11 1015 82 8000 1 0 12:58 05.05.2020
4565 Rain 11 1015 87 7000 1 0 12:38 05.05.2020
4566 Rain 11 1015 87 7000 1 0 12:38 05.05.2020
4567 Rain 11 1015 87 7000 1 0 12:19 05.05.2020
4568 Rain 11 1015 87 7000 0.5 0 11:42 05.05.2020
4569 Rain 11 1015 87 7000 0.5 0 11:20 05.05.2020
4570 Rain 11 1015 87 10000 1.5 70 11:20 05.05.2020
4571 Rain 11 1015 87 10000 1.5 70 11:20 05.05.2020
4572 Rain 11 1015 87 10000 1.5 70 10:59 05.05.2020
4573 Rain 12 1015 76 10000 1.5 50 10:38 05.05.2020
4574 Rain 12 1015 76 10000 1.5 50 10:38 05.05.2020
4575 Rain 11 1015 76 10000 1.5 50 10:19 05.05.2020
4576 Clouds 11 1015 76 10000 1 0 09:55 05.05.2020
4577 Clouds 10 1015 87 10000 0.5 0 09:37 05.05.2020
4578 Clouds 11 1015 81 10000 1.5 100 09:19 05.05.2020
4579 Clouds 11 1015 81 10000 2.6 60 08:41 05.05.2020
4580 Clouds 11 1015 81 10000 2.6 60 08:19 05.05.2020
4581 Clouds 10 1015 87 10000 3.1 60 07:56 05.05.2020
4582 Clouds 10 1015 87 10000 2.6 70 07:38 05.05.2020
4583 Clouds 10 1015 87 10000 1 0 07:18 05.05.2020
4584 Clouds 10 1015 87 10000 1 100 06:40 05.05.2020
4585 Clouds 10 1015 87 10000 0.5 0 06:20 05.05.2020
4586 Clouds 10 1015 87 10000 0.5 0 05:30 05.05.2020
4587 Clouds 10 1015 87 10000 0.5 0 03:19 05.05.2020
4588 Clouds 11 1016 81 10000 1 0 01:23 05.05.2020
4589 Clouds 11 1015 81 10000 2.1 90 00:49 05.05.2020
4590 Clouds 11 1015 81 10000 1.5 140 00:18 05.05.2020
4591 Clouds 11 1015 81 10000 0.5 0 23:42 04.05.2020
4592 Clouds 11 1015 81 10000 0.5 0 23:21 04.05.2020
4593 Clouds 12 1015 82 10000 1 0 22:55 04.05.2020
4594 Clouds 12 1015 71 10000 1.5 20 22:37 04.05.2020
4595 Clouds 12 1015 71 10000 1.5 20 22:18 04.05.2020
4596 Clouds 12 1015 71 10000 2.1 100 21:52 04.05.2020
4597 Clouds 12 1015 71 10000 2.1 100 21:52 04.05.2020
4598 Clouds 12 1015 71 10000 2.1 100 21:52 04.05.2020
4599 Clouds 12 1015 71 10000 2.1 100 21:52 04.05.2020
4600 Clouds 13 1015 76 10000 1.5 70 21:27 04.05.2020
4601 Clouds 13 1015 76 10000 1.5 70 21:27 04.05.2020
4602 Clouds 13 1015 76 10000 1.5 70 21:27 04.05.2020
4603 Clouds 16 1014 63 10000 3.6 90 20:43 04.05.2020
4604 Clouds 14 1014 63 10000 4.6 70 20:22 04.05.2020
4605 Clouds 14 1014 63 10000 4.6 70 20:22 04.05.2020
4606 Clouds 14 1014 63 10000 4.6 70 19:59 04.05.2020
4607 Clouds 15 1014 59 10000 6.2 80 19:40 04.05.2020
4608 Clouds 15 1014 59 10000 6.2 80 19:19 04.05.2020
4609 Clouds 15 1014 55 10000 7.2 70 18:55 04.05.2020
4610 Clouds 16 1014 55 10000 6.2 60 18:36 04.05.2020
4611 Clouds 16 1014 55 10000 6.2 60 18:18 04.05.2020
4612 Clouds 17 1014 52 10000 5.7 60 17:54 04.05.2020
4613 Clouds 17 1014 52 10000 5.1 70 17:36 04.05.2020
4614 Clouds 17 1014 52 10000 5.1 70 17:18 04.05.2020
4615 Clouds 17 1015 52 10000 5.1 80 16:41 04.05.2020
4616 Clouds 17 1015 48 10000 5.7 70 16:20 04.05.2020
4617 Clouds 17 1015 48 10000 5.7 70 15:45 04.05.2020
4618 Clouds 17 1016 48 10000 6.2 70 15:24 04.05.2020
4619 Clouds 16 1016 48 10000 1 0 14:55 04.05.2020
4620 Clouds 16 1016 45 10000 1 0 14:33 04.05.2020
4621 Clouds 16 1016 45 10000 1 0 14:33 04.05.2020
4622 Clouds 16 1016 45 10000 1 0 14:33 04.05.2020
4623 Clouds 16 1016 45 10000 1 0 14:33 04.05.2020
4624 Clouds 15 1016 48 10000 1.5 0 13:40 04.05.2020
4625 Clouds 15 1016 48 10000 1.5 0 13:40 04.05.2020
4626 Clouds 15 1016 48 10000 1.5 0 13:40 04.05.2020
4627 Clouds 15 1016 48 10000 1.5 0 13:40 04.05.2020
4628 Clouds 15 1017 54 10000 1 0 12:45 04.05.2020
4629 Clouds 15 1017 54 10000 1 0 12:45 04.05.2020
4630 Clouds 15 1017 54 10000 1 0 12:45 04.05.2020
4631 Clouds 15 1017 54 10000 1 0 12:45 04.05.2020
4632 Clouds 13 1018 58 10000 1 0 11:37 04.05.2020
4633 Clouds 13 1018 58 10000 1 0 11:37 04.05.2020
4634 Clouds 13 1018 58 10000 1 0 11:37 04.05.2020
4635 Clouds 13 1018 58 10000 1 0 11:37 04.05.2020
4636 Clouds 13 1018 58 10000 1 0 11:37 04.05.2020
4637 Clouds 10 1020 66 10000 2.1 70 09:32 04.05.2020
4638 Clouds 10 1020 66 10000 2.1 70 09:32 04.05.2020
4639 Clouds 10 1020 66 10000 2.1 70 09:32 04.05.2020
4640 Clouds 10 1020 66 10000 2.1 70 09:32 04.05.2020
4641 Clouds 6 1020 81 10000 0.5 0 07:59 04.05.2020
4642 Clouds 6 1020 81 10000 0.5 0 07:40 04.05.2020
4643 Clouds 6 1019 87 10000 1 0 06:36 04.05.2020
4644 Clouds 6 1019 87 10000 1 0 06:33 04.05.2020
4645 Clouds 6 1019 87 10000 1 0 06:31 04.05.2020
4646 Clouds 6 1019 87 10000 1 0 06:31 04.05.2020
4647 Clouds 6 1019 87 10000 1 0 06:31 04.05.2020
4648 Clouds 7 1019 81 10000 1 0 04:55 04.05.2020
4649 Clouds 9 1019 76 10000 0.5 0 03:18 04.05.2020
4650 Clouds 7 1019 70 10000 1 0 02:30 04.05.2020
4651 Clouds 7 1019 75 10000 1.5 40 00:36 04.05.2020
4652 Clouds 7 1019 70 10000 0.5 0 23:45 03.05.2020
4653 Clouds 7 1019 70 10000 0.5 0 23:24 03.05.2020
4654 Clouds 7 1019 66 10000 1.5 150 22:56 03.05.2020
4655 Clouds 9 1019 66 10000 0.5 0 22:38 03.05.2020
4656 Clouds 10 1018 61 10000 1.5 310 22:18 03.05.2020
4657 Clouds 10 1018 61 10000 1 30 21:41 03.05.2020
4658 Clouds 9 1018 61 10000 1 30 21:20 03.05.2020
4659 Clouds 12 1017 50 10000 3.1 50 20:47 03.05.2020
4660 Clouds 11 1017 50 10000 3.1 50 20:23 03.05.2020
4661 Clouds 12 1017 44 10000 4.1 60 19:55 03.05.2020
4662 Clouds 12 1017 44 10000 4.1 60 19:55 03.05.2020
4663 Clouds 13 1017 47 10000 3.1 50 19:36 03.05.2020
4664 Clouds 13 1017 38 10000 3.6 60 19:18 03.05.2020
4665 Clouds 14 1017 38 10000 3.6 70 18:39 03.05.2020
4666 Clouds 14 1017 38 10000 3.6 70 18:39 03.05.2020
4667 Clouds 14 1017 38 10000 3.6 70 18:20 03.05.2020
4668 Clouds 15 1017 38 10000 5.1 60 17:42 03.05.2020
4669 Clouds 15 1017 38 10000 5.1 60 17:22 03.05.2020
4670 Clouds 15 1018 41 10000 4.1 50 16:57 03.05.2020
4671 Clouds 14 1018 38 10000 1.5 0 16:39 03.05.2020
4672 Clouds 14 1018 29 10000 1 0 16:18 03.05.2020
4673 Clouds 14 1018 29 10000 1 0 15:55 03.05.2020
4674 Clouds 13 1018 38 10000 3.1 40 15:37 03.05.2020
4675 Clouds 13 1018 38 10000 3.1 40 15:37 03.05.2020
4676 Clouds 13 1018 38 10000 3.1 40 15:37 03.05.2020
4677 Clouds 13 1018 38 10000 3.1 40 15:19 03.05.2020
4678 Clouds 13 1018 41 10000 1.5 0 14:41 03.05.2020
4679 Clouds 13 1018 41 10000 1.5 0 14:22 03.05.2020
4680 Clouds 13 1018 47 10000 1 0 14:22 03.05.2020
4681 Clouds 13 1018 47 10000 1 0 14:22 03.05.2020
4682 Clouds 13 1018 41 10000 1.5 0 14:22 03.05.2020
4683 Clouds 13 1018 41 10000 1.5 0 14:22 03.05.2020
4684 Clouds 13 1018 47 10000 1 0 13:59 03.05.2020
4685 Clouds 12 1019 41 10000 1.5 210 13:33 03.05.2020
4686 Clouds 12 1019 41 10000 1.5 210 13:33 03.05.2020
4687 Clouds 11 1019 46 10000 1 0 12:47 03.05.2020
4688 Clouds 10 1019 46 10000 1 0 12:25 03.05.2020
4689 Clouds 10 1019 46 10000 1 0 12:25 03.05.2020
4690 Clouds 10 1019 46 10000 1 0 12:25 03.05.2020
4691 Clouds 10 1020 46 10000 1.5 0 11:57 03.05.2020
4692 Clouds 10 1020 53 10000 1 0 11:39 03.05.2020
4693 Clouds 9 1020 61 10000 1.5 0 11:20 03.05.2020
4694 Clouds 9 1020 61 10000 1.5 0 11:20 03.05.2020
4695 Clouds 9 1020 61 10000 1.5 0 10:52 03.05.2020
4696 Clouds 9 1020 61 10000 1.5 0 10:52 03.05.2020
4697 Clouds 9 1020 61 10000 1.5 0 10:52 03.05.2020
4698 Clouds 9 1020 61 10000 1.5 0 10:52 03.05.2020
4699 Clouds 9 1020 66 10000 1.5 0 10:24 03.05.2020
4700 Clouds 7 1020 70 10000 2.1 250 10:24 03.05.2020
4701 Clouds 7 1020 70 10000 2.1 250 10:24 03.05.2020
4702 Clouds 9 1020 66 10000 1.5 0 10:24 03.05.2020
4703 Clouds 7 1020 70 10000 2.1 250 10:24 03.05.2020
4704 Clouds 8 1020 75 10000 2.6 270 09:39 03.05.2020
4705 Clouds 8 1020 75 10000 2.6 270 09:39 03.05.2020
4706 Clouds 5 1020 81 10000 2.6 260 08:57 03.05.2020
4707 Clouds 5 1020 86 10000 1 0 08:32 03.05.2020
4708 Clouds 5 1020 86 10000 1 0 08:32 03.05.2020
4709 Clouds 4 1019 93 10000 2.1 280 07:40 03.05.2020
4710 Clouds 4 1018 93 10000 2.6 270 06:35 03.05.2020
4711 Clouds 3 1018 93 10000 2.1 280 05:49 03.05.2020
4712 Clouds 3 1017 93 10000 2.1 280 05:31 03.05.2020
4713 Clouds 4 1017 93 10000 2.6 260 04:27 03.05.2020
4714 Clouds 6 1016 93 10000 0.5 0 03:31 03.05.2020
4715 Clouds 4 1017 93 10000 1.5 250 02:31 03.05.2020
4716 Clouds 4 1017 93 10000 1.5 210 01:50 03.05.2020
4717 Clouds 4 1017 100 10000 1.5 300 01:27 03.05.2020
4718 Clouds 4 1016 93 10000 0.5 0 01:01 03.05.2020
4719 Clouds 4 1016 93 10000 0.5 0 01:01 03.05.2020
4720 Clouds 4 1016 93 10000 0.5 0 01:01 03.05.2020
4721 Clouds 4 1016 93 10000 0.5 0 00:38 03.05.2020
4722 Clouds 4 1016 93 10000 0.5 0 00:20 03.05.2020
4723 Clouds 5 1016 87 10000 1.5 320 23:45 02.05.2020
4724 Clouds 6 1016 87 10000 1.5 320 23:27 02.05.2020
4725 Clouds 6 1015 87 10000 1.5 120 22:56 02.05.2020
4726 Clouds 6 1015 87 10000 1.5 120 22:56 02.05.2020
4727 Clouds 6 1015 87 10000 2.1 360 22:37 02.05.2020
4728 Clouds 6 1015 87 10000 2.1 360 22:19 02.05.2020
4729 Rain 9 1013 76 10000 3.1 240 21:41 02.05.2020
4730 Rain 7 1013 76 10000 3.1 240 21:20 02.05.2020
4731 Rain 7 1012 81 10000 2.6 200 21:20 02.05.2020
4732 Rain 8 1012 81 10000 2.6 200 20:58 02.05.2020
4733 Rain 8 1011 87 9000 5.7 250 20:38 02.05.2020
4734 Rain 8 1009 66 10000 6.2 260 20:20 02.05.2020
4735 Rain 9 1009 66 10000 6.2 260 19:57 02.05.2020
4736 Clouds 10 1009 62 10000 7.2 250 19:39 02.05.2020
4737 Rain 10 1009 62 10000 7.2 250 19:20 02.05.2020
4738 Rain 10 1009 62 10000 7.2 250 19:20 02.05.2020
4739 Rain 10 1009 58 10000 5.7 270 18:56 02.05.2020
4740 Rain 13 1008 51 10000 2.1 220 18:37 02.05.2020
4741 Rain 13 1008 58 10000 1.5 150 18:19 02.05.2020
4742 Rain 14 1008 58 10000 1.5 150 17:55 02.05.2020
4743 Rain 13 1008 58 10000 1.5 0 17:37 02.05.2020
4744 Clouds 14 1009 58 10000 2.1 50 17:19 02.05.2020
4745 Clouds 15 1009 58 10000 2.6 80 16:44 02.05.2020
4746 Clouds 14 1010 58 10000 2.1 40 16:25 02.05.2020
4747 Clouds 14 1010 58 10000 2.1 40 15:55 02.05.2020
4748 Clouds 14 1010 58 10000 2.1 80 15:36 02.05.2020
4749 Clouds 14 1010 58 10000 2.1 80 15:18 02.05.2020
4750 Clouds 12 1010 62 10000 1.5 0 14:41 02.05.2020
4751 Clouds 11 1010 62 10000 1.5 0 14:22 02.05.2020
4752 Clouds 11 1011 62 10000 2.1 0 13:55 02.05.2020
4753 Clouds 10 1011 71 10000 4.1 60 13:37 02.05.2020
4754 Clouds 10 1011 71 10000 3.6 90 13:18 02.05.2020
4755 Clouds 10 1011 71 10000 4.1 60 13:18 02.05.2020
4756 Clouds 9 1011 76 10000 3.1 80 12:40 02.05.2020
4757 Clouds 10 1011 76 10000 3.1 80 12:20 02.05.2020
4758 Clouds 10 1011 71 10000 2.6 0 11:56 02.05.2020
4759 Clouds 10 1011 66 10000 1 0 11:38 02.05.2020
4760 Clouds 12 1011 66 10000 1 0 11:19 02.05.2020
4761 Clouds 11 1011 76 10000 1 0 10:40 02.05.2020
4762 Clouds 8 1011 81 10000 1 0 10:22 02.05.2020
4763 Clouds 8 1011 81 10000 1 0 09:58 02.05.2020
4764 Clouds 8 1011 81 10000 1 0 09:39 02.05.2020
4765 Clouds 8 1011 81 10000 1 0 09:21 02.05.2020
4766 Clouds 10 1011 81 10000 1 0 08:55 02.05.2020
4767 Clouds 9 1011 87 10000 0.5 0 08:33 02.05.2020
4768 Clouds 9 1010 93 10000 0.5 0 07:50 02.05.2020
4769 Clouds 9 1010 93 10000 1 0 07:30 02.05.2020
4770 Clouds 7 1010 100 10000 1 0 06:56 02.05.2020
4771 Clouds 9 1010 93 10000 2.1 90 06:28 02.05.2020
4772 Rain 9 1009 93 10000 1 280 05:27 02.05.2020
4773 Rain 9 1009 93 10000 0.5 0 04:27 02.05.2020
4774 Rain 9 1008 93 10000 0.5 0 03:38 02.05.2020
4775 Clouds 9 1008 93 10000 1 0 02:40 02.05.2020
4776 Rain 9 1008 93 10000 1.5 90 01:52 02.05.2020
4777 Rain 7 1008 93 10000 2.6 70 01:18 02.05.2020
4778 Rain 8 1008 87 10000 2.6 0 00:42 02.05.2020
4779 Rain 8 1008 93 10000 1 0 00:20 02.05.2020
4780 Clouds 9 1007 93 10000 1 0 23:40 01.05.2020
4781 Clouds 8 1007 93 10000 1 0 23:20 01.05.2020
4782 Rain 8 1007 93 10000 2.1 330 22:58 01.05.2020
4783 Rain 8 1007 93 10000 3.1 280 22:38 01.05.2020
4784 Rain 8 1007 93 10000 3.1 280 22:19 01.05.2020
4785 Rain 9 1006 87 10000 3.1 250 21:57 01.05.2020
4786 Rain 9 1005 81 10000 2.1 230 21:39 01.05.2020
4787 Rain 9 1005 81 10000 4.1 290 21:19 01.05.2020
4788 Rain 9 1005 81 10000 4.1 290 20:57 01.05.2020
4789 Rain 10 1005 71 10000 7.7 250 20:37 01.05.2020
4790 Rain 10 1005 71 10000 7.7 250 20:19 01.05.2020
4791 Clouds 11 1004 67 10000 3.6 290 19:43 01.05.2020
4792 Clouds 12 1004 67 10000 3.6 290 19:23 01.05.2020
4793 Clouds 13 1004 67 10000 5.1 270 18:59 01.05.2020
4794 Clouds 13 1004 62 10000 6.2 250 18:41 01.05.2020
4795 Clouds 12 1004 62 10000 6.2 250 18:21 01.05.2020
4796 Clouds 12 1004 62 10000 6.2 250 18:21 01.05.2020
4797 Clouds 12 1004 66 10000 5.1 260 17:59 01.05.2020
4798 Rain 12 1005 66 10000 6.7 240 17:39 01.05.2020
4799 Rain 12 1005 66 10000 6.7 240 17:39 01.05.2020
4800 Rain 12 1004 71 10000 7.7 250 17:21 01.05.2020
4801 Rain 12 1005 66 10000 6.7 240 17:21 01.05.2020
4802 Rain 12 1004 71 10000 7.7 250 16:57 01.05.2020
4803 Clouds 13 1004 54 10000 3.6 270 16:38 01.05.2020
4804 Clouds 13 1004 54 10000 1 0 16:20 01.05.2020
4805 Clouds 13 1004 54 10000 1 0 15:56 01.05.2020
4806 Clouds 13 1004 51 10000 1 0 15:38 01.05.2020
4807 Clouds 14 1005 54 10000 2.1 290 15:18 01.05.2020
4808 Clouds 13 1006 62 10000 2.6 280 14:42 01.05.2020
4809 Clouds 13 1006 62 10000 2.6 280 14:23 01.05.2020
4810 Clouds 13 1006 58 10000 1 0 13:42 01.05.2020
4811 Clouds 13 1006 58 10000 1 0 13:23 01.05.2020
4812 Clouds 13 1007 62 10000 1 0 12:59 01.05.2020
4813 Clouds 12 1007 62 10000 1 0 12:40 01.05.2020
4814 Clouds 11 1007 62 10000 1 0 12:21 01.05.2020
4815 Clouds 11 1008 66 10000 0.5 0 11:59 01.05.2020
4816 Clouds 10 1008 71 10000 1.5 0 11:41 01.05.2020
4817 Clouds 10 1008 71 10000 1.5 0 11:19 01.05.2020
4818 Clouds 9 1008 71 10000 2.1 90 10:54 01.05.2020
4819 Clouds 9 1009 76 10000 2.1 30 10:36 01.05.2020
4820 Clouds 8 1009 76 10000 2.1 30 10:18 01.05.2020
4821 Clouds 7 1009 81 10000 2.6 70 09:41 01.05.2020
4822 Clouds 8 1009 81 10000 2.6 70 09:19 01.05.2020
4823 Clouds 7 1009 87 10000 3.1 80 08:46 01.05.2020
4824 Clouds 7 1009 93 10000 0.5 0 08:28 01.05.2020
4825 Clouds 6 1009 93 10000 1 0 07:58 01.05.2020
4826 Clouds 6 1009 93 10000 1.5 110 07:39 01.05.2020
4827 Clouds 7 1009 87 10000 2.1 40 06:59 01.05.2020
4828 Clouds 6 1009 87 10000 1.5 130 06:18 01.05.2020
4829 Rain 6 1010 93 10000 2.1 50 05:21 01.05.2020
4830 Clouds 7 1010 93 10000 3.1 70 03:44 01.05.2020
4831 Clouds 7 1010 93 10000 2.6 80 02:53 01.05.2020
4832 Clouds 6 1010 93 10000 0.5 0 02:34 01.05.2020
4833 Rain 6 1010 93 10000 0.5 0 01:47 01.05.2020
4834 Rain 6 1010 93 10000 0.5 0 01:27 01.05.2020
4835 Rain 6 1010 93 10000 0.5 0 00:40 01.05.2020
4836 Rain 7 1010 93 10000 0.5 0 00:21 01.05.2020
4837 Rain 7 1010 93 10000 0.5 0 23:57 30.04.2020
4838 Rain 7 1010 93 10000 1 0 23:39 30.04.2020
4839 Rain 7 1010 93 10000 1 0 23:20 30.04.2020
4840 Rain 7 1010 93 10000 2.6 350 22:55 30.04.2020
4841 Rain 8 1010 87 8000 5.1 250 22:37 30.04.2020
4842 Rain 7 1009 87 5000 6.7 260 22:18 30.04.2020
4843 Rain 8 1007 76 10000 5.7 250 21:41 30.04.2020
4844 Rain 8 1007 76 10000 5.7 250 21:21 30.04.2020
4845 Rain 10 1006 71 10000 4.6 250 20:58 30.04.2020
4846 Clouds 11 1005 62 10000 5.7 260 20:39 30.04.2020
4847 Clouds 11 1005 62 10000 5.7 260 20:18 30.04.2020
4848 Clouds 11 1005 62 10000 5.7 260 20:18 30.04.2020
4849 Clouds 12 1005 51 10000 3.6 0 19:46 30.04.2020
4850 Clouds 13 1004 45 10000 6.2 100 19:26 30.04.2020
4851 Clouds 13 1004 45 10000 6.2 100 19:26 30.04.2020
4852 Clouds 13 1004 45 10000 6.7 90 18:57 30.04.2020
4853 Clouds 13 1004 45 10000 6.7 100 18:39 30.04.2020
4854 Clouds 14 1004 45 10000 6.2 100 18:21 30.04.2020
4855 Clouds 14 1004 45 10000 6.2 100 17:57 30.04.2020
4856 Clouds 15 1005 39 10000 7.7 100 17:39 30.04.2020
4857 Clouds 15 1005 39 10000 7.7 100 17:20 30.04.2020
4858 Clouds 16 1005 37 10000 7.2 100 16:56 30.04.2020
4859 Clouds 17 1005 42 10000 3.6 60 16:38 30.04.2020
4860 Clouds 16 1005 42 10000 3.6 60 16:18 30.04.2020
4861 Clouds 16 1006 34 10000 6.2 110 15:44 30.04.2020
4862 Clouds 18 1006 34 10000 6.2 110 15:24 30.04.2020
4863 Clouds 17 1006 48 10000 3.1 210 14:54 30.04.2020
4864 Clouds 17 1006 52 10000 3.6 290 14:36 30.04.2020
4865 Clouds 17 1006 48 10000 3.1 270 14:18 30.04.2020
4866 Clouds 16 1006 48 10000 3.1 270 13:54 30.04.2020
4867 Clouds 16 1007 51 10000 2.6 280 13:36 30.04.2020
4868 Clouds 15 1008 51 10000 3.1 270 13:18 30.04.2020
4869 Clouds 17 1008 58 10000 4.1 270 12:41 30.04.2020
4870 Clouds 13 1009 62 10000 2.1 270 12:19 30.04.2020
4871 Clouds 12 1009 62 10000 1 0 11:54 30.04.2020
4872 Clouds 12 1009 62 10000 1 0 11:36 30.04.2020
4873 Clouds 12 1009 62 10000 1 0 11:18 30.04.2020
4874 Clouds 10 1010 71 10000 2.1 260 10:40 30.04.2020
4875 Clouds 10 1010 76 10000 2.6 270 10:21 30.04.2020
4876 Clouds 10 1010 76 10000 2.6 270 09:57 30.04.2020
4877 Clouds 10 1011 71 10000 1 0 09:38 30.04.2020
4878 Clouds 9 1011 71 10000 1 0 09:20 30.04.2020
4879 Clouds 6 1011 87 10000 0.5 0 08:46 30.04.2020
4880 Clouds 6 1012 87 10000 0.5 0 08:26 30.04.2020
4881 Clouds 5 1011 87 10000 0.5 0 07:44 30.04.2020
4882 Clouds 6 1011 87 10000 0.5 0 07:26 30.04.2020
4883 Clouds 5 1011 93 10000 1 0 06:55 30.04.2020
4884 Clouds 5 1012 87 10000 0.5 0 06:29 30.04.2020
4885 Clouds 5 1012 87 10000 1 0 05:46 30.04.2020
4886 Clouds 6 1012 87 10000 0.5 0 04:43 30.04.2020
4887 Clouds 6 1012 87 10000 0.5 0 04:19 30.04.2020
4888 Clouds 5 1013 93 10000 1 0 02:48 30.04.2020
4889 Clouds 5 1013 93 10000 0.5 0 02:26 30.04.2020
4890 Clouds 5 1013 93 10000 0.5 0 01:37 30.04.2020
4891 Clouds 5 1013 93 10000 0.5 0 00:50 30.04.2020
4892 Clouds 5 1013 93 10000 0.5 0 00:20 30.04.2020
4893 Clouds 6 1013 87 10000 0.5 0 23:58 29.04.2020
4894 Clouds 6 1013 87 10000 0.5 0 23:39 29.04.2020
4895 Clouds 6 1013 87 10000 0.5 0 23:21 29.04.2020
4896 Clouds 7 1013 87 10000 2.1 70 22:56 29.04.2020
4897 Clouds 7 1013 87 10000 0.5 0 22:38 29.04.2020
4898 Clouds 7 1013 87 10000 0.5 0 22:18 29.04.2020
4899 Clouds 8 1012 81 10000 1.5 170 21:38 29.04.2020
4900 Clouds 8 1012 81 10000 1.5 170 21:20 29.04.2020
4901 Clouds 9 1012 81 10000 1 50 20:58 29.04.2020
4902 Clouds 9 1011 76 10000 2.1 100 20:38 29.04.2020
4903 Clouds 9 1011 76 10000 2.6 80 20:19 29.04.2020
4904 Clouds 9 1011 76 10000 2.6 80 20:19 29.04.2020
4905 Clouds 9 1011 76 10000 2.6 60 19:43 29.04.2020
4906 Clouds 10 1011 76 10000 2.6 60 19:22 29.04.2020
4907 Clouds 10 1011 76 10000 3.1 60 18:57 29.04.2020
4908 Clouds 11 1011 76 10000 2.6 50 18:39 29.04.2020
4909 Clouds 10 1011 76 10000 2.6 50 18:19 29.04.2020
4910 Clouds 10 1011 76 10000 3.1 60 17:42 29.04.2020
4911 Clouds 9 1011 81 10000 3.1 60 17:22 29.04.2020
4912 Clouds 9 1011 81 10000 3.1 60 16:57 29.04.2020
4913 Rain 9 1011 76 10000 4.1 60 16:36 29.04.2020
4914 Rain 9 1011 76 10000 4.1 60 16:18 29.04.2020
4915 Rain 9 1011 81 10000 3.6 60 15:55 29.04.2020
4916 Rain 9 1011 81 10000 4.1 50 15:37 29.04.2020
4917 Rain 9 1011 81 10000 4.1 50 15:18 29.04.2020
4918 Rain 9 1011 87 10000 3.1 70 14:43 29.04.2020
4919 Rain 10 1011 87 10000 3.1 70 14:25 29.04.2020
4920 Rain 11 1011 81 10000 2.6 70 13:57 29.04.2020
4921 Rain 10 1011 87 10000 1.5 40 13:38 29.04.2020
4922 Rain 10 1011 87 10000 1.5 40 13:18 29.04.2020
4923 Rain 8 1011 87 10000 2.1 290 12:41 29.04.2020
4924 Rain 8 1011 87 10000 2.1 290 12:20 29.04.2020
4925 Rain 7 1011 87 10000 1.5 280 11:59 29.04.2020
4926 Rain 7 1011 87 10000 1.5 260 11:38 29.04.2020
4927 Rain 7 1010 87 10000 2.6 260 11:20 29.04.2020
4928 Rain 7 1010 87 10000 2.6 260 10:54 29.04.2020
4929 Rain 7 1010 87 10000 2.6 260 10:54 29.04.2020
4930 Rain 7 1010 87 10000 2.6 260 10:36 29.04.2020
4931 Rain 7 1010 87 10000 2.6 250 10:18 29.04.2020
4932 Rain 8 1010 87 10000 3.1 250 09:41 29.04.2020
4933 Rain 7 1010 87 10000 3.1 250 09:21 29.04.2020
4934 Rain 8 1009 87 10000 2.6 300 08:44 29.04.2020
4935 Rain 8 1009 87 10000 2.6 300 08:25 29.04.2020
4936 Rain 8 1009 87 10000 1.5 310 07:54 29.04.2020
4937 Rain 7 1009 87 10000 3.6 310 07:29 29.04.2020
4938 Rain 7 1008 87 10000 4.1 310 06:53 29.04.2020
4939 Rain 7 1008 87 10000 3.1 300 06:32 29.04.2020
4940 Rain 8 1007 87 10000 3.6 270 05:50 29.04.2020
4941 Rain 8 1007 81 10000 5.1 250 05:19 29.04.2020
4942 Clouds 9 1006 81 10000 1.5 300 04:20 29.04.2020
4943 Clouds 10 1006 87 10000 4.6 270 03:28 29.04.2020
4944 Clouds 10 1006 81 10000 0.5 0 01:59 29.04.2020
4945 Clouds 10 1006 81 10000 1 0 01:29 29.04.2020
4946 Clouds 10 1007 81 10000 0.5 0 00:59 29.04.2020
4947 Clouds 11 1007 76 10000 1.5 260 00:37 29.04.2020
4948 Clouds 11 1007 81 10000 1 0 00:18 29.04.2020
4949 Clouds 11 1007 81 10000 2.6 260 23:43 28.04.2020
4950 Clouds 11 1007 81 10000 2.6 260 23:21 28.04.2020
4951 Clouds 13 1007 62 10000 1.5 60 22:39 28.04.2020
4952 Clouds 12 1007 62 10000 1.5 60 22:20 28.04.2020
4953 Clouds 13 1006 58 10000 2.6 120 21:59 28.04.2020
4954 Clouds 12 1006 76 10000 1.5 0 21:40 28.04.2020
4955 Clouds 12 1006 76 10000 1.5 0 21:22 28.04.2020
4956 Clouds 12 1006 76 10000 1.5 230 20:59 28.04.2020
4957 Clouds 13 1005 67 10000 1 0 20:40 28.04.2020
4958 Clouds 14 1005 59 10000 3.6 360 20:20 28.04.2020
4959 Clouds 14 1005 59 10000 3.6 360 19:56 28.04.2020
4960 Rain 14 1005 59 10000 2.6 280 19:38 28.04.2020
4961 Rain 14 1005 59 10000 2.6 280 19:19 28.04.2020
4962 Rain 14 1005 59 10000 2.6 280 19:19 28.04.2020
4963 Clouds 15 1005 59 10000 2.6 270 18:57 28.04.2020
4964 Clouds 15 1005 55 10000 4.1 280 18:37 28.04.2020
4965 Clouds 15 1005 55 10000 4.1 280 18:37 28.04.2020
4966 Clouds 15 1005 55 10000 4.1 280 18:37 28.04.2020
4967 Clouds 15 1005 55 10000 4.1 280 18:18 28.04.2020
4968 Clouds 15 1005 59 10000 6.2 250 17:37 28.04.2020
4969 Clouds 16 1006 55 10000 7.2 260 17:19 28.04.2020
4970 Clouds 16 1006 55 10000 7.2 260 16:57 28.04.2020
4971 Clouds 16 1006 55 10000 5.1 270 16:39 28.04.2020
4972 Clouds 16 1006 55 10000 5.1 270 16:21 28.04.2020
4973 Clouds 16 1006 39 10000 3.6 140 15:55 28.04.2020
4974 Clouds 15 1007 42 10000 6.7 160 15:37 28.04.2020
4975 Clouds 15 1007 42 10000 6.7 160 15:19 28.04.2020
4976 Clouds 14 1006 48 10000 9.8 160 14:43 28.04.2020
4977 Clouds 14 1006 48 10000 9.8 160 14:43 28.04.2020
4978 Clouds 15 1006 48 10000 9.8 160 14:23 28.04.2020
4979 Clouds 17 1006 42 10000 8.7 140 13:59 28.04.2020
4980 Clouds 17 1006 42 10000 8.7 140 13:59 28.04.2020
4981 Clouds 17 1006 42 10000 8.7 140 13:59 28.04.2020
4982 Clouds 17 1006 40 10000 6.2 130 13:40 28.04.2020
4983 Clouds 18 1006 40 10000 6.2 130 13:22 28.04.2020
4984 Clouds 20 1006 42 10000 3.1 50 12:58 28.04.2020
4985 Clouds 19 1006 48 10000 1.5 0 12:40 28.04.2020
4986 Clouds 19 1006 48 10000 1.5 0 12:21 28.04.2020
4987 Clouds 16 1008 67 10000 1 0 11:42 28.04.2020
4988 Clouds 15 1008 71 10000 1 0 11:22 28.04.2020
4989 Clouds 14 1008 71 10000 1 0 10:57 28.04.2020
4990 Clouds 14 1008 71 10000 1 0 10:38 28.04.2020
4991 Clouds 14 1008 71 10000 1 0 10:38 28.04.2020
4992 Clouds 13 1008 71 10000 1 0 10:18 28.04.2020
4993 Clouds 11 1009 81 10000 1 0 09:43 28.04.2020
4994 Clouds 10 1009 81 10000 1 0 09:25 28.04.2020
4995 Clouds 9 1009 87 10000 1 0 08:55 28.04.2020
4996 Clouds 10 1009 81 10000 0.5 0 08:37 28.04.2020
4997 Clouds 9 1009 81 10000 0.5 0 08:18 28.04.2020
4998 Clouds 7 1010 93 10000 0.5 0 07:41 28.04.2020
4999 Clouds 6 1010 93 10000 0.5 0 07:18 28.04.2020
5000 Clouds 5 1010 93 10000 0.5 0 06:41 28.04.2020
5001 Clouds 5 1010 93 9000 1 310 05:52 28.04.2020
5002 Clouds 5 1010 93 10000 1 0 05:34 28.04.2020
5003 Clouds 7 1010 93 10000 0.5 0 04:33 28.04.2020
5004 Clouds 7 1010 93 10000 0.5 0 04:33 28.04.2020
5005 Clouds 7 1011 93 10000 1 0 02:39 28.04.2020
5006 Clouds 8 1011 87 10000 1 0 01:51 28.04.2020
5007 Clouds 8 1011 87 10000 1 0 01:22 28.04.2020
5008 Clouds 8 1011 87 10000 0.5 0 00:32 28.04.2020
5009 Clouds 8 1011 87 10000 0.5 0 23:56 27.04.2020
5010 Clouds 8 1011 87 10000 0.5 0 23:38 27.04.2020
5011 Clouds 8 1011 87 10000 0.5 0 23:20 27.04.2020
5012 Clouds 10 1010 81 10000 1 0 22:43 27.04.2020
5013 Clear 11 1010 76 10000 1.5 70 22:23 27.04.2020
5014 Clear 11 1010 76 10000 1.5 70 21:57 27.04.2020
5015 Clouds 11 1010 71 10000 1 0 21:39 27.04.2020
5016 Clouds 12 1010 67 10000 2.6 70 21:19 27.04.2020
5017 Clouds 13 1010 67 10000 3.6 60 20:57 27.04.2020
5018 Clouds 13 1010 67 10000 3.6 60 20:39 27.04.2020
5019 Clouds 13 1010 67 10000 3.6 60 20:21 27.04.2020
5020 Clouds 15 1009 62 10000 4.1 60 19:56 27.04.2020
5021 Clouds 15 1009 59 10000 4.6 60 19:37 27.04.2020
5022 Clouds 15 1009 59 10000 4.6 60 19:37 27.04.2020
5023 Clouds 16 1009 59 10000 4.6 60 19:19 27.04.2020
5024 Clouds 16 1010 55 10000 3.6 90 18:55 27.04.2020
5025 Clouds 15 1010 55 10000 3.1 70 18:37 27.04.2020
5026 Clouds 15 1010 55 10000 3.1 70 18:18 27.04.2020
5027 Clouds 15 1010 63 10000 4.1 70 17:41 27.04.2020
5028 Clouds 15 1011 62 10000 4.1 90 17:19 27.04.2020
5029 Clouds 14 1011 67 10000 4.1 90 16:41 27.04.2020
5030 Clouds 14 1011 67 10000 4.1 90 16:22 27.04.2020
5031 Clouds 13 1012 71 10000 4.1 70 15:59 27.04.2020
5032 Clouds 12 1012 71 10000 3.1 60 15:41 27.04.2020
5033 Clouds 12 1012 71 10000 3.1 60 15:21 27.04.2020
5034 Clouds 12 1012 76 10000 3.1 60 14:58 27.04.2020
5035 Clouds 12 1012 76 10000 3.6 80 14:40 27.04.2020
5036 Clouds 12 1012 76 10000 3.6 80 14:19 27.04.2020
5037 Clouds 12 1013 76 10000 4.1 110 13:57 27.04.2020
5038 Clouds 11 1013 81 10000 3.1 100 13:37 27.04.2020
5039 Clouds 11 1013 81 10000 3.1 100 13:18 27.04.2020
5040 Rain 10 1013 81 10000 0.5 0 12:43 27.04.2020
5041 Rain 10 1013 81 10000 0.5 0 12:21 27.04.2020
5042 Clouds 11 1013 81 10000 2.6 120 11:43 27.04.2020
5043 Clouds 10 1013 81 10000 1 0 11:22 27.04.2020
5044 Clouds 10 1013 81 10000 1 0 10:59 27.04.2020
5045 Clouds 10 1013 76 10000 1 0 10:41 27.04.2020
5046 Clouds 10 1013 76 10000 1 0 10:23 27.04.2020
5047 Clouds 10 1012 76 10000 2.6 90 09:58 27.04.2020
5048 Clouds 10 1012 76 10000 3.1 90 09:39 27.04.2020
5049 Clouds 10 1012 76 10000 3.1 90 09:18 27.04.2020
5050 Clouds 10 1012 76 10000 2.6 100 08:46 27.04.2020
5051 Clouds 10 1012 81 10000 1.5 40 08:27 27.04.2020
5052 Clouds 10 1011 81 10000 0.5 0 07:45 27.04.2020
5053 Clouds 10 1011 81 10000 0.5 0 07:23 27.04.2020
5054 Rain 9 1011 81 10000 1 0 06:58 27.04.2020
5055 Rain 10 1011 71 10000 1.5 270 06:30 27.04.2020
5056 Clouds 9 1010 71 10000 1 0 05:55 27.04.2020
5057 Rain 9 1010 66 10000 1 160 04:59 27.04.2020
5058 Clouds 9 1010 76 10000 0.5 0 04:37 27.04.2020
5059 Clouds 9 1010 71 10000 1.5 270 03:45 27.04.2020
5060 Clouds 9 1010 66 10000 1.5 0 01:53 27.04.2020
5061 Clouds 9 1010 66 10000 1.5 150 01:20 27.04.2020
5062 Clouds 9 1010 66 10000 1 0 00:40 27.04.2020
5063 Clouds 9 1010 66 10000 1 0 00:18 27.04.2020
5064 Clouds 10 1010 62 10000 1.5 280 23:41 26.04.2020
5065 Clouds 11 1009 58 10000 1.5 250 23:22 26.04.2020
5066 Clouds 11 1009 58 10000 1.5 250 22:59 26.04.2020
5067 Clouds 12 1009 54 10000 1 0 22:40 26.04.2020
5068 Clouds 15 1009 54 10000 1 0 22:21 26.04.2020
5069 Clouds 15 1009 54 10000 1 0 21:58 26.04.2020
5070 Clouds 16 1008 48 10000 1.5 60 21:39 26.04.2020
5071 Clouds 14 1008 48 10000 1.5 60 21:19 26.04.2020
5072 Clouds 17 1008 48 10000 3.1 60 20:55 26.04.2020
5073 Clouds 18 1007 42 10000 2.1 40 20:37 26.04.2020
5074 Clouds 16 1007 42 10000 2.1 40 20:19 26.04.2020
5075 Clouds 19 1007 39 10000 2.6 100 19:57 26.04.2020
5076 Clouds 20 1007 37 10000 2.1 280 19:36 26.04.2020
5077 Clouds 20 1007 37 10000 2.1 280 19:18 26.04.2020
5078 Clouds 20 1006 37 10000 4.6 70 18:43 26.04.2020
5079 Clouds 20 1006 37 10000 4.6 70 18:24 26.04.2020
5080 Clouds 20 1006 37 10000 4.6 70 18:24 26.04.2020
5081 Clouds 21 1006 32 10000 4.1 80 17:44 26.04.2020
5082 Clouds 21 1006 32 10000 4.1 80 17:44 26.04.2020
5083 Clouds 21 1006 32 10000 4.1 80 17:24 26.04.2020
5084 Clouds 21 1006 35 10000 4.6 50 16:59 26.04.2020
5085 Clouds 22 1006 35 10000 3.1 70 16:40 26.04.2020
5086 Clouds 22 1006 35 10000 3.1 70 16:20 26.04.2020
5087 Clouds 22 1006 33 10000 4.6 70 15:58 26.04.2020
5088 Clouds 21 1006 32 10000 3.1 80 15:37 26.04.2020
5089 Clouds 21 1006 32 10000 3.1 80 15:19 26.04.2020
5090 Clouds 21 1007 37 10000 3.1 90 14:41 26.04.2020
5091 Clouds 21 1007 37 10000 3.1 90 14:20 26.04.2020
5092 Clouds 21 1007 40 10000 3.1 0 13:59 26.04.2020
5093 Clouds 20 1008 45 10000 3.6 90 13:41 26.04.2020
5094 Clouds 18 1008 45 10000 2.1 70 13:22 26.04.2020
5095 Clouds 18 1008 45 10000 2.1 70 12:57 26.04.2020
5096 Clouds 18 1008 48 10000 1.5 0 12:39 26.04.2020
5097 Clouds 18 1008 48 10000 1.5 0 12:20 26.04.2020
5098 Clouds 16 1009 48 10000 0.5 0 11:55 26.04.2020
5099 Clouds 16 1009 51 10000 1 0 11:37 26.04.2020
5100 Clouds 17 1009 51 10000 1 0 11:19 26.04.2020
5101 Clouds 14 1009 58 10000 1.5 90 10:55 26.04.2020
5102 Clouds 13 1009 62 10000 1.5 0 10:36 26.04.2020
5103 Clouds 12 1010 66 10000 2.1 80 10:18 26.04.2020
5104 Clouds 10 1010 71 10000 1 0 09:39 26.04.2020
5105 Clouds 9 1010 71 10000 1 0 09:20 26.04.2020
5106 Clouds 8 1010 76 10000 0.5 0 08:42 26.04.2020
5107 Clouds 7 1010 81 10000 0.5 0 08:23 26.04.2020
5108 Clouds 8 1010 81 10000 0.5 0 07:50 26.04.2020
5109 Clouds 7 1010 81 10000 1 260 07:25 26.04.2020
5110 Clouds 7 1009 81 10000 1 0 06:56 26.04.2020
5111 Clouds 6 1009 81 10000 1 0 06:33 26.04.2020
5112 Clouds 6 1009 81 10000 0.5 0 05:54 26.04.2020
5113 Clouds 7 1009 76 10000 0.5 0 05:35 26.04.2020
5114 Clouds 7 1009 76 10000 1 0 04:42 26.04.2020
5115 Clouds 7 1009 76 10000 0.5 0 03:49 26.04.2020
5116 Clouds 7 1009 71 10000 1 0 02:40 26.04.2020
5117 Clouds 8 1009 71 10000 1 0 02:20 26.04.2020
5118 Clouds 9 1009 71 10000 1 140 01:38 26.04.2020
5119 Clouds 9 1009 71 10000 0.5 0 01:19 26.04.2020
5120 Clouds 10 1009 66 10000 1 0 00:38 26.04.2020
5121 Clouds 11 1009 62 10000 0.5 0 00:18 26.04.2020
5122 Clouds 13 1009 62 10000 1 0 23:38 25.04.2020
5123 Clouds 11 1009 62 10000 1 0 23:20 25.04.2020
5124 Clouds 12 1008 58 10000 1 0 22:43 25.04.2020
5125 Clouds 11 1008 58 10000 1 0 22:21 25.04.2020
5126 Clouds 12 1008 54 10000 1 0 21:59 25.04.2020
5127 Clouds 12 1008 51 10000 0.5 0 21:39 25.04.2020
5128 Clouds 14 1007 45 10000 3.1 80 21:20 25.04.2020
5129 Clouds 14 1007 45 10000 3.1 80 20:56 25.04.2020
5130 Clouds 15 1007 39 10000 3.1 80 20:37 25.04.2020
5131 Clouds 15 1007 39 10000 3.1 80 20:19 25.04.2020
5132 Clouds 15 1007 42 10000 5.1 60 19:41 25.04.2020
5133 Clouds 15 1007 42 10000 5.1 60 19:23 25.04.2020
5134 Clouds 19 1007 39 10000 5.1 70 18:58 25.04.2020
5135 Clouds 20 1007 32 10000 2.6 120 18:39 25.04.2020
5136 Clouds 20 1007 32 10000 2.6 120 18:20 25.04.2020
5137 Clouds 18 1007 34 10000 2.1 90 17:57 25.04.2020
5138 Clouds 21 1007 32 10000 1.5 0 17:38 25.04.2020
5139 Clouds 18 1007 32 10000 1.5 0 17:19 25.04.2020
5140 Clouds 17 1008 34 10000 2.1 200 16:54 25.04.2020
5141 Clouds 17 1008 37 10000 2.6 0 16:36 25.04.2020
5142 Clouds 17 1008 37 10000 2.6 0 16:36 25.04.2020
5143 Clouds 17 1008 37 10000 2.1 0 16:18 25.04.2020
5144 Clouds 18 1008 45 10000 1.5 80 15:40 25.04.2020
5145 Clouds 18 1008 45 10000 1.5 80 15:19 25.04.2020
5146 Clouds 18 1009 42 10000 2.1 300 14:58 25.04.2020
5147 Clouds 19 1009 42 10000 1 0 14:38 25.04.2020
5148 Clouds 17 1009 48 10000 1.5 350 14:20 25.04.2020
5149 Clouds 17 1010 48 10000 1 0 13:43 25.04.2020
5150 Clouds 17 1010 48 10000 1.5 0 13:19 25.04.2020
5151 Clouds 17 1010 48 10000 1.5 0 12:58 25.04.2020
5152 Clouds 15 1011 51 10000 0.5 0 12:40 25.04.2020
5153 Clouds 15 1011 51 10000 0.5 0 12:20 25.04.2020
5154 Clouds 13 1011 58 10000 1 0 11:56 25.04.2020
5155 Clouds 13 1011 62 10000 1.5 170 11:38 25.04.2020
5156 Clouds 12 1011 54 10000 1.5 80 11:20 25.04.2020
5157 Rain 12 1011 58 10000 3.1 70 10:43 25.04.2020
5158 Rain 11 1011 58 10000 3.1 70 10:23 25.04.2020
5159 Clouds 11 1010 62 10000 0.5 0 09:48 25.04.2020
5160 Clouds 10 1010 62 10000 0.5 0 09:29 25.04.2020
5161 Clouds 10 1010 66 10000 0.5 0 08:58 25.04.2020
5162 Clouds 10 1010 66 10000 0.5 0 08:39 25.04.2020
5163 Clouds 8 1010 76 10000 1 270 08:21 25.04.2020
5164 Clouds 8 1010 76 10000 1 270 07:58 25.04.2020
5165 Clouds 8 1010 70 10000 0.5 0 07:39 25.04.2020
5166 Clouds 8 1010 70 10000 1 0 06:47 25.04.2020
5167 Clouds 7 1010 75 10000 1 0 06:28 25.04.2020
5168 Clouds 8 1011 70 10000 1.5 270 05:40 25.04.2020
5169 Clouds 8 1011 66 10000 1.5 260 05:18 25.04.2020
5170 Clouds 8 1011 66 10000 1 0 02:59 25.04.2020
5171 Clouds 8 1012 66 10000 0.5 0 02:21 25.04.2020
5172 Clouds 9 1012 66 10000 0.5 0 01:53 25.04.2020
5173 Clouds 10 1012 61 10000 0.5 0 01:34 25.04.2020
5174 Clouds 10 1012 61 10000 0.5 0 01:34 25.04.2020
5175 Clouds 10 1012 61 10000 0.5 0 00:56 25.04.2020
5176 Clouds 11 1011 57 10000 0.5 0 00:32 25.04.2020
5177 Clouds 13 1011 50 10000 1 0 23:45 24.04.2020
5178 Clouds 13 1011 50 10000 1 0 23:27 24.04.2020
5179 Clouds 13 1011 47 10000 1.5 260 22:59 24.04.2020
5180 Clouds 14 1011 44 10000 1 0 22:39 24.04.2020
5181 Clouds 12 1011 44 10000 1 0 22:19 24.04.2020
5182 Clouds 16 1011 38 10000 1 0 21:56 24.04.2020
5183 Clouds 17 1011 33 10000 0.5 0 21:37 24.04.2020
5184 Clouds 15 1011 33 10000 0.5 0 21:19 24.04.2020
5185 Clouds 18 1010 31 10000 1 0 20:56 24.04.2020
5186 Clouds 19 1010 45 10000 2.6 310 20:37 24.04.2020
5187 Clouds 20 1009 45 10000 5.7 260 20:18 24.04.2020
5188 Clouds 21 1009 26 10000 6.7 260 19:40 24.04.2020
5189 Clouds 21 1009 26 10000 6.7 260 19:21 24.04.2020
5190 Clouds 21 1009 28 10000 6.7 260 18:45 24.04.2020
5191 Clouds 21 1009 28 10000 6.7 260 18:27 24.04.2020
5192 Clouds 22 1009 24 10000 6.2 270 17:58 24.04.2020
5193 Clouds 22 1009 24 10000 6.2 270 17:58 24.04.2020
5194 Clouds 22 1010 24 10000 6.7 260 17:38 24.04.2020
5195 Clouds 20 1010 24 10000 6.7 260 17:19 24.04.2020
5196 Clouds 22 1010 24 10000 5.1 250 16:58 24.04.2020
5197 Clouds 23 1010 23 10000 3.6 250 16:40 24.04.2020
5198 Clouds 20 1010 28 10000 5.7 270 16:21 24.04.2020
5199 Clouds 20 1011 24 10000 4.1 270 15:42 24.04.2020
5200 Clouds 20 1011 24 10000 4.1 270 15:42 24.04.2020
5201 Clouds 20 1011 24 10000 4.1 270 15:21 24.04.2020
5202 Clouds 20 1011 26 10000 5.7 270 14:57 24.04.2020
5203 Clouds 20 1011 26 10000 5.7 270 14:38 24.04.2020
5204 Clouds 20 1011 26 10000 5.7 270 14:19 24.04.2020
5205 Clouds 20 1012 26 10000 5.1 260 13:41 24.04.2020
5206 Clouds 20 1012 26 10000 5.1 260 13:41 24.04.2020
5207 Clouds 20 1012 26 10000 5.1 260 13:21 24.04.2020
5208 Clouds 18 1013 32 10000 2.6 90 12:58 24.04.2020
5209 Clouds 18 1014 39 10000 1 0 12:40 24.04.2020
5210 Clouds 18 1014 39 10000 1 0 12:20 24.04.2020
5211 Clouds 17 1014 45 10000 2.1 260 11:43 24.04.2020
5212 Clouds 17 1014 45 10000 2.1 260 11:23 24.04.2020
5213 Clouds 15 1015 51 10000 1.5 280 10:59 24.04.2020
5214 Clouds 14 1016 54 10000 1.5 260 10:38 24.04.2020
5215 Clouds 15 1016 54 10000 1.5 260 10:20 24.04.2020
5216 Clouds 13 1016 58 10000 2.1 260 09:57 24.04.2020
5217 Clouds 12 1016 62 10000 1 0 09:37 24.04.2020
5218 Clear 10 1017 71 10000 1 0 09:18 24.04.2020
5219 Clear 8 1017 76 10000 1 260 08:42 24.04.2020
5220 Clear 7 1017 81 10000 1.5 260 08:20 24.04.2020
5221 Clear 7 1017 81 10000 1.5 260 07:56 24.04.2020
5222 Clear 7 1017 81 10000 1 0 07:38 24.04.2020
5223 Clear 6 1017 81 10000 1 0 07:20 24.04.2020
5224 Clear 6 1016 81 10000 1 280 06:43 24.04.2020
5225 Clear 7 1016 87 10000 1.5 250 05:51 24.04.2020
5226 Clear 5 1017 81 10000 2.1 260 05:20 24.04.2020
5227 Clear 8 1017 75 10000 1.5 270 03:34 24.04.2020
5228 Clear 7 1017 70 10000 1 0 02:50 24.04.2020
5229 Clear 6 1017 70 10000 1 230 02:30 24.04.2020
5230 Clear 7 1017 70 10000 0.5 0 01:46 24.04.2020
5231 Clear 8 1017 71 10000 0.5 0 00:50 24.04.2020
5232 Clear 8 1017 71 10000 0.5 0 00:19 24.04.2020
5233 Clear 9 1017 66 10000 0.5 0 23:46 23.04.2020
5234 Clouds 10 1017 62 10000 0.5 0 23:27 23.04.2020
5235 Clouds 11 1017 58 10000 1 0 22:57 23.04.2020
5236 Clouds 12 1017 51 10000 0.5 0 22:39 23.04.2020
5237 Clouds 12 1017 51 10000 0.5 0 22:20 23.04.2020
5238 Clouds 13 1017 48 10000 1 0 21:57 23.04.2020
5239 Clouds 17 1016 45 10000 2.6 20 21:39 23.04.2020
5240 Clouds 15 1016 45 10000 2.6 20 21:20 23.04.2020
5241 Clouds 15 1016 45 10000 2.6 20 21:20 23.04.2020
5242 Clouds 18 1015 39 10000 4.6 80 20:56 23.04.2020
5243 Clouds 19 1015 37 10000 5.7 90 20:38 23.04.2020
5244 Clouds 17 1015 37 10000 5.7 90 20:19 23.04.2020
5245 Clouds 17 1014 39 10000 5.1 60 19:55 23.04.2020
5246 Clouds 18 1014 37 10000 4.1 50 19:37 23.04.2020
5247 Clouds 18 1014 37 10000 4.1 50 19:19 23.04.2020
5248 Clouds 22 1014 33 10000 4.6 80 18:40 23.04.2020
5249 Clouds 22 1014 33 10000 4.6 80 18:22 23.04.2020
5250 Clouds 22 1014 30 10000 6.2 80 17:57 23.04.2020
5251 Clouds 22 1014 30 10000 6.2 90 17:39 23.04.2020
5252 Clouds 21 1014 28 10000 4.6 70 17:21 23.04.2020
5253 Clouds 21 1014 27 10000 4.1 80 16:44 23.04.2020
5254 Clouds 21 1014 27 10000 4.1 80 16:21 23.04.2020
5255 Clouds 23 1015 27 10000 3.1 100 15:59 23.04.2020
5256 Clouds 20 1015 24 10000 3.1 80 15:40 23.04.2020
5257 Clouds 20 1015 24 10000 3.1 80 15:40 23.04.2020
5258 Clouds 21 1015 24 10000 3.1 80 15:22 23.04.2020
5259 Clouds 21 1015 28 10000 3.1 70 14:54 23.04.2020
5260 Clouds 20 1016 30 10000 3.6 50 14:36 23.04.2020
5261 Clouds 20 1016 30 10000 3.6 50 14:18 23.04.2020
5262 Clouds 19 1016 30 10000 3.1 70 13:40 23.04.2020
5263 Clouds 19 1016 30 10000 3.1 70 13:22 23.04.2020
5264 Clouds 18 1017 34 10000 1.5 140 12:58 23.04.2020
5265 Clouds 17 1017 31 10000 1 0 12:40 23.04.2020
5266 Clouds 17 1017 31 10000 1 0 12:21 23.04.2020
5267 Clouds 15 1018 39 10000 1 0 11:47 23.04.2020
5268 Clear 15 1018 38 10000 1 0 11:28 23.04.2020
5269 Clear 14 1018 44 10000 1 0 10:59 23.04.2020
5270 Clear 14 1018 47 10000 1 0 10:40 23.04.2020
5271 Clear 13 1018 47 10000 1 0 10:20 23.04.2020
5272 Clear 11 1019 61 10000 2.6 270 09:40 23.04.2020
5273 Clear 9 1019 66 10000 2.1 260 09:19 23.04.2020
5274 Clear 8 1019 70 10000 1.5 260 08:51 23.04.2020
5275 Clear 8 1019 70 10000 1.5 260 08:32 23.04.2020
5276 Clear 6 1019 75 10000 0.5 0 07:58 23.04.2020
5277 Clear 6 1019 75 10000 1 140 07:39 23.04.2020
5278 Clear 5 1019 75 10000 1 140 07:21 23.04.2020
5279 Clear 5 1018 75 10000 0.5 0 06:45 23.04.2020
5280 Clear 4 1018 75 10000 1 0 05:50 23.04.2020
5281 Clear 4 1018 75 10000 1 0 05:21 23.04.2020
5282 Clear 4 1017 70 10000 1 270 03:48 23.04.2020
5283 Clear 5 1017 65 10000 0.5 0 02:23 23.04.2020
5284 Clear 6 1017 65 10000 1.5 280 01:38 23.04.2020
5285 Clear 7 1017 57 10000 0.5 0 00:55 23.04.2020
5286 Clear 8 1016 50 10000 0.5 0 00:28 23.04.2020
5287 Clear 8 1016 50 10000 0.5 0 00:28 23.04.2020
5288 Clear 9 1016 53 10000 1 0 23:58 22.04.2020
5289 Clear 9 1016 46 10000 0.5 0 23:40 22.04.2020
5290 Clear 10 1016 46 10000 0.5 0 23:19 22.04.2020
5291 Clear 10 1015 50 10000 2.1 260 22:40 22.04.2020
5292 Clear 11 1015 50 10000 2.1 260 22:20 22.04.2020
5293 Clear 16 1015 38 10000 1.5 100 21:59 22.04.2020
5294 Clear 16 1014 41 10000 3.6 60 21:41 22.04.2020
5295 Clear 15 1014 34 10000 5.1 70 21:22 22.04.2020
5296 Clear 18 1014 34 10000 5.1 70 20:57 22.04.2020
5297 Clear 16 1013 34 10000 5.7 60 20:39 22.04.2020
5298 Clear 16 1013 34 10000 5.7 60 20:18 22.04.2020
5299 Clear 18 1013 28 10000 5.1 50 19:57 22.04.2020
5300 Clear 22 1012 19 10000 5.7 70 19:37 22.04.2020
5301 Clear 22 1012 19 10000 5.1 70 19:18 22.04.2020
5302 Clear 22 1012 19 10000 5.1 70 18:56 22.04.2020
5303 Clear 22 1012 19 10000 5.1 70 18:56 22.04.2020
5304 Clear 23 1012 16 10000 3.6 70 18:37 22.04.2020
5305 Clear 21 1012 17 10000 2.6 50 18:19 22.04.2020
5306 Clear 23 1012 16 10000 3.6 120 17:43 22.04.2020
5307 Clear 23 1012 16 10000 3.6 120 17:43 22.04.2020
5308 Clear 23 1012 16 10000 3.6 120 17:25 22.04.2020
5309 Clear 23 1012 15 10000 4.1 140 16:56 22.04.2020
5310 Clear 23 1012 18 10000 3.1 70 16:36 22.04.2020
5311 Clear 23 1012 18 10000 3.1 70 16:18 22.04.2020
5312 Clear 23 1012 18 10000 3.1 70 16:18 22.04.2020
5313 Clear 21 1013 21 10000 4.1 20 15:40 22.04.2020
5314 Clear 21 1013 21 10000 4.1 20 15:21 22.04.2020
5315 Clear 21 1013 18 10000 3.6 40 14:57 22.04.2020
5316 Clear 21 1014 19 10000 3.6 60 14:37 22.04.2020
5317 Clear 21 1014 19 10000 3.6 60 14:19 22.04.2020
5318 Clear 20 1014 19 10000 5.1 50 13:44 22.04.2020
5319 Clear 19 1014 19 10000 5.1 50 13:20 22.04.2020
5320 Clear 20 1014 20 10000 3.1 50 12:54 22.04.2020
5321 Clear 19 1015 20 10000 2.1 230 12:54 22.04.2020
5322 Clear 19 1015 20 10000 2.1 230 12:36 22.04.2020
5323 Clear 19 1015 20 10000 2.1 230 12:18 22.04.2020
5324 Clear 16 1015 28 10000 3.6 250 11:40 22.04.2020
5325 Clear 16 1015 28 10000 3.6 250 11:20 22.04.2020
5326 Clear 16 1016 28 10000 4.1 260 11:20 22.04.2020
5327 Clear 15 1016 28 10000 4.1 260 10:57 22.04.2020
5328 Clear 14 1016 47 10000 3.6 270 10:38 22.04.2020
5329 Clear 14 1016 47 10000 3.6 270 10:18 22.04.2020
5330 Clear 9 1017 57 10000 2.6 260 09:39 22.04.2020
5331 Clear 9 1017 57 10000 2.6 260 09:19 22.04.2020
5332 Clear 7 1017 65 10000 1 0 08:54 22.04.2020
5333 Clear 6 1017 65 10000 1 0 08:54 22.04.2020
5334 Clear 6 1017 65 10000 1 0 08:36 22.04.2020
5335 Clear 6 1017 65 10000 1 0 08:18 22.04.2020
5336 Clear 6 1017 75 10000 1 0 07:46 22.04.2020
5337 Clear 5 1016 80 10000 1 0 07:22 22.04.2020
5338 Clear 4 1016 45 10000 1.5 260 06:45 22.04.2020
5339 Clear 5 1016 52 10000 1 0 05:47 22.04.2020
5340 Clear 6 1016 75 10000 1 0 05:23 22.04.2020
5341 Clear 8 1015 65 10000 2.6 50 03:55 22.04.2020
5342 Clouds 10 1015 53 10000 3.1 100 02:37 22.04.2020
5343 Clouds 11 1015 53 10000 3.1 120 01:42 22.04.2020
5344 Clouds 8 1015 53 10000 3.1 120 01:23 22.04.2020
5345 Clouds 10 1014 47 10000 2.6 80 00:46 22.04.2020
5346 Clouds 9 1014 47 10000 2.6 80 00:21 22.04.2020
5347 Clouds 10 1014 47 10000 3.1 70 23:56 21.04.2020
5348 Clouds 10 1013 50 10000 2.1 110 23:36 21.04.2020
5349 Clouds 10 1013 50 10000 2.1 110 23:18 21.04.2020
5350 Clouds 12 1012 44 10000 3.6 80 22:39 21.04.2020
5351 Clouds 12 1012 44 10000 3.6 80 22:21 21.04.2020
5352 Clouds 13 1012 44 10000 4.6 70 21:57 21.04.2020
5353 Clouds 13 1012 44 10000 5.1 70 21:39 21.04.2020
5354 Clouds 14 1012 44 10000 5.1 70 21:21 21.04.2020
5355 Clouds 17 1011 45 10000 6.7 60 20:41 21.04.2020
5356 Clouds 15 1011 45 10000 6.7 60 20:23 21.04.2020
5357 Clouds 16 1010 42 10000 6.2 70 19:59 21.04.2020
5358 Clouds 17 1010 42 10000 6.2 80 19:39 21.04.2020
5359 Clouds 17 1010 42 10000 6.2 80 19:39 21.04.2020
5360 Clouds 18 1010 40 10000 7.7 70 19:19 21.04.2020
5361 Clouds 18 1010 40 10000 7.7 70 18:56 21.04.2020
5362 Clouds 18 1009 42 10000 6.7 70 18:38 21.04.2020
5363 Clouds 19 1009 42 10000 6.7 70 18:18 21.04.2020
5364 Clouds 19 1009 42 10000 6.7 70 18:18 21.04.2020
5365 Clouds 19 1009 40 10000 6.7 60 17:40 21.04.2020
5366 Clouds 19 1009 40 10000 6.7 60 17:21 21.04.2020
5367 Clouds 19 1009 40 10000 4.6 80 16:59 21.04.2020
5368 Clouds 19 1009 42 10000 6.2 80 16:38 21.04.2020
5369 Clouds 19 1009 42 10000 6.2 80 16:19 21.04.2020
5370 Clouds 20 1009 42 10000 6.7 80 15:55 21.04.2020
5371 Clouds 20 1009 42 10000 6.7 80 15:55 21.04.2020
5372 Clouds 20 1009 42 10000 6.2 70 15:37 21.04.2020
5373 Clouds 19 1009 42 10000 6.2 70 15:19 21.04.2020
5374 Clouds 19 1010 45 10000 5.7 80 14:45 21.04.2020
5375 Clouds 18 1010 48 10000 2.1 0 14:25 21.04.2020
5376 Clouds 17 1010 55 10000 2.6 70 13:57 21.04.2020
5377 Clouds 17 1010 55 10000 1 0 13:38 21.04.2020
5378 Clouds 15 1011 62 10000 1 0 13:18 21.04.2020
5379 Clouds 14 1011 67 10000 1 0 12:39 21.04.2020
5380 Clouds 13 1011 67 10000 1 0 12:20 21.04.2020
5381 Clouds 14 1011 66 10000 2.1 70 11:58 21.04.2020
5382 Clouds 14 1011 71 10000 1 0 11:39 21.04.2020
5383 Clouds 12 1011 71 10000 0.5 0 11:19 21.04.2020
5384 Clouds 12 1011 71 10000 0.5 0 10:59 21.04.2020
5385 Clouds 12 1011 76 10000 0.5 0 10:40 21.04.2020
5386 Clouds 11 1011 76 10000 0.5 0 10:22 21.04.2020
5387 Clouds 10 1011 81 10000 1 0 09:59 21.04.2020
5388 Clouds 10 1012 76 10000 1 0 09:37 21.04.2020
5389 Clouds 9 1012 76 10000 1 0 09:18 21.04.2020
5390 Clouds 8 1011 81 10000 1 0 08:44 21.04.2020
5391 Clouds 8 1011 81 10000 1 0 08:26 21.04.2020
5392 Clouds 7 1012 87 10000 0.5 0 07:53 21.04.2020
5393 Clouds 7 1011 87 10000 0.5 0 07:28 21.04.2020
5394 Clouds 7 1011 81 10000 1 260 06:54 21.04.2020
5395 Clouds 6 1011 81 10000 0.5 0 06:36 21.04.2020
5396 Clouds 6 1012 81 10000 0.5 0 05:51 21.04.2020
5397 Clouds 6 1012 81 10000 0.5 0 05:20 21.04.2020
5398 Clouds 8 1012 76 10000 1.5 250 03:47 21.04.2020
5399 Clouds 8 1012 76 10000 1.5 70 02:47 21.04.2020
5400 Clouds 9 1012 71 10000 3.1 80 01:32 21.04.2020
5401 Clouds 10 1012 71 10000 2.1 80 00:39 21.04.2020
5402 Clouds 9 1012 71 10000 2.1 80 00:19 21.04.2020
5403 Clouds 10 1012 66 10000 3.1 110 23:43 20.04.2020
5404 Clouds 11 1012 66 10000 3.1 110 23:21 20.04.2020
5405 Clouds 11 1012 66 10000 3.1 90 22:56 20.04.2020
5406 Clouds 11 1012 66 10000 2.6 80 22:36 20.04.2020
5407 Clouds 11 1012 71 10000 5.1 50 22:18 20.04.2020
5408 Clouds 12 1012 71 10000 5.1 50 21:54 20.04.2020
5409 Clouds 13 1011 58 10000 3.6 80 21:36 20.04.2020
5410 Clouds 13 1011 58 10000 3.6 80 21:18 20.04.2020
5411 Clouds 14 1011 59 10000 4.6 90 20:42 20.04.2020
5412 Clouds 14 1011 59 10000 4.6 90 20:20 20.04.2020
5413 Clouds 14 1010 59 10000 5.7 70 19:59 20.04.2020
5414 Clouds 15 1010 59 10000 6.7 60 19:41 20.04.2020
5415 Clouds 15 1010 59 10000 6.7 60 19:22 20.04.2020
5416 Clouds 16 1010 59 10000 5.7 70 18:58 20.04.2020
5417 Clouds 16 1010 59 10000 5.1 80 18:39 20.04.2020
5418 Clouds 16 1010 59 10000 5.1 80 18:20 20.04.2020
5419 Clouds 16 1010 55 10000 6.2 50 17:54 20.04.2020
5420 Clouds 16 1010 55 10000 4.1 60 17:36 20.04.2020
5421 Clouds 16 1010 55 10000 4.1 60 17:18 20.04.2020
5422 Clouds 17 1010 40 10000 7.2 130 16:41 20.04.2020
5423 Clouds 17 1010 42 10000 4.6 120 16:20 20.04.2020
5424 Clouds 17 1010 42 10000 4.6 120 15:56 20.04.2020
5425 Clouds 16 1010 59 10000 2.1 40 15:38 20.04.2020
5426 Clouds 17 1010 59 10000 2.1 40 15:19 20.04.2020
5427 Clouds 16 1010 67 10000 2.1 260 14:42 20.04.2020
5428 Clouds 17 1010 67 10000 2.1 260 14:19 20.04.2020
5429 Clouds 17 1011 67 10000 2.6 270 13:58 20.04.2020
5430 Clouds 17 1011 67 10000 2.6 270 13:58 20.04.2020
5431 Clouds 17 1011 67 10000 1 0 13:39 20.04.2020
5432 Clouds 16 1011 67 10000 1 0 13:20 20.04.2020
5433 Clouds 14 1012 72 10000 2.6 280 12:44 20.04.2020
5434 Clouds 14 1012 72 10000 2.6 280 12:23 20.04.2020
5435 Clouds 13 1012 67 10000 0.5 0 11:57 20.04.2020
5436 Clouds 12 1012 76 10000 1 0 11:38 20.04.2020
5437 Clouds 12 1012 76 10000 1 0 11:18 20.04.2020
5438 Clouds 12 1012 71 10000 1 0 10:54 20.04.2020
5439 Clouds 11 1012 76 10000 2.6 100 10:36 20.04.2020
5440 Clouds 12 1012 76 10000 2.6 100 10:18 20.04.2020
5441 Clouds 10 1012 81 10000 3.1 80 09:43 20.04.2020
5442 Clouds 10 1012 81 10000 3.1 80 09:25 20.04.2020
5443 Clouds 10 1013 81 10000 4.1 80 08:57 20.04.2020
5444 Clouds 9 1013 81 10000 3.1 80 08:39 20.04.2020
5445 Clouds 9 1013 81 10000 4.1 70 08:18 20.04.2020
5446 Clouds 9 1013 87 10000 3.1 80 07:42 20.04.2020
5447 Clouds 9 1013 87 10000 3.1 80 07:24 20.04.2020
5448 Rain 10 1013 81 10000 2.1 80 06:38 20.04.2020
5449 Clouds 10 1013 81 10000 4.1 60 05:59 20.04.2020
5450 Rain 11 1013 81 10000 3.1 70 05:20 20.04.2020
5451 Clouds 13 1012 82 10000 5.1 60 02:52 20.04.2020
5452 Clouds 14 1012 76 10000 2.1 120 02:33 20.04.2020
5453 Clouds 13 1013 87 10000 1.5 0 01:30 20.04.2020
5454 Clouds 13 1013 87 10000 2.1 0 00:47 20.04.2020
5455 Clouds 13 1013 87 10000 2.1 0 00:22 20.04.2020
5456 Rain 15 1013 77 10000 2.6 200 23:41 19.04.2020
5457 Rain 15 1013 77 10000 2.6 200 23:22 19.04.2020
5458 Rain 17 1013 59 10000 1.5 0 22:59 19.04.2020
5459 Clouds 17 1012 59 10000 1 0 22:38 19.04.2020
5460 Clouds 17 1012 59 10000 1 0 22:19 19.04.2020
5461 Clouds 17 1012 59 10000 2.1 80 21:43 19.04.2020
5462 Clouds 17 1012 59 10000 2.1 80 21:25 19.04.2020
5463 Clouds 18 1012 55 10000 4.6 70 20:59 19.04.2020
5464 Clouds 18 1011 52 10000 6.2 70 20:41 19.04.2020
5465 Clouds 18 1011 52 10000 6.2 70 20:20 19.04.2020
5466 Clouds 19 1011 48 10000 4.6 80 19:57 19.04.2020
5467 Clouds 19 1011 52 10000 4.6 90 19:39 19.04.2020
5468 Clouds 20 1011 49 10000 5.7 70 19:21 19.04.2020
5469 Clouds 20 1011 49 10000 5.7 70 18:57 19.04.2020
5470 Clouds 20 1011 49 10000 5.7 80 18:39 19.04.2020
5471 Clouds 20 1011 49 10000 5.7 80 18:19 19.04.2020
5472 Clouds 21 1011 46 10000 6.2 70 17:56 19.04.2020
5473 Clouds 21 1011 43 10000 4.6 80 17:38 19.04.2020
5474 Clouds 21 1011 43 10000 4.6 80 17:19 19.04.2020
5475 Clouds 21 1011 46 10000 4.6 60 16:54 19.04.2020
5476 Clouds 21 1012 46 10000 4.6 90 16:36 19.04.2020
5477 Clouds 21 1012 49 10000 5.7 110 16:18 19.04.2020
5478 Clouds 21 1013 46 10000 4.6 80 15:41 19.04.2020
5479 Clouds 21 1013 46 10000 4.6 80 15:20 19.04.2020
5480 Clouds 20 1013 49 10000 5.1 70 14:54 19.04.2020
5481 Clouds 19 1013 43 10000 4.6 100 14:36 19.04.2020
5482 Clouds 19 1013 49 10000 4.1 80 14:18 19.04.2020
5483 Clouds 18 1013 55 10000 4.1 70 13:38 19.04.2020
5484 Clouds 18 1013 55 10000 4.1 70 13:19 19.04.2020
5485 Clouds 17 1014 52 10000 3.1 100 12:49 19.04.2020
5486 Clouds 18 1014 52 10000 2.6 0 12:49 19.04.2020
5487 Clouds 17 1014 52 10000 3.1 100 12:25 19.04.2020
5488 Clouds 17 1015 52 10000 1.5 0 11:55 19.04.2020
5489 Clouds 17 1015 59 10000 1 0 11:37 19.04.2020
5490 Clouds 16 1015 59 10000 1.5 0 11:18 19.04.2020
5491 Clouds 15 1015 59 10000 1.5 0 10:55 19.04.2020
5492 Clouds 15 1015 59 10000 1.5 0 10:55 19.04.2020
5493 Clouds 15 1015 67 10000 0.5 0 10:37 19.04.2020
5494 Clouds 15 1016 67 10000 1 0 10:18 19.04.2020
5495 Clouds 13 1016 71 10000 0.5 0 09:43 19.04.2020
5496 Clouds 14 1016 71 10000 0.5 0 09:25 19.04.2020
5497 Clouds 11 1016 93 10000 1 280 08:40 19.04.2020
5498 Clouds 11 1016 93 10000 1 280 08:21 19.04.2020
5499 Clouds 11 1016 87 10000 1 0 07:58 19.04.2020
5500 Clouds 11 1016 87 10000 0.5 0 07:39 19.04.2020
5501 Clouds 11 1016 87 10000 1 0 07:21 19.04.2020
5502 Clouds 11 1016 87 10000 0.5 0 06:27 19.04.2020
5503 Clouds 11 1016 87 10000 0.5 0 05:46 19.04.2020
5504 Clouds 9 1016 93 10000 1.5 280 04:22 19.04.2020
5505 Clouds 10 1016 87 10000 1 0 02:55 19.04.2020
5506 Clouds 10 1016 93 10000 0.5 0 02:20 19.04.2020
5507 Clouds 11 1017 93 10000 1 0 01:37 19.04.2020
5508 Clouds 13 1017 87 10000 1.5 0 00:41 19.04.2020
5509 Clouds 12 1017 87 10000 1.5 0 00:22 19.04.2020
5510 Clouds 13 1017 82 10000 1.5 160 23:44 18.04.2020
5511 Rain 15 1017 77 10000 0.5 0 23:21 18.04.2020
5512 Rain 15 1017 77 10000 0.5 0 22:57 18.04.2020
5513 Rain 15 1016 77 10000 2.6 120 22:38 18.04.2020
5514 Rain 15 1016 77 10000 2.6 120 22:20 18.04.2020
5515 Clouds 18 1015 55 10000 2.1 20 21:56 18.04.2020
5516 Clouds 18 1015 52 10000 2.1 90 21:37 18.04.2020
5517 Clouds 18 1015 52 10000 2.1 90 21:19 18.04.2020
5518 Clouds 20 1014 45 10000 4.6 80 20:40 18.04.2020
5519 Clouds 21 1014 40 10000 5.1 60 20:21 18.04.2020
5520 Clouds 22 1013 37 10000 3.1 80 19:44 18.04.2020
5521 Clouds 22 1013 37 10000 3.1 80 19:44 18.04.2020
5522 Rain 19 1013 37 10000 3.1 80 19:25 18.04.2020
5523 Clouds 22 1013 37 10000 5.1 80 18:59 18.04.2020
5524 Clouds 22 1013 35 10000 4.6 70 18:37 18.04.2020
5525 Clouds 22 1013 35 10000 4.6 70 18:19 18.04.2020
5526 Clouds 23 1013 33 10000 5.7 60 17:41 18.04.2020
5527 Clouds 23 1013 33 10000 5.7 60 17:21 18.04.2020
5528 Clouds 25 1013 27 10000 1.5 0 16:57 18.04.2020
5529 Clouds 25 1013 27 10000 2.1 0 16:37 18.04.2020
5530 Clouds 25 1013 27 10000 2.1 0 16:19 18.04.2020
5531 Clouds 25 1013 29 10000 3.6 40 15:39 18.04.2020
5532 Clouds 25 1013 29 10000 3.6 40 15:21 18.04.2020
5533 Clouds 24 1014 33 10000 1.5 360 14:46 18.04.2020
5534 Clouds 24 1014 33 10000 1.5 360 14:27 18.04.2020
5535 Clouds 23 1014 33 10000 1.5 300 13:56 18.04.2020
5536 Clouds 22 1015 35 10000 1.5 0 13:38 18.04.2020
5537 Clouds 21 1015 37 10000 1 0 13:19 18.04.2020
5538 Clouds 19 1016 40 10000 1 0 12:41 18.04.2020
5539 Clouds 19 1016 40 10000 1 0 12:22 18.04.2020
5540 Clouds 17 1017 45 10000 1.5 0 11:43 18.04.2020
5541 Clouds 16 1017 51 10000 1.5 0 11:25 18.04.2020
5542 Clouds 16 1017 51 10000 1.5 0 10:58 18.04.2020
5543 Clouds 15 1017 54 10000 1 0 10:39 18.04.2020
5544 Clouds 13 1018 62 10000 1 0 10:19 18.04.2020
5545 Clouds 14 1018 62 10000 1 0 09:55 18.04.2020
5546 Clouds 13 1018 66 10000 2.1 250 09:37 18.04.2020
5547 Clouds 12 1018 66 10000 2.1 250 09:18 18.04.2020
5548 Clouds 9 1018 76 10000 1 0 08:39 18.04.2020
5549 Clouds 11 1018 76 10000 1 0 08:20 18.04.2020
5550 Clouds 10 1017 76 10000 1 0 07:38 18.04.2020
5551 Clouds 10 1017 76 10000 1 0 07:19 18.04.2020
5552 Clouds 8 1017 75 10000 1.5 240 06:29 18.04.2020
5553 Clouds 10 1016 71 10000 1 0 05:42 18.04.2020
5554 Clouds 10 1016 71 10000 1.5 280 04:47 18.04.2020
5555 Clouds 10 1016 71 10000 1.5 280 04:27 18.04.2020
5556 Clouds 11 1016 71 10000 1.5 270 02:51 18.04.2020
5557 Clouds 12 1016 66 10000 0.5 0 02:23 18.04.2020
5558 Clouds 13 1016 62 10000 1.5 230 01:58 18.04.2020
5559 Clouds 15 1016 51 10000 1.5 130 01:35 18.04.2020
5560 Clouds 15 1016 51 10000 1.5 130 01:35 18.04.2020
5561 Clouds 17 1015 42 10000 2.6 110 00:44 18.04.2020
5562 Clouds 17 1015 42 10000 2.6 110 00:22 18.04.2020
5563 Clouds 17 1015 42 10000 2.6 110 00:22 18.04.2020
5564 Clouds 16 1015 44 10000 1 0 23:55 17.04.2020
5565 Clouds 17 1015 45 10000 1.5 60 23:37 17.04.2020
5566 Clouds 16 1015 51 10000 1.5 0 23:18 17.04.2020
5567 Clouds 16 1015 51 10000 1.5 0 22:56 17.04.2020
5568 Clouds 16 1015 51 10000 1 0 22:37 17.04.2020
5569 Clouds 16 1015 51 10000 1 0 22:18 17.04.2020
5570 Clouds 18 1014 45 10000 2.1 270 21:42 17.04.2020
5571 Clouds 18 1014 45 10000 2.1 270 21:21 17.04.2020
5572 Clouds 20 1014 40 10000 3.6 50 20:56 17.04.2020
5573 Clouds 22 1013 30 10000 5.7 70 20:38 17.04.2020
5574 Clouds 22 1013 30 10000 5.7 70 20:19 17.04.2020
5575 Clouds 21 1013 35 10000 4.1 50 19:57 17.04.2020
5576 Clouds 22 1012 33 10000 6.2 60 19:38 17.04.2020
5577 Clouds 22 1012 33 10000 6.2 60 19:20 17.04.2020
5578 Clouds 25 1012 20 10000 1 0 18:44 17.04.2020
5579 Clouds 25 1012 20 10000 1 0 18:23 17.04.2020
5580 Clouds 25 1012 20 10000 1 0 18:23 17.04.2020
5581 Clouds 26 1012 22 10000 1 0 17:55 17.04.2020
5582 Clouds 25 1012 25 10000 2.1 280 17:36 17.04.2020
5583 Clouds 25 1012 25 10000 2.1 280 17:18 17.04.2020
5584 Clouds 25 1013 20 10000 1.5 0 16:41 17.04.2020
5585 Clouds 25 1013 20 10000 1.5 0 16:41 17.04.2020
5586 Clouds 25 1013 20 10000 1.5 0 16:22 17.04.2020
5587 Clouds 25 1013 23 10000 1.5 0 15:41 17.04.2020
5588 Clouds 23 1013 23 10000 1.5 0 15:23 17.04.2020
5589 Clouds 22 1014 25 10000 2.6 100 14:56 17.04.2020
5590 Clouds 22 1014 23 10000 1 0 14:37 17.04.2020
5591 Clouds 21 1015 28 10000 0.5 0 14:19 17.04.2020
5592 Clouds 20 1016 30 10000 1 0 13:41 17.04.2020
5593 Clouds 20 1016 30 10000 1 0 13:21 17.04.2020
5594 Clouds 19 1016 30 10000 1 0 12:58 17.04.2020
5595 Clouds 20 1017 34 10000 1 0 12:40 17.04.2020
5596 Clouds 19 1017 34 10000 1 0 12:21 17.04.2020
5597 Clouds 17 1018 38 10000 3.1 270 11:40 17.04.2020
5598 Clouds 16 1018 44 10000 3.1 260 11:19 17.04.2020
5599 Clouds 15 1018 50 10000 2.6 270 10:44 17.04.2020
5600 Clouds 14 1018 50 10000 2.6 270 10:24 17.04.2020
5601 Clouds 13 1019 54 10000 2.6 280 09:59 17.04.2020
5602 Clouds 11 1019 66 10000 2.1 250 09:40 17.04.2020
5603 Clouds 10 1019 66 10000 2.1 250 09:20 17.04.2020
5604 Clouds 9 1020 66 10000 1.5 260 08:49 17.04.2020
5605 Clouds 8 1020 75 10000 1.5 260 08:28 17.04.2020
5606 Clouds 7 1020 75 10000 1 300 07:59 17.04.2020
5607 Clouds 7 1020 75 10000 1 300 07:41 17.04.2020
5608 Clouds 6 1019 80 10000 1.5 0 07:19 17.04.2020
5609 Clouds 7 1019 81 10000 1 290 06:45 17.04.2020
5610 Clouds 7 1019 81 10000 1.5 290 06:20 17.04.2020
5611 Clouds 8 1019 75 10000 1 260 03:36 17.04.2020
5612 Clouds 6 1019 75 10000 1.5 240 03:18 17.04.2020
5613 Clouds 7 1019 66 10000 1 0 01:52 17.04.2020
5614 Clouds 7 1018 70 10000 0.5 0 01:22 17.04.2020
5615 Clouds 8 1018 66 10000 1 0 00:26 17.04.2020
5616 Clouds 9 1018 62 10000 0.5 0 23:55 16.04.2020
5617 Clouds 9 1018 62 10000 0.5 0 23:37 16.04.2020
5618 Clouds 9 1017 58 10000 0.5 0 23:19 16.04.2020
5619 Clouds 10 1017 58 10000 0.5 0 22:41 16.04.2020
5620 Clouds 11 1017 50 10000 1 0 22:23 16.04.2020
5621 Clouds 12 1017 47 10000 1 0 21:59 16.04.2020
5622 Clouds 14 1017 47 10000 1 0 21:41 16.04.2020
5623 Clouds 14 1017 47 10000 1 0 21:41 16.04.2020
5624 Clouds 14 1017 47 10000 1 0 21:41 16.04.2020
5625 Clouds 14 1016 44 10000 1 0 21:20 16.04.2020
5626 Clouds 18 1016 36 10000 1.5 90 20:43 16.04.2020
5627 Clouds 16 1015 34 10000 3.1 60 20:23 16.04.2020
5628 Clouds 21 1015 30 10000 5.1 70 20:00 16.04.2020
5629 Clouds 21 1015 30 10000 5.1 70 19:40 16.04.2020
5630 Clouds 21 1015 32 10000 5.7 60 19:20 16.04.2020
5631 Clouds 22 1015 30 10000 4.6 70 18:57 16.04.2020
5632 Clouds 22 1015 30 10000 4.6 70 18:39 16.04.2020
5633 Clouds 22 1015 30 10000 5.7 60 18:20 16.04.2020
5634 Clouds 22 1015 30 10000 5.1 70 17:45 16.04.2020
5635 Clouds 23 1015 23 10000 4.1 60 17:26 16.04.2020
5636 Clouds 24 1015 25 10000 3.1 90 17:00 16.04.2020
5637 Clouds 24 1015 25 10000 3.1 90 17:00 16.04.2020
5638 -273 0 0 0 0 0 16:59 16.04.2020
5639 Clouds 24 1015 25 10000 3.1 90 16:41 16.04.2020
5640 Clouds 23 1015 22 10000 1 0 16:19 16.04.2020
5641 Clouds 23 1015 22 10000 1 0 16:19 16.04.2020
5642 Clouds 22 1015 17 10000 1.5 340 15:42 16.04.2020
5643 Clouds 22 1016 17 10000 0.5 0 15:19 16.04.2020
5644 Clouds 21 1016 23 10000 0.5 0 14:58 16.04.2020
5645 Clouds 22 1016 23 10000 0.5 0 14:39 16.04.2020
5646 Clouds 21 1016 28 10000 1 0 14:19 16.04.2020
5647 Clouds 20 1017 25 10000 1.5 260 13:56 16.04.2020
5648 Clouds 20 1017 25 10000 1.5 260 13:36 16.04.2020
5649 Clouds 19 1017 28 10000 2.1 270 13:18 16.04.2020
5650 Clouds 19 1018 30 10000 3.6 260 12:56 16.04.2020
5651 Clouds 18 1018 30 10000 3.6 260 12:37 16.04.2020
5652 Clouds 17 1018 32 10000 4.6 260 12:18 16.04.2020
5653 Clouds 16 1019 36 10000 5.1 260 11:42 16.04.2020
5654 Clouds 16 1019 38 10000 5.7 270 11:22 16.04.2020
5655 Clouds 15 1020 41 10000 5.7 260 10:57 16.04.2020
5656 Clouds 14 1020 41 10000 5.7 260 10:39 16.04.2020
5657 Clouds 13 1020 47 10000 5.1 260 10:19 16.04.2020
5658 Clouds 11 1021 46 10000 4.1 270 09:57 16.04.2020
5659 Clouds 10 1021 46 10000 4.1 270 09:38 16.04.2020
5660 Clouds 8 1021 57 10000 1.5 240 09:19 16.04.2020
5661 Clouds 7 1021 35 10000 2.1 250 08:41 16.04.2020
5662 Clouds 5 1022 75 10000 2.1 260 08:22 16.04.2020
5663 Clouds 5 1022 69 10000 1.5 310 07:46 16.04.2020
5664 Clouds 4 1022 74 10000 1.5 270 07:26 16.04.2020
5665 Clouds 3 1022 74 10000 1 0 06:44 16.04.2020
5666 Clouds 3 1022 74 10000 1.5 200 06:25 16.04.2020
5667 Clouds 4 1021 42 10000 2.6 260 05:34 16.04.2020
5668 Clouds 5 1022 42 10000 1 0 03:59 16.04.2020
5669 Clouds 4 1022 60 10000 1.5 210 03:23 16.04.2020
5670 Clouds 4 1022 65 10000 1 0 02:47 16.04.2020
5671 Clouds 4 1022 41 10000 1 0 02:28 16.04.2020
5672 Clouds 4 1022 41 10000 0.5 0 01:19 16.04.2020
5673 Clouds 5 1022 40 10000 3.6 260 00:32 16.04.2020
5674 Clouds 7 1022 43 10000 1.5 100 23:59 15.04.2020
5675 Clouds 7 1022 43 10000 1.5 100 23:41 15.04.2020
5676 Clouds 7 1022 43 10000 1.5 70 23:21 15.04.2020
5677 Clouds 9 1022 40 10000 2.6 110 22:41 15.04.2020
5678 Clouds 8 1022 40 10000 2.6 150 22:22 15.04.2020
5679 Clouds 9 1022 40 10000 2.1 170 21:59 15.04.2020
5680 Clouds 9 1022 40 10000 2.1 170 21:41 15.04.2020
5681 Clouds 14 1021 35 10000 2.1 90 21:23 15.04.2020
5682 Clouds 15 1021 30 10000 3.1 80 20:58 15.04.2020
5683 Clouds 15 1021 30 10000 3.1 80 20:40 15.04.2020
5684 Clouds 15 1021 30 10000 3.1 80 20:40 15.04.2020
5685 Clouds 14 1020 26 10000 3.6 80 20:22 15.04.2020
5686 Clouds 17 1020 29 10000 4.6 50 19:46 15.04.2020
5687 Clouds 17 1020 29 10000 4.6 50 19:46 15.04.2020
5688 Clouds 18 1020 27 10000 3.6 60 19:21 15.04.2020
5689 Clouds 19 1020 41 10000 2.6 60 18:57 15.04.2020
5690 Clouds 19 1020 41 10000 2.6 60 18:39 15.04.2020
5691 Clouds 17 1020 22 10000 2.6 80 18:21 15.04.2020
5692 Clouds 18 1020 20 10000 2.6 80 17:54 15.04.2020
5693 Clouds 18 1020 20 10000 2.6 80 17:36 15.04.2020
5694 Clouds 18 1020 20 10000 2.6 80 17:36 15.04.2020
5695 Clouds 17 1020 19 10000 2.6 90 17:18 15.04.2020
5696 Clouds 18 1021 22 10000 3.1 80 16:54 15.04.2020
5697 Clouds 18 1021 22 10000 3.1 80 16:36 15.04.2020
5698 Clouds 17 1021 25 10000 2.6 110 16:18 15.04.2020
5699 Clouds 17 1021 20 10000 2.6 90 15:55 15.04.2020
5700 Clouds 17 1021 20 10000 2.6 90 15:36 15.04.2020
5701 Clouds 16 1022 25 10000 2.1 0 15:18 15.04.2020
5702 Clouds 16 1022 23 10000 2.6 110 14:41 15.04.2020
5703 Clear 15 1022 26 10000 1.5 0 14:23 15.04.2020
5704 Clear 15 1023 33 10000 1.5 0 13:59 15.04.2020
5705 Clear 15 1023 33 10000 1.5 0 13:40 15.04.2020
5706 Clear 13 1023 32 10000 1.5 0 13:21 15.04.2020
5707 Clear 12 1023 37 10000 1 0 12:58 15.04.2020
5708 Clear 12 1023 37 10000 1 0 12:39 15.04.2020
5709 Clear 11 1024 37 10000 1 0 12:21 15.04.2020
5710 Clear 10 1024 42 10000 1 0 11:57 15.04.2020
5711 Clear 9 1024 42 10000 1 0 11:38 15.04.2020
5712 Clear 8 1025 49 10000 2.6 270 11:20 15.04.2020
5713 Clear 7 1025 52 10000 3.1 260 10:38 15.04.2020
5714 Clear 6 1025 56 10000 3.6 260 10:19 15.04.2020
5715 Clear 4 1025 64 10000 4.6 290 09:56 15.04.2020
5716 Clear 6 1025 64 10000 4.6 290 09:38 15.04.2020
5717 Clear 2 1025 69 10000 3.6 270 09:19 15.04.2020
5718 Clear 1 1025 69 10000 2.1 260 08:42 15.04.2020
5719 Clear 0 1026 74 10000 1 0 08:23 15.04.2020
5720 Clear 0 1026 41 10000 1 0 07:58 15.04.2020
5721 Clear -1 1025 80 10000 1 0 07:39 15.04.2020
5722 -273 0 0 0 0 0 06:59 15.04.2020
5723 Clear -2 1024 80 10000 1.5 260 06:24 15.04.2020
5724 Clear -2 1024 54 10000 1 0 05:34 15.04.2020
5725 Clear -2 1025 79 10000 2.6 270 04:47 15.04.2020
5726 Clear -1 1025 54 10000 0.5 0 04:18 15.04.2020
5727 Clear -1 1025 58 10000 0.5 0 03:22 15.04.2020
5728 Clear -1 1025 58 10000 1.14 184 02:45 15.04.2020
5729 Clear 0 1025 74 10000 1.5 170 01:51 15.04.2020
5730 Clear -1 1025 74 10000 0.5 0 01:25 15.04.2020
5731 Clear 0 1025 69 10000 0.5 0 00:47 15.04.2020
5732 Clear 0 1025 69 10000 1 0 00:24 15.04.2020
5733 Clear 0 1024 69 10000 0.5 0 23:55 14.04.2020
5734 Clear 0 1024 69 10000 0.5 0 23:37 14.04.2020
5735 Clear 1 1024 64 10000 0.5 0 23:19 14.04.2020
5736 Clouds 1 1024 64 10000 1 0 22:56 14.04.2020
5737 Clouds 1 1024 64 10000 1 0 22:38 14.04.2020
5738 Clouds 2 1024 60 10000 0.5 0 22:20 14.04.2020
5739 Clouds 3 1024 56 10000 1.5 170 21:56 14.04.2020
5740 Clouds 4 1024 56 10000 1.5 170 21:37 14.04.2020
5741 Clouds 4 1023 48 10000 2.6 110 21:19 14.04.2020
5742 Clouds 4 1023 48 10000 2.1 90 20:55 14.04.2020
5743 Clouds 5 1022 48 10000 3.6 80 20:36 14.04.2020
5744 Clouds 5 1022 48 10000 3.6 80 20:18 14.04.2020
5745 Clouds 5 1022 45 10000 6.2 80 19:41 14.04.2020
5746 Clouds 6 1021 45 10000 5.7 80 19:22 14.04.2020
5747 Clouds 7 1021 45 10000 6.2 90 18:57 14.04.2020
5748 Clouds 7 1021 45 10000 6.2 90 18:39 14.04.2020
5749 Clouds 7 1021 45 10000 7.7 80 18:21 14.04.2020
5750 Clouds 7 1020 39 10000 7.7 80 17:58 14.04.2020
5751 Clouds 7 1020 39 10000 7.7 80 17:38 14.04.2020
5752 Clouds 7 1020 39 10000 6.7 70 17:19 14.04.2020
5753 Clouds 7 1020 39 10000 6.7 70 17:19 14.04.2020
5754 Clouds 7 1020 39 10000 6.7 70 17:19 14.04.2020
5755 Clouds 8 1019 43 10000 6.2 70 16:55 14.04.2020
5756 Clouds 7 1019 43 10000 6.2 70 16:37 14.04.2020
5757 Clouds 7 1019 43 10000 6.2 90 16:19 14.04.2020
5758 Clouds 7 1019 46 10000 6.7 70 15:42 14.04.2020
5759 Clouds 7 1019 45 10000 7.2 60 15:23 14.04.2020
5760 Clouds 7 1020 45 10000 6.7 80 14:59 14.04.2020
5761 Clouds 7 1020 45 10000 6.7 80 14:41 14.04.2020
5762 Clouds 7 1019 45 10000 6.7 70 14:22 14.04.2020
5763 Clouds 6 1019 45 10000 6.2 90 13:57 14.04.2020
5764 Clouds 6 1019 45 10000 6.2 90 13:39 14.04.2020
5765 Clouds 6 1019 40 10000 4.6 60 13:21 14.04.2020
5766 Clouds 6 1019 49 10000 3.1 0 12:42 14.04.2020
5767 Clouds 5 1019 52 10000 3.6 70 12:21 14.04.2020
5768 Clouds 5 1019 61 10000 3.6 80 11:56 14.04.2020
5769 Clouds 5 1019 61 10000 3.6 80 11:37 14.04.2020
5770 Clouds 4 1019 50 10000 2.1 290 11:19 14.04.2020
5771 Clouds 3 1019 50 10000 1.5 180 10:45 14.04.2020
5772 Clouds 3 1019 50 10000 2.6 50 10:26 14.04.2020
5773 Clouds 3 1019 65 10000 3.6 110 09:55 14.04.2020
5774 Clouds 3 1019 65 10000 3.6 110 09:37 14.04.2020
5775 Snow 1 1027 90 0 0.89 318 09:19 14.04.2020
5776 Snow 1 1027 93 0 3.19 352 08:41 14.04.2020
5777 Clouds 2 1018 75 10000 0.5 0 08:23 14.04.2020
5778 Clouds 2 1018 80 10000 0.5 0 07:55 14.04.2020
5779 Clouds 2 1018 80 10000 1 0 07:31 14.04.2020
5780 Clouds 2 1018 80 10000 2.1 300 06:53 14.04.2020
5781 Clouds 2 1018 80 10000 1.5 270 06:27 14.04.2020
5782 Clouds 2 1018 80 10000 4.1 80 04:48 14.04.2020
5783 Rain 3 1023 92 0 2.74 350 03:00 14.04.2020
5784 Rain 5 1015 81 10000 1 0 02:18 14.04.2020
5785 Rain 5 1015 87 10000 2.1 140 01:25 14.04.2020
5786 Rain 6 1015 81 10000 3.1 70 00:39 14.04.2020
5787 Rain 8 1014 62 10000 4.6 90 00:19 14.04.2020
5788 Rain 9 1014 62 10000 4.6 90 23:45 13.04.2020
5789 Rain 8 1015 88 0 2.37 348 23:26 13.04.2020
5790 Clouds 9 1013 62 10000 1.5 140 22:59 13.04.2020
5791 Clouds 9 1013 62 10000 1.5 140 22:41 13.04.2020
5792 Clouds 10 1013 54 10000 0.5 0 22:22 13.04.2020
5793 Clouds 10 1013 54 10000 1.5 140 21:56 13.04.2020
5794 Clouds 10 1013 54 10000 1.5 140 21:37 13.04.2020
5795 Clouds 11 1012 50 10000 1.5 250 21:19 13.04.2020
5796 Clouds 12 1012 47 10000 2.1 290 20:55 13.04.2020
5797 Clouds 12 1012 47 10000 2.1 290 20:55 13.04.2020
5798 Rain 13 1012 44 10000 2.1 110 20:37 13.04.2020
5799 Rain 13 1012 44 10000 2.1 110 20:18 13.04.2020
5800 Rain 14 1012 41 10000 4.6 90 19:39 13.04.2020
5801 Rain 14 1012 41 10000 4.6 90 19:39 13.04.2020
5802 Rain 14 1012 41 10000 4.6 90 19:39 13.04.2020
5803 Clouds 14 1012 39 10000 5.1 90 19:20 13.04.2020
5804 Clouds 15 1012 36 10000 5.1 70 18:59 13.04.2020
5805 Clouds 15 1012 36 10000 5.1 70 18:39 13.04.2020
5806 Clouds 15 1012 34 10000 2.1 70 18:20 13.04.2020
5807 Clouds 16 1012 34 10000 1.5 360 17:58 13.04.2020
5808 Clouds 16 1012 34 10000 1.5 360 17:39 13.04.2020
5809 Clouds 16 1012 37 10000 3.6 280 17:20 13.04.2020
5810 Clouds 16 1012 32 10000 1 0 16:58 13.04.2020
5811 Clouds 16 1012 32 10000 1 0 16:40 13.04.2020
5812 Clouds 16 1012 34 10000 2.6 60 16:21 13.04.2020
5813 Clouds 17 1012 37 10000 3.1 50 15:58 13.04.2020
5814 Clouds 17 1012 37 10000 3.1 50 15:40 13.04.2020
5815 Clouds 17 1013 36 10000 4.6 90 15:21 13.04.2020
5816 Rain 16 1013 31 10000 4.6 350 14:56 13.04.2020
5817 Rain 16 1013 31 10000 4.6 350 14:38 13.04.2020
5818 Rain 16 1013 32 10000 5.7 90 14:20 13.04.2020
5819 Rain 16 1013 34 10000 3.1 20 13:55 13.04.2020
5820 Rain 16 1013 34 10000 3.1 20 13:37 13.04.2020
5821 Clouds 17 1013 30 10000 1 0 13:18 13.04.2020
5822 Clouds 18 1013 32 10000 1 0 12:56 13.04.2020
5823 Clouds 17 1013 32 10000 1 0 12:38 13.04.2020
5824 Clouds 16 1014 36 10000 2.1 270 12:19 13.04.2020
5825 Clouds 16 1014 42 10000 1.5 280 11:43 13.04.2020
5826 Clouds 16 1015 38 10000 2.6 260 11:19 13.04.2020
5827 Clouds 14 1015 47 10000 3.6 270 10:56 13.04.2020
5828 Clouds 14 1015 47 10000 3.6 270 10:38 13.04.2020
5829 Clouds 13 1015 50 10000 4.1 270 10:19 13.04.2020
5830 Clouds 13 1016 47 10000 4.1 260 09:55 13.04.2020
5831 Clouds 12 1016 47 10000 4.1 260 09:36 13.04.2020
5832 Clouds 12 1016 50 10000 2.1 270 09:18 13.04.2020
5833 Clouds 10 1016 54 10000 0.5 0 08:42 13.04.2020
5834 Clouds 9 1016 61 10000 0.5 0 08:24 13.04.2020
5835 Clouds 9 1015 61 10000 0.5 0 07:42 13.04.2020
5836 Clouds 9 1015 57 10000 1.5 220 07:24 13.04.2020
5837 Clouds 9 1015 65 10000 2.6 280 06:47 13.04.2020
5838 Clouds 8 1015 61 10000 2.6 250 06:25 13.04.2020
5839 Clouds 8 1015 61 10000 1.5 260 05:38 13.04.2020
5840 Rain 8 1015 70 10000 2.6 270 05:18 13.04.2020
5841 Rain 10 1015 61 10000 4.1 270 04:24 13.04.2020
5842 Rain 9 1015 53 10000 4.1 250 03:49 13.04.2020
5843 Rain 9 1015 61 10000 3.6 260 02:59 13.04.2020
5844 Rain 9 1015 61 10000 3.6 260 02:38 13.04.2020
5845 Clouds 10 1015 50 10000 2.1 0 01:44 13.04.2020
5846 Clouds 10 1015 50 10000 1 0 01:25 13.04.2020
5847 Clouds 11 1015 44 10000 2.1 260 00:43 13.04.2020
5848 Clouds 11 1015 47 10000 2.6 260 00:21 13.04.2020
5849 Clouds 11 1015 47 10000 1.5 300 23:49 12.04.2020
5850 Clouds 13 1014 29 10000 2.1 0 23:23 12.04.2020
5851 Clouds 13 1014 27 10000 4.1 140 22:59 12.04.2020
5852 Clouds 18 1014 27 10000 4.1 140 22:38 12.04.2020
5853 Clouds 18 1014 49 10000 3.6 130 22:19 12.04.2020
5854 Clouds 18 1014 49 10000 3.6 130 22:19 12.04.2020
5855 Clouds 17 1014 39 10000 1.5 0 21:41 12.04.2020
5856 Clouds 17 1014 39 10000 3.1 270 21:22 12.04.2020
5857 Clouds 18 1013 36 10000 1.5 200 20:59 12.04.2020
5858 Clouds 18 1013 36 10000 1.5 200 20:40 12.04.2020
5859 Clouds 19 1013 32 10000 1.5 140 20:22 12.04.2020
5860 Clouds 20 1013 32 10000 2.6 180 19:56 12.04.2020
5861 Clouds 20 1013 32 10000 2.6 180 19:56 12.04.2020
5862 Clouds 20 1013 32 10000 2.6 180 19:37 12.04.2020
5863 Clouds 21 1013 26 10000 1.5 160 19:18 12.04.2020
5864 Clouds 22 1013 21 10000 2.1 160 18:41 12.04.2020
5865 Clouds 22 1013 19 10000 1 0 18:22 12.04.2020
5866 Clouds 23 1014 18 10000 1 0 17:57 12.04.2020
5867 Clouds 23 1014 18 10000 1 0 17:38 12.04.2020
5868 Clouds 23 1014 27 10000 1.5 0 17:20 12.04.2020
5869 Clouds 23 1014 23 10000 1.5 0 16:57 12.04.2020
5870 Clouds 23 1014 23 10000 1.5 0 16:38 12.04.2020
5871 Clouds 23 1015 27 10000 1.5 0 16:19 12.04.2020
5872 Clouds 22 1015 26 10000 2.6 270 15:45 12.04.2020
5873 Clouds 21 1016 34 10000 1.5 30 15:27 12.04.2020
5874 Clouds 21 1016 24 10000 2.1 300 14:41 12.04.2020
5875 Clouds 21 1017 26 10000 2.1 280 14:22 12.04.2020
5876 Clouds 20 1017 28 10000 2.1 270 13:59 12.04.2020
5877 Clouds 20 1017 28 10000 2.1 270 13:41 12.04.2020
5878 Clouds 19 1018 34 10000 1.5 300 13:22 12.04.2020
5879 Clouds 18 1018 37 10000 1 0 12:49 12.04.2020
5880 Clouds 17 1019 42 10000 1 0 12:23 12.04.2020
5881 Clouds 17 1019 42 10000 1 0 12:23 12.04.2020
5882 Clouds 16 1020 48 10000 2.1 280 11:59 12.04.2020
5883 Clouds 16 1020 48 10000 2.1 280 11:40 12.04.2020
5884 Clouds 16 1020 48 10000 3.1 270 11:21 12.04.2020
5885 Clouds 15 1020 47 10000 4.1 260 10:58 12.04.2020
5886 Clouds 14 1020 47 10000 4.1 260 10:39 12.04.2020
5887 Clouds 14 1021 54 10000 4.1 260 10:21 12.04.2020
5888 Clouds 14 1021 54 10000 4.1 260 10:21 12.04.2020
5889 Clouds 11 1021 58 10000 2.6 290 09:59 12.04.2020
5890 Clouds 11 1021 58 10000 2.6 290 09:39 12.04.2020
5891 Clouds 9 1022 66 10000 1 0 09:20 12.04.2020
5892 Clouds 8 1022 66 10000 2.1 250 08:51 12.04.2020
5893 Clouds 8 1022 66 10000 2.1 250 08:33 12.04.2020
5894 Clouds 7 1022 75 10000 2.1 270 07:57 12.04.2020
5895 Clouds 8 1022 75 10000 2.1 270 07:39 12.04.2020
5896 Clouds 8 1022 75 10000 0.5 0 07:18 12.04.2020
5897 Clouds 7 1022 81 10000 1.5 270 06:32 12.04.2020
5898 Clouds 7 1022 81 10000 1 260 05:49 12.04.2020
5899 Clouds 7 1022 81 10000 1 270 05:28 12.04.2020
5900 Clouds 7 1023 75 10000 0.5 0 03:34 12.04.2020
5901 Clouds 7 1023 70 10000 1 0 02:55 12.04.2020
5902 Clouds 8 1023 70 10000 1 0 02:33 12.04.2020
5903 Clouds 7 1023 70 10000 1 0 01:34 12.04.2020
5904 Clouds 8 1022 62 10000 0.5 0 00:57 12.04.2020
5905 Clouds 8 1022 62 10000 0.5 0 00:38 12.04.2020
5906 Clear 8 1022 62 10000 0.5 0 00:19 12.04.2020
5907 Clouds 9 1022 58 10000 0.5 0 23:45 11.04.2020
5908 Clouds 9 1022 58 10000 1 0 23:24 11.04.2020
5909 Clouds 11 1022 54 10000 1.5 240 22:41 11.04.2020
5910 Clouds 11 1022 47 10000 1.5 0 22:22 11.04.2020
5911 Clouds 12 1022 51 10000 1.5 260 21:57 11.04.2020
5912 Clouds 13 1022 51 10000 1.5 260 21:37 11.04.2020
5913 Clouds 14 1021 42 10000 1.5 60 21:19 11.04.2020
5914 Clouds 14 1020 42 10000 3.6 40 20:57 11.04.2020
5915 Clouds 15 1020 42 10000 3.6 40 20:39 11.04.2020
5916 Clouds 16 1020 39 10000 4.1 60 20:20 11.04.2020
5917 Clouds 17 1020 37 10000 5.7 70 19:58 11.04.2020
5918 Clouds 19 1020 37 10000 5.7 70 19:38 11.04.2020
5919 Clouds 20 1020 37 10000 4.1 50 19:19 11.04.2020
5920 Clouds 21 1020 28 10000 4.6 80 18:56 11.04.2020
5921 Clouds 21 1020 28 10000 4.6 80 18:38 11.04.2020
5922 Clouds 21 1020 28 10000 4.6 80 18:38 11.04.2020
5923 Clouds 22 1019 26 10000 4.1 90 18:19 11.04.2020
5924 Clouds 22 1019 26 10000 4.1 60 17:58 11.04.2020
5925 Clouds 22 1019 26 10000 4.1 60 17:40 11.04.2020
5926 Clouds 22 1020 28 10000 3.1 0 17:20 11.04.2020
5927 Clouds 22 1020 28 10000 1.5 0 16:43 11.04.2020
5928 Clouds 22 1020 26 10000 2.6 100 16:22 11.04.2020
5929 Clouds 22 1021 26 10000 2.1 0 15:59 11.04.2020
5930 Clouds 22 1021 26 10000 2.1 0 15:59 11.04.2020
5931 Clouds 22 1021 26 10000 2.1 0 15:36 11.04.2020
5932 Clouds 20 1021 28 10000 1.5 0 15:18 11.04.2020
5933 Clouds 20 1021 28 10000 1.5 0 14:42 11.04.2020
5934 Clouds 19 1022 32 10000 1.5 0 14:23 11.04.2020
5935 Clouds 19 1022 32 10000 1.5 0 13:59 11.04.2020
5936 Clouds 19 1022 32 10000 1.5 0 13:38 11.04.2020
5937 Clouds 18 1023 34 10000 1.5 0 13:19 11.04.2020
5938 Clouds 17 1023 39 10000 1 0 12:41 11.04.2020
5939 Clouds 17 1023 39 10000 1 0 12:41 11.04.2020
5940 Clouds 16 1023 42 10000 1 0 12:19 11.04.2020
5941 Clouds 15 1024 44 10000 1.5 250 11:56 11.04.2020
5942 Clouds 15 1024 44 10000 1.5 250 11:38 11.04.2020
5943 Clouds 14 1024 50 10000 2.1 280 11:19 11.04.2020
5944 Clouds 13 1024 50 10000 2.6 270 10:43 11.04.2020
5945 Clouds 11 1025 54 10000 2.6 260 10:22 11.04.2020
5946 Clouds 10 1025 57 10000 2.1 280 09:59 11.04.2020
5947 Clouds 9 1025 57 10000 2.1 280 09:39 11.04.2020
5948 Clouds 9 1025 66 10000 1.5 250 09:21 11.04.2020
5949 Clouds 8 1025 70 10000 2.1 250 08:49 11.04.2020
5950 Clouds 6 1025 81 10000 1 260 08:28 11.04.2020
5951 Clouds 6 1025 80 10000 1.5 250 07:53 11.04.2020
5952 Clouds 6 1025 80 10000 1.5 250 07:34 11.04.2020
5953 Clouds 6 1025 80 10000 1.5 260 06:51 11.04.2020
5954 Clouds 6 1025 86 10000 1 280 06:20 11.04.2020
5955 Clear 6 1024 81 10000 1 260 05:55 11.04.2020
5956 Clear 7 1024 75 10000 0.5 0 03:41 11.04.2020
5957 Clear 7 1024 70 10000 0.5 0 02:37 11.04.2020
5958 Clear 7 1023 66 10000 0.5 0 01:25 11.04.2020
5959 Clear 7 1023 66 10000 0.5 0 00:44 11.04.2020
5960 Clear 8 1023 61 10000 0.5 0 00:20 11.04.2020
5961 Clear 9 1023 57 10000 1 0 23:58 10.04.2020
5962 Clear 9 1023 57 10000 1 0 23:40 10.04.2020
5963 Clear 9 1023 57 10000 1 0 23:19 10.04.2020
5964 Clear 11 1022 47 10000 1 0 22:44 10.04.2020
5965 Clear 11 1022 47 10000 0.5 0 22:23 10.04.2020
5966 Clear 13 1022 38 10000 4.1 250 21:59 10.04.2020
5967 Clear 13 1022 38 10000 4.1 250 21:41 10.04.2020
5968 Clouds 18 1021 34 10000 2.6 330 21:20 10.04.2020
5969 Clouds 18 1021 36 10000 4.6 50 20:55 10.04.2020
5970 Clouds 18 1021 36 10000 4.6 50 20:37 10.04.2020
5971 Clouds 17 1020 34 10000 3.1 70 20:18 10.04.2020
5972 Clouds 20 1020 30 10000 2.6 40 19:41 10.04.2020
5973 Clouds 20 1020 28 10000 3.1 30 19:22 10.04.2020
5974 Clouds 23 1019 23 10000 1 0 18:58 10.04.2020
5975 Clouds 23 1019 23 10000 1 0 18:40 10.04.2020
5976 Clouds 23 1020 29 10000 0.5 0 18:22 10.04.2020
5977 Clouds 23 1020 23 10000 1 0 17:59 10.04.2020
5978 Clouds 23 1020 23 10000 1 0 17:40 10.04.2020
5979 Clouds 21 1020 29 10000 1.5 20 17:21 10.04.2020
5980 Clouds 21 1020 25 10000 1 0 16:59 10.04.2020
5981 Clouds 21 1020 25 10000 1 0 16:41 10.04.2020
5982 Clouds 21 1020 28 10000 0.5 0 16:21 10.04.2020
5983 Clouds 20 1021 26 10000 1.5 0 15:57 10.04.2020
5984 Clouds 20 1021 26 10000 1.5 0 15:38 10.04.2020
5985 Clouds 20 1021 26 10000 1.5 290 15:19 10.04.2020
5986 Clouds 20 1022 26 10000 1.5 0 14:58 10.04.2020
5987 Clouds 20 1022 26 10000 1.5 0 14:39 10.04.2020
5988 Clouds 20 1022 32 10000 1 0 14:19 10.04.2020
5989 Clouds 18 1023 37 10000 1 0 13:43 10.04.2020
5990 Clouds 18 1023 36 10000 1 0 13:22 10.04.2020
5991 Clouds 17 1024 39 10000 1 0 12:45 10.04.2020
5992 Clouds 16 1024 41 10000 1 0 12:25 10.04.2020
5993 Clouds 15 1025 51 10000 1 0 11:59 10.04.2020
5994 Clouds 15 1025 51 10000 1 0 11:40 10.04.2020
5995 Clouds 14 1025 44 10000 1.5 260 11:22 10.04.2020
5996 Clouds 13 1025 54 10000 2.1 250 10:56 10.04.2020
5997 Clouds 13 1025 54 10000 2.1 250 10:37 10.04.2020
5998 Clear 12 1026 57 10000 2.1 270 10:37 10.04.2020
5999 Clear 12 1026 57 10000 2.1 270 10:18 10.04.2020
6000 Clear 9 1026 61 10000 1.5 240 09:42 10.04.2020
6001 Clear 8 1026 66 10000 1.5 250 09:20 10.04.2020
6002 Clear 7 1026 70 10000 1 260 08:47 10.04.2020
6003 Clear 7 1026 75 10000 1 270 08:26 10.04.2020
6004 Clear 6 1026 75 10000 1 260 07:49 10.04.2020
6005 Clear 5 1026 80 10000 1 0 07:28 10.04.2020
6006 Clear 5 1025 80 10000 1 0 06:59 10.04.2020
6007 Clear 6 1025 75 10000 1.5 250 06:30 10.04.2020
6008 Clear 6 1025 75 10000 1.5 250 06:30 10.04.2020
6009 Clear 6 1025 80 10000 1 0 05:56 10.04.2020
6010 Clear 6 1025 80 10000 1.5 280 05:19 10.04.2020
6011 Clear 5 1025 75 10000 0.5 0 03:55 10.04.2020
6012 Clear 5 1025 75 10000 0.5 0 03:32 10.04.2020
6013 Clear 5 1025 75 10000 0.5 0 03:32 10.04.2020
6014 Clouds 7 1025 70 10000 1.5 260 02:50 10.04.2020
6015 Clouds 6 1025 70 10000 1.5 260 02:31 10.04.2020
6016 Clouds 7 1025 66 10000 0.5 0 01:30 10.04.2020
6017 Clouds 8 1025 66 10000 0.5 0 00:55 10.04.2020
6018 Clouds 9 1025 66 10000 0.5 0 00:37 10.04.2020
6019 Clouds 8 1025 61 10000 1 0 00:18 10.04.2020
6020 Clouds 8 1024 61 10000 0.5 0 23:41 09.04.2020
6021 Clouds 9 1024 54 10000 0.5 0 23:20 09.04.2020
6022 Clouds 10 1024 54 10000 1 0 22:54 09.04.2020
6023 Clouds 10 1024 54 10000 1 0 22:36 09.04.2020
6024 Clouds 11 1024 47 10000 1.5 280 22:18 09.04.2020
6025 Clouds 12 1023 41 10000 2.1 250 21:38 09.04.2020
6026 Clouds 13 1023 44 10000 1 0 21:19 09.04.2020
6027 Clouds 14 1022 36 10000 2.6 80 20:45 09.04.2020
6028 Clouds 15 1022 34 10000 3.6 70 20:22 09.04.2020
6029 Clouds 16 1021 36 10000 3.1 20 19:59 09.04.2020
6030 Clouds 16 1021 36 10000 3.1 20 19:59 09.04.2020
6031 Clouds 18 1021 36 10000 3.1 20 19:38 09.04.2020
6032 Clouds 19 1021 36 10000 2.1 40 19:19 09.04.2020
6033 Clouds 20 1021 28 10000 2.1 80 18:42 09.04.2020
6034 Clouds 20 1021 32 10000 3.6 60 18:20 09.04.2020
6035 Clouds 21 1021 28 10000 1.5 0 17:43 09.04.2020
6036 Clouds 19 1021 30 10000 3.1 70 17:24 09.04.2020
6037 Clouds 21 1021 28 10000 3.1 0 17:00 09.04.2020
6038 Clouds 21 1021 28 10000 3.1 0 16:39 09.04.2020
6039 Clouds 21 1022 28 10000 2.6 0 16:19 09.04.2020
6040 Clouds 21 1022 30 10000 3.1 80 15:56 09.04.2020
6041 Clouds 21 1022 30 10000 3.1 80 15:37 09.04.2020
6042 Clouds 21 1022 26 10000 2.1 0 15:19 09.04.2020
6043 Clouds 19 1023 28 10000 1.5 0 14:42 09.04.2020
6044 Clouds 19 1023 30 10000 2.1 0 14:21 09.04.2020
6045 Clouds 19 1023 37 10000 1.5 0 13:57 09.04.2020
6046 Clouds 18 1023 37 10000 1.5 0 13:39 09.04.2020
6047 Clouds 19 1024 42 10000 0.5 0 13:21 09.04.2020
6048 Clouds 16 1024 36 10000 1 0 12:43 09.04.2020
6049 Clouds 17 1024 44 10000 0.5 0 12:24 09.04.2020
6050 Clouds 15 1025 47 10000 1 0 11:59 09.04.2020
6051 Clouds 15 1025 47 10000 1 0 11:59 09.04.2020
6052 Clouds 14 1025 47 10000 1 0 11:41 09.04.2020
6053 Clouds 14 1025 50 10000 2.6 260 11:20 09.04.2020
6054 Clouds 13 1025 57 10000 3.1 280 10:57 09.04.2020
6055 Clouds 11 1025 61 10000 2.1 290 10:39 09.04.2020
6056 Clouds 11 1025 61 10000 2.1 290 10:20 09.04.2020
6057 Clouds 11 1025 61 10000 2.1 260 09:56 09.04.2020
6058 Clouds 10 1025 61 10000 2.1 260 09:38 09.04.2020
6059 Clouds 8 1025 70 10000 1 0 09:19 09.04.2020
6060 Clouds 8 1025 75 10000 0.5 0 08:43 09.04.2020
6061 Clouds 7 1025 75 10000 1 0 08:23 09.04.2020
6062 Clouds 6 1025 75 10000 1 0 07:55 09.04.2020
6063 Clouds 6 1025 80 10000 0.5 0 07:27 09.04.2020
6064 Clouds 6 1024 80 10000 1 260 06:55 09.04.2020
6065 Clouds 7 1024 75 10000 2.1 260 05:59 09.04.2020
6066 Clouds 7 1024 75 10000 2.1 260 05:59 09.04.2020
6067 Clouds 7 1024 75 10000 2.1 260 05:38 09.04.2020
6068 Clouds 7 1024 75 10000 1 270 03:49 09.04.2020
6069 Clouds 9 1024 66 10000 0.5 0 02:25 09.04.2020
6070 Clouds 8 1024 65 10000 0.5 0 01:40 09.04.2020
6071 Clouds 8 1024 66 10000 0.5 0 01:20 09.04.2020
6072 Clouds 8 1024 61 10000 1.5 270 00:41 09.04.2020
6073 Rain 10 1024 61 10000 0.5 0 00:19 09.04.2020
6074 Rain 9 1024 57 10000 0.5 0 23:58 08.04.2020
6075 Rain 9 1024 57 10000 0.5 0 23:40 08.04.2020
6076 Rain 9 1023 54 10000 1 0 23:20 08.04.2020
6077 Clouds 10 1023 54 10000 0.5 0 22:43 08.04.2020
6078 Clouds 11 1023 50 10000 1 0 22:24 08.04.2020
6079 Clouds 12 1023 41 10000 1 0 21:56 08.04.2020
6080 Clouds 13 1022 38 10000 2.1 170 21:37 08.04.2020
6081 Clouds 13 1022 44 10000 3.6 280 21:19 08.04.2020
6082 Clouds 13 1022 44 10000 3.6 280 20:57 08.04.2020
6083 Clouds 16 1021 29 10000 2.6 0 20:38 08.04.2020
6084 Clouds 16 1021 29 10000 2.6 0 20:19 08.04.2020
6085 Clouds 20 1021 32 10000 3.1 40 19:42 08.04.2020
6086 Clouds 22 1021 51 10000 3.1 40 19:22 08.04.2020
6087 Clouds 22 1021 51 10000 3.1 40 18:58 08.04.2020
6088 Clouds 22 1021 51 10000 3.1 40 18:58 08.04.2020
6089 Clouds 22 1021 51 10000 2.1 80 18:40 08.04.2020
6090 Clouds 22 1021 51 10000 2.1 80 18:40 08.04.2020
6091 Clouds 23 1021 20 10000 2.1 110 18:21 08.04.2020
6092 Clouds 23 1021 20 10000 2.1 110 17:44 08.04.2020
6093 Clouds 23 1021 20 10000 1 0 17:22 08.04.2020
6094 Clouds 23 1021 20 10000 1 0 16:59 08.04.2020
6095 Clouds 23 1022 34 10000 2.1 140 16:41 08.04.2020
6096 Clouds 21 1022 34 10000 2.1 140 16:22 08.04.2020
6097 Clouds 20 1023 21 10000 1.5 0 15:40 08.04.2020
6098 Clouds 21 1023 21 10000 1.5 0 15:21 08.04.2020
6099 Clouds 22 1023 21 10000 2.1 0 14:59 08.04.2020
6100 Clouds 22 1023 21 10000 2.1 0 14:41 08.04.2020
6101 Clouds 20 1024 28 10000 1 0 14:22 08.04.2020
6102 Clouds 20 1024 28 10000 1 0 14:22 08.04.2020
6103 Clouds 19 1024 31 10000 1 0 13:45 08.04.2020
6104 Clouds 19 1024 28 10000 0.5 0 13:22 08.04.2020
6105 Clouds 19 1025 32 10000 1 0 12:58 08.04.2020
6106 Clouds 18 1025 32 10000 1 0 12:40 08.04.2020
6107 Clear 17 1026 36 10000 2.1 270 12:18 08.04.2020
6108 Clear 16 1026 41 10000 2.6 270 11:42 08.04.2020
6109 Clear 15 1027 44 10000 3.6 270 11:23 08.04.2020
6110 Clear 15 1027 44 10000 3.6 270 11:23 08.04.2020
6111 Clear 15 1027 47 10000 4.1 270 10:59 08.04.2020
6112 Clear 13 1027 50 10000 2.1 270 10:41 08.04.2020
6113 Clear 13 1027 50 10000 2.1 270 10:21 08.04.2020
6114 Clear 12 1028 53 10000 2.6 300 09:59 08.04.2020
6115 Clear 10 1028 53 10000 2.6 300 09:41 08.04.2020
6116 Clear 8 1028 57 10000 2.6 290 09:19 08.04.2020
6117 Clear 7 1028 65 10000 1.5 280 08:58 08.04.2020
6118 Clear 7 1028 65 10000 1.5 280 08:40 08.04.2020
6119 Clear 5 1028 65 10000 1 0 08:21 08.04.2020
6120 Clear 5 1028 43 10000 2.1 270 07:43 08.04.2020
6121 Clear 5 1028 43 10000 1 0 07:22 08.04.2020
6122 Clear 5 1028 75 10000 1 0 06:32 08.04.2020
6123 Clear 6 1028 75 10000 1 0 04:59 08.04.2020
6124 Clear 5 1028 70 10000 2.1 240 02:51 08.04.2020
6125 Clear 6 1028 70 10000 0.5 0 02:22 08.04.2020
6126 Clear 6 1028 70 10000 0.5 0 02:22 08.04.2020
6127 Clear 7 1028 70 10000 2.1 240 01:56 08.04.2020
6128 Clear 7 1028 70 10000 2.1 240 01:56 08.04.2020
6129 Clear 7 1028 65 10000 2.6 260 01:28 08.04.2020
6130 Clear 7 1028 65 10000 2.6 260 01:28 08.04.2020
6131 Clear 7 1028 61 10000 0.5 0 00:49 08.04.2020
6132 Clear 7 1028 61 10000 0.5 0 00:31 08.04.2020
6133 Clear 8 1028 61 10000 0.5 0 23:57 07.04.2020
6134 Clear 8 1028 61 10000 0.5 0 23:38 07.04.2020
6135 Clear 8 1028 57 10000 0.5 0 23:19 07.04.2020
6136 Clear 9 1027 57 10000 0.5 0 22:56 07.04.2020
6137 Clear 9 1027 57 10000 0.5 0 22:38 07.04.2020
6138 Clear 9 1027 53 10000 1 0 22:18 07.04.2020
6139 Clear 11 1027 50 10000 0.5 0 21:42 07.04.2020
6140 Clear 14 1026 44 10000 1.5 270 21:21 07.04.2020
6141 Clear 15 1026 41 10000 2.1 0 20:59 07.04.2020
6142 Clear 15 1026 41 10000 2.1 0 20:59 07.04.2020
6143 Clear 16 1025 38 10000 3.1 50 20:40 07.04.2020
6144 Clear 15 1025 38 10000 3.1 50 20:21 07.04.2020
6145 Clear 19 1025 32 10000 3.1 40 19:57 07.04.2020
6146 Clear 19 1025 28 10000 4.6 70 19:38 07.04.2020
6147 Clear 19 1025 28 10000 4.6 70 19:38 07.04.2020
6148 Clear 18 1025 28 10000 4.6 70 19:20 07.04.2020
6149 Clear 21 1025 26 10000 4.6 70 18:58 07.04.2020
6150 Clear 21 1025 26 10000 3.6 80 18:40 07.04.2020
6151 Clear 20 1025 26 10000 3.1 80 18:20 07.04.2020
6152 Clear 22 1025 24 10000 3.6 70 17:47 07.04.2020
6153 Clear 22 1025 24 10000 3.6 70 17:24 07.04.2020
6154 Clear 19 1026 26 10000 3.6 80 16:55 07.04.2020
6155 Clear 21 1026 28 10000 3.6 80 16:37 07.04.2020
6156 Clear 19 1026 26 10000 3.6 60 16:19 07.04.2020
6157 Clear 20 1026 26 10000 3.6 60 15:42 07.04.2020
6158 Clear 19 1027 28 10000 3.6 100 15:24 07.04.2020
6159 Clear 19 1027 30 10000 4.1 90 14:43 07.04.2020
6160 Clear 18 1028 34 10000 4.1 80 14:23 07.04.2020
6161 Clear 18 1028 29 10000 3.6 70 13:58 07.04.2020
6162 Clear 18 1028 29 10000 3.6 70 13:39 07.04.2020
6163 Clear 17 1029 31 10000 3.6 60 13:19 07.04.2020
6164 Clear 16 1029 33 10000 1.5 110 12:56 07.04.2020
6165 Clear 16 1030 29 10000 0.5 0 12:37 07.04.2020
6166 Clear 15 1030 37 10000 0.5 0 12:19 07.04.2020
6167 Clear 14 1030 35 10000 1 0 11:45 07.04.2020
6168 Clear 14 1030 37 10000 1 0 11:27 07.04.2020
6169 Clear 12 1031 46 10000 2.6 260 10:59 07.04.2020
6170 Clear 12 1031 46 10000 2.6 260 10:39 07.04.2020
6171 Clear 12 1031 46 10000 2.6 260 10:39 07.04.2020
6172 Clear 11 1031 53 10000 2.1 270 10:20 07.04.2020
6173 Clear 9 1031 37 10000 1.5 260 09:46 07.04.2020
6174 Clouds 6 1031 46 10000 1.5 250 09:20 07.04.2020
6175 Clouds 6 1031 70 10000 1.5 260 08:59 07.04.2020
6176 Clouds 5 1031 70 10000 1.5 260 08:39 07.04.2020
6177 Clouds 5 1031 46 10000 1.5 270 08:20 07.04.2020
6178 Clouds 4 1031 80 10000 1.5 220 07:44 07.04.2020
6179 Clouds 4 1031 80 10000 1 0 07:26 07.04.2020
6180 Clouds 4 1031 74 10000 1 240 06:52 07.04.2020
6181 Clouds 4 1030 47 10000 1.5 230 06:25 07.04.2020
6182 Clouds 4 1030 47 10000 1.5 270 05:50 07.04.2020
6183 Clouds 4 1030 74 10000 1.5 240 05:24 07.04.2020
6184 Clouds 4 1029 47 10000 1 0 03:36 07.04.2020
6185 Clear 6 1029 47 10000 0.5 0 03:18 07.04.2020
6186 Clear 5 1029 47 10000 1 0 02:36 07.04.2020
6187 Clear 7 1028 56 10000 1 0 01:34 07.04.2020
6188 Clear 6 1027 48 10000 1 0 00:53 07.04.2020
6189 Clear 7 1027 49 10000 1 0 00:25 07.04.2020
6190 Clear 7 1027 49 10000 0.5 0 23:41 06.04.2020
6191 Clear 8 1026 46 10000 1.5 250 23:21 06.04.2020
6192 Clear 8 1026 49 10000 1 0 22:54 06.04.2020
6193 Clear 9 1026 49 10000 1 0 22:36 06.04.2020
6194 Clear 9 1026 43 10000 1.5 200 22:18 06.04.2020
6195 Clear 11 1025 40 10000 2.6 210 21:42 06.04.2020
6196 Clear 14 1024 33 10000 2.6 0 21:20 06.04.2020
6197 Clear 14 1024 33 10000 2.6 0 20:57 06.04.2020
6198 Clear 14 1024 33 10000 2.6 0 20:57 06.04.2020
6199 Clear 15 1024 33 10000 2.6 0 20:38 06.04.2020
6200 Clear 16 1023 23 10000 1.5 0 20:20 06.04.2020
6201 Clear 19 1023 22 10000 3.6 150 19:56 06.04.2020
6202 Clear 19 1023 22 10000 3.6 150 19:38 06.04.2020
6203 Clear 18 1022 20 10000 4.1 150 19:20 06.04.2020
6204 Clear 20 1022 16 10000 3.1 140 18:42 06.04.2020
6205 Clear 20 1022 15 10000 4.6 160 18:23 06.04.2020
6206 Clear 22 1022 17 10000 4.6 130 17:57 06.04.2020
6207 Clear 22 1022 17 10000 4.6 130 17:39 06.04.2020
6208 Clear 22 1022 15 10000 3.6 140 17:18 06.04.2020
6209 Clear 22 1022 18 10000 3.6 130 16:48 06.04.2020
6210 Clear 21 1022 16 10000 4.6 150 16:30 06.04.2020
6211 Clear 20 1023 16 10000 4.6 130 14:49 06.04.2020
6212 Clear 20 1023 16 10000 4.6 130 14:49 06.04.2020
6213 Clear 20 1023 16 10000 4.6 130 14:48 06.04.2020
6214 Clear 20 1023 16 10000 4.6 130 14:48 06.04.2020
6215 Clear 20 1023 18 10000 4.1 0 13:44 06.04.2020
6216 Clear 20 1023 18 10000 4.1 0 13:44 06.04.2020
6217 Clear 20 1023 18 10000 4.1 0 13:44 06.04.2020
6218 Clear 19 1023 20 10000 4.6 110 13:22 06.04.2020
6219 Clear 19 1023 20 10000 4.6 110 13:22 06.04.2020
6220 Clear 18 1024 24 10000 2.1 0 12:46 06.04.2020
6221 Clear 18 1024 24 10000 2.1 0 12:46 06.04.2020
6222 Clear 18 1024 24 10000 2.1 0 12:46 06.04.2020
6223 Clear 17 1024 30 10000 4.6 270 12:19 06.04.2020
6224 Clear 16 1024 33 10000 4.6 260 11:40 06.04.2020
6225 Clear 14 1025 30 10000 5.1 270 11:03 06.04.2020
6226 Clear 14 1025 30 10000 5.1 270 11:03 06.04.2020
6227 Clear 14 1025 30 10000 5.1 270 11:03 06.04.2020
6228 Clear 14 1025 30 10000 5.1 270 11:03 06.04.2020
6229 Clear 14 1025 30 10000 5.1 270 11:03 06.04.2020
6230 Clear 13 1025 30 10000 5.7 270 10:37 06.04.2020
6231 Clear 14 1025 30 10000 5.7 270 10:37 06.04.2020
6232 Clear 13 1025 30 10000 5.1 270 10:19 06.04.2020
6233 Clear 13 1025 30 10000 5.1 270 10:19 06.04.2020
6234 Clear 13 1025 30 10000 5.1 270 10:19 06.04.2020
6235 Clear 13 1025 30 10000 5.1 270 10:19 06.04.2020
6236 Clear 10 1025 49 10000 4.1 270 09:39 06.04.2020
6237 Clear 11 1025 49 10000 4.1 270 09:39 06.04.2020
6238 Clear 11 1025 49 10000 4.1 270 09:39 06.04.2020
6239 Clear 7 1025 52 10000 3.6 280 09:19 06.04.2020
6240 Clear 7 1025 52 10000 3.6 280 09:19 06.04.2020
6241 Clear 4 1025 60 10000 3.6 280 08:43 06.04.2020
6242 Clear 4 1025 60 10000 3.6 280 08:43 06.04.2020
6243 Clear 4 1025 60 10000 3.6 280 08:43 06.04.2020
6244 Clear 4 1025 60 10000 3.6 280 08:43 06.04.2020
6245 Clear 4 1025 60 10000 3.6 280 08:43 06.04.2020
6246 Clear 2 1025 69 10000 4.1 280 07:59 06.04.2020
6247 Clear 2 1025 69 10000 4.1 280 07:59 06.04.2020
6248 Clear 2 1024 69 10000 3.1 250 07:22 06.04.2020
6249 Clear 3 1024 69 10000 4.6 270 06:27 06.04.2020
6250 Clear 3 1023 69 10000 1.5 250 05:47 06.04.2020
6251 Clear 3 1023 69 10000 1.5 250 05:47 06.04.2020
6252 Clear 3 1023 69 10000 1.5 250 05:44 06.04.2020
6253 Clear 2 1023 69 10000 3.1 280 03:56 06.04.2020
6254 Clear 4 1022 60 10000 4.6 260 02:51 06.04.2020
6255 Clear 4 1022 56 10000 5.1 260 01:54 06.04.2020
6256 Clear 5 1022 52 10000 3.6 250 00:54 06.04.2020
6257 Clear 4 1022 56 10000 3.1 250 00:28 06.04.2020
6258 Clear 7 1021 40 10000 2.1 0 23:51 05.04.2020
6259 Clear 7 1021 40 10000 2.1 0 23:33 05.04.2020
6260 Clear 8 1021 47 10000 2.6 60 22:57 05.04.2020
6261 Clear 8 1021 47 10000 4.6 70 22:39 05.04.2020
6262 Clear 9 1020 47 10000 3.6 110 22:21 05.04.2020
6263 Clear 9 1020 47 10000 3.6 110 21:59 05.04.2020
6264 Clear 10 1020 47 10000 4.1 70 21:40 05.04.2020
6265 Clear 12 1020 45 10000 3.6 90 21:22 05.04.2020
6266 Clear 12 1020 45 10000 3.6 90 21:22 05.04.2020
6267 Clear 15 1020 31 10000 3.6 110 20:22 05.04.2020
6268 Clear 15 1019 25 10000 3.6 80 19:43 05.04.2020
6269 Clear 17 1019 24 10000 4.1 80 19:22 05.04.2020
6270 Clear 18 1019 20 10000 4.1 80 18:47 05.04.2020
6271 Clear 17 1018 34 0 1.96 186 18:18 05.04.2020
6272 Clear 19 1019 19 10000 3.1 80 17:42 05.04.2020
6273 Clear 19 1019 19 10000 3.1 80 17:42 05.04.2020
6274 Clear 19 1019 19 10000 3.1 80 17:42 05.04.2020
6275 Clear 18 1019 28 10000 4.6 60 17:21 05.04.2020
6276 Clear 18 1019 28 10000 4.6 60 17:21 05.04.2020
6277 Clear 18 1019 28 10000 4.6 60 17:21 05.04.2020
6278 Clear 19 1019 19 10000 3.1 80 16:47 05.04.2020
6279 Clear 19 1019 19 10000 3.1 80 16:47 05.04.2020
6280 Clear 19 1019 19 10000 3.1 80 16:47 05.04.2020
6281 Clear 18 1019 19 10000 4.6 20 16:18 05.04.2020
6282 Clear 18 1019 22 10000 3.1 80 15:45 05.04.2020
6283 Clear 18 1019 22 10000 3.1 80 15:25 05.04.2020
6284 Clear 18 1020 27 10000 2.6 80 14:48 05.04.2020
6285 Clear 18 1020 27 10000 2.6 80 14:48 05.04.2020
6286 Clear 18 1020 27 10000 2.6 80 14:48 05.04.2020
6287 Clear 18 1020 27 10000 2.6 80 14:48 05.04.2020
6288 Clear 18 1020 27 10000 2.6 80 14:48 05.04.2020
6289 Clear 16 1021 33 10000 1 0 13:59 05.04.2020
6290 Clear 15 1021 26 10000 1.5 60 13:40 05.04.2020
6291 Clear 16 1021 26 10000 1.5 60 13:40 05.04.2020
6292 Clear 16 1021 26 10000 1.5 60 13:40 05.04.2020
6293 Clear 16 1021 26 10000 1.5 60 13:40 05.04.2020
6294 Clear 16 1021 26 10000 1.5 60 13:40 05.04.2020
6295 Clear 12 1023 37 10000 2.1 270 12:00 05.04.2020
6296 Clear 12 1023 37 10000 2.1 270 12:00 05.04.2020
6297 Clear 12 1023 37 10000 2.1 270 12:00 05.04.2020
6298 Clear 12 1024 40 10000 3.6 270 11:39 05.04.2020
6299 Clear 10 1024 46 10000 3.1 260 11:19 05.04.2020
6300 Clear 9 1024 52 10000 4.1 280 10:47 05.04.2020
6301 Clear 9 1024 52 10000 4.1 280 10:47 05.04.2020
6302 Clear 9 1024 52 10000 4.1 280 10:47 05.04.2020
6303 Clear 8 1024 52 10000 4.1 280 10:22 05.04.2020
6304 Clear 5 1025 65 10000 1.5 240 09:52 05.04.2020
6305 Clear 4 1025 69 10000 2.1 280 09:25 05.04.2020
6306 Clear 5 1025 65 10000 1.5 240 09:25 05.04.2020
6307 Clear 5 1025 65 10000 1.5 240 09:25 05.04.2020
6308 Clear 5 1025 65 10000 1.5 240 09:25 05.04.2020
6309 Clear 4 1025 69 10000 2.1 280 09:25 05.04.2020
6310 Clear 2 1025 80 10000 1 260 08:18 05.04.2020
6311 Clear 1 1025 54 10000 1 0 05:37 05.04.2020
6312 Clear 1 1025 54 10000 1 0 05:37 05.04.2020
6313 Clear 1 1025 54 10000 1 0 05:37 05.04.2020
6314 Clear 0 1025 54 10000 1 0 05:37 05.04.2020
6315 Clear 1 1025 54 10000 1 0 05:37 05.04.2020
6316 Clear 0 1025 74 10000 1 230 04:28 05.04.2020
6317 Clear 1 1025 80 10000 1 0 03:24 05.04.2020
6318 Clear 1 1025 74 10000 1 0 01:57 05.04.2020
6319 Clear 2 1025 69 10000 0.5 0 01:39 05.04.2020
6320 Clear 3 1024 60 10000 0.5 0 00:52 05.04.2020
6321 Clear 3 1024 60 10000 0.5 0 00:52 05.04.2020
6322 Clear 4 1024 60 10000 1.5 130 00:23 05.04.2020
6323 Clear 4 1024 53 10000 0.5 0 23:58 04.04.2020
6324 Clear 4 1024 53 10000 0.5 0 23:39 04.04.2020
6325 Clear 5 1024 60 10000 0.5 0 23:21 04.04.2020
6326 Clear 4 1024 60 10000 0.5 0 22:56 04.04.2020
6327 Clear 4 1023 60 10000 0.5 0 22:38 04.04.2020
6328 Clear 6 1023 53 10000 1 0 22:19 04.04.2020
6329 Clear 6 1023 53 10000 1 0 21:56 04.04.2020
6330 Clear 7 1022 49 10000 1.5 360 21:38 04.04.2020
6331 Clouds 10 1022 43 10000 2.1 90 21:18 04.04.2020
6332 Clear 11 1021 43 10000 3.1 40 20:43 04.04.2020
6333 Clouds 11 1021 43 10000 3.1 40 20:23 04.04.2020
6334 Clouds 12 1021 40 10000 3.6 50 19:59 04.04.2020
6335 Clouds 12 1021 40 10000 3.6 50 19:59 04.04.2020
6336 Clouds 13 1020 37 10000 4.6 50 19:40 04.04.2020
6337 Clouds 13 1020 30 10000 5.1 70 19:20 04.04.2020
6338 Clouds 14 1020 30 10000 5.1 70 18:59 04.04.2020
6339 Clouds 15 1020 28 10000 5.1 90 18:39 04.04.2020
6340 Clouds 15 1020 28 10000 5.1 90 18:39 04.04.2020
6341 Clouds 16 1020 26 10000 4.6 60 18:20 04.04.2020
6342 Clouds 16 1020 26 10000 4.6 60 17:58 04.04.2020
6343 Clouds 16 1020 25 10000 4.6 60 17:38 04.04.2020
6344 Clouds 16 1020 26 10000 3.1 0 17:19 04.04.2020
6345 Clouds 16 1020 29 10000 3.1 40 16:45 04.04.2020
6346 Clouds 16 1020 29 10000 3.1 40 16:27 04.04.2020
6347 Clouds 16 1020 31 10000 2.1 110 15:59 04.04.2020
6348 Clouds 16 1020 31 10000 1.5 0 15:39 04.04.2020
6349 Clouds 16 1020 29 10000 1.5 0 15:19 04.04.2020
6350 Clouds 16 1020 29 10000 1.5 0 15:19 04.04.2020
6351 Clouds 16 1020 29 10000 1.5 0 14:54 04.04.2020
6352 Clouds 13 1020 28 10000 2.1 100 14:36 04.04.2020
6353 Clouds 13 1021 33 10000 2.6 0 14:18 04.04.2020
6354 Clouds 13 1021 37 10000 2.6 100 13:41 04.04.2020
6355 Clouds 12 1021 31 10000 3.1 60 13:21 04.04.2020
6356 Clouds 12 1021 31 10000 3.1 60 12:58 04.04.2020
6357 Clouds 11 1022 40 10000 1.5 0 12:39 04.04.2020
6358 Clouds 10 1022 39 10000 1.5 0 12:20 04.04.2020
6359 Clouds 9 1022 39 10000 1 0 11:41 04.04.2020
6360 Clouds 9 1022 39 10000 1 0 11:23 04.04.2020
6361 Clouds 8 1023 45 10000 1 0 10:59 04.04.2020
6362 Clouds 8 1023 39 10000 1.5 260 10:40 04.04.2020
6363 Clouds 7 1023 39 10000 1.5 260 10:22 04.04.2020
6364 Clouds 6 1023 56 10000 1 0 09:56 04.04.2020
6365 Clouds 6 1023 60 10000 0.5 0 09:38 04.04.2020
6366 Clouds 3 1023 54 10000 1 0 09:20 04.04.2020
6367 Clouds 2 1022 74 10000 0.5 0 08:43 04.04.2020
6368 Clouds 1 1022 74 10000 0.5 0 08:23 04.04.2020
6369 Clouds 1 1022 74 10000 1 270 07:57 04.04.2020
6370 Clouds 1 1022 54 10000 0.5 0 07:38 04.04.2020
6371 Clouds 1 1021 54 10000 0.5 0 07:20 04.04.2020
6372 Clouds 2 1021 80 10000 0.44 153 06:29 04.04.2020
6373 Clouds 1 1021 74 10000 1 190 05:52 04.04.2020
6374 Clouds 1 1021 74 10000 1 190 05:32 04.04.2020
6375 Clouds 1 1020 69 10000 0.5 0 04:34 04.04.2020
6376 Clouds 2 1020 69 10000 0.5 0 03:56 04.04.2020
6377 Clouds 2 1020 69 10000 0.5 0 03:36 04.04.2020
6378 Clouds 3 1020 60 10000 1 0 02:46 04.04.2020
6379 Clouds 3 1020 60 10000 1 0 02:25 04.04.2020
6380 Clouds 4 1019 60 10000 1 0 01:31 04.04.2020
6381 Clouds 5 1019 57 10000 1 0 00:59 04.04.2020
6382 Clouds 7 1019 57 10000 0.5 0 00:35 04.04.2020
6383 Clouds 7 1019 55 10000 1 0 23:59 03.04.2020
6384 Clouds 8 1018 55 10000 1 0 23:38 03.04.2020
6385 Clouds 8 1018 49 10000 1 0 23:19 03.04.2020
6386 Clouds 10 1018 46 10000 2.1 100 22:41 03.04.2020
6387 Clouds 10 1017 46 10000 3.6 60 22:19 03.04.2020
6388 Clouds 10 1017 46 10000 3.6 60 21:59 03.04.2020
6389 Clouds 10 1017 46 10000 4.1 50 21:40 03.04.2020
6390 Clouds 10 1017 46 10000 4.1 50 21:21 03.04.2020
6391 Clouds 11 1017 43 10000 4.6 50 20:56 03.04.2020
6392 Clouds 11 1016 43 10000 5.1 50 20:36 03.04.2020
6393 Clouds 11 1015 43 10000 6.7 40 20:18 03.04.2020
6394 Clouds 11 1015 43 10000 6.7 40 19:55 03.04.2020
6395 Clouds 12 1015 37 10000 6.2 50 19:36 03.04.2020
6396 Clouds 13 1014 35 10000 6.7 70 19:18 03.04.2020
6397 Clouds 13 1014 35 10000 6.7 70 18:57 03.04.2020
6398 Clouds 13 1014 35 10000 5.1 50 18:39 03.04.2020
6399 Clouds 13 1013 32 10000 5.1 80 18:21 03.04.2020
6400 Clouds 14 1013 30 10000 5.7 60 17:41 03.04.2020
6401 Clouds 14 1013 28 10000 3.6 40 17:20 03.04.2020
6402 Clouds 14 1012 26 10000 3.1 350 16:56 03.04.2020
6403 Clouds 14 1012 26 10000 3.1 350 16:37 03.04.2020
6404 Clouds 15 1012 28 10000 2.1 0 16:19 03.04.2020
6405 Clouds 15 1012 28 10000 2.1 0 15:56 03.04.2020
6406 Clouds 14 1012 30 10000 3.6 80 15:37 03.04.2020
6407 Clouds 15 1013 28 10000 2.1 0 15:19 03.04.2020
6408 Clouds 13 1014 32 10000 1 0 14:40 03.04.2020
6409 Clouds 13 1014 32 10000 1 0 14:22 03.04.2020
6410 Clouds 13 1014 32 10000 1 0 13:57 03.04.2020
6411 Clouds 13 1014 32 10000 1 0 13:37 03.04.2020
6412 Clouds 13 1014 35 10000 1.5 0 13:18 03.04.2020
6413 Clouds 12 1014 37 10000 2.1 50 12:43 03.04.2020
6414 Clouds 11 1014 37 10000 2.1 70 12:20 03.04.2020
6415 Clouds 10 1015 43 10000 2.6 50 11:56 03.04.2020
6416 Clouds 10 1015 43 10000 2.6 50 11:37 03.04.2020
6417 Clouds 9 1015 49 10000 1.5 0 11:18 03.04.2020
6418 Clouds 9 1015 49 10000 1.5 0 10:57 03.04.2020
6419 Clouds 7 1015 46 10000 1 0 10:38 03.04.2020
6420 Clouds 7 1015 46 10000 1 0 10:20 03.04.2020
6421 Clouds 7 1015 46 10000 1 0 10:20 03.04.2020
6422 Clouds 6 1015 46 10000 1 0 09:57 03.04.2020
6423 Clouds 5 1015 46 10000 1 0 09:39 03.04.2020
6424 Clouds 5 1015 46 10000 1 0 09:39 03.04.2020
6425 Clouds 4 1014 65 10000 0.5 0 09:21 03.04.2020
6426 Clouds 3 1014 65 10000 0.5 0 08:55 03.04.2020
6427 Clouds 2 1014 58 10000 0.5 0 08:36 03.04.2020
6428 Clouds 1 1014 86 10000 1 0 08:18 03.04.2020
6429 Clouds 0 1014 86 10000 0.5 0 07:41 03.04.2020
6430 Clouds 1 1013 80 10000 1.5 320 07:23 03.04.2020
6431 Clouds 1 1013 80 10000 1 0 06:34 03.04.2020
6432 Clouds 0 1013 80 10000 0.5 0 05:43 03.04.2020
6433 Clouds 0 1012 80 10000 1 0 05:21 03.04.2020
6434 Clouds 1 1012 80 10000 1.5 260 03:37 03.04.2020
6435 Clouds 1 1012 74 10000 0.5 0 02:53 03.04.2020
6436 Clouds 1 1012 74 10000 1.5 280 01:36 03.04.2020
6437 Clouds 2 1011 69 10000 1 270 01:18 03.04.2020
6438 Clouds 2 1011 69 10000 0.5 0 00:34 03.04.2020
6439 Clouds 3 1011 65 10000 0.5 0 23:57 02.04.2020
6440 Clouds 3 1011 65 10000 1 0 23:39 02.04.2020
6441 Clouds 3 1011 60 10000 0.5 0 23:19 02.04.2020
6442 Clouds 5 1010 52 10000 1 0 22:43 02.04.2020
6443 Clouds 5 1010 52 10000 1 0 22:25 02.04.2020
6444 Clouds 8 1010 49 10000 2.1 260 21:59 02.04.2020
6445 Clouds 9 1010 49 10000 2.1 260 21:37 02.04.2020
6446 Clouds 7 1009 52 10000 3.1 280 21:19 02.04.2020
6447 Clouds 7 1009 52 10000 3.1 280 20:55 02.04.2020
6448 Clouds 10 1009 46 10000 1.5 0 20:37 02.04.2020
6449 Clouds 9 1008 37 10000 4.6 70 20:18 02.04.2020
6450 Clouds 13 1008 35 10000 6.2 80 19:42 02.04.2020
6451 Clouds 12 1008 33 10000 5.7 70 19:20 02.04.2020
6452 Clouds 12 1008 33 10000 5.7 70 19:20 02.04.2020
6453 Clouds 12 1007 26 10000 5.7 70 18:56 02.04.2020
6454 Clouds 15 1007 26 10000 5.7 70 18:38 02.04.2020
6455 Clouds 13 1007 26 10000 4.1 40 18:19 02.04.2020
6456 Clouds 14 1007 19 10000 2.1 70 17:44 02.04.2020
6457 Clouds 14 1007 19 10000 2.1 70 17:26 02.04.2020
6458 Clouds 14 1007 20 10000 1 0 16:59 02.04.2020
6459 Clouds 14 1007 19 10000 1 0 16:41 02.04.2020
6460 Clouds 14 1007 19 10000 1 0 16:22 02.04.2020
6461 Clouds 15 1008 19 10000 1.5 0 15:59 02.04.2020
6462 Clouds 15 1008 19 10000 1.5 0 15:59 02.04.2020
6463 Clouds 14 1008 21 10000 1 0 15:40 02.04.2020
6464 Clear 14 1008 26 10000 1 0 15:20 02.04.2020
6465 Clear 13 1008 26 10000 1 0 14:58 02.04.2020
6466 Clear 13 1009 26 10000 1 0 14:39 02.04.2020
6467 Clear 12 1010 28 10000 1 0 14:19 02.04.2020
6468 Clear 12 1010 28 10000 1.5 240 13:55 02.04.2020
6469 Clear 12 1010 28 10000 1.5 240 13:37 02.04.2020
6470 Clear 11 1011 32 10000 1 0 13:19 02.04.2020
6471 Clear 10 1011 34 10000 1 0 12:46 02.04.2020
6472 Clear 9 1012 36 10000 1 0 12:20 02.04.2020
6473 Clear 9 1012 36 10000 1 0 12:20 02.04.2020
6474 Clear 8 1012 36 10000 1 0 11:58 02.04.2020
6475 Clear 8 1012 42 10000 2.1 280 11:39 02.04.2020
6476 Clear 8 1012 42 10000 2.1 280 11:39 02.04.2020
6477 Clear 8 1012 42 10000 2.1 280 11:39 02.04.2020
6478 Clear 6 1013 45 10000 1.5 0 11:21 02.04.2020
6479 Clear 6 1013 45 10000 1.5 0 10:57 02.04.2020
6480 Clear 5 1013 56 10000 1.5 250 10:39 02.04.2020
6481 Clear 4 1014 59 10000 2.1 260 10:21 02.04.2020
6482 Clear 3 1014 59 10000 2.1 260 09:59 02.04.2020
6483 Clear 2 1014 69 10000 2.1 260 09:41 02.04.2020
6484 Clear 0 1014 69 10000 1.5 250 09:22 02.04.2020
6485 Clear -1 1015 56 10000 0.5 0 08:48 02.04.2020
6486 Clear -2 1014 80 10000 1 250 08:29 02.04.2020
6487 Clear -3 1014 80 10000 1 250 07:59 02.04.2020
6488 Clear -2 1014 79 10000 0.5 0 07:41 02.04.2020
6489 Clear -2 1014 79 10000 1 250 07:19 02.04.2020
6490 Clear -3 1014 79 10000 1 260 06:25 02.04.2020
6491 Clear -4 1014 86 10000 1 280 05:46 02.04.2020
6492 Clear -4 1014 79 10000 1 0 05:18 02.04.2020
6493 Clear -2 1015 65 10000 1 270 02:26 02.04.2020
6494 Clear -2 1015 65 10000 0.5 0 01:28 02.04.2020
6495 Clear -1 1016 69 10000 1.5 280 00:42 02.04.2020
6496 Clear -1 1016 69 10000 0.5 0 00:22 02.04.2020
6497 Clear -1 1016 69 10000 1.5 0 23:40 01.04.2020
6498 Clear 0 1015 64 10000 1 0 23:20 01.04.2020
6499 Clear 0 1015 64 10000 1 0 22:57 01.04.2020
6500 Clear 1 1015 59 10000 1.5 230 22:38 01.04.2020
6501 Clear 1 1015 64 10000 2.1 270 22:20 01.04.2020
6502 Clear 2 1015 52 10000 2.6 250 21:42 01.04.2020
6503 Clouds 4 1015 52 10000 2.6 320 21:19 01.04.2020
6504 Clouds 4 1015 52 10000 2.6 320 20:57 01.04.2020
6505 Clouds 7 1014 42 10000 1.5 0 20:39 01.04.2020
6506 Clouds 6 1014 33 10000 3.1 70 20:20 01.04.2020
6507 Clouds 9 1013 34 10000 3.6 60 19:59 01.04.2020
6508 Clouds 9 1013 34 10000 3.6 60 19:40 01.04.2020
6509 Clouds 8 1013 31 10000 4.1 80 19:19 01.04.2020
6510 Clouds 11 1013 27 10000 4.1 70 18:44 01.04.2020
6511 Clouds 12 1013 23 10000 3.6 70 18:25 01.04.2020
6512 Clouds 12 1013 25 10000 4.1 60 17:58 01.04.2020
6513 Clouds 11 1013 25 10000 4.1 60 17:38 01.04.2020
6514 Clouds 11 1014 25 10000 3.6 70 17:19 01.04.2020
6515 Clouds 11 1014 25 10000 3.6 70 16:58 01.04.2020
6516 Clouds 11 1014 25 10000 3.6 100 16:39 01.04.2020
6517 Clouds 11 1014 29 10000 2.6 120 16:21 01.04.2020
6518 Clouds 10 1015 29 10000 2.6 0 15:57 01.04.2020
6519 Clouds 10 1014 29 10000 2.6 120 15:57 01.04.2020
6520 Clouds 10 1015 29 10000 2.6 0 15:37 01.04.2020
6521 Clear 10 1015 27 10000 2.1 160 15:18 01.04.2020
6522 Clear 9 1015 27 10000 2.1 160 14:55 01.04.2020
6523 Clear 9 1015 27 10000 2.1 160 14:55 01.04.2020
6524 Clear 8 1016 34 10000 2.1 160 14:36 01.04.2020
6525 Clear 8 1016 34 10000 2.1 0 14:18 01.04.2020
6526 Clear 8 1016 34 10000 2.1 0 13:55 01.04.2020
6527 Clear 7 1017 36 10000 1 0 13:36 01.04.2020
6528 Clear 6 1018 42 10000 1 0 13:18 01.04.2020
6529 Clear 5 1018 41 10000 1.5 0 12:42 01.04.2020
6530 Clear 5 1018 41 10000 1.5 0 12:23 01.04.2020
6531 Clear 4 1019 41 10000 1 0 11:59 01.04.2020
6532 Clear 4 1020 51 10000 1.5 280 11:39 01.04.2020
6533 Clouds 3 1020 51 10000 2.1 260 11:20 01.04.2020
6534 Clouds 2 1021 55 10000 2.1 230 10:41 01.04.2020
6535 Clouds 1 1021 55 10000 2.1 230 10:22 01.04.2020
6536 Clouds 0 1021 40 10000 2.1 290 09:59 01.04.2020
6537 Clouds -1 1021 68 10000 1.5 260 09:40 01.04.2020
6538 Clouds -2 1022 68 10000 1.5 260 09:21 01.04.2020
6539 Clouds -3 1022 68 10000 1.5 260 08:57 01.04.2020
6540 Clear -5 1022 74 10000 1.5 260 08:38 01.04.2020
6541 Clear -5 1022 79 10000 1.5 270 08:18 01.04.2020
6542 Clear -6 1022 79 10000 0.5 0 07:41 01.04.2020
6543 Clear -6 1022 79 10000 1.5 270 07:19 01.04.2020
6544 Clear -6 1022 79 10000 1 0 06:47 01.04.2020
6545 Clouds -6 1022 79 10000 1 0 06:21 01.04.2020
6546 Clear -6 1022 73 10000 1.5 270 05:50 01.04.2020
6547 Clear -6 1022 79 10000 0.5 0 04:29 01.04.2020
6548 Clouds -5 1023 79 10000 1 0 03:20 01.04.2020
6549 Clouds -4 1023 79 10000 0.5 0 02:37 01.04.2020
6550 Clear -4 1023 74 10000 1 0 01:53 01.04.2020
6551 Clear -4 1023 74 10000 0.5 0 01:27 01.04.2020
6552 Clear -3 1024 68 10000 1.05 171 00:47 01.04.2020
6553 Clear -1 1024 68 10000 0.5 0 00:23 01.04.2020
6554 Clouds -1 1024 68 10000 0.5 0 23:59 31.03.2020
6555 Clouds -1 1024 68 10000 0.5 0 23:40 31.03.2020
6556 Clouds -1 1024 81 10000 1 0 23:21 31.03.2020
6557 Clouds 0 1024 81 10000 0.5 0 22:41 31.03.2020
6558 Clouds 0 1024 59 10000 0.5 0 22:21 31.03.2020
6559 Clouds 1 1024 55 10000 2.1 20 21:58 31.03.2020
6560 Clouds 1 1024 55 10000 2.1 20 21:40 31.03.2020
6561 Clouds 1 1024 55 10000 2.1 20 21:40 31.03.2020
6562 Clouds 0 1024 59 10000 1.5 30 21:21 31.03.2020
6563 Clouds 3 1023 47 10000 3.1 60 20:57 31.03.2020
6564 Clouds 3 1023 47 10000 3.1 60 20:57 31.03.2020
6565 Clouds 3 1023 47 10000 3.1 60 20:37 31.03.2020
6566 Clouds 1 1023 47 10000 3.1 60 20:19 31.03.2020
6567 Clouds 1 1023 47 10000 3.1 60 20:19 31.03.2020
6568 Clouds 2 1023 44 10000 4.1 60 19:56 31.03.2020
6569 Clouds 2 1023 44 10000 4.1 60 19:38 31.03.2020
6570 Clouds 2 1023 44 10000 3.6 70 19:19 31.03.2020
6571 Clouds 3 1022 48 10000 3.1 60 18:44 31.03.2020
6572 Clouds 3 1022 48 10000 2.6 60 18:20 31.03.2020
6573 Clouds 3 1022 44 10000 3.6 120 17:57 31.03.2020
6574 Clouds 3 1022 44 10000 3.6 120 17:39 31.03.2020
6575 Clouds 3 1022 44 10000 3.6 120 17:39 31.03.2020
6576 Clouds 3 1022 48 10000 4.1 90 17:21 31.03.2020
6577 Clouds 4 1022 48 10000 3.6 70 16:56 31.03.2020
6578 Clouds 4 1022 48 10000 3.6 70 16:36 31.03.2020
6579 Clouds 4 1022 41 10000 2.1 90 16:18 31.03.2020
6580 Clouds 4 1022 41 10000 2.1 90 15:55 31.03.2020
6581 Clouds 4 1022 41 10000 3.1 330 15:36 31.03.2020
6582 Clouds 4 1022 41 10000 3.1 50 15:18 31.03.2020
6583 Clouds 3 1023 41 10000 4.1 70 14:42 31.03.2020
6584 Clouds 4 1023 38 10000 3.1 60 14:22 31.03.2020
6585 Clouds 4 1023 38 10000 3.1 60 13:58 31.03.2020
6586 Clouds 4 1023 38 10000 2.6 0 13:40 31.03.2020
6587 Clouds 4 1023 38 10000 3.1 60 13:19 31.03.2020
6588 Clouds 4 1023 38 10000 3.1 60 13:19 31.03.2020
6589 Clouds 3 1023 48 10000 1 0 12:45 31.03.2020
6590 Clouds 3 1024 51 10000 1.5 0 12:20 31.03.2020
6591 Clouds 2 1024 64 10000 1.5 0 11:56 31.03.2020
6592 Clouds 1 1024 64 10000 1.5 0 11:37 31.03.2020
6593 Clouds 1 1024 64 10000 1 0 11:19 31.03.2020
6594 Clouds 0 1025 64 10000 1 0 10:55 31.03.2020
6595 Clouds 0 1024 64 10000 1 0 10:55 31.03.2020
6596 Clouds -1 1025 64 10000 1 0 10:37 31.03.2020
6597 Clouds 0 1025 54 10000 1 0 10:18 31.03.2020
6598 Clouds -2 1025 68 10000 1 0 09:43 31.03.2020
6599 Clouds -3 1025 68 10000 0.5 0 09:25 31.03.2020
6600 Clouds -4 1025 68 10000 0.5 0 08:58 31.03.2020
6601 Clouds -4 1025 68 10000 0.5 0 08:58 31.03.2020
6602 Clouds -5 1024 79 10000 0.5 0 08:40 31.03.2020
6603 Clouds -6 1024 73 10000 1 0 08:20 31.03.2020
6604 Clouds -6 1024 73 10000 1 0 07:57 31.03.2020
6605 Clouds -7 1024 85 10000 0.5 0 07:38 31.03.2020
6606 Clouds -7 1024 85 10000 0.5 0 07:20 31.03.2020
6607 Clouds -7 1024 85 10000 0.5 0 06:51 31.03.2020
6608 Clouds -7 1024 85 10000 0.5 0 06:31 31.03.2020
6609 Clouds -6 1024 79 10000 1 0 05:41 31.03.2020
6610 Clouds -6 1023 86 10000 1 350 03:57 31.03.2020
6611 Clouds -5 1023 74 10000 2.6 60 02:30 31.03.2020
6612 Clouds -4 1023 68 10000 2.6 60 01:46 31.03.2020
6613 Clouds -3 1023 81 10000 1 190 00:52 31.03.2020
6614 Clouds -3 1023 83 10000 0.5 0 00:25 31.03.2020
6615 Clouds -3 1023 83 10000 0.5 0 23:59 30.03.2020
6616 Clouds -2 1023 64 10000 1.5 80 23:38 30.03.2020
6617 Clouds -1 1023 83 10000 0.5 0 23:19 30.03.2020
6618 Clouds -3 1023 83 10000 0.5 0 22:56 30.03.2020
6619 Clouds 0 1023 86 10000 1.5 270 22:37 30.03.2020
6620 Clouds 0 1023 86 10000 1.5 270 22:37 30.03.2020
6621 Clouds -2 1023 86 10000 2.1 290 22:18 30.03.2020
6622 Clouds 0 1023 86 10000 2.1 290 21:55 30.03.2020
6623 Clouds 0 1023 86 10000 2.6 270 21:37 30.03.2020
6624 Clouds -1 1022 73 10000 2.6 270 21:18 30.03.2020
6625 Snow 0 1022 86 10000 2.6 280 20:42 30.03.2020
6626 Snow -1 1021 86 10000 2.1 0 20:24 30.03.2020
6627 Snow -1 1021 86 10000 2.1 0 19:59 30.03.2020
6628 Snow 0 1021 73 10000 3.6 280 19:40 30.03.2020
6629 Snow 1 1021 80 10000 2.6 280 19:22 30.03.2020
6630 Snow 1 1021 80 10000 2.6 280 18:57 30.03.2020
6631 Snow 1 1020 80 10000 3.1 100 18:38 30.03.2020
6632 Clouds 1 1020 60 10000 2.1 250 18:20 30.03.2020
6633 Clouds 1 1020 60 10000 2.1 250 17:57 30.03.2020
6634 Clouds 0 1020 60 10000 1.5 270 17:38 30.03.2020
6635 Rain 1 1020 60 10000 2.1 270 17:19 30.03.2020
6636 Rain 1 1019 60 10000 1.5 300 16:55 30.03.2020
6637 Rain 1 1019 60 10000 1.5 300 16:37 30.03.2020
6638 Rain 1 1019 60 10000 1.5 300 16:37 30.03.2020
6639 Clouds 1 1020 74 10000 1 0 16:18 30.03.2020
6640 Clouds 1 1020 74 10000 1 0 15:54 30.03.2020
6641 Clouds 2 1020 74 10000 1 0 15:36 30.03.2020
6642 Snow 2 1020 69 10000 2.1 40 15:18 30.03.2020
6643 Clouds 2 1020 69 10000 2.6 40 14:39 30.03.2020
6644 Clouds 2 1020 69 10000 2.6 40 14:19 30.03.2020
6645 Clouds 2 1020 69 10000 2.6 40 13:59 30.03.2020
6646 Clouds 1 1020 57 10000 2.6 40 13:40 30.03.2020
6647 Clouds 1 1020 80 10000 4.6 80 13:20 30.03.2020
6648 Clouds 1 1020 80 10000 4.6 80 12:55 30.03.2020
6649 Clouds 1 1020 74 10000 4.1 80 12:36 30.03.2020
6650 Snow 1 1020 60 10000 3.6 30 12:18 30.03.2020
6651 Snow 1 1020 60 10000 3.6 30 12:18 30.03.2020
6652 Snow 0 1021 60 10000 4.1 80 11:55 30.03.2020
6653 Snow 0 1021 60 10000 4.1 80 11:37 30.03.2020
6654 Clouds 0 1021 60 10000 2.6 50 11:18 30.03.2020
6655 Clouds 0 1021 80 10000 2.6 70 10:39 30.03.2020
6656 Clouds 0 1021 80 10000 2.6 70 10:21 30.03.2020
6657 Rain 0 1020 60 10000 2.1 100 09:54 30.03.2020
6658 Rain 0 1020 60 10000 2.1 100 09:36 30.03.2020
6659 Rain 0 1020 66 10000 1.5 150 09:18 30.03.2020
6660 Rain 0 1020 93 10000 1.5 280 08:40 30.03.2020
6661 Rain -1 1020 93 10000 2.1 270 08:21 30.03.2020
6662 Rain -1 1019 93 10000 1 0 07:48 30.03.2020
6663 Clouds 0 1019 93 10000 2.1 270 07:25 30.03.2020
6664 Rain 0 1019 93 10000 2.6 280 06:47 30.03.2020
6665 Clouds 0 1019 93 10000 2.1 280 06:29 30.03.2020
6666 Rain 0 1019 93 10000 2.6 290 05:46 30.03.2020
6667 Rain 0 1019 93 10000 1 0 04:40 30.03.2020
6668 Rain 1 1019 86 10000 2.6 260 04:20 30.03.2020
6669 Rain 1 1019 93 10000 3.6 290 03:19 30.03.2020
6670 Drizzle 1 1019 93 9000 2.6 260 01:59 30.03.2020
6671 Rain 1 1018 93 9000 3.1 280 01:24 30.03.2020
6672 Rain 2 1018 93 6000 3.6 300 00:30 30.03.2020
6673 Rain 2 1018 86 7000 2.6 270 23:59 29.03.2020
6674 Rain 2 1018 93 7000 1 0 23:40 29.03.2020
6675 Rain 3 1018 86 6000 2.1 240 23:21 29.03.2020
6676 Rain 3 1018 86 6000 2.1 240 22:55 29.03.2020
6677 Rain 2 1018 86 7000 2.1 310 22:37 29.03.2020
6678 Rain 3 1017 86 7000 2.6 320 22:18 29.03.2020
6679 Rain 3 1017 86 7000 2.1 330 21:39 29.03.2020
6680 Rain 3 1017 87 6000 1.5 0 21:20 29.03.2020
6681 Rain 3 1017 87 6000 1.5 0 20:56 29.03.2020
6682 Rain 4 1016 81 8000 2.1 30 20:37 29.03.2020
6683 Rain 4 1016 70 10000 4.1 70 20:19 29.03.2020
6684 Rain 4 1015 70 10000 5.1 60 19:57 29.03.2020
6685 Rain 5 1015 70 10000 5.1 60 19:39 29.03.2020
6686 Rain 6 1015 61 10000 1.5 0 19:21 29.03.2020
6687 Rain 6 1014 61 10000 3.1 0 18:57 29.03.2020
6688 Rain 6 1014 61 10000 3.1 0 18:38 29.03.2020
6689 Rain 7 1014 57 10000 4.6 70 18:19 29.03.2020
6690 Rain 7 1014 57 10000 4.6 70 18:19 29.03.2020
6691 Rain 7 1013 53 10000 5.1 80 17:56 29.03.2020
6692 Rain 7 1013 53 10000 5.1 80 17:38 29.03.2020
6693 Clouds 8 1013 53 10000 5.7 80 17:18 29.03.2020
6694 Clouds 8 1013 53 10000 5.7 80 16:56 29.03.2020
6695 Clouds 8 1013 50 10000 5.7 80 16:38 29.03.2020
6696 Clouds 8 1013 50 10000 6.2 60 16:18 29.03.2020
6697 Clouds 10 1013 53 10000 6.2 60 15:41 29.03.2020
6698 Clouds 10 1013 53 10000 6.2 60 15:41 29.03.2020
6699 Clouds 9 1014 50 10000 6.2 70 15:23 29.03.2020
6700 Clouds 10 1014 50 10000 6.2 70 14:58 29.03.2020
6701 Clouds 10 1014 53 10000 6.2 70 14:40 29.03.2020
6702 Clouds 10 1014 53 10000 6.2 60 14:20 29.03.2020
6703 Clouds 10 1014 53 10000 6.2 60 13:57 29.03.2020
6704 Clouds 10 1014 57 10000 6.2 70 13:39 29.03.2020
6705 Clouds 9 1014 54 10000 5.1 80 13:20 29.03.2020
6706 Clouds 8 1014 57 10000 5.1 100 12:55 29.03.2020
6707 Clouds 8 1014 57 10000 5.1 100 12:37 29.03.2020
6708 Clouds 9 1015 54 10000 4.1 80 12:19 29.03.2020
6709 Clouds 8 1015 53 10000 4.6 80 11:55 29.03.2020
6710 Clouds 8 1015 53 10000 4.6 80 11:36 29.03.2020
6711 Clouds 7 1015 57 10000 4.6 80 11:18 29.03.2020
6712 Clouds 6 1015 57 10000 0.5 0 10:38 29.03.2020
6713 Clouds 5 1015 70 10000 2.1 260 10:19 29.03.2020
6714 Clouds 5 1016 75 10000 2.1 270 09:41 29.03.2020
6715 Clouds 4 1016 80 10000 1.5 260 09:22 29.03.2020
6716 Clouds 3 1016 80 10000 1.5 260 08:54 29.03.2020
6717 Clouds 4 1016 54 10000 1.5 260 08:36 29.03.2020
6718 Clouds 3 1016 54 100